<?xml version="1.0" encoding="utf-8"?>
<gpx xmlns:tc2="http://www.garmin.com/xmlschemas/TrainingCenterDatabase/v2" xmlns:xsi="http://www.w3.org/2001/XMLSchema-instance" xmlns:tp1="http://www.garmin.com/xmlschemas/TrackPointExtension/v1" xmlns="http://www.topografix.com/GPX/1/1" version="1.1" creator="TC2 to GPX11 XSLT stylesheet" xsi:schemaLocation="http://www.topografix.com/GPX/1/1 http://www.topografix.com/GPX/1/1/gpx.xsd http://www.garmin.com/xmlschemas/TrackPointExtension/v1 http://www.garmin.com/xmlschemas/TrackPointExtensionv1.xsd">
<trk>
<name>2012-04-13T10:08:49Z</name>
<trkseg>
<trkpt lat="50.7239100" lon="7.0143750">
<ele>175.7100000</ele>
<time>2012-04-13T10:08:49Z</time>
<extensions>
<tp1:TrackPointExtension>
<tp1:hr>108</tp1:hr>
</tp1:TrackPointExtension>
</extensions>
</trkpt>
<trkpt lat="50.7239180" lon="7.0143580">
<ele>175.7100000</ele>
<time>2012-04-13T10:08:50Z</time>
<extensions>
<tp1:TrackPointExtension>
<tp1:hr>107</tp1:hr>
</tp1:TrackPointExtension>
</extensions>
</trkpt>
<trkpt lat="50.7238830" lon="7.0143750">
<ele>176.1340000</ele>
<time>2012-04-13T10:08:54Z</time>
<extensions>
<tp1:TrackPointExtension>
<tp1:hr>104</tp1:hr>
</tp1:TrackPointExtension>
</extensions>
</trkpt>
<trkpt lat="50.7239090" lon="7.0143940">
<ele>175.3210000</ele>
<time>2012-04-13T10:08:55Z</time>
<extensions>
<tp1:TrackPointExtension>
<tp1:hr>104</tp1:hr>
</tp1:TrackPointExtension>
</extensions>
</trkpt>
<trkpt lat="50.7241260" lon="7.0145340">
<ele>173.9560000</ele>
<time>2012-04-13T10:09:00Z</time>
<extensions>
<tp1:TrackPointExtension>
<tp1:hr>105</tp1:hr>
</tp1:TrackPointExtension>
</extensions>
</trkpt>
<trkpt lat="50.7241980" lon="7.0145590">
<ele>174.6480000</ele>
<time>2012-04-13T10:09:01Z</time>
<extensions>
<tp1:TrackPointExtension>
<tp1:hr>106</tp1:hr>
</tp1:TrackPointExtension>
</extensions>
</trkpt>
<trkpt lat="50.7243370" lon="7.0146670">
<ele>174.1070000</ele>
<time>2012-04-13T10:09:03Z</time>
<extensions>
<tp1:TrackPointExtension>
<tp1:hr>107</tp1:hr>
</tp1:TrackPointExtension>
</extensions>
</trkpt>
<trkpt lat="50.7246490" lon="7.0149660">
<ele>171.1770000</ele>
<time>2012-04-13T10:09:07Z</time>
<extensions>
<tp1:TrackPointExtension>
<tp1:hr>107</tp1:hr>
</tp1:TrackPointExtension>
</extensions>
</trkpt>
<trkpt lat="50.7250520" lon="7.0154980">
<ele>166.4000000</ele>
<time>2012-04-13T10:09:12Z</time>
<extensions>
<tp1:TrackPointExtension>
<tp1:hr>104</tp1:hr>
</tp1:TrackPointExtension>
</extensions>
</trkpt>
<trkpt lat="50.7252690" lon="7.0158440">
<ele>163.8830000</ele>
<time>2012-04-13T10:09:15Z</time>
<extensions>
<tp1:TrackPointExtension>
<tp1:hr>101</tp1:hr>
</tp1:TrackPointExtension>
</extensions>
</trkpt>
<trkpt lat="50.7253770" lon="7.0160870">
<ele>163.0330000</ele>
<time>2012-04-13T10:09:17Z</time>
<extensions>
<tp1:TrackPointExtension>
<tp1:hr>99</tp1:hr>
</tp1:TrackPointExtension>
</extensions>
</trkpt>
<trkpt lat="50.7254840" lon="7.0164860">
<ele>160.6310000</ele>
<time>2012-04-13T10:09:20Z</time>
<extensions>
<tp1:TrackPointExtension>
<tp1:hr>98</tp1:hr>
</tp1:TrackPointExtension>
</extensions>
</trkpt>
<trkpt lat="50.7258000" lon="7.0171750">
<ele>155.1420000</ele>
<time>2012-04-13T10:09:25Z</time>
<extensions>
<tp1:TrackPointExtension>
<tp1:hr>95</tp1:hr>
</tp1:TrackPointExtension>
</extensions>
</trkpt>
<trkpt lat="50.7258660" lon="7.0172890">
<ele>153.7040000</ele>
<time>2012-04-13T10:09:26Z</time>
<extensions>
<tp1:TrackPointExtension>
<tp1:hr>95</tp1:hr>
</tp1:TrackPointExtension>
</extensions>
</trkpt>
<trkpt lat="50.7259050" lon="7.0176490">
<ele>148.0510000</ele>
<time>2012-04-13T10:09:30Z</time>
<extensions>
<tp1:TrackPointExtension>
<tp1:hr>94</tp1:hr>
</tp1:TrackPointExtension>
</extensions>
</trkpt>
<trkpt lat="50.7257510" lon="7.0180210">
<ele>144.8930000</ele>
<time>2012-04-13T10:09:33Z</time>
<extensions>
<tp1:TrackPointExtension>
<tp1:hr>94</tp1:hr>
</tp1:TrackPointExtension>
</extensions>
</trkpt>
<trkpt lat="50.7257180" lon="7.0185350">
<ele>142.3470000</ele>
<time>2012-04-13T10:09:36Z</time>
<extensions>
<tp1:TrackPointExtension>
<tp1:hr>95</tp1:hr>
</tp1:TrackPointExtension>
</extensions>
</trkpt>
<trkpt lat="50.7257350" lon="7.0186900">
<ele>141.3420000</ele>
<time>2012-04-13T10:09:37Z</time>
<extensions>
<tp1:TrackPointExtension>
<tp1:hr>95</tp1:hr>
</tp1:TrackPointExtension>
</extensions>
</trkpt>
<trkpt lat="50.7259080" lon="7.0190590">
<ele>136.8190000</ele>
<time>2012-04-13T10:09:42Z</time>
<extensions>
<tp1:TrackPointExtension>
<tp1:hr>93</tp1:hr>
</tp1:TrackPointExtension>
</extensions>
</trkpt>
<trkpt lat="50.7260800" lon="7.0192050">
<ele>134.6810000</ele>
<time>2012-04-13T10:09:44Z</time>
<extensions>
<tp1:TrackPointExtension>
<tp1:hr>92</tp1:hr>
</tp1:TrackPointExtension>
</extensions>
</trkpt>
<trkpt lat="50.7262860" lon="7.0197260">
<ele>130.8560000</ele>
<time>2012-04-13T10:09:48Z</time>
<extensions>
<tp1:TrackPointExtension>
<tp1:hr>93</tp1:hr>
</tp1:TrackPointExtension>
</extensions>
</trkpt>
<trkpt lat="50.7263940" lon="7.0204540">
<ele>126.4550000</ele>
<time>2012-04-13T10:09:52Z</time>
<extensions>
<tp1:TrackPointExtension>
<tp1:hr>91</tp1:hr>
</tp1:TrackPointExtension>
</extensions>
</trkpt>
<trkpt lat="50.7264230" lon="7.0213610">
<ele>120.4560000</ele>
<time>2012-04-13T10:09:57Z</time>
<extensions>
<tp1:TrackPointExtension>
<tp1:hr>90</tp1:hr>
</tp1:TrackPointExtension>
</extensions>
</trkpt>
<trkpt lat="50.7264740" lon="7.0220280">
<ele>116.1810000</ele>
<time>2012-04-13T10:10:01Z</time>
<extensions>
<tp1:TrackPointExtension>
<tp1:hr>90</tp1:hr>
</tp1:TrackPointExtension>
</extensions>
</trkpt>
<trkpt lat="50.7265430" lon="7.0222990">
<ele>114.4280000</ele>
<time>2012-04-13T10:10:03Z</time>
<extensions>
<tp1:TrackPointExtension>
<tp1:hr>89</tp1:hr>
</tp1:TrackPointExtension>
</extensions>
</trkpt>
<trkpt lat="50.7267390" lon="7.0226580">
<ele>112.3420000</ele>
<time>2012-04-13T10:10:07Z</time>
<extensions>
<tp1:TrackPointExtension>
<tp1:hr>88</tp1:hr>
</tp1:TrackPointExtension>
</extensions>
</trkpt>
<trkpt lat="50.7268810" lon="7.0230040">
<ele>109.5750000</ele>
<time>2012-04-13T10:10:12Z</time>
<extensions>
<tp1:TrackPointExtension>
<tp1:hr>89</tp1:hr>
</tp1:TrackPointExtension>
</extensions>
</trkpt>
<trkpt lat="50.7269010" lon="7.0230500">
<ele>109.0030000</ele>
<time>2012-04-13T10:10:13Z</time>
<extensions>
<tp1:TrackPointExtension>
<tp1:hr>89</tp1:hr>
</tp1:TrackPointExtension>
</extensions>
</trkpt>
<trkpt lat="50.7270260" lon="7.0230520">
<ele>107.2930000</ele>
<time>2012-04-13T10:10:17Z</time>
<extensions>
<tp1:TrackPointExtension>
<tp1:hr>90</tp1:hr>
</tp1:TrackPointExtension>
</extensions>
</trkpt>
<trkpt lat="50.7271100" lon="7.0229400">
<ele>106.9540000</ele>
<time>2012-04-13T10:10:19Z</time>
<extensions>
<tp1:TrackPointExtension>
<tp1:hr>92</tp1:hr>
</tp1:TrackPointExtension>
</extensions>
</trkpt>
<trkpt lat="50.7272260" lon="7.0227360">
<ele>106.7600000</ele>
<time>2012-04-13T10:10:22Z</time>
<extensions>
<tp1:TrackPointExtension>
<tp1:hr>97</tp1:hr>
</tp1:TrackPointExtension>
</extensions>
</trkpt>
<trkpt lat="50.7273640" lon="7.0224600">
<ele>106.5950000</ele>
<time>2012-04-13T10:10:26Z</time>
<extensions>
<tp1:TrackPointExtension>
<tp1:hr>104</tp1:hr>
</tp1:TrackPointExtension>
</extensions>
</trkpt>
<trkpt lat="50.7274690" lon="7.0222440">
<ele>106.2920000</ele>
<time>2012-04-13T10:10:29Z</time>
<extensions>
<tp1:TrackPointExtension>
<tp1:hr>111</tp1:hr>
</tp1:TrackPointExtension>
</extensions>
</trkpt>
<trkpt lat="50.7275050" lon="7.0221720">
<ele>106.1730000</ele>
<time>2012-04-13T10:10:30Z</time>
<extensions>
<tp1:TrackPointExtension>
<tp1:hr>111</tp1:hr>
</tp1:TrackPointExtension>
</extensions>
</trkpt>
<trkpt lat="50.7278590" lon="7.0215370">
<ele>105.8710000</ele>
<time>2012-04-13T10:10:39Z</time>
<extensions>
<tp1:TrackPointExtension>
<tp1:hr>114</tp1:hr>
</tp1:TrackPointExtension>
</extensions>
</trkpt>
<trkpt lat="50.7281780" lon="7.0210870">
<ele>105.5040000</ele>
<time>2012-04-13T10:10:46Z</time>
<extensions>
<tp1:TrackPointExtension>
<tp1:hr>120</tp1:hr>
</tp1:TrackPointExtension>
</extensions>
</trkpt>
<trkpt lat="50.7285170" lon="7.0206860">
<ele>104.7790000</ele>
<time>2012-04-13T10:10:53Z</time>
<extensions>
<tp1:TrackPointExtension>
<tp1:hr>122</tp1:hr>
</tp1:TrackPointExtension>
</extensions>
</trkpt>
<trkpt lat="50.7290030" lon="7.0201650">
<ele>103.6700000</ele>
<time>2012-04-13T10:11:03Z</time>
<extensions>
<tp1:TrackPointExtension>
<tp1:hr>121</tp1:hr>
</tp1:TrackPointExtension>
</extensions>
</trkpt>
<trkpt lat="50.7294360" lon="7.0196580">
<ele>103.3060000</ele>
<time>2012-04-13T10:11:12Z</time>
<extensions>
<tp1:TrackPointExtension>
<tp1:hr>123</tp1:hr>
</tp1:TrackPointExtension>
</extensions>
</trkpt>
<trkpt lat="50.7296810" lon="7.0191750">
<ele>102.5840000</ele>
<time>2012-04-13T10:11:19Z</time>
<extensions>
<tp1:TrackPointExtension>
<tp1:hr>125</tp1:hr>
</tp1:TrackPointExtension>
</extensions>
</trkpt>
<trkpt lat="50.7300540" lon="7.0183670">
<ele>102.0550000</ele>
<time>2012-04-13T10:11:30Z</time>
<extensions>
<tp1:TrackPointExtension>
<tp1:hr>126</tp1:hr>
</tp1:TrackPointExtension>
</extensions>
</trkpt>
<trkpt lat="50.7304880" lon="7.0176650">
<ele>101.8970000</ele>
<time>2012-04-13T10:11:40Z</time>
<extensions>
<tp1:TrackPointExtension>
<tp1:hr>124</tp1:hr>
</tp1:TrackPointExtension>
</extensions>
</trkpt>
<trkpt lat="50.7307550" lon="7.0172350">
<ele>101.2170000</ele>
<time>2012-04-13T10:11:46Z</time>
<extensions>
<tp1:TrackPointExtension>
<tp1:hr>125</tp1:hr>
</tp1:TrackPointExtension>
</extensions>
</trkpt>
<trkpt lat="50.7310320" lon="7.0170120">
<ele>101.1240000</ele>
<time>2012-04-13T10:11:51Z</time>
<extensions>
<tp1:TrackPointExtension>
<tp1:hr>127</tp1:hr>
</tp1:TrackPointExtension>
</extensions>
</trkpt>
<trkpt lat="50.7311560" lon="7.0170010">
<ele>100.9930000</ele>
<time>2012-04-13T10:11:53Z</time>
<extensions>
<tp1:TrackPointExtension>
<tp1:hr>128</tp1:hr>
</tp1:TrackPointExtension>
</extensions>
</trkpt>
<trkpt lat="50.7319190" lon="7.0169790">
<ele>99.5640000</ele>
<time>2012-04-13T10:12:05Z</time>
<extensions>
<tp1:TrackPointExtension>
<tp1:hr>130</tp1:hr>
</tp1:TrackPointExtension>
</extensions>
</trkpt>
<trkpt lat="50.7325820" lon="7.0168570">
<ele>98.2920000</ele>
<time>2012-04-13T10:12:15Z</time>
<extensions>
<tp1:TrackPointExtension>
<tp1:hr>128</tp1:hr>
</tp1:TrackPointExtension>
</extensions>
</trkpt>
<trkpt lat="50.7333260" lon="7.0166700">
<ele>97.6620000</ele>
<time>2012-04-13T10:12:26Z</time>
<extensions>
<tp1:TrackPointExtension>
<tp1:hr>126</tp1:hr>
</tp1:TrackPointExtension>
</extensions>
</trkpt>
<trkpt lat="50.7339940" lon="7.0164770">
<ele>96.8790000</ele>
<time>2012-04-13T10:12:36Z</time>
<extensions>
<tp1:TrackPointExtension>
<tp1:hr>126</tp1:hr>
</tp1:TrackPointExtension>
</extensions>
</trkpt>
<trkpt lat="50.7347200" lon="7.0162340">
<ele>95.4170000</ele>
<time>2012-04-13T10:12:47Z</time>
<extensions>
<tp1:TrackPointExtension>
<tp1:hr>125</tp1:hr>
</tp1:TrackPointExtension>
</extensions>
</trkpt>
<trkpt lat="50.7353620" lon="7.0158970">
<ele>94.0010000</ele>
<time>2012-04-13T10:12:57Z</time>
<extensions>
<tp1:TrackPointExtension>
<tp1:hr>126</tp1:hr>
</tp1:TrackPointExtension>
</extensions>
</trkpt>
<trkpt lat="50.7359080" lon="7.0154860">
<ele>92.8860000</ele>
<time>2012-04-13T10:13:06Z</time>
<extensions>
<tp1:TrackPointExtension>
<tp1:hr>127</tp1:hr>
</tp1:TrackPointExtension>
</extensions>
</trkpt>
<trkpt lat="50.7361050" lon="7.0151960">
<ele>92.8530000</ele>
<time>2012-04-13T10:13:10Z</time>
<extensions>
<tp1:TrackPointExtension>
<tp1:hr>127</tp1:hr>
</tp1:TrackPointExtension>
</extensions>
</trkpt>
<trkpt lat="50.7364810" lon="7.0143590">
<ele>91.9490000</ele>
<time>2012-04-13T10:13:20Z</time>
<extensions>
<tp1:TrackPointExtension>
<tp1:hr>129</tp1:hr>
</tp1:TrackPointExtension>
</extensions>
</trkpt>
<trkpt lat="50.7367580" lon="7.0138050">
<ele>91.5220000</ele>
<time>2012-04-13T10:13:27Z</time>
<extensions>
<tp1:TrackPointExtension>
<tp1:hr>129</tp1:hr>
</tp1:TrackPointExtension>
</extensions>
</trkpt>
<trkpt lat="50.7371090" lon="7.0131960">
<ele>91.4270000</ele>
<time>2012-04-13T10:13:35Z</time>
<extensions>
<tp1:TrackPointExtension>
<tp1:hr>130</tp1:hr>
</tp1:TrackPointExtension>
</extensions>
</trkpt>
<trkpt lat="50.7373340" lon="7.0128110">
<ele>91.2490000</ele>
<time>2012-04-13T10:13:40Z</time>
<extensions>
<tp1:TrackPointExtension>
<tp1:hr>130</tp1:hr>
</tp1:TrackPointExtension>
</extensions>
</trkpt>
<trkpt lat="50.7375600" lon="7.0121410">
<ele>90.9320000</ele>
<time>2012-04-13T10:13:47Z</time>
<extensions>
<tp1:TrackPointExtension>
<tp1:hr>129</tp1:hr>
</tp1:TrackPointExtension>
</extensions>
</trkpt>
<trkpt lat="50.7377190" lon="7.0118440">
<ele>90.8000000</ele>
<time>2012-04-13T10:13:51Z</time>
<extensions>
<tp1:TrackPointExtension>
<tp1:hr>129</tp1:hr>
</tp1:TrackPointExtension>
</extensions>
</trkpt>
<trkpt lat="50.7380420" lon="7.0115320">
<ele>89.5580000</ele>
<time>2012-04-13T10:13:56Z</time>
<extensions>
<tp1:TrackPointExtension>
<tp1:hr>127</tp1:hr>
</tp1:TrackPointExtension>
</extensions>
</trkpt>
<trkpt lat="50.7382500" lon="7.0113740">
<ele>87.5740000</ele>
<time>2012-04-13T10:13:59Z</time>
<extensions>
<tp1:TrackPointExtension>
<tp1:hr>125</tp1:hr>
</tp1:TrackPointExtension>
</extensions>
</trkpt>
<trkpt lat="50.7384510" lon="7.0115430">
<ele>85.0730000</ele>
<time>2012-04-13T10:14:03Z</time>
<extensions>
<tp1:TrackPointExtension>
<tp1:hr>123</tp1:hr>
</tp1:TrackPointExtension>
</extensions>
</trkpt>
<trkpt lat="50.7386140" lon="7.0116170">
<ele>84.0550000</ele>
<time>2012-04-13T10:14:06Z</time>
<extensions>
<tp1:TrackPointExtension>
<tp1:hr>122</tp1:hr>
</tp1:TrackPointExtension>
</extensions>
</trkpt>
<trkpt lat="50.7386850" lon="7.0116170">
<ele>83.8650000</ele>
<time>2012-04-13T10:14:07Z</time>
<extensions>
<tp1:TrackPointExtension>
<tp1:hr>122</tp1:hr>
</tp1:TrackPointExtension>
</extensions>
</trkpt>
<trkpt lat="50.7388050" lon="7.0115900">
<ele>83.6830000</ele>
<time>2012-04-13T10:14:09Z</time>
<extensions>
<tp1:TrackPointExtension>
<tp1:hr>122</tp1:hr>
</tp1:TrackPointExtension>
</extensions>
</trkpt>
<trkpt lat="50.7391290" lon="7.0114110">
<ele>84.2230000</ele>
<time>2012-04-13T10:14:15Z</time>
<extensions>
<tp1:TrackPointExtension>
<tp1:hr>123</tp1:hr>
</tp1:TrackPointExtension>
</extensions>
</trkpt>
<trkpt lat="50.7393570" lon="7.0111900">
<ele>84.9720000</ele>
<time>2012-04-13T10:14:20Z</time>
<extensions>
<tp1:TrackPointExtension>
<tp1:hr>128</tp1:hr>
</tp1:TrackPointExtension>
</extensions>
</trkpt>
<trkpt lat="50.7395530" lon="7.0109040">
<ele>85.8640000</ele>
<time>2012-04-13T10:14:25Z</time>
<extensions>
<tp1:TrackPointExtension>
<tp1:hr>132</tp1:hr>
</tp1:TrackPointExtension>
</extensions>
</trkpt>
<trkpt lat="50.7397160" lon="7.0106710">
<ele>86.6050000</ele>
<time>2012-04-13T10:14:29Z</time>
<extensions>
<tp1:TrackPointExtension>
<tp1:hr>137</tp1:hr>
</tp1:TrackPointExtension>
</extensions>
</trkpt>
<trkpt lat="50.7398920" lon="7.0104580">
<ele>87.7290000</ele>
<time>2012-04-13T10:14:34Z</time>
<extensions>
<tp1:TrackPointExtension>
<tp1:hr>143</tp1:hr>
</tp1:TrackPointExtension>
</extensions>
</trkpt>
<trkpt lat="50.7400640" lon="7.0102740">
<ele>88.8600000</ele>
<time>2012-04-13T10:14:40Z</time>
<extensions>
<tp1:TrackPointExtension>
<tp1:hr>145</tp1:hr>
</tp1:TrackPointExtension>
</extensions>
</trkpt>
<trkpt lat="50.7403360" lon="7.0100670">
<ele>89.7230000</ele>
<time>2012-04-13T10:14:48Z</time>
<extensions>
<tp1:TrackPointExtension>
<tp1:hr>142</tp1:hr>
</tp1:TrackPointExtension>
</extensions>
</trkpt>
<trkpt lat="50.7405850" lon="7.0099810">
<ele>90.1120000</ele>
<time>2012-04-13T10:14:54Z</time>
<extensions>
<tp1:TrackPointExtension>
<tp1:hr>141</tp1:hr>
</tp1:TrackPointExtension>
</extensions>
</trkpt>
<trkpt lat="50.7409010" lon="7.0099660">
<ele>90.6090000</ele>
<time>2012-04-13T10:15:00Z</time>
<extensions>
<tp1:TrackPointExtension>
<tp1:hr>142</tp1:hr>
</tp1:TrackPointExtension>
</extensions>
</trkpt>
<trkpt lat="50.7413010" lon="7.0101180">
<ele>91.2100000</ele>
<time>2012-04-13T10:15:07Z</time>
<extensions>
<tp1:TrackPointExtension>
<tp1:hr>141</tp1:hr>
</tp1:TrackPointExtension>
</extensions>
</trkpt>
<trkpt lat="50.7416560" lon="7.0104460">
<ele>90.9200000</ele>
<time>2012-04-13T10:15:14Z</time>
<extensions>
<tp1:TrackPointExtension>
<tp1:hr>141</tp1:hr>
</tp1:TrackPointExtension>
</extensions>
</trkpt>
<trkpt lat="50.7422600" lon="7.0111280">
<ele>89.4860000</ele>
<time>2012-04-13T10:15:26Z</time>
<extensions>
<tp1:TrackPointExtension>
<tp1:hr>136</tp1:hr>
</tp1:TrackPointExtension>
</extensions>
</trkpt>
<trkpt lat="50.7427170" lon="7.0114550">
<ele>89.2510000</ele>
<time>2012-04-13T10:15:34Z</time>
<extensions>
<tp1:TrackPointExtension>
<tp1:hr>133</tp1:hr>
</tp1:TrackPointExtension>
</extensions>
</trkpt>
<trkpt lat="50.7431490" lon="7.0115870">
<ele>88.8950000</ele>
<time>2012-04-13T10:15:41Z</time>
<extensions>
<tp1:TrackPointExtension>
<tp1:hr>130</tp1:hr>
</tp1:TrackPointExtension>
</extensions>
</trkpt>
<trkpt lat="50.7435940" lon="7.0115930">
<ele>88.3020000</ele>
<time>2012-04-13T10:15:48Z</time>
<extensions>
<tp1:TrackPointExtension>
<tp1:hr>131</tp1:hr>
</tp1:TrackPointExtension>
</extensions>
</trkpt>
<trkpt lat="50.7441510" lon="7.0114510">
<ele>88.2840000</ele>
<time>2012-04-13T10:15:57Z</time>
<extensions>
<tp1:TrackPointExtension>
<tp1:hr>129</tp1:hr>
</tp1:TrackPointExtension>
</extensions>
</trkpt>
<trkpt lat="50.7448190" lon="7.0111850">
<ele>87.0300000</ele>
<time>2012-04-13T10:16:07Z</time>
<extensions>
<tp1:TrackPointExtension>
<tp1:hr>126</tp1:hr>
</tp1:TrackPointExtension>
</extensions>
</trkpt>
<trkpt lat="50.7452620" lon="7.0109690">
<ele>86.0180000</ele>
<time>2012-04-13T10:16:13Z</time>
<extensions>
<tp1:TrackPointExtension>
<tp1:hr>121</tp1:hr>
</tp1:TrackPointExtension>
</extensions>
</trkpt>
<trkpt lat="50.7455060" lon="7.0108600">
<ele>84.7560000</ele>
<time>2012-04-13T10:16:16Z</time>
<extensions>
<tp1:TrackPointExtension>
<tp1:hr>114</tp1:hr>
</tp1:TrackPointExtension>
</extensions>
</trkpt>
<trkpt lat="50.7461360" lon="7.0106680">
<ele>80.8430000</ele>
<time>2012-04-13T10:16:23Z</time>
<extensions>
<tp1:TrackPointExtension>
<tp1:hr>111</tp1:hr>
</tp1:TrackPointExtension>
</extensions>
</trkpt>
<trkpt lat="50.7464280" lon="7.0106010">
<ele>79.5820000</ele>
<time>2012-04-13T10:16:26Z</time>
<extensions>
<tp1:TrackPointExtension>
<tp1:hr>110</tp1:hr>
</tp1:TrackPointExtension>
</extensions>
</trkpt>
<trkpt lat="50.7471240" lon="7.0103980">
<ele>75.6810000</ele>
<time>2012-04-13T10:16:33Z</time>
<extensions>
<tp1:TrackPointExtension>
<tp1:hr>106</tp1:hr>
</tp1:TrackPointExtension>
</extensions>
</trkpt>
<trkpt lat="50.7478560" lon="7.0101700">
<ele>71.1720000</ele>
<time>2012-04-13T10:16:40Z</time>
<extensions>
<tp1:TrackPointExtension>
<tp1:hr>102</tp1:hr>
</tp1:TrackPointExtension>
</extensions>
</trkpt>
<trkpt lat="50.7483800" lon="7.0099230">
<ele>67.8730000</ele>
<time>2012-04-13T10:16:45Z</time>
<extensions>
<tp1:TrackPointExtension>
<tp1:hr>100</tp1:hr>
</tp1:TrackPointExtension>
</extensions>
</trkpt>
<trkpt lat="50.7485890" lon="7.0097950">
<ele>66.7630000</ele>
<time>2012-04-13T10:16:47Z</time>
<extensions>
<tp1:TrackPointExtension>
<tp1:hr>100</tp1:hr>
</tp1:TrackPointExtension>
</extensions>
</trkpt>
<trkpt lat="50.7491600" lon="7.0092250">
<ele>64.0600000</ele>
<time>2012-04-13T10:16:53Z</time>
<extensions>
<tp1:TrackPointExtension>
<tp1:hr>101</tp1:hr>
</tp1:TrackPointExtension>
</extensions>
</trkpt>
<trkpt lat="50.7496060" lon="7.0087070">
<ele>61.9940000</ele>
<time>2012-04-13T10:16:59Z</time>
<extensions>
<tp1:TrackPointExtension>
<tp1:hr>103</tp1:hr>
</tp1:TrackPointExtension>
</extensions>
</trkpt>
<trkpt lat="50.7499650" lon="7.0083390">
<ele>60.6540000</ele>
<time>2012-04-13T10:17:04Z</time>
<extensions>
<tp1:TrackPointExtension>
<tp1:hr>104</tp1:hr>
</tp1:TrackPointExtension>
</extensions>
</trkpt>
<trkpt lat="50.7501860" lon="7.0079310">
<ele>59.7300000</ele>
<time>2012-04-13T10:17:09Z</time>
<extensions>
<tp1:TrackPointExtension>
<tp1:hr>103</tp1:hr>
</tp1:TrackPointExtension>
</extensions>
</trkpt>
<trkpt lat="50.7502540" lon="7.0077820">
<ele>59.6290000</ele>
<time>2012-04-13T10:17:11Z</time>
<extensions>
<tp1:TrackPointExtension>
<tp1:hr>103</tp1:hr>
</tp1:TrackPointExtension>
</extensions>
</trkpt>
<trkpt lat="50.7505570" lon="7.0073550">
<ele>59.8970000</ele>
<time>2012-04-13T10:17:18Z</time>
<extensions>
<tp1:TrackPointExtension>
<tp1:hr>109</tp1:hr>
</tp1:TrackPointExtension>
</extensions>
</trkpt>
<trkpt lat="50.7506500" lon="7.0072440">
<ele>60.1150000</ele>
<time>2012-04-13T10:17:20Z</time>
<extensions>
<tp1:TrackPointExtension>
<tp1:hr>114</tp1:hr>
</tp1:TrackPointExtension>
</extensions>
</trkpt>
<trkpt lat="50.7511840" lon="7.0065400">
<ele>60.3480000</ele>
<time>2012-04-13T10:17:32Z</time>
<extensions>
<tp1:TrackPointExtension>
<tp1:hr>118</tp1:hr>
</tp1:TrackPointExtension>
</extensions>
</trkpt>
<trkpt lat="50.7514900" lon="7.0061250">
<ele>60.8580000</ele>
<time>2012-04-13T10:17:39Z</time>
<extensions>
<tp1:TrackPointExtension>
<tp1:hr>123</tp1:hr>
</tp1:TrackPointExtension>
</extensions>
</trkpt>
<trkpt lat="50.7517160" lon="7.0058430">
<ele>60.8110000</ele>
<time>2012-04-13T10:17:44Z</time>
<extensions>
<tp1:TrackPointExtension>
<tp1:hr>124</tp1:hr>
</tp1:TrackPointExtension>
</extensions>
</trkpt>
<trkpt lat="50.7518210" lon="7.0057370">
<ele>60.7160000</ele>
<time>2012-04-13T10:17:46Z</time>
<extensions>
<tp1:TrackPointExtension>
<tp1:hr>125</tp1:hr>
</tp1:TrackPointExtension>
</extensions>
</trkpt>
<trkpt lat="50.7522110" lon="7.0052790">
<ele>60.5500000</ele>
<time>2012-04-13T10:17:54Z</time>
<extensions>
<tp1:TrackPointExtension>
<tp1:hr>130</tp1:hr>
</tp1:TrackPointExtension>
</extensions>
</trkpt>
<trkpt lat="50.7525390" lon="7.0049010">
<ele>61.1630000</ele>
<time>2012-04-13T10:18:01Z</time>
<extensions>
<tp1:TrackPointExtension>
<tp1:hr>131</tp1:hr>
</tp1:TrackPointExtension>
</extensions>
</trkpt>
<trkpt lat="50.7527300" lon="7.0046860">
<ele>61.5650000</ele>
<time>2012-04-13T10:18:05Z</time>
<extensions>
<tp1:TrackPointExtension>
<tp1:hr>132</tp1:hr>
</tp1:TrackPointExtension>
</extensions>
</trkpt>
<trkpt lat="50.7531340" lon="7.0041460">
<ele>63.3920000</ele>
<time>2012-04-13T10:18:14Z</time>
<extensions>
<tp1:TrackPointExtension>
<tp1:hr>138</tp1:hr>
</tp1:TrackPointExtension>
</extensions>
</trkpt>
<trkpt lat="50.7533080" lon="7.0039170">
<ele>63.2940000</ele>
<time>2012-04-13T10:18:18Z</time>
<extensions>
<tp1:TrackPointExtension>
<tp1:hr>138</tp1:hr>
</tp1:TrackPointExtension>
</extensions>
</trkpt>
<trkpt lat="50.7536760" lon="7.0035550">
<ele>61.8620000</ele>
<time>2012-04-13T10:18:25Z</time>
<extensions>
<tp1:TrackPointExtension>
<tp1:hr>138</tp1:hr>
</tp1:TrackPointExtension>
</extensions>
</trkpt>
<trkpt lat="50.7540620" lon="7.0032140">
<ele>61.3540000</ele>
<time>2012-04-13T10:18:32Z</time>
<extensions>
<tp1:TrackPointExtension>
<tp1:hr>135</tp1:hr>
</tp1:TrackPointExtension>
</extensions>
</trkpt>
<trkpt lat="50.7545470" lon="7.0027260">
<ele>60.3430000</ele>
<time>2012-04-13T10:18:41Z</time>
<extensions>
<tp1:TrackPointExtension>
<tp1:hr>132</tp1:hr>
</tp1:TrackPointExtension>
</extensions>
</trkpt>
<trkpt lat="50.7550900" lon="7.0022020">
<ele>59.9720000</ele>
<time>2012-04-13T10:18:51Z</time>
<extensions>
<tp1:TrackPointExtension>
<tp1:hr>131</tp1:hr>
</tp1:TrackPointExtension>
</extensions>
</trkpt>
<trkpt lat="50.7554880" lon="7.0019310">
<ele>59.8310000</ele>
<time>2012-04-13T10:18:58Z</time>
<extensions>
<tp1:TrackPointExtension>
<tp1:hr>132</tp1:hr>
</tp1:TrackPointExtension>
</extensions>
</trkpt>
<trkpt lat="50.7559610" lon="7.0016190">
<ele>58.6940000</ele>
<time>2012-04-13T10:19:06Z</time>
<extensions>
<tp1:TrackPointExtension>
<tp1:hr>132</tp1:hr>
</tp1:TrackPointExtension>
</extensions>
</trkpt>
<trkpt lat="50.7564060" lon="7.0013410">
<ele>57.5280000</ele>
<time>2012-04-13T10:19:13Z</time>
<extensions>
<tp1:TrackPointExtension>
<tp1:hr>128</tp1:hr>
</tp1:TrackPointExtension>
</extensions>
</trkpt>
<trkpt lat="50.7566100" lon="7.0012430">
<ele>56.9900000</ele>
<time>2012-04-13T10:19:16Z</time>
<extensions>
<tp1:TrackPointExtension>
<tp1:hr>127</tp1:hr>
</tp1:TrackPointExtension>
</extensions>
</trkpt>
<trkpt lat="50.7572060" lon="7.0008230">
<ele>55.1410000</ele>
<time>2012-04-13T10:19:25Z</time>
<extensions>
<tp1:TrackPointExtension>
<tp1:hr>123</tp1:hr>
</tp1:TrackPointExtension>
</extensions>
</trkpt>
<trkpt lat="50.7577980" lon="7.0003560">
<ele>54.1820000</ele>
<time>2012-04-13T10:19:35Z</time>
<extensions>
<tp1:TrackPointExtension>
<tp1:hr>122</tp1:hr>
</tp1:TrackPointExtension>
</extensions>
</trkpt>
<trkpt lat="50.7582310" lon="6.9998900">
<ele>53.4660000</ele>
<time>2012-04-13T10:19:43Z</time>
<extensions>
<tp1:TrackPointExtension>
<tp1:hr>125</tp1:hr>
</tp1:TrackPointExtension>
</extensions>
</trkpt>
<trkpt lat="50.7585390" lon="6.9998200">
<ele>53.4670000</ele>
<time>2012-04-13T10:19:48Z</time>
<extensions>
<tp1:TrackPointExtension>
<tp1:hr>127</tp1:hr>
</tp1:TrackPointExtension>
</extensions>
</trkpt>
<trkpt lat="50.7587170" lon="6.9997620">
<ele>53.5810000</ele>
<time>2012-04-13T10:19:51Z</time>
<extensions>
<tp1:TrackPointExtension>
<tp1:hr>128</tp1:hr>
</tp1:TrackPointExtension>
</extensions>
</trkpt>
<trkpt lat="50.7589740" lon="6.9995140">
<ele>53.8300000</ele>
<time>2012-04-13T10:19:56Z</time>
<extensions>
<tp1:TrackPointExtension>
<tp1:hr>130</tp1:hr>
</tp1:TrackPointExtension>
</extensions>
</trkpt>
<trkpt lat="50.7593470" lon="6.9990730">
<ele>54.0440000</ele>
<time>2012-04-13T10:20:04Z</time>
<extensions>
<tp1:TrackPointExtension>
<tp1:hr>133</tp1:hr>
</tp1:TrackPointExtension>
</extensions>
</trkpt>
<trkpt lat="50.7596170" lon="6.9987280">
<ele>54.2840000</ele>
<time>2012-04-13T10:20:10Z</time>
<extensions>
<tp1:TrackPointExtension>
<tp1:hr>135</tp1:hr>
</tp1:TrackPointExtension>
</extensions>
</trkpt>
<trkpt lat="50.7600500" lon="6.9982290">
<ele>54.4660000</ele>
<time>2012-04-13T10:20:19Z</time>
<extensions>
<tp1:TrackPointExtension>
<tp1:hr>138</tp1:hr>
</tp1:TrackPointExtension>
</extensions>
</trkpt>
<trkpt lat="50.7602140" lon="6.9980610">
<ele>54.1090000</ele>
<time>2012-04-13T10:20:22Z</time>
<extensions>
<tp1:TrackPointExtension>
<tp1:hr>138</tp1:hr>
</tp1:TrackPointExtension>
</extensions>
</trkpt>
<trkpt lat="50.7603780" lon="6.9980290">
<ele>53.7740000</ele>
<time>2012-04-13T10:20:25Z</time>
<extensions>
<tp1:TrackPointExtension>
<tp1:hr>137</tp1:hr>
</tp1:TrackPointExtension>
</extensions>
</trkpt>
<trkpt lat="50.7605150" lon="6.9981870">
<ele>53.4380000</ele>
<time>2012-04-13T10:20:28Z</time>
<extensions>
<tp1:TrackPointExtension>
<tp1:hr>136</tp1:hr>
</tp1:TrackPointExtension>
</extensions>
</trkpt>
<trkpt lat="50.7606800" lon="6.9980640">
<ele>53.3300000</ele>
<time>2012-04-13T10:20:30Z</time>
<extensions>
<tp1:TrackPointExtension>
<tp1:hr>135</tp1:hr>
</tp1:TrackPointExtension>
</extensions>
</trkpt>
<trkpt lat="50.7607010" lon="6.9979820">
<ele>53.2620000</ele>
<time>2012-04-13T10:20:31Z</time>
<extensions>
<tp1:TrackPointExtension>
<tp1:hr>135</tp1:hr>
</tp1:TrackPointExtension>
</extensions>
</trkpt>
<trkpt lat="50.7608900" lon="6.9972240">
<ele>53.3600000</ele>
<time>2012-04-13T10:20:40Z</time>
<extensions>
<tp1:TrackPointExtension>
<tp1:hr>136</tp1:hr>
</tp1:TrackPointExtension>
</extensions>
</trkpt>
<trkpt lat="50.7610270" lon="6.9966320">
<ele>53.6490000</ele>
<time>2012-04-13T10:20:47Z</time>
<extensions>
<tp1:TrackPointExtension>
<tp1:hr>135</tp1:hr>
</tp1:TrackPointExtension>
</extensions>
</trkpt>
<trkpt lat="50.7610950" lon="6.9959300">
<ele>54.4830000</ele>
<time>2012-04-13T10:20:55Z</time>
<extensions>
<tp1:TrackPointExtension>
<tp1:hr>136</tp1:hr>
</tp1:TrackPointExtension>
</extensions>
</trkpt>
<trkpt lat="50.7611950" lon="6.9954390">
<ele>54.8970000</ele>
<time>2012-04-13T10:21:01Z</time>
<extensions>
<tp1:TrackPointExtension>
<tp1:hr>138</tp1:hr>
</tp1:TrackPointExtension>
</extensions>
</trkpt>
<trkpt lat="50.7614190" lon="6.9947050">
<ele>55.0820000</ele>
<time>2012-04-13T10:21:10Z</time>
<extensions>
<tp1:TrackPointExtension>
<tp1:hr>140</tp1:hr>
</tp1:TrackPointExtension>
</extensions>
</trkpt>
<trkpt lat="50.7617350" lon="6.9939420">
<ele>55.4310000</ele>
<time>2012-04-13T10:21:20Z</time>
<extensions>
<tp1:TrackPointExtension>
<tp1:hr>141</tp1:hr>
</tp1:TrackPointExtension>
</extensions>
</trkpt>
<trkpt lat="50.7621030" lon="6.9933520">
<ele>55.3870000</ele>
<time>2012-04-13T10:21:29Z</time>
<extensions>
<tp1:TrackPointExtension>
<tp1:hr>142</tp1:hr>
</tp1:TrackPointExtension>
</extensions>
</trkpt>
<trkpt lat="50.7622360" lon="6.9931420">
<ele>55.5690000</ele>
<time>2012-04-13T10:21:33Z</time>
<extensions>
<tp1:TrackPointExtension>
<tp1:hr>142</tp1:hr>
</tp1:TrackPointExtension>
</extensions>
</trkpt>
<trkpt lat="50.7623390" lon="6.9929570">
<ele>55.6270000</ele>
<time>2012-04-13T10:21:37Z</time>
<extensions>
<tp1:TrackPointExtension>
<tp1:hr>140</tp1:hr>
</tp1:TrackPointExtension>
</extensions>
</trkpt>
<trkpt lat="50.7623410" lon="6.9922540">
<ele>55.4940000</ele>
<time>2012-04-13T10:21:46Z</time>
<extensions>
<tp1:TrackPointExtension>
<tp1:hr>139</tp1:hr>
</tp1:TrackPointExtension>
</extensions>
</trkpt>
<trkpt lat="50.7623590" lon="6.9914330">
<ele>55.5370000</ele>
<time>2012-04-13T10:21:56Z</time>
<extensions>
<tp1:TrackPointExtension>
<tp1:hr>138</tp1:hr>
</tp1:TrackPointExtension>
</extensions>
</trkpt>
<trkpt lat="50.7624190" lon="6.9909050">
<ele>55.7510000</ele>
<time>2012-04-13T10:22:03Z</time>
<extensions>
<tp1:TrackPointExtension>
<tp1:hr>135</tp1:hr>
</tp1:TrackPointExtension>
</extensions>
</trkpt>
<trkpt lat="50.7624930" lon="6.9904520">
<ele>55.6000000</ele>
<time>2012-04-13T10:22:11Z</time>
<extensions>
<tp1:TrackPointExtension>
<tp1:hr>131</tp1:hr>
</tp1:TrackPointExtension>
</extensions>
</trkpt>
<trkpt lat="50.7625830" lon="6.9900270">
<ele>55.8170000</ele>
<time>2012-04-13T10:22:17Z</time>
<extensions>
<tp1:TrackPointExtension>
<tp1:hr>131</tp1:hr>
</tp1:TrackPointExtension>
</extensions>
</trkpt>
<trkpt lat="50.7627150" lon="6.9894490">
<ele>55.7230000</ele>
<time>2012-04-13T10:22:24Z</time>
<extensions>
<tp1:TrackPointExtension>
<tp1:hr>137</tp1:hr>
</tp1:TrackPointExtension>
</extensions>
</trkpt>
<trkpt lat="50.7628740" lon="6.9888880">
<ele>55.4670000</ele>
<time>2012-04-13T10:22:31Z</time>
<extensions>
<tp1:TrackPointExtension>
<tp1:hr>137</tp1:hr>
</tp1:TrackPointExtension>
</extensions>
</trkpt>
<trkpt lat="50.7630190" lon="6.9884300">
<ele>55.4630000</ele>
<time>2012-04-13T10:22:37Z</time>
<extensions>
<tp1:TrackPointExtension>
<tp1:hr>135</tp1:hr>
</tp1:TrackPointExtension>
</extensions>
</trkpt>
<trkpt lat="50.7631470" lon="6.9882950">
<ele>55.4560000</ele>
<time>2012-04-13T10:22:41Z</time>
<extensions>
<tp1:TrackPointExtension>
<tp1:hr>134</tp1:hr>
</tp1:TrackPointExtension>
</extensions>
</trkpt>
<trkpt lat="50.7631850" lon="6.9882000">
<ele>55.3890000</ele>
<time>2012-04-13T10:22:44Z</time>
<extensions>
<tp1:TrackPointExtension>
<tp1:hr>134</tp1:hr>
</tp1:TrackPointExtension>
</extensions>
</trkpt>
<trkpt lat="50.7631680" lon="6.9881210">
<ele>55.2700000</ele>
<time>2012-04-13T10:22:47Z</time>
<extensions>
<tp1:TrackPointExtension>
<tp1:hr>133</tp1:hr>
</tp1:TrackPointExtension>
</extensions>
</trkpt>
<trkpt lat="50.7631500" lon="6.9879820">
<ele>55.1040000</ele>
<time>2012-04-13T10:22:52Z</time>
<extensions>
<tp1:TrackPointExtension>
<tp1:hr>129</tp1:hr>
</tp1:TrackPointExtension>
</extensions>
</trkpt>
<trkpt lat="50.7631700" lon="6.9876160">
<ele>55.2700000</ele>
<time>2012-04-13T10:22:57Z</time>
<extensions>
<tp1:TrackPointExtension>
<tp1:hr>129</tp1:hr>
</tp1:TrackPointExtension>
</extensions>
</trkpt>
<trkpt lat="50.7631940" lon="6.9870220">
<ele>55.5490000</ele>
<time>2012-04-13T10:23:04Z</time>
<extensions>
<tp1:TrackPointExtension>
<tp1:hr>134</tp1:hr>
</tp1:TrackPointExtension>
</extensions>
</trkpt>
<trkpt lat="50.7632810" lon="6.9863360">
<ele>55.8470000</ele>
<time>2012-04-13T10:23:12Z</time>
<extensions>
<tp1:TrackPointExtension>
<tp1:hr>136</tp1:hr>
</tp1:TrackPointExtension>
</extensions>
</trkpt>
<trkpt lat="50.7634500" lon="6.9856430">
<ele>55.8900000</ele>
<time>2012-04-13T10:23:20Z</time>
<extensions>
<tp1:TrackPointExtension>
<tp1:hr>136</tp1:hr>
</tp1:TrackPointExtension>
</extensions>
</trkpt>
<trkpt lat="50.7636630" lon="6.9850200">
<ele>56.6770000</ele>
<time>2012-04-13T10:23:28Z</time>
<extensions>
<tp1:TrackPointExtension>
<tp1:hr>138</tp1:hr>
</tp1:TrackPointExtension>
</extensions>
</trkpt>
<trkpt lat="50.7636910" lon="6.9849470">
<ele>56.8020000</ele>
<time>2012-04-13T10:23:29Z</time>
<extensions>
<tp1:TrackPointExtension>
<tp1:hr>138</tp1:hr>
</tp1:TrackPointExtension>
</extensions>
</trkpt>
<trkpt lat="50.7640060" lon="6.9844440">
<ele>57.0220000</ele>
<time>2012-04-13T10:23:37Z</time>
<extensions>
<tp1:TrackPointExtension>
<tp1:hr>141</tp1:hr>
</tp1:TrackPointExtension>
</extensions>
</trkpt>
<trkpt lat="50.7644750" lon="6.9838460">
<ele>56.5230000</ele>
<time>2012-04-13T10:23:47Z</time>
<extensions>
<tp1:TrackPointExtension>
<tp1:hr>141</tp1:hr>
</tp1:TrackPointExtension>
</extensions>
</trkpt>
<trkpt lat="50.7648630" lon="6.9833410">
<ele>55.1950000</ele>
<time>2012-04-13T10:23:55Z</time>
<extensions>
<tp1:TrackPointExtension>
<tp1:hr>136</tp1:hr>
</tp1:TrackPointExtension>
</extensions>
</trkpt>
<trkpt lat="50.7653240" lon="6.9826850">
<ele>53.6880000</ele>
<time>2012-04-13T10:24:05Z</time>
<extensions>
<tp1:TrackPointExtension>
<tp1:hr>133</tp1:hr>
</tp1:TrackPointExtension>
</extensions>
</trkpt>
<trkpt lat="50.7658340" lon="6.9821190">
<ele>52.8590000</ele>
<time>2012-04-13T10:24:15Z</time>
<extensions>
<tp1:TrackPointExtension>
<tp1:hr>130</tp1:hr>
</tp1:TrackPointExtension>
</extensions>
</trkpt>
<trkpt lat="50.7663010" lon="6.9814970">
<ele>52.1460000</ele>
<time>2012-04-13T10:24:25Z</time>
<extensions>
<tp1:TrackPointExtension>
<tp1:hr>128</tp1:hr>
</tp1:TrackPointExtension>
</extensions>
</trkpt>
<trkpt lat="50.7668550" lon="6.9807220">
<ele>51.4890000</ele>
<time>2012-04-13T10:24:37Z</time>
<extensions>
<tp1:TrackPointExtension>
<tp1:hr>130</tp1:hr>
</tp1:TrackPointExtension>
</extensions>
</trkpt>
<trkpt lat="50.7669560" lon="6.9806100">
<ele>51.5750000</ele>
<time>2012-04-13T10:24:39Z</time>
<extensions>
<tp1:TrackPointExtension>
<tp1:hr>130</tp1:hr>
</tp1:TrackPointExtension>
</extensions>
</trkpt>
<trkpt lat="50.7673230" lon="6.9800860">
<ele>51.3960000</ele>
<time>2012-04-13T10:24:47Z</time>
<extensions>
<tp1:TrackPointExtension>
<tp1:hr>131</tp1:hr>
</tp1:TrackPointExtension>
</extensions>
</trkpt>
<trkpt lat="50.7677800" lon="6.9793270">
<ele>51.4120000</ele>
<time>2012-04-13T10:24:58Z</time>
<extensions>
<tp1:TrackPointExtension>
<tp1:hr>134</tp1:hr>
</tp1:TrackPointExtension>
</extensions>
</trkpt>
<trkpt lat="50.7680530" lon="6.9789500">
<ele>51.5650000</ele>
<time>2012-04-13T10:25:04Z</time>
<extensions>
<tp1:TrackPointExtension>
<tp1:hr>135</tp1:hr>
</tp1:TrackPointExtension>
</extensions>
</trkpt>
<trkpt lat="50.7684810" lon="6.9784400">
<ele>51.6960000</ele>
<time>2012-04-13T10:25:13Z</time>
<extensions>
<tp1:TrackPointExtension>
<tp1:hr>138</tp1:hr>
</tp1:TrackPointExtension>
</extensions>
</trkpt>
<trkpt lat="50.7691330" lon="6.9777220">
<ele>50.4780000</ele>
<time>2012-04-13T10:25:26Z</time>
<extensions>
<tp1:TrackPointExtension>
<tp1:hr>133</tp1:hr>
</tp1:TrackPointExtension>
</extensions>
</trkpt>
<trkpt lat="50.7696840" lon="6.9771100">
<ele>49.4230000</ele>
<time>2012-04-13T10:25:37Z</time>
<extensions>
<tp1:TrackPointExtension>
<tp1:hr>132</tp1:hr>
</tp1:TrackPointExtension>
</extensions>
</trkpt>
<trkpt lat="50.7697350" lon="6.9770520">
<ele>49.4000000</ele>
<time>2012-04-13T10:25:38Z</time>
<extensions>
<tp1:TrackPointExtension>
<tp1:hr>132</tp1:hr>
</tp1:TrackPointExtension>
</extensions>
</trkpt>
<trkpt lat="50.7701290" lon="6.9766230">
<ele>49.3780000</ele>
<time>2012-04-13T10:25:46Z</time>
<extensions>
<tp1:TrackPointExtension>
<tp1:hr>133</tp1:hr>
</tp1:TrackPointExtension>
</extensions>
</trkpt>
<trkpt lat="50.7708120" lon="6.9758600">
<ele>49.7990000</ele>
<time>2012-04-13T10:26:00Z</time>
<extensions>
<tp1:TrackPointExtension>
<tp1:hr>136</tp1:hr>
</tp1:TrackPointExtension>
</extensions>
</trkpt>
<trkpt lat="50.7709590" lon="6.9756980">
<ele>49.7860000</ele>
<time>2012-04-13T10:26:03Z</time>
<extensions>
<tp1:TrackPointExtension>
<tp1:hr>137</tp1:hr>
</tp1:TrackPointExtension>
</extensions>
</trkpt>
<trkpt lat="50.7711750" lon="6.9755580">
<ele>49.7530000</ele>
<time>2012-04-13T10:26:07Z</time>
<extensions>
<tp1:TrackPointExtension>
<tp1:hr>137</tp1:hr>
</tp1:TrackPointExtension>
</extensions>
</trkpt>
<trkpt lat="50.7715750" lon="6.9751430">
<ele>49.8830000</ele>
<time>2012-04-13T10:26:15Z</time>
<extensions>
<tp1:TrackPointExtension>
<tp1:hr>140</tp1:hr>
</tp1:TrackPointExtension>
</extensions>
</trkpt>
<trkpt lat="50.7720920" lon="6.9747340">
<ele>49.6310000</ele>
<time>2012-04-13T10:26:25Z</time>
<extensions>
<tp1:TrackPointExtension>
<tp1:hr>141</tp1:hr>
</tp1:TrackPointExtension>
</extensions>
</trkpt>
<trkpt lat="50.7727320" lon="6.9742850">
<ele>49.3620000</ele>
<time>2012-04-13T10:26:37Z</time>
<extensions>
<tp1:TrackPointExtension>
<tp1:hr>139</tp1:hr>
</tp1:TrackPointExtension>
</extensions>
</trkpt>
<trkpt lat="50.7732690" lon="6.9739070">
<ele>49.4020000</ele>
<time>2012-04-13T10:26:47Z</time>
<extensions>
<tp1:TrackPointExtension>
<tp1:hr>139</tp1:hr>
</tp1:TrackPointExtension>
</extensions>
</trkpt>
<trkpt lat="50.7739160" lon="6.9734520">
<ele>49.4630000</ele>
<time>2012-04-13T10:26:59Z</time>
<extensions>
<tp1:TrackPointExtension>
<tp1:hr>140</tp1:hr>
</tp1:TrackPointExtension>
</extensions>
</trkpt>
<trkpt lat="50.7744670" lon="6.9729580">
<ele>50.1920000</ele>
<time>2012-04-13T10:27:10Z</time>
<extensions>
<tp1:TrackPointExtension>
<tp1:hr>142</tp1:hr>
</tp1:TrackPointExtension>
</extensions>
</trkpt>
<trkpt lat="50.7749340" lon="6.9723520">
<ele>51.0450000</ele>
<time>2012-04-13T10:27:21Z</time>
<extensions>
<tp1:TrackPointExtension>
<tp1:hr>145</tp1:hr>
</tp1:TrackPointExtension>
</extensions>
</trkpt>
<trkpt lat="50.7753120" lon="6.9716670">
<ele>53.2210000</ele>
<time>2012-04-13T10:27:32Z</time>
<extensions>
<tp1:TrackPointExtension>
<tp1:hr>149</tp1:hr>
</tp1:TrackPointExtension>
</extensions>
</trkpt>
<trkpt lat="50.7756300" lon="6.9709160">
<ele>55.4480000</ele>
<time>2012-04-13T10:27:43Z</time>
<extensions>
<tp1:TrackPointExtension>
<tp1:hr>153</tp1:hr>
</tp1:TrackPointExtension>
</extensions>
</trkpt>
<trkpt lat="50.7759610" lon="6.9700200">
<ele>56.6520000</ele>
<time>2012-04-13T10:27:55Z</time>
<extensions>
<tp1:TrackPointExtension>
<tp1:hr>153</tp1:hr>
</tp1:TrackPointExtension>
</extensions>
</trkpt>
<trkpt lat="50.7763220" lon="6.9691260">
<ele>57.0610000</ele>
<time>2012-04-13T10:28:07Z</time>
<extensions>
<tp1:TrackPointExtension>
<tp1:hr>153</tp1:hr>
</tp1:TrackPointExtension>
</extensions>
</trkpt>
<trkpt lat="50.7767650" lon="6.9683180">
<ele>57.6250000</ele>
<time>2012-04-13T10:28:19Z</time>
<extensions>
<tp1:TrackPointExtension>
<tp1:hr>152</tp1:hr>
</tp1:TrackPointExtension>
</extensions>
</trkpt>
<trkpt lat="50.7773180" lon="6.9674120">
<ele>57.8700000</ele>
<time>2012-04-13T10:28:33Z</time>
<extensions>
<tp1:TrackPointExtension>
<tp1:hr>150</tp1:hr>
</tp1:TrackPointExtension>
</extensions>
</trkpt>
<trkpt lat="50.7778560" lon="6.9665710">
<ele>57.8050000</ele>
<time>2012-04-13T10:28:46Z</time>
<extensions>
<tp1:TrackPointExtension>
<tp1:hr>146</tp1:hr>
</tp1:TrackPointExtension>
</extensions>
</trkpt>
<trkpt lat="50.7783630" lon="6.9658230">
<ele>56.9990000</ele>
<time>2012-04-13T10:28:58Z</time>
<extensions>
<tp1:TrackPointExtension>
<tp1:hr>143</tp1:hr>
</tp1:TrackPointExtension>
</extensions>
</trkpt>
<trkpt lat="50.7789450" lon="6.9649550">
<ele>56.9320000</ele>
<time>2012-04-13T10:29:12Z</time>
<extensions>
<tp1:TrackPointExtension>
<tp1:hr>140</tp1:hr>
</tp1:TrackPointExtension>
</extensions>
</trkpt>
<trkpt lat="50.7793700" lon="6.9641960">
<ele>56.4460000</ele>
<time>2012-04-13T10:29:23Z</time>
<extensions>
<tp1:TrackPointExtension>
<tp1:hr>140</tp1:hr>
</tp1:TrackPointExtension>
</extensions>
</trkpt>
<trkpt lat="50.7798700" lon="6.9631740">
<ele>55.8180000</ele>
<time>2012-04-13T10:29:37Z</time>
<extensions>
<tp1:TrackPointExtension>
<tp1:hr>141</tp1:hr>
</tp1:TrackPointExtension>
</extensions>
</trkpt>
<trkpt lat="50.7803980" lon="6.9620870">
<ele>55.9220000</ele>
<time>2012-04-13T10:29:52Z</time>
<extensions>
<tp1:TrackPointExtension>
<tp1:hr>139</tp1:hr>
</tp1:TrackPointExtension>
</extensions>
</trkpt>
<trkpt lat="50.7808590" lon="6.9611450">
<ele>55.9640000</ele>
<time>2012-04-13T10:30:05Z</time>
<extensions>
<tp1:TrackPointExtension>
<tp1:hr>140</tp1:hr>
</tp1:TrackPointExtension>
</extensions>
</trkpt>
<trkpt lat="50.7812930" lon="6.9601680">
<ele>55.9150000</ele>
<time>2012-04-13T10:30:18Z</time>
<extensions>
<tp1:TrackPointExtension>
<tp1:hr>139</tp1:hr>
</tp1:TrackPointExtension>
</extensions>
</trkpt>
<trkpt lat="50.7817360" lon="6.9590050">
<ele>56.0930000</ele>
<time>2012-04-13T10:30:33Z</time>
<extensions>
<tp1:TrackPointExtension>
<tp1:hr>139</tp1:hr>
</tp1:TrackPointExtension>
</extensions>
</trkpt>
<trkpt lat="50.7821930" lon="6.9577590">
<ele>56.6800000</ele>
<time>2012-04-13T10:30:49Z</time>
<extensions>
<tp1:TrackPointExtension>
<tp1:hr>141</tp1:hr>
</tp1:TrackPointExtension>
</extensions>
</trkpt>
<trkpt lat="50.7823560" lon="6.9573110">
<ele>56.1400000</ele>
<time>2012-04-13T10:30:55Z</time>
<extensions>
<tp1:TrackPointExtension>
<tp1:hr>143</tp1:hr>
</tp1:TrackPointExtension>
</extensions>
</trkpt>
<trkpt lat="50.7824210" lon="6.9570830">
<ele>55.8100000</ele>
<time>2012-04-13T10:30:58Z</time>
<extensions>
<tp1:TrackPointExtension>
<tp1:hr>143</tp1:hr>
</tp1:TrackPointExtension>
</extensions>
</trkpt>
<trkpt lat="50.7827000" lon="6.9564150">
<ele>55.5480000</ele>
<time>2012-04-13T10:31:07Z</time>
<extensions>
<tp1:TrackPointExtension>
<tp1:hr>143</tp1:hr>
</tp1:TrackPointExtension>
</extensions>
</trkpt>
<trkpt lat="50.7828010" lon="6.9560760">
<ele>55.2040000</ele>
<time>2012-04-13T10:31:11Z</time>
<extensions>
<tp1:TrackPointExtension>
<tp1:hr>141</tp1:hr>
</tp1:TrackPointExtension>
</extensions>
</trkpt>
<trkpt lat="50.7829480" lon="6.9557940">
<ele>54.6430000</ele>
<time>2012-04-13T10:31:15Z</time>
<extensions>
<tp1:TrackPointExtension>
<tp1:hr>138</tp1:hr>
</tp1:TrackPointExtension>
</extensions>
</trkpt>
<trkpt lat="50.7833050" lon="6.9552800">
<ele>53.7460000</ele>
<time>2012-04-13T10:31:23Z</time>
<extensions>
<tp1:TrackPointExtension>
<tp1:hr>137</tp1:hr>
</tp1:TrackPointExtension>
</extensions>
</trkpt>
<trkpt lat="50.7837260" lon="6.9544610">
<ele>53.0460000</ele>
<time>2012-04-13T10:31:34Z</time>
<extensions>
<tp1:TrackPointExtension>
<tp1:hr>134</tp1:hr>
</tp1:TrackPointExtension>
</extensions>
</trkpt>
<trkpt lat="50.7838070" lon="6.9543190">
<ele>52.8710000</ele>
<time>2012-04-13T10:31:36Z</time>
<extensions>
<tp1:TrackPointExtension>
<tp1:hr>133</tp1:hr>
</tp1:TrackPointExtension>
</extensions>
</trkpt>
<trkpt lat="50.7840070" lon="6.9541360">
<ele>52.6610000</ele>
<time>2012-04-13T10:31:40Z</time>
<extensions>
<tp1:TrackPointExtension>
<tp1:hr>130</tp1:hr>
</tp1:TrackPointExtension>
</extensions>
</trkpt>
<trkpt lat="50.7840940" lon="6.9539260">
<ele>52.4740000</ele>
<time>2012-04-13T10:31:43Z</time>
<extensions>
<tp1:TrackPointExtension>
<tp1:hr>129</tp1:hr>
</tp1:TrackPointExtension>
</extensions>
</trkpt>
<trkpt lat="50.7840990" lon="6.9538360">
<ele>52.5050000</ele>
<time>2012-04-13T10:31:44Z</time>
<extensions>
<tp1:TrackPointExtension>
<tp1:hr>129</tp1:hr>
</tp1:TrackPointExtension>
</extensions>
</trkpt>
<trkpt lat="50.7841850" lon="6.9535040">
<ele>52.2770000</ele>
<time>2012-04-13T10:31:48Z</time>
<extensions>
<tp1:TrackPointExtension>
<tp1:hr>130</tp1:hr>
</tp1:TrackPointExtension>
</extensions>
</trkpt>
<trkpt lat="50.7843170" lon="6.9533220">
<ele>52.2920000</ele>
<time>2012-04-13T10:31:51Z</time>
<extensions>
<tp1:TrackPointExtension>
<tp1:hr>131</tp1:hr>
</tp1:TrackPointExtension>
</extensions>
</trkpt>
<trkpt lat="50.7846590" lon="6.9526520">
<ele>52.3110000</ele>
<time>2012-04-13T10:32:00Z</time>
<extensions>
<tp1:TrackPointExtension>
<tp1:hr>132</tp1:hr>
</tp1:TrackPointExtension>
</extensions>
</trkpt>
<trkpt lat="50.7849660" lon="6.9520210">
<ele>51.7750000</ele>
<time>2012-04-13T10:32:09Z</time>
<extensions>
<tp1:TrackPointExtension>
<tp1:hr>129</tp1:hr>
</tp1:TrackPointExtension>
</extensions>
</trkpt>
<trkpt lat="50.7850360" lon="6.9518500">
<ele>51.4010000</ele>
<time>2012-04-13T10:32:14Z</time>
<extensions>
<tp1:TrackPointExtension>
<tp1:hr>126</tp1:hr>
</tp1:TrackPointExtension>
</extensions>
</trkpt>
<trkpt lat="50.7851570" lon="6.9515450">
<ele>51.3550000</ele>
<time>2012-04-13T10:32:21Z</time>
<extensions>
<tp1:TrackPointExtension>
<tp1:hr>126</tp1:hr>
</tp1:TrackPointExtension>
</extensions>
</trkpt>
<trkpt lat="50.7853110" lon="6.9511070">
<ele>51.4720000</ele>
<time>2012-04-13T10:32:29Z</time>
<extensions>
<tp1:TrackPointExtension>
<tp1:hr>127</tp1:hr>
</tp1:TrackPointExtension>
</extensions>
</trkpt>
<trkpt lat="50.7854360" lon="6.9508030">
<ele>51.5680000</ele>
<time>2012-04-13T10:32:36Z</time>
<extensions>
<tp1:TrackPointExtension>
<tp1:hr>125</tp1:hr>
</tp1:TrackPointExtension>
</extensions>
</trkpt>
<trkpt lat="50.7854830" lon="6.9506950">
<ele>51.7160000</ele>
<time>2012-04-13T10:32:43Z</time>
<extensions>
<tp1:TrackPointExtension>
<tp1:hr>123</tp1:hr>
</tp1:TrackPointExtension>
</extensions>
</trkpt>
<trkpt lat="50.7855950" lon="6.9505740">
<ele>51.7380000</ele>
<time>2012-04-13T10:32:47Z</time>
<extensions>
<tp1:TrackPointExtension>
<tp1:hr>125</tp1:hr>
</tp1:TrackPointExtension>
</extensions>
</trkpt>
<trkpt lat="50.7858410" lon="6.9502800">
<ele>52.0800000</ele>
<time>2012-04-13T10:32:54Z</time>
<extensions>
<tp1:TrackPointExtension>
<tp1:hr>130</tp1:hr>
</tp1:TrackPointExtension>
</extensions>
</trkpt>
<trkpt lat="50.7861740" lon="6.9497290">
<ele>52.5810000</ele>
<time>2012-04-13T10:33:03Z</time>
<extensions>
<tp1:TrackPointExtension>
<tp1:hr>132</tp1:hr>
</tp1:TrackPointExtension>
</extensions>
</trkpt>
<trkpt lat="50.7864870" lon="6.9490480">
<ele>51.5780000</ele>
<time>2012-04-13T10:33:12Z</time>
<extensions>
<tp1:TrackPointExtension>
<tp1:hr>132</tp1:hr>
</tp1:TrackPointExtension>
</extensions>
</trkpt>
<trkpt lat="50.7867070" lon="6.9484750">
<ele>51.1420000</ele>
<time>2012-04-13T10:33:19Z</time>
<extensions>
<tp1:TrackPointExtension>
<tp1:hr>132</tp1:hr>
</tp1:TrackPointExtension>
</extensions>
</trkpt>
<trkpt lat="50.7867310" lon="6.9483900">
<ele>51.1360000</ele>
<time>2012-04-13T10:33:20Z</time>
<extensions>
<tp1:TrackPointExtension>
<tp1:hr>131</tp1:hr>
</tp1:TrackPointExtension>
</extensions>
</trkpt>
<trkpt lat="50.7868760" lon="6.9481120">
<ele>51.1460000</ele>
<time>2012-04-13T10:33:24Z</time>
<extensions>
<tp1:TrackPointExtension>
<tp1:hr>131</tp1:hr>
</tp1:TrackPointExtension>
</extensions>
</trkpt>
<trkpt lat="50.7872340" lon="6.9476350">
<ele>51.0920000</ele>
<time>2012-04-13T10:33:32Z</time>
<extensions>
<tp1:TrackPointExtension>
<tp1:hr>132</tp1:hr>
</tp1:TrackPointExtension>
</extensions>
</trkpt>
<trkpt lat="50.7875500" lon="6.9471770">
<ele>50.6070000</ele>
<time>2012-04-13T10:33:39Z</time>
<extensions>
<tp1:TrackPointExtension>
<tp1:hr>131</tp1:hr>
</tp1:TrackPointExtension>
</extensions>
</trkpt>
<trkpt lat="50.7879360" lon="6.9465870">
<ele>50.4860000</ele>
<time>2012-04-13T10:33:48Z</time>
<extensions>
<tp1:TrackPointExtension>
<tp1:hr>131</tp1:hr>
</tp1:TrackPointExtension>
</extensions>
</trkpt>
<trkpt lat="50.7883740" lon="6.9459730">
<ele>50.2490000</ele>
<time>2012-04-13T10:33:58Z</time>
<extensions>
<tp1:TrackPointExtension>
<tp1:hr>131</tp1:hr>
</tp1:TrackPointExtension>
</extensions>
</trkpt>
<trkpt lat="50.7887000" lon="6.9456020">
<ele>50.1090000</ele>
<time>2012-04-13T10:34:05Z</time>
<extensions>
<tp1:TrackPointExtension>
<tp1:hr>132</tp1:hr>
</tp1:TrackPointExtension>
</extensions>
</trkpt>
<trkpt lat="50.7892560" lon="6.9450080">
<ele>50.5740000</ele>
<time>2012-04-13T10:34:17Z</time>
<extensions>
<tp1:TrackPointExtension>
<tp1:hr>136</tp1:hr>
</tp1:TrackPointExtension>
</extensions>
</trkpt>
<trkpt lat="50.7897460" lon="6.9446160">
<ele>51.2080000</ele>
<time>2012-04-13T10:34:27Z</time>
<extensions>
<tp1:TrackPointExtension>
<tp1:hr>139</tp1:hr>
</tp1:TrackPointExtension>
</extensions>
</trkpt>
<trkpt lat="50.7901040" lon="6.9443270">
<ele>51.7010000</ele>
<time>2012-04-13T10:34:35Z</time>
<extensions>
<tp1:TrackPointExtension>
<tp1:hr>140</tp1:hr>
</tp1:TrackPointExtension>
</extensions>
</trkpt>
<trkpt lat="50.7903900" lon="6.9441070">
<ele>52.5290000</ele>
<time>2012-04-13T10:34:42Z</time>
<extensions>
<tp1:TrackPointExtension>
<tp1:hr>141</tp1:hr>
</tp1:TrackPointExtension>
</extensions>
</trkpt>
<trkpt lat="50.7907520" lon="6.9438460">
<ele>53.0810000</ele>
<time>2012-04-13T10:34:50Z</time>
<extensions>
<tp1:TrackPointExtension>
<tp1:hr>140</tp1:hr>
</tp1:TrackPointExtension>
</extensions>
</trkpt>
<trkpt lat="50.7912760" lon="6.9434750">
<ele>52.7000000</ele>
<time>2012-04-13T10:35:00Z</time>
<extensions>
<tp1:TrackPointExtension>
<tp1:hr>140</tp1:hr>
</tp1:TrackPointExtension>
</extensions>
</trkpt>
<trkpt lat="50.7918010" lon="6.9430970">
<ele>51.5570000</ele>
<time>2012-04-13T10:35:09Z</time>
<extensions>
<tp1:TrackPointExtension>
<tp1:hr>135</tp1:hr>
</tp1:TrackPointExtension>
</extensions>
</trkpt>
<trkpt lat="50.7922660" lon="6.9427690">
<ele>50.1080000</ele>
<time>2012-04-13T10:35:17Z</time>
<extensions>
<tp1:TrackPointExtension>
<tp1:hr>130</tp1:hr>
</tp1:TrackPointExtension>
</extensions>
</trkpt>
<trkpt lat="50.7928750" lon="6.9423240">
<ele>49.4700000</ele>
<time>2012-04-13T10:35:28Z</time>
<extensions>
<tp1:TrackPointExtension>
<tp1:hr>130</tp1:hr>
</tp1:TrackPointExtension>
</extensions>
</trkpt>
<trkpt lat="50.7931320" lon="6.9419470">
<ele>49.0790000</ele>
<time>2012-04-13T10:35:34Z</time>
<extensions>
<tp1:TrackPointExtension>
<tp1:hr>130</tp1:hr>
</tp1:TrackPointExtension>
</extensions>
</trkpt>
<trkpt lat="50.7935340" lon="6.9411730">
<ele>48.9780000</ele>
<time>2012-04-13T10:35:45Z</time>
<extensions>
<tp1:TrackPointExtension>
<tp1:hr>131</tp1:hr>
</tp1:TrackPointExtension>
</extensions>
</trkpt>
<trkpt lat="50.7939720" lon="6.9403290">
<ele>49.0690000</ele>
<time>2012-04-13T10:35:57Z</time>
<extensions>
<tp1:TrackPointExtension>
<tp1:hr>131</tp1:hr>
</tp1:TrackPointExtension>
</extensions>
</trkpt>
<trkpt lat="50.7942960" lon="6.9397030">
<ele>48.7700000</ele>
<time>2012-04-13T10:36:06Z</time>
<extensions>
<tp1:TrackPointExtension>
<tp1:hr>133</tp1:hr>
</tp1:TrackPointExtension>
</extensions>
</trkpt>
<trkpt lat="50.7945980" lon="6.9391120">
<ele>48.3790000</ele>
<time>2012-04-13T10:36:15Z</time>
<extensions>
<tp1:TrackPointExtension>
<tp1:hr>133</tp1:hr>
</tp1:TrackPointExtension>
</extensions>
</trkpt>
<trkpt lat="50.7948100" lon="6.9386810">
<ele>48.0870000</ele>
<time>2012-04-13T10:36:22Z</time>
<extensions>
<tp1:TrackPointExtension>
<tp1:hr>132</tp1:hr>
</tp1:TrackPointExtension>
</extensions>
</trkpt>
<trkpt lat="50.7949930" lon="6.9383080">
<ele>47.9140000</ele>
<time>2012-04-13T10:36:28Z</time>
<extensions>
<tp1:TrackPointExtension>
<tp1:hr>133</tp1:hr>
</tp1:TrackPointExtension>
</extensions>
</trkpt>
<trkpt lat="50.7951310" lon="6.9380570">
<ele>47.9310000</ele>
<time>2012-04-13T10:36:33Z</time>
<extensions>
<tp1:TrackPointExtension>
<tp1:hr>132</tp1:hr>
</tp1:TrackPointExtension>
</extensions>
</trkpt>
<trkpt lat="50.7953260" lon="6.9376830">
<ele>47.5980000</ele>
<time>2012-04-13T10:36:41Z</time>
<extensions>
<tp1:TrackPointExtension>
<tp1:hr>128</tp1:hr>
</tp1:TrackPointExtension>
</extensions>
</trkpt>
<trkpt lat="50.7955750" lon="6.9372120">
<ele>47.9080000</ele>
<time>2012-04-13T10:36:48Z</time>
<extensions>
<tp1:TrackPointExtension>
<tp1:hr>131</tp1:hr>
</tp1:TrackPointExtension>
</extensions>
</trkpt>
<trkpt lat="50.7958470" lon="6.9366960">
<ele>48.8970000</ele>
<time>2012-04-13T10:36:55Z</time>
<extensions>
<tp1:TrackPointExtension>
<tp1:hr>137</tp1:hr>
</tp1:TrackPointExtension>
</extensions>
</trkpt>
<trkpt lat="50.7963790" lon="6.9356640">
<ele>50.1530000</ele>
<time>2012-04-13T10:37:09Z</time>
<extensions>
<tp1:TrackPointExtension>
<tp1:hr>139</tp1:hr>
</tp1:TrackPointExtension>
</extensions>
</trkpt>
<trkpt lat="50.7967290" lon="6.9349850">
<ele>49.7780000</ele>
<time>2012-04-13T10:37:18Z</time>
<extensions>
<tp1:TrackPointExtension>
<tp1:hr>144</tp1:hr>
</tp1:TrackPointExtension>
</extensions>
</trkpt>
<trkpt lat="50.7970570" lon="6.9342690">
<ele>48.8380000</ele>
<time>2012-04-13T10:37:27Z</time>
<extensions>
<tp1:TrackPointExtension>
<tp1:hr>146</tp1:hr>
</tp1:TrackPointExtension>
</extensions>
</trkpt>
<trkpt lat="50.7974230" lon="6.9333380">
<ele>47.4830000</ele>
<time>2012-04-13T10:37:38Z</time>
<extensions>
<tp1:TrackPointExtension>
<tp1:hr>143</tp1:hr>
</tp1:TrackPointExtension>
</extensions>
</trkpt>
<trkpt lat="50.7978830" lon="6.9321530">
<ele>47.5590000</ele>
<time>2012-04-13T10:37:52Z</time>
<extensions>
<tp1:TrackPointExtension>
<tp1:hr>142</tp1:hr>
</tp1:TrackPointExtension>
</extensions>
</trkpt>
<trkpt lat="50.7982580" lon="6.9312260">
<ele>47.1300000</ele>
<time>2012-04-13T10:38:03Z</time>
<extensions>
<tp1:TrackPointExtension>
<tp1:hr>140</tp1:hr>
</tp1:TrackPointExtension>
</extensions>
</trkpt>
<trkpt lat="50.7986770" lon="6.9303850">
<ele>47.1730000</ele>
<time>2012-04-13T10:38:14Z</time>
<extensions>
<tp1:TrackPointExtension>
<tp1:hr>138</tp1:hr>
</tp1:TrackPointExtension>
</extensions>
</trkpt>
<trkpt lat="50.7987120" lon="6.9303150">
<ele>47.2560000</ele>
<time>2012-04-13T10:38:15Z</time>
<extensions>
<tp1:TrackPointExtension>
<tp1:hr>137</tp1:hr>
</tp1:TrackPointExtension>
</extensions>
</trkpt>
<trkpt lat="50.7991340" lon="6.9297900">
<ele>46.8050000</ele>
<time>2012-04-13T10:38:24Z</time>
<extensions>
<tp1:TrackPointExtension>
<tp1:hr>138</tp1:hr>
</tp1:TrackPointExtension>
</extensions>
</trkpt>
<trkpt lat="50.7997510" lon="6.9291610">
<ele>46.4640000</ele>
<time>2012-04-13T10:38:36Z</time>
<extensions>
<tp1:TrackPointExtension>
<tp1:hr>141</tp1:hr>
</tp1:TrackPointExtension>
</extensions>
</trkpt>
<trkpt lat="50.8002410" lon="6.9285700">
<ele>46.2140000</ele>
<time>2012-04-13T10:38:46Z</time>
<extensions>
<tp1:TrackPointExtension>
<tp1:hr>140</tp1:hr>
</tp1:TrackPointExtension>
</extensions>
</trkpt>
<trkpt lat="50.8004770" lon="6.9281150">
<ele>45.9540000</ele>
<time>2012-04-13T10:38:52Z</time>
<extensions>
<tp1:TrackPointExtension>
<tp1:hr>140</tp1:hr>
</tp1:TrackPointExtension>
</extensions>
</trkpt>
<trkpt lat="50.8009590" lon="6.9272140">
<ele>45.8040000</ele>
<time>2012-04-13T10:39:04Z</time>
<extensions>
<tp1:TrackPointExtension>
<tp1:hr>138</tp1:hr>
</tp1:TrackPointExtension>
</extensions>
</trkpt>
<trkpt lat="50.8012470" lon="6.9265780">
<ele>46.1090000</ele>
<time>2012-04-13T10:39:12Z</time>
<extensions>
<tp1:TrackPointExtension>
<tp1:hr>139</tp1:hr>
</tp1:TrackPointExtension>
</extensions>
</trkpt>
<trkpt lat="50.8014710" lon="6.9257740">
<ele>46.2940000</ele>
<time>2012-04-13T10:39:21Z</time>
<extensions>
<tp1:TrackPointExtension>
<tp1:hr>140</tp1:hr>
</tp1:TrackPointExtension>
</extensions>
</trkpt>
<trkpt lat="50.8016530" lon="6.9250420">
<ele>46.5060000</ele>
<time>2012-04-13T10:39:29Z</time>
<extensions>
<tp1:TrackPointExtension>
<tp1:hr>140</tp1:hr>
</tp1:TrackPointExtension>
</extensions>
</trkpt>
<trkpt lat="50.8019090" lon="6.9239540">
<ele>46.0090000</ele>
<time>2012-04-13T10:39:41Z</time>
<extensions>
<tp1:TrackPointExtension>
<tp1:hr>137</tp1:hr>
</tp1:TrackPointExtension>
</extensions>
</trkpt>
<trkpt lat="50.8020720" lon="6.9230210">
<ele>46.5370000</ele>
<time>2012-04-13T10:39:51Z</time>
<extensions>
<tp1:TrackPointExtension>
<tp1:hr>139</tp1:hr>
</tp1:TrackPointExtension>
</extensions>
</trkpt>
<trkpt lat="50.8021990" lon="6.9219080">
<ele>46.4690000</ele>
<time>2012-04-13T10:40:03Z</time>
<extensions>
<tp1:TrackPointExtension>
<tp1:hr>140</tp1:hr>
</tp1:TrackPointExtension>
</extensions>
</trkpt>
<trkpt lat="50.8022610" lon="6.9212470">
<ele>46.6130000</ele>
<time>2012-04-13T10:40:10Z</time>
<extensions>
<tp1:TrackPointExtension>
<tp1:hr>143</tp1:hr>
</tp1:TrackPointExtension>
</extensions>
</trkpt>
<trkpt lat="50.8023340" lon="6.9204730">
<ele>46.5860000</ele>
<time>2012-04-13T10:40:18Z</time>
<extensions>
<tp1:TrackPointExtension>
<tp1:hr>143</tp1:hr>
</tp1:TrackPointExtension>
</extensions>
</trkpt>
<trkpt lat="50.8023930" lon="6.9199020">
<ele>46.5550000</ele>
<time>2012-04-13T10:40:24Z</time>
<extensions>
<tp1:TrackPointExtension>
<tp1:hr>143</tp1:hr>
</tp1:TrackPointExtension>
</extensions>
</trkpt>
<trkpt lat="50.8025550" lon="6.9193650">
<ele>46.4690000</ele>
<time>2012-04-13T10:40:30Z</time>
<extensions>
<tp1:TrackPointExtension>
<tp1:hr>143</tp1:hr>
</tp1:TrackPointExtension>
</extensions>
</trkpt>
<trkpt lat="50.8026780" lon="6.9190390">
<ele>46.3670000</ele>
<time>2012-04-13T10:40:34Z</time>
<extensions>
<tp1:TrackPointExtension>
<tp1:hr>143</tp1:hr>
</tp1:TrackPointExtension>
</extensions>
</trkpt>
<trkpt lat="50.8028800" lon="6.9188200">
<ele>46.2840000</ele>
<time>2012-04-13T10:40:38Z</time>
<extensions>
<tp1:TrackPointExtension>
<tp1:hr>143</tp1:hr>
</tp1:TrackPointExtension>
</extensions>
</trkpt>
<trkpt lat="50.8032900" lon="6.9185750">
<ele>45.7270000</ele>
<time>2012-04-13T10:40:45Z</time>
<extensions>
<tp1:TrackPointExtension>
<tp1:hr>142</tp1:hr>
</tp1:TrackPointExtension>
</extensions>
</trkpt>
<trkpt lat="50.8033450" lon="6.9185330">
<ele>45.6400000</ele>
<time>2012-04-13T10:40:46Z</time>
<extensions>
<tp1:TrackPointExtension>
<tp1:hr>142</tp1:hr>
</tp1:TrackPointExtension>
</extensions>
</trkpt>
<trkpt lat="50.8036310" lon="6.9181640">
<ele>45.2510000</ele>
<time>2012-04-13T10:40:52Z</time>
<extensions>
<tp1:TrackPointExtension>
<tp1:hr>140</tp1:hr>
</tp1:TrackPointExtension>
</extensions>
</trkpt>
<trkpt lat="50.8039030" lon="6.9179360">
<ele>45.1900000</ele>
<time>2012-04-13T10:40:57Z</time>
<extensions>
<tp1:TrackPointExtension>
<tp1:hr>140</tp1:hr>
</tp1:TrackPointExtension>
</extensions>
</trkpt>
<trkpt lat="50.8041930" lon="6.9177760">
<ele>44.9620000</ele>
<time>2012-04-13T10:41:02Z</time>
<extensions>
<tp1:TrackPointExtension>
<tp1:hr>138</tp1:hr>
</tp1:TrackPointExtension>
</extensions>
</trkpt>
<trkpt lat="50.8047680" lon="6.9173650">
<ele>44.6530000</ele>
<time>2012-04-13T10:41:12Z</time>
<extensions>
<tp1:TrackPointExtension>
<tp1:hr>138</tp1:hr>
</tp1:TrackPointExtension>
</extensions>
</trkpt>
<trkpt lat="50.8051730" lon="6.9170830">
<ele>44.1880000</ele>
<time>2012-04-13T10:41:19Z</time>
<extensions>
<tp1:TrackPointExtension>
<tp1:hr>138</tp1:hr>
</tp1:TrackPointExtension>
</extensions>
</trkpt>
<trkpt lat="50.8052990" lon="6.9168790">
<ele>43.9020000</ele>
<time>2012-04-13T10:41:22Z</time>
<extensions>
<tp1:TrackPointExtension>
<tp1:hr>138</tp1:hr>
</tp1:TrackPointExtension>
</extensions>
</trkpt>
<trkpt lat="50.8052960" lon="6.9165820">
<ele>43.6830000</ele>
<time>2012-04-13T10:41:25Z</time>
<extensions>
<tp1:TrackPointExtension>
<tp1:hr>138</tp1:hr>
</tp1:TrackPointExtension>
</extensions>
</trkpt>
<trkpt lat="50.8053160" lon="6.9163790">
<ele>43.6030000</ele>
<time>2012-04-13T10:41:27Z</time>
<extensions>
<tp1:TrackPointExtension>
<tp1:hr>138</tp1:hr>
</tp1:TrackPointExtension>
</extensions>
</trkpt>
<trkpt lat="50.8055130" lon="6.9155390">
<ele>43.9190000</ele>
<time>2012-04-13T10:41:36Z</time>
<extensions>
<tp1:TrackPointExtension>
<tp1:hr>139</tp1:hr>
</tp1:TrackPointExtension>
</extensions>
</trkpt>
<trkpt lat="50.8056960" lon="6.9152630">
<ele>44.0840000</ele>
<time>2012-04-13T10:41:40Z</time>
<extensions>
<tp1:TrackPointExtension>
<tp1:hr>139</tp1:hr>
</tp1:TrackPointExtension>
</extensions>
</trkpt>
<trkpt lat="50.8062130" lon="6.9147600">
<ele>44.2220000</ele>
<time>2012-04-13T10:41:50Z</time>
<extensions>
<tp1:TrackPointExtension>
<tp1:hr>141</tp1:hr>
</tp1:TrackPointExtension>
</extensions>
</trkpt>
<trkpt lat="50.8064470" lon="6.9145160">
<ele>44.3630000</ele>
<time>2012-04-13T10:41:55Z</time>
<extensions>
<tp1:TrackPointExtension>
<tp1:hr>141</tp1:hr>
</tp1:TrackPointExtension>
</extensions>
</trkpt>
<trkpt lat="50.8069450" lon="6.9141640">
<ele>44.3490000</ele>
<time>2012-04-13T10:42:04Z</time>
<extensions>
<tp1:TrackPointExtension>
<tp1:hr>142</tp1:hr>
</tp1:TrackPointExtension>
</extensions>
</trkpt>
<trkpt lat="50.8075030" lon="6.9137670">
<ele>44.2050000</ele>
<time>2012-04-13T10:42:14Z</time>
<extensions>
<tp1:TrackPointExtension>
<tp1:hr>144</tp1:hr>
</tp1:TrackPointExtension>
</extensions>
</trkpt>
<trkpt lat="50.8078950" lon="6.9134810">
<ele>44.2530000</ele>
<time>2012-04-13T10:42:21Z</time>
<extensions>
<tp1:TrackPointExtension>
<tp1:hr>145</tp1:hr>
</tp1:TrackPointExtension>
</extensions>
</trkpt>
<trkpt lat="50.8083460" lon="6.9131440">
<ele>44.2600000</ele>
<time>2012-04-13T10:42:29Z</time>
<extensions>
<tp1:TrackPointExtension>
<tp1:hr>146</tp1:hr>
</tp1:TrackPointExtension>
</extensions>
</trkpt>
<trkpt lat="50.8088360" lon="6.9127130">
<ele>44.3160000</ele>
<time>2012-04-13T10:42:38Z</time>
<extensions>
<tp1:TrackPointExtension>
<tp1:hr>145</tp1:hr>
</tp1:TrackPointExtension>
</extensions>
</trkpt>
<trkpt lat="50.8094200" lon="6.9121370">
<ele>44.6410000</ele>
<time>2012-04-13T10:42:49Z</time>
<extensions>
<tp1:TrackPointExtension>
<tp1:hr>144</tp1:hr>
</tp1:TrackPointExtension>
</extensions>
</trkpt>
<trkpt lat="50.8095810" lon="6.9119640">
<ele>44.5650000</ele>
<time>2012-04-13T10:42:52Z</time>
<extensions>
<tp1:TrackPointExtension>
<tp1:hr>143</tp1:hr>
</tp1:TrackPointExtension>
</extensions>
</trkpt>
<trkpt lat="50.8099350" lon="6.9116830">
<ele>44.1340000</ele>
<time>2012-04-13T10:42:58Z</time>
<extensions>
<tp1:TrackPointExtension>
<tp1:hr>141</tp1:hr>
</tp1:TrackPointExtension>
</extensions>
</trkpt>
<trkpt lat="50.8104710" lon="6.9111820">
<ele>43.2370000</ele>
<time>2012-04-13T10:43:08Z</time>
<extensions>
<tp1:TrackPointExtension>
<tp1:hr>141</tp1:hr>
</tp1:TrackPointExtension>
</extensions>
</trkpt>
<trkpt lat="50.8111100" lon="6.9105970">
<ele>42.5370000</ele>
<time>2012-04-13T10:43:20Z</time>
<extensions>
<tp1:TrackPointExtension>
<tp1:hr>140</tp1:hr>
</tp1:TrackPointExtension>
</extensions>
</trkpt>
<trkpt lat="50.8114920" lon="6.9102540">
<ele>42.4290000</ele>
<time>2012-04-13T10:43:27Z</time>
<extensions>
<tp1:TrackPointExtension>
<tp1:hr>140</tp1:hr>
</tp1:TrackPointExtension>
</extensions>
</trkpt>
<trkpt lat="50.8120400" lon="6.9097700">
<ele>42.4630000</ele>
<time>2012-04-13T10:43:37Z</time>
<extensions>
<tp1:TrackPointExtension>
<tp1:hr>143</tp1:hr>
</tp1:TrackPointExtension>
</extensions>
</trkpt>
<trkpt lat="50.8127520" lon="6.9091700">
<ele>42.3130000</ele>
<time>2012-04-13T10:43:50Z</time>
<extensions>
<tp1:TrackPointExtension>
<tp1:hr>144</tp1:hr>
</tp1:TrackPointExtension>
</extensions>
</trkpt>
<trkpt lat="50.8135270" lon="6.9085510">
<ele>42.5240000</ele>
<time>2012-04-13T10:44:04Z</time>
<extensions>
<tp1:TrackPointExtension>
<tp1:hr>143</tp1:hr>
</tp1:TrackPointExtension>
</extensions>
</trkpt>
<trkpt lat="50.8141950" lon="6.9080680">
<ele>42.5130000</ele>
<time>2012-04-13T10:44:16Z</time>
<extensions>
<tp1:TrackPointExtension>
<tp1:hr>144</tp1:hr>
</tp1:TrackPointExtension>
</extensions>
</trkpt>
<trkpt lat="50.8148270" lon="6.9077090">
<ele>42.3090000</ele>
<time>2012-04-13T10:44:27Z</time>
<extensions>
<tp1:TrackPointExtension>
<tp1:hr>144</tp1:hr>
</tp1:TrackPointExtension>
</extensions>
</trkpt>
<trkpt lat="50.8149950" lon="6.9076220">
<ele>42.3810000</ele>
<time>2012-04-13T10:44:30Z</time>
<extensions>
<tp1:TrackPointExtension>
<tp1:hr>144</tp1:hr>
</tp1:TrackPointExtension>
</extensions>
</trkpt>
<trkpt lat="50.8152300" lon="6.9075930">
<ele>42.5650000</ele>
<time>2012-04-13T10:44:34Z</time>
<extensions>
<tp1:TrackPointExtension>
<tp1:hr>146</tp1:hr>
</tp1:TrackPointExtension>
</extensions>
</trkpt>
<trkpt lat="50.8153440" lon="6.9075210">
<ele>42.5960000</ele>
<time>2012-04-13T10:44:36Z</time>
<extensions>
<tp1:TrackPointExtension>
<tp1:hr>146</tp1:hr>
</tp1:TrackPointExtension>
</extensions>
</trkpt>
<trkpt lat="50.8158440" lon="6.9073170">
<ele>42.3570000</ele>
<time>2012-04-13T10:44:44Z</time>
<extensions>
<tp1:TrackPointExtension>
<tp1:hr>147</tp1:hr>
</tp1:TrackPointExtension>
</extensions>
</trkpt>
<trkpt lat="50.8164520" lon="6.9071290">
<ele>41.5240000</ele>
<time>2012-04-13T10:44:54Z</time>
<extensions>
<tp1:TrackPointExtension>
<tp1:hr>144</tp1:hr>
</tp1:TrackPointExtension>
</extensions>
</trkpt>
<trkpt lat="50.8171850" lon="6.9069290">
<ele>41.1490000</ele>
<time>2012-04-13T10:45:06Z</time>
<extensions>
<tp1:TrackPointExtension>
<tp1:hr>143</tp1:hr>
</tp1:TrackPointExtension>
</extensions>
</trkpt>
<trkpt lat="50.8179820" lon="6.9066940">
<ele>40.5620000</ele>
<time>2012-04-13T10:45:19Z</time>
<extensions>
<tp1:TrackPointExtension>
<tp1:hr>142</tp1:hr>
</tp1:TrackPointExtension>
</extensions>
</trkpt>
<trkpt lat="50.8184630" lon="6.9064210">
<ele>40.5100000</ele>
<time>2012-04-13T10:45:27Z</time>
<extensions>
<tp1:TrackPointExtension>
<tp1:hr>142</tp1:hr>
</tp1:TrackPointExtension>
</extensions>
</trkpt>
<trkpt lat="50.8190120" lon="6.9059370">
<ele>40.3900000</ele>
<time>2012-04-13T10:45:37Z</time>
<extensions>
<tp1:TrackPointExtension>
<tp1:hr>141</tp1:hr>
</tp1:TrackPointExtension>
</extensions>
</trkpt>
<trkpt lat="50.8196500" lon="6.9053040">
<ele>40.7220000</ele>
<time>2012-04-13T10:45:49Z</time>
<extensions>
<tp1:TrackPointExtension>
<tp1:hr>142</tp1:hr>
</tp1:TrackPointExtension>
</extensions>
</trkpt>
<trkpt lat="50.8201890" lon="6.9047940">
<ele>40.9280000</ele>
<time>2012-04-13T10:45:59Z</time>
<extensions>
<tp1:TrackPointExtension>
<tp1:hr>143</tp1:hr>
</tp1:TrackPointExtension>
</extensions>
</trkpt>
<trkpt lat="50.8207330" lon="6.9043070">
<ele>40.3920000</ele>
<time>2012-04-13T10:46:09Z</time>
<extensions>
<tp1:TrackPointExtension>
<tp1:hr>143</tp1:hr>
</tp1:TrackPointExtension>
</extensions>
</trkpt>
<trkpt lat="50.8213430" lon="6.9037650">
<ele>40.0100000</ele>
<time>2012-04-13T10:46:20Z</time>
<extensions>
<tp1:TrackPointExtension>
<tp1:hr>142</tp1:hr>
</tp1:TrackPointExtension>
</extensions>
</trkpt>
<trkpt lat="50.8219520" lon="6.9032250">
<ele>39.7060000</ele>
<time>2012-04-13T10:46:31Z</time>
<extensions>
<tp1:TrackPointExtension>
<tp1:hr>142</tp1:hr>
</tp1:TrackPointExtension>
</extensions>
</trkpt>
<trkpt lat="50.8225720" lon="6.9026840">
<ele>39.2370000</ele>
<time>2012-04-13T10:46:42Z</time>
<extensions>
<tp1:TrackPointExtension>
<tp1:hr>141</tp1:hr>
</tp1:TrackPointExtension>
</extensions>
</trkpt>
<trkpt lat="50.8228060" lon="6.9024990">
<ele>38.9720000</ele>
<time>2012-04-13T10:46:46Z</time>
<extensions>
<tp1:TrackPointExtension>
<tp1:hr>141</tp1:hr>
</tp1:TrackPointExtension>
</extensions>
</trkpt>
<trkpt lat="50.8232190" lon="6.9022250">
<ele>38.8030000</ele>
<time>2012-04-13T10:46:53Z</time>
<extensions>
<tp1:TrackPointExtension>
<tp1:hr>140</tp1:hr>
</tp1:TrackPointExtension>
</extensions>
</trkpt>
<trkpt lat="50.8236540" lon="6.9021870">
<ele>38.8550000</ele>
<time>2012-04-13T10:47:00Z</time>
<extensions>
<tp1:TrackPointExtension>
<tp1:hr>141</tp1:hr>
</tp1:TrackPointExtension>
</extensions>
</trkpt>
<trkpt lat="50.8243370" lon="6.9021520">
<ele>39.2280000</ele>
<time>2012-04-13T10:47:11Z</time>
<extensions>
<tp1:TrackPointExtension>
<tp1:hr>143</tp1:hr>
</tp1:TrackPointExtension>
</extensions>
</trkpt>
<trkpt lat="50.8248470" lon="6.9021600">
<ele>39.1730000</ele>
<time>2012-04-13T10:47:19Z</time>
<extensions>
<tp1:TrackPointExtension>
<tp1:hr>143</tp1:hr>
</tp1:TrackPointExtension>
</extensions>
</trkpt>
<trkpt lat="50.8252210" lon="6.9021480">
<ele>39.4610000</ele>
<time>2012-04-13T10:47:25Z</time>
<extensions>
<tp1:TrackPointExtension>
<tp1:hr>144</tp1:hr>
</tp1:TrackPointExtension>
</extensions>
</trkpt>
<trkpt lat="50.8255970" lon="6.9019750">
<ele>39.8610000</ele>
<time>2012-04-13T10:47:31Z</time>
<extensions>
<tp1:TrackPointExtension>
<tp1:hr>146</tp1:hr>
</tp1:TrackPointExtension>
</extensions>
</trkpt>
<trkpt lat="50.8259920" lon="6.9017120">
<ele>39.7690000</ele>
<time>2012-04-13T10:47:38Z</time>
<extensions>
<tp1:TrackPointExtension>
<tp1:hr>148</tp1:hr>
</tp1:TrackPointExtension>
</extensions>
</trkpt>
<trkpt lat="50.8260520" lon="6.9016770">
<ele>39.7550000</ele>
<time>2012-04-13T10:47:39Z</time>
<extensions>
<tp1:TrackPointExtension>
<tp1:hr>147</tp1:hr>
</tp1:TrackPointExtension>
</extensions>
</trkpt>
<trkpt lat="50.8263180" lon="6.9015970">
<ele>39.7080000</ele>
<time>2012-04-13T10:47:45Z</time>
<extensions>
<tp1:TrackPointExtension>
<tp1:hr>143</tp1:hr>
</tp1:TrackPointExtension>
</extensions>
</trkpt>
<trkpt lat="50.8264810" lon="6.9015970">
<ele>39.6580000</ele>
<time>2012-04-13T10:47:49Z</time>
<extensions>
<tp1:TrackPointExtension>
<tp1:hr>141</tp1:hr>
</tp1:TrackPointExtension>
</extensions>
</trkpt>
<trkpt lat="50.8265400" lon="6.9014740">
<ele>39.6660000</ele>
<time>2012-04-13T10:47:52Z</time>
<extensions>
<tp1:TrackPointExtension>
<tp1:hr>140</tp1:hr>
</tp1:TrackPointExtension>
</extensions>
</trkpt>
<trkpt lat="50.8265720" lon="6.9011230">
<ele>39.7420000</ele>
<time>2012-04-13T10:47:56Z</time>
<extensions>
<tp1:TrackPointExtension>
<tp1:hr>140</tp1:hr>
</tp1:TrackPointExtension>
</extensions>
</trkpt>
<trkpt lat="50.8266870" lon="6.9002920">
<ele>40.0410000</ele>
<time>2012-04-13T10:48:05Z</time>
<extensions>
<tp1:TrackPointExtension>
<tp1:hr>143</tp1:hr>
</tp1:TrackPointExtension>
</extensions>
</trkpt>
<trkpt lat="50.8267890" lon="6.8994480">
<ele>40.2860000</ele>
<time>2012-04-13T10:48:14Z</time>
<extensions>
<tp1:TrackPointExtension>
<tp1:hr>142</tp1:hr>
</tp1:TrackPointExtension>
</extensions>
</trkpt>
<trkpt lat="50.8268180" lon="6.8990760">
<ele>40.4120000</ele>
<time>2012-04-13T10:48:18Z</time>
<extensions>
<tp1:TrackPointExtension>
<tp1:hr>143</tp1:hr>
</tp1:TrackPointExtension>
</extensions>
</trkpt>
<trkpt lat="50.8268350" lon="6.8983970">
<ele>40.3710000</ele>
<time>2012-04-13T10:48:25Z</time>
<extensions>
<tp1:TrackPointExtension>
<tp1:hr>146</tp1:hr>
</tp1:TrackPointExtension>
</extensions>
</trkpt>
<trkpt lat="50.8268380" lon="6.8975330">
<ele>40.9930000</ele>
<time>2012-04-13T10:48:34Z</time>
<extensions>
<tp1:TrackPointExtension>
<tp1:hr>149</tp1:hr>
</tp1:TrackPointExtension>
</extensions>
</trkpt>
<trkpt lat="50.8268790" lon="6.8965210">
<ele>41.3910000</ele>
<time>2012-04-13T10:48:45Z</time>
<extensions>
<tp1:TrackPointExtension>
<tp1:hr>148</tp1:hr>
</tp1:TrackPointExtension>
</extensions>
</trkpt>
<trkpt lat="50.8268870" lon="6.8962480">
<ele>41.6530000</ele>
<time>2012-04-13T10:48:48Z</time>
<extensions>
<tp1:TrackPointExtension>
<tp1:hr>148</tp1:hr>
</tp1:TrackPointExtension>
</extensions>
</trkpt>
<trkpt lat="50.8269280" lon="6.8956790">
<ele>42.3370000</ele>
<time>2012-04-13T10:48:54Z</time>
<extensions>
<tp1:TrackPointExtension>
<tp1:hr>148</tp1:hr>
</tp1:TrackPointExtension>
</extensions>
</trkpt>
<trkpt lat="50.8270240" lon="6.8948680">
<ele>43.3110000</ele>
<time>2012-04-13T10:49:03Z</time>
<extensions>
<tp1:TrackPointExtension>
<tp1:hr>149</tp1:hr>
</tp1:TrackPointExtension>
</extensions>
</trkpt>
<trkpt lat="50.8271630" lon="6.8946360">
<ele>43.5830000</ele>
<time>2012-04-13T10:49:07Z</time>
<extensions>
<tp1:TrackPointExtension>
<tp1:hr>147</tp1:hr>
</tp1:TrackPointExtension>
</extensions>
</trkpt>
<trkpt lat="50.8272710" lon="6.8946650">
<ele>43.7440000</ele>
<time>2012-04-13T10:49:09Z</time>
<extensions>
<tp1:TrackPointExtension>
<tp1:hr>147</tp1:hr>
</tp1:TrackPointExtension>
</extensions>
</trkpt>
<trkpt lat="50.8276100" lon="6.8947500">
<ele>44.2090000</ele>
<time>2012-04-13T10:49:15Z</time>
<extensions>
<tp1:TrackPointExtension>
<tp1:hr>147</tp1:hr>
</tp1:TrackPointExtension>
</extensions>
</trkpt>
<trkpt lat="50.8279860" lon="6.8948530">
<ele>44.3630000</ele>
<time>2012-04-13T10:49:23Z</time>
<extensions>
<tp1:TrackPointExtension>
<tp1:hr>144</tp1:hr>
</tp1:TrackPointExtension>
</extensions>
</trkpt>
<trkpt lat="50.8280830" lon="6.8948720">
<ele>44.1710000</ele>
<time>2012-04-13T10:49:27Z</time>
<extensions>
<tp1:TrackPointExtension>
<tp1:hr>142</tp1:hr>
</tp1:TrackPointExtension>
</extensions>
</trkpt>
<trkpt lat="50.8281630" lon="6.8948240">
<ele>44.0730000</ele>
<time>2012-04-13T10:49:29Z</time>
<extensions>
<tp1:TrackPointExtension>
<tp1:hr>142</tp1:hr>
</tp1:TrackPointExtension>
</extensions>
</trkpt>
<trkpt lat="50.8282760" lon="6.8945690">
<ele>44.2960000</ele>
<time>2012-04-13T10:49:33Z</time>
<extensions>
<tp1:TrackPointExtension>
<tp1:hr>143</tp1:hr>
</tp1:TrackPointExtension>
</extensions>
</trkpt>
<trkpt lat="50.8282780" lon="6.8944810">
<ele>44.3740000</ele>
<time>2012-04-13T10:49:34Z</time>
<extensions>
<tp1:TrackPointExtension>
<tp1:hr>143</tp1:hr>
</tp1:TrackPointExtension>
</extensions>
</trkpt>
<trkpt lat="50.8282820" lon="6.8941260">
<ele>44.5870000</ele>
<time>2012-04-13T10:49:38Z</time>
<extensions>
<tp1:TrackPointExtension>
<tp1:hr>145</tp1:hr>
</tp1:TrackPointExtension>
</extensions>
</trkpt>
<trkpt lat="50.8282590" lon="6.8933610">
<ele>45.0250000</ele>
<time>2012-04-13T10:49:47Z</time>
<extensions>
<tp1:TrackPointExtension>
<tp1:hr>145</tp1:hr>
</tp1:TrackPointExtension>
</extensions>
</trkpt>
<trkpt lat="50.8282320" lon="6.8926950">
<ele>45.4320000</ele>
<time>2012-04-13T10:49:55Z</time>
<extensions>
<tp1:TrackPointExtension>
<tp1:hr>146</tp1:hr>
</tp1:TrackPointExtension>
</extensions>
</trkpt>
<trkpt lat="50.8282180" lon="6.8919420">
<ele>45.9880000</ele>
<time>2012-04-13T10:50:04Z</time>
<extensions>
<tp1:TrackPointExtension>
<tp1:hr>147</tp1:hr>
</tp1:TrackPointExtension>
</extensions>
</trkpt>
<trkpt lat="50.8282770" lon="6.8911100">
<ele>46.2460000</ele>
<time>2012-04-13T10:50:14Z</time>
<extensions>
<tp1:TrackPointExtension>
<tp1:hr>149</tp1:hr>
</tp1:TrackPointExtension>
</extensions>
</trkpt>
<trkpt lat="50.8283280" lon="6.8902880">
<ele>47.1990000</ele>
<time>2012-04-13T10:50:24Z</time>
<extensions>
<tp1:TrackPointExtension>
<tp1:hr>151</tp1:hr>
</tp1:TrackPointExtension>
</extensions>
</trkpt>
<trkpt lat="50.8283430" lon="6.8892150">
<ele>48.3260000</ele>
<time>2012-04-13T10:50:37Z</time>
<extensions>
<tp1:TrackPointExtension>
<tp1:hr>152</tp1:hr>
</tp1:TrackPointExtension>
</extensions>
</trkpt>
<trkpt lat="50.8283100" lon="6.8889830">
<ele>48.5830000</ele>
<time>2012-04-13T10:50:40Z</time>
<extensions>
<tp1:TrackPointExtension>
<tp1:hr>153</tp1:hr>
</tp1:TrackPointExtension>
</extensions>
</trkpt>
<trkpt lat="50.8281120" lon="6.8883520">
<ele>49.4260000</ele>
<time>2012-04-13T10:50:49Z</time>
<extensions>
<tp1:TrackPointExtension>
<tp1:hr>153</tp1:hr>
</tp1:TrackPointExtension>
</extensions>
</trkpt>
<trkpt lat="50.8278800" lon="6.8874790">
<ele>51.1220000</ele>
<time>2012-04-13T10:51:01Z</time>
<extensions>
<tp1:TrackPointExtension>
<tp1:hr>154</tp1:hr>
</tp1:TrackPointExtension>
</extensions>
</trkpt>
<trkpt lat="50.8277760" lon="6.8868950">
<ele>52.2450000</ele>
<time>2012-04-13T10:51:09Z</time>
<extensions>
<tp1:TrackPointExtension>
<tp1:hr>155</tp1:hr>
</tp1:TrackPointExtension>
</extensions>
</trkpt>
<trkpt lat="50.8276900" lon="6.8861890">
<ele>53.7750000</ele>
<time>2012-04-13T10:51:19Z</time>
<extensions>
<tp1:TrackPointExtension>
<tp1:hr>155</tp1:hr>
</tp1:TrackPointExtension>
</extensions>
</trkpt>
<trkpt lat="50.8276050" lon="6.8855760">
<ele>55.4290000</ele>
<time>2012-04-13T10:51:28Z</time>
<extensions>
<tp1:TrackPointExtension>
<tp1:hr>155</tp1:hr>
</tp1:TrackPointExtension>
</extensions>
</trkpt>
<trkpt lat="50.8273920" lon="6.8849400">
<ele>56.9650000</ele>
<time>2012-04-13T10:51:38Z</time>
<extensions>
<tp1:TrackPointExtension>
<tp1:hr>155</tp1:hr>
</tp1:TrackPointExtension>
</extensions>
</trkpt>
<trkpt lat="50.8271570" lon="6.8842930">
<ele>58.5580000</ele>
<time>2012-04-13T10:51:49Z</time>
<extensions>
<tp1:TrackPointExtension>
<tp1:hr>157</tp1:hr>
</tp1:TrackPointExtension>
</extensions>
</trkpt>
<trkpt lat="50.8269370" lon="6.8836940">
<ele>60.2150000</ele>
<time>2012-04-13T10:51:59Z</time>
<extensions>
<tp1:TrackPointExtension>
<tp1:hr>159</tp1:hr>
</tp1:TrackPointExtension>
</extensions>
</trkpt>
<trkpt lat="50.8267380" lon="6.8831530">
<ele>61.8170000</ele>
<time>2012-04-13T10:52:08Z</time>
<extensions>
<tp1:TrackPointExtension>
<tp1:hr>160</tp1:hr>
</tp1:TrackPointExtension>
</extensions>
</trkpt>
<trkpt lat="50.8265220" lon="6.8825480">
<ele>63.5160000</ele>
<time>2012-04-13T10:52:18Z</time>
<extensions>
<tp1:TrackPointExtension>
<tp1:hr>161</tp1:hr>
</tp1:TrackPointExtension>
</extensions>
</trkpt>
<trkpt lat="50.8263220" lon="6.8818410">
<ele>65.1460000</ele>
<time>2012-04-13T10:52:29Z</time>
<extensions>
<tp1:TrackPointExtension>
<tp1:hr>162</tp1:hr>
</tp1:TrackPointExtension>
</extensions>
</trkpt>
<trkpt lat="50.8261700" lon="6.8811890">
<ele>66.9900000</ele>
<time>2012-04-13T10:52:39Z</time>
<extensions>
<tp1:TrackPointExtension>
<tp1:hr>162</tp1:hr>
</tp1:TrackPointExtension>
</extensions>
</trkpt>
<trkpt lat="50.8261410" lon="6.8810570">
<ele>67.2230000</ele>
<time>2012-04-13T10:52:41Z</time>
<extensions>
<tp1:TrackPointExtension>
<tp1:hr>162</tp1:hr>
</tp1:TrackPointExtension>
</extensions>
</trkpt>
<trkpt lat="50.8261640" lon="6.8808730">
<ele>67.6110000</ele>
<time>2012-04-13T10:52:44Z</time>
<extensions>
<tp1:TrackPointExtension>
<tp1:hr>162</tp1:hr>
</tp1:TrackPointExtension>
</extensions>
</trkpt>
<trkpt lat="50.8262050" lon="6.8808440">
<ele>67.8090000</ele>
<time>2012-04-13T10:52:45Z</time>
<extensions>
<tp1:TrackPointExtension>
<tp1:hr>162</tp1:hr>
</tp1:TrackPointExtension>
</extensions>
</trkpt>
<trkpt lat="50.8266470" lon="6.8807020">
<ele>69.8240000</ele>
<time>2012-04-13T10:52:55Z</time>
<extensions>
<tp1:TrackPointExtension>
<tp1:hr>162</tp1:hr>
</tp1:TrackPointExtension>
</extensions>
</trkpt>
<trkpt lat="50.8271340" lon="6.8805130">
<ele>72.0910000</ele>
<time>2012-04-13T10:53:06Z</time>
<extensions>
<tp1:TrackPointExtension>
<tp1:hr>163</tp1:hr>
</tp1:TrackPointExtension>
</extensions>
</trkpt>
<trkpt lat="50.8277060" lon="6.8802810">
<ele>73.1700000</ele>
<time>2012-04-13T10:53:18Z</time>
<extensions>
<tp1:TrackPointExtension>
<tp1:hr>162</tp1:hr>
</tp1:TrackPointExtension>
</extensions>
</trkpt>
<trkpt lat="50.8283250" lon="6.8800270">
<ele>73.3950000</ele>
<time>2012-04-13T10:53:30Z</time>
<extensions>
<tp1:TrackPointExtension>
<tp1:hr>157</tp1:hr>
</tp1:TrackPointExtension>
</extensions>
</trkpt>
<trkpt lat="50.8288210" lon="6.8798210">
<ele>73.6960000</ele>
<time>2012-04-13T10:53:40Z</time>
<extensions>
<tp1:TrackPointExtension>
<tp1:hr>152</tp1:hr>
</tp1:TrackPointExtension>
</extensions>
</trkpt>
<trkpt lat="50.8293430" lon="6.8796020">
<ele>74.5310000</ele>
<time>2012-04-13T10:53:51Z</time>
<extensions>
<tp1:TrackPointExtension>
<tp1:hr>150</tp1:hr>
</tp1:TrackPointExtension>
</extensions>
</trkpt>
<trkpt lat="50.8298890" lon="6.8794400">
<ele>77.3120000</ele>
<time>2012-04-13T10:54:03Z</time>
<extensions>
<tp1:TrackPointExtension>
<tp1:hr>154</tp1:hr>
</tp1:TrackPointExtension>
</extensions>
</trkpt>
<trkpt lat="50.8303180" lon="6.8793960">
<ele>79.2150000</ele>
<time>2012-04-13T10:54:12Z</time>
<extensions>
<tp1:TrackPointExtension>
<tp1:hr>156</tp1:hr>
</tp1:TrackPointExtension>
</extensions>
</trkpt>
<trkpt lat="50.8308030" lon="6.8793990">
<ele>81.5190000</ele>
<time>2012-04-13T10:54:22Z</time>
<extensions>
<tp1:TrackPointExtension>
<tp1:hr>158</tp1:hr>
</tp1:TrackPointExtension>
</extensions>
</trkpt>
<trkpt lat="50.8312470" lon="6.8792760">
<ele>83.4160000</ele>
<time>2012-04-13T10:54:31Z</time>
<extensions>
<tp1:TrackPointExtension>
<tp1:hr>159</tp1:hr>
</tp1:TrackPointExtension>
</extensions>
</trkpt>
<trkpt lat="50.8319460" lon="6.8790100">
<ele>85.0580000</ele>
<time>2012-04-13T10:54:45Z</time>
<extensions>
<tp1:TrackPointExtension>
<tp1:hr>160</tp1:hr>
</tp1:TrackPointExtension>
</extensions>
</trkpt>
<trkpt lat="50.8324740" lon="6.8788300">
<ele>84.0850000</ele>
<time>2012-04-13T10:54:54Z</time>
<extensions>
<tp1:TrackPointExtension>
<tp1:hr>155</tp1:hr>
</tp1:TrackPointExtension>
</extensions>
</trkpt>
<trkpt lat="50.8329170" lon="6.8787450">
<ele>82.8300000</ele>
<time>2012-04-13T10:55:00Z</time>
<extensions>
<tp1:TrackPointExtension>
<tp1:hr>151</tp1:hr>
</tp1:TrackPointExtension>
</extensions>
</trkpt>
<trkpt lat="50.8333650" lon="6.8787370">
<ele>80.5570000</ele>
<time>2012-04-13T10:55:05Z</time>
<extensions>
<tp1:TrackPointExtension>
<tp1:hr>147</tp1:hr>
</tp1:TrackPointExtension>
</extensions>
</trkpt>
<trkpt lat="50.8339800" lon="6.8788890">
<ele>76.0890000</ele>
<time>2012-04-13T10:55:11Z</time>
<extensions>
<tp1:TrackPointExtension>
<tp1:hr>142</tp1:hr>
</tp1:TrackPointExtension>
</extensions>
</trkpt>
<trkpt lat="50.8342760" lon="6.8790230">
<ele>73.3640000</ele>
<time>2012-04-13T10:55:14Z</time>
<extensions>
<tp1:TrackPointExtension>
<tp1:hr>140</tp1:hr>
</tp1:TrackPointExtension>
</extensions>
</trkpt>
<trkpt lat="50.8345390" lon="6.8789360">
<ele>70.9680000</ele>
<time>2012-04-13T10:55:17Z</time>
<extensions>
<tp1:TrackPointExtension>
<tp1:hr>137</tp1:hr>
</tp1:TrackPointExtension>
</extensions>
</trkpt>
<trkpt lat="50.8346300" lon="6.8787080">
<ele>69.5710000</ele>
<time>2012-04-13T10:55:19Z</time>
<extensions>
<tp1:TrackPointExtension>
<tp1:hr>136</tp1:hr>
</tp1:TrackPointExtension>
</extensions>
</trkpt>
<trkpt lat="50.8347950" lon="6.8781010">
<ele>67.9970000</ele>
<time>2012-04-13T10:55:24Z</time>
<extensions>
<tp1:TrackPointExtension>
<tp1:hr>134</tp1:hr>
</tp1:TrackPointExtension>
</extensions>
</trkpt>
<trkpt lat="50.8349590" lon="6.8778310">
<ele>66.9400000</ele>
<time>2012-04-13T10:55:27Z</time>
<extensions>
<tp1:TrackPointExtension>
<tp1:hr>131</tp1:hr>
</tp1:TrackPointExtension>
</extensions>
</trkpt>
<trkpt lat="50.8351360" lon="6.8778190">
<ele>65.8230000</ele>
<time>2012-04-13T10:55:29Z</time>
<extensions>
<tp1:TrackPointExtension>
<tp1:hr>128</tp1:hr>
</tp1:TrackPointExtension>
</extensions>
</trkpt>
<trkpt lat="50.8355750" lon="6.8778740">
<ele>63.0020000</ele>
<time>2012-04-13T10:55:34Z</time>
<extensions>
<tp1:TrackPointExtension>
<tp1:hr>123</tp1:hr>
</tp1:TrackPointExtension>
</extensions>
</trkpt>
<trkpt lat="50.8358100" lon="6.8779590">
<ele>61.7840000</ele>
<time>2012-04-13T10:55:38Z</time>
<extensions>
<tp1:TrackPointExtension>
<tp1:hr>120</tp1:hr>
</tp1:TrackPointExtension>
</extensions>
</trkpt>
<trkpt lat="50.8359030" lon="6.8778750">
<ele>61.5590000</ele>
<time>2012-04-13T10:55:40Z</time>
<extensions>
<tp1:TrackPointExtension>
<tp1:hr>121</tp1:hr>
</tp1:TrackPointExtension>
</extensions>
</trkpt>
<trkpt lat="50.8359390" lon="6.8776390">
<ele>61.4470000</ele>
<time>2012-04-13T10:55:43Z</time>
<extensions>
<tp1:TrackPointExtension>
<tp1:hr>123</tp1:hr>
</tp1:TrackPointExtension>
</extensions>
</trkpt>
<trkpt lat="50.8359600" lon="6.8772230">
<ele>61.7370000</ele>
<time>2012-04-13T10:55:48Z</time>
<extensions>
<tp1:TrackPointExtension>
<tp1:hr>132</tp1:hr>
</tp1:TrackPointExtension>
</extensions>
</trkpt>
<trkpt lat="50.8359590" lon="6.8771380">
<ele>61.7300000</ele>
<time>2012-04-13T10:55:49Z</time>
<extensions>
<tp1:TrackPointExtension>
<tp1:hr>132</tp1:hr>
</tp1:TrackPointExtension>
</extensions>
</trkpt>
<trkpt lat="50.8359160" lon="6.8766040">
<ele>62.6810000</ele>
<time>2012-04-13T10:55:56Z</time>
<extensions>
<tp1:TrackPointExtension>
<tp1:hr>134</tp1:hr>
</tp1:TrackPointExtension>
</extensions>
</trkpt>
<trkpt lat="50.8358700" lon="6.8760720">
<ele>64.1280000</ele>
<time>2012-04-13T10:56:04Z</time>
<extensions>
<tp1:TrackPointExtension>
<tp1:hr>137</tp1:hr>
</tp1:TrackPointExtension>
</extensions>
</trkpt>
<trkpt lat="50.8358160" lon="6.8758150">
<ele>65.0330000</ele>
<time>2012-04-13T10:56:08Z</time>
<extensions>
<tp1:TrackPointExtension>
<tp1:hr>139</tp1:hr>
</tp1:TrackPointExtension>
</extensions>
</trkpt>
<trkpt lat="50.8357060" lon="6.8754570">
<ele>66.3090000</ele>
<time>2012-04-13T10:56:14Z</time>
<extensions>
<tp1:TrackPointExtension>
<tp1:hr>142</tp1:hr>
</tp1:TrackPointExtension>
</extensions>
</trkpt>
<trkpt lat="50.8356790" lon="6.8753330">
<ele>66.7120000</ele>
<time>2012-04-13T10:56:16Z</time>
<extensions>
<tp1:TrackPointExtension>
<tp1:hr>143</tp1:hr>
</tp1:TrackPointExtension>
</extensions>
</trkpt>
<trkpt lat="50.8356630" lon="6.8748280">
<ele>68.3170000</ele>
<time>2012-04-13T10:56:24Z</time>
<extensions>
<tp1:TrackPointExtension>
<tp1:hr>147</tp1:hr>
</tp1:TrackPointExtension>
</extensions>
</trkpt>
<trkpt lat="50.8356660" lon="6.8743330">
<ele>69.5880000</ele>
<time>2012-04-13T10:56:32Z</time>
<extensions>
<tp1:TrackPointExtension>
<tp1:hr>152</tp1:hr>
</tp1:TrackPointExtension>
</extensions>
</trkpt>
<trkpt lat="50.8356660" lon="6.8737840">
<ele>70.8970000</ele>
<time>2012-04-13T10:56:41Z</time>
<extensions>
<tp1:TrackPointExtension>
<tp1:hr>153</tp1:hr>
</tp1:TrackPointExtension>
</extensions>
</trkpt>
<trkpt lat="50.8356720" lon="6.8732180">
<ele>72.2610000</ele>
<time>2012-04-13T10:56:50Z</time>
<extensions>
<tp1:TrackPointExtension>
<tp1:hr>154</tp1:hr>
</tp1:TrackPointExtension>
</extensions>
</trkpt>
<trkpt lat="50.8356570" lon="6.8726790">
<ele>73.1630000</ele>
<time>2012-04-13T10:56:58Z</time>
<extensions>
<tp1:TrackPointExtension>
<tp1:hr>155</tp1:hr>
</tp1:TrackPointExtension>
</extensions>
</trkpt>
<trkpt lat="50.8356070" lon="6.8721850">
<ele>74.3500000</ele>
<time>2012-04-13T10:57:06Z</time>
<extensions>
<tp1:TrackPointExtension>
<tp1:hr>156</tp1:hr>
</tp1:TrackPointExtension>
</extensions>
</trkpt>
<trkpt lat="50.8355430" lon="6.8717900">
<ele>75.7000000</ele>
<time>2012-04-13T10:57:13Z</time>
<extensions>
<tp1:TrackPointExtension>
<tp1:hr>156</tp1:hr>
</tp1:TrackPointExtension>
</extensions>
</trkpt>
<trkpt lat="50.8355440" lon="6.8712820">
<ele>77.3020000</ele>
<time>2012-04-13T10:57:22Z</time>
<extensions>
<tp1:TrackPointExtension>
<tp1:hr>156</tp1:hr>
</tp1:TrackPointExtension>
</extensions>
</trkpt>
<trkpt lat="50.8356160" lon="6.8709610">
<ele>78.6980000</ele>
<time>2012-04-13T10:57:28Z</time>
<extensions>
<tp1:TrackPointExtension>
<tp1:hr>157</tp1:hr>
</tp1:TrackPointExtension>
</extensions>
</trkpt>
<trkpt lat="50.8357720" lon="6.8705690">
<ele>80.1360000</ele>
<time>2012-04-13T10:57:36Z</time>
<extensions>
<tp1:TrackPointExtension>
<tp1:hr>160</tp1:hr>
</tp1:TrackPointExtension>
</extensions>
</trkpt>
<trkpt lat="50.8358770" lon="6.8702560">
<ele>81.4050000</ele>
<time>2012-04-13T10:57:42Z</time>
<extensions>
<tp1:TrackPointExtension>
<tp1:hr>161</tp1:hr>
</tp1:TrackPointExtension>
</extensions>
</trkpt>
<trkpt lat="50.8360050" lon="6.8698680">
<ele>83.6810000</ele>
<time>2012-04-13T10:57:50Z</time>
<extensions>
<tp1:TrackPointExtension>
<tp1:hr>162</tp1:hr>
</tp1:TrackPointExtension>
</extensions>
</trkpt>
<trkpt lat="50.8361450" lon="6.8698380">
<ele>84.7940000</ele>
<time>2012-04-13T10:57:54Z</time>
<extensions>
<tp1:TrackPointExtension>
<tp1:hr>163</tp1:hr>
</tp1:TrackPointExtension>
</extensions>
</trkpt>
<trkpt lat="50.8361820" lon="6.8698720">
<ele>84.7900000</ele>
<time>2012-04-13T10:57:55Z</time>
<extensions>
<tp1:TrackPointExtension>
<tp1:hr>163</tp1:hr>
</tp1:TrackPointExtension>
</extensions>
</trkpt>
<trkpt lat="50.8363550" lon="6.8700960">
<ele>85.3420000</ele>
<time>2012-04-13T10:58:00Z</time>
<extensions>
<tp1:TrackPointExtension>
<tp1:hr>165</tp1:hr>
</tp1:TrackPointExtension>
</extensions>
</trkpt>
<trkpt lat="50.8364310" lon="6.8701840">
<ele>85.3440000</ele>
<time>2012-04-13T10:58:02Z</time>
<extensions>
<tp1:TrackPointExtension>
<tp1:hr>164</tp1:hr>
</tp1:TrackPointExtension>
</extensions>
</trkpt>
<trkpt lat="50.8365100" lon="6.8702460">
<ele>85.4410000</ele>
<time>2012-04-13T10:58:04Z</time>
<extensions>
<tp1:TrackPointExtension>
<tp1:hr>164</tp1:hr>
</tp1:TrackPointExtension>
</extensions>
</trkpt>
<trkpt lat="50.8366080" lon="6.8702880">
<ele>85.5060000</ele>
<time>2012-04-13T10:58:06Z</time>
<extensions>
<tp1:TrackPointExtension>
<tp1:hr>163</tp1:hr>
</tp1:TrackPointExtension>
</extensions>
</trkpt>
<trkpt lat="50.8369470" lon="6.8703860">
<ele>85.7940000</ele>
<time>2012-04-13T10:58:13Z</time>
<extensions>
<tp1:TrackPointExtension>
<tp1:hr>161</tp1:hr>
</tp1:TrackPointExtension>
</extensions>
</trkpt>
<trkpt lat="50.8374150" lon="6.8705230">
<ele>86.1350000</ele>
<time>2012-04-13T10:58:23Z</time>
<extensions>
<tp1:TrackPointExtension>
<tp1:hr>157</tp1:hr>
</tp1:TrackPointExtension>
</extensions>
</trkpt>
<trkpt lat="50.8376360" lon="6.8705980">
<ele>86.3480000</ele>
<time>2012-04-13T10:58:28Z</time>
<extensions>
<tp1:TrackPointExtension>
<tp1:hr>155</tp1:hr>
</tp1:TrackPointExtension>
</extensions>
</trkpt>
<trkpt lat="50.8377600" lon="6.8706790">
<ele>86.6110000</ele>
<time>2012-04-13T10:58:31Z</time>
<extensions>
<tp1:TrackPointExtension>
<tp1:hr>155</tp1:hr>
</tp1:TrackPointExtension>
</extensions>
</trkpt>
<trkpt lat="50.8381060" lon="6.8708240">
<ele>87.2640000</ele>
<time>2012-04-13T10:58:39Z</time>
<extensions>
<tp1:TrackPointExtension>
<tp1:hr>153</tp1:hr>
</tp1:TrackPointExtension>
</extensions>
</trkpt>
<trkpt lat="50.8382940" lon="6.8708920">
<ele>87.4640000</ele>
<time>2012-04-13T10:58:44Z</time>
<extensions>
<tp1:TrackPointExtension>
<tp1:hr>151</tp1:hr>
</tp1:TrackPointExtension>
</extensions>
</trkpt>
<trkpt lat="50.8384200" lon="6.8707150">
<ele>87.6750000</ele>
<time>2012-04-13T10:58:48Z</time>
<extensions>
<tp1:TrackPointExtension>
<tp1:hr>150</tp1:hr>
</tp1:TrackPointExtension>
</extensions>
</trkpt>
<trkpt lat="50.8385240" lon="6.8703790">
<ele>88.4680000</ele>
<time>2012-04-13T10:58:53Z</time>
<extensions>
<tp1:TrackPointExtension>
<tp1:hr>150</tp1:hr>
</tp1:TrackPointExtension>
</extensions>
</trkpt>
<trkpt lat="50.8387770" lon="6.8695440">
<ele>89.2350000</ele>
<time>2012-04-13T10:59:05Z</time>
<extensions>
<tp1:TrackPointExtension>
<tp1:hr>149</tp1:hr>
</tp1:TrackPointExtension>
</extensions>
</trkpt>
<trkpt lat="50.8388740" lon="6.8691840">
<ele>89.0210000</ele>
<time>2012-04-13T10:59:10Z</time>
<extensions>
<tp1:TrackPointExtension>
<tp1:hr>149</tp1:hr>
</tp1:TrackPointExtension>
</extensions>
</trkpt>
<trkpt lat="50.8388720" lon="6.8687670">
<ele>88.8950000</ele>
<time>2012-04-13T10:59:15Z</time>
<extensions>
<tp1:TrackPointExtension>
<tp1:hr>146</tp1:hr>
</tp1:TrackPointExtension>
</extensions>
</trkpt>
<trkpt lat="50.8387600" lon="6.8685870">
<ele>88.8320000</ele>
<time>2012-04-13T10:59:18Z</time>
<extensions>
<tp1:TrackPointExtension>
<tp1:hr>145</tp1:hr>
</tp1:TrackPointExtension>
</extensions>
</trkpt>
<trkpt lat="50.8382980" lon="6.8681820">
<ele>88.9240000</ele>
<time>2012-04-13T10:59:28Z</time>
<extensions>
<tp1:TrackPointExtension>
<tp1:hr>142</tp1:hr>
</tp1:TrackPointExtension>
</extensions>
</trkpt>
<trkpt lat="50.8380550" lon="6.8678800">
<ele>89.2830000</ele>
<time>2012-04-13T10:59:34Z</time>
<extensions>
<tp1:TrackPointExtension>
<tp1:hr>141</tp1:hr>
</tp1:TrackPointExtension>
</extensions>
</trkpt>
<trkpt lat="50.8377340" lon="6.8674910">
<ele>89.8860000</ele>
<time>2012-04-13T10:59:42Z</time>
<extensions>
<tp1:TrackPointExtension>
<tp1:hr>141</tp1:hr>
</tp1:TrackPointExtension>
</extensions>
</trkpt>
<trkpt lat="50.8374300" lon="6.8671190">
<ele>91.2390000</ele>
<time>2012-04-13T10:59:50Z</time>
<extensions>
<tp1:TrackPointExtension>
<tp1:hr>143</tp1:hr>
</tp1:TrackPointExtension>
</extensions>
</trkpt>
<trkpt lat="50.8370970" lon="6.8666450">
<ele>92.5700000</ele>
<time>2012-04-13T10:59:59Z</time>
<extensions>
<tp1:TrackPointExtension>
<tp1:hr>146</tp1:hr>
</tp1:TrackPointExtension>
</extensions>
</trkpt>
<trkpt lat="50.8367310" lon="6.8659840">
<ele>93.2740000</ele>
<time>2012-04-13T11:00:10Z</time>
<extensions>
<tp1:TrackPointExtension>
<tp1:hr>148</tp1:hr>
</tp1:TrackPointExtension>
</extensions>
</trkpt>
<trkpt lat="50.8365130" lon="6.8655210">
<ele>93.6100000</ele>
<time>2012-04-13T11:00:17Z</time>
<extensions>
<tp1:TrackPointExtension>
<tp1:hr>146</tp1:hr>
</tp1:TrackPointExtension>
</extensions>
</trkpt>
<trkpt lat="50.8362990" lon="6.8650410">
<ele>93.5950000</ele>
<time>2012-04-13T11:00:24Z</time>
<extensions>
<tp1:TrackPointExtension>
<tp1:hr>145</tp1:hr>
</tp1:TrackPointExtension>
</extensions>
</trkpt>
<trkpt lat="50.8360350" lon="6.8645040">
<ele>93.7990000</ele>
<time>2012-04-13T11:00:32Z</time>
<extensions>
<tp1:TrackPointExtension>
<tp1:hr>144</tp1:hr>
</tp1:TrackPointExtension>
</extensions>
</trkpt>
<trkpt lat="50.8357640" lon="6.8639640">
<ele>94.2120000</ele>
<time>2012-04-13T11:00:40Z</time>
<extensions>
<tp1:TrackPointExtension>
<tp1:hr>142</tp1:hr>
</tp1:TrackPointExtension>
</extensions>
</trkpt>
<trkpt lat="50.8354080" lon="6.8632210">
<ele>94.2940000</ele>
<time>2012-04-13T11:00:51Z</time>
<extensions>
<tp1:TrackPointExtension>
<tp1:hr>140</tp1:hr>
</tp1:TrackPointExtension>
</extensions>
</trkpt>
<trkpt lat="50.8350490" lon="6.8624890">
<ele>95.0460000</ele>
<time>2012-04-13T11:01:02Z</time>
<extensions>
<tp1:TrackPointExtension>
<tp1:hr>139</tp1:hr>
</tp1:TrackPointExtension>
</extensions>
</trkpt>
<trkpt lat="50.8347560" lon="6.8618910">
<ele>94.9440000</ele>
<time>2012-04-13T11:01:11Z</time>
<extensions>
<tp1:TrackPointExtension>
<tp1:hr>139</tp1:hr>
</tp1:TrackPointExtension>
</extensions>
</trkpt>
<trkpt lat="50.8344130" lon="6.8611910">
<ele>94.7100000</ele>
<time>2012-04-13T11:01:21Z</time>
<extensions>
<tp1:TrackPointExtension>
<tp1:hr>137</tp1:hr>
</tp1:TrackPointExtension>
</extensions>
</trkpt>
<trkpt lat="50.8342060" lon="6.8607460">
<ele>94.5400000</ele>
<time>2012-04-13T11:01:27Z</time>
<extensions>
<tp1:TrackPointExtension>
<tp1:hr>135</tp1:hr>
</tp1:TrackPointExtension>
</extensions>
</trkpt>
<trkpt lat="50.8338650" lon="6.8599880">
<ele>94.1050000</ele>
<time>2012-04-13T11:01:37Z</time>
<extensions>
<tp1:TrackPointExtension>
<tp1:hr>131</tp1:hr>
</tp1:TrackPointExtension>
</extensions>
</trkpt>
<trkpt lat="50.8335350" lon="6.8591700">
<ele>93.3270000</ele>
<time>2012-04-13T11:01:47Z</time>
<extensions>
<tp1:TrackPointExtension>
<tp1:hr>128</tp1:hr>
</tp1:TrackPointExtension>
</extensions>
</trkpt>
<trkpt lat="50.8332260" lon="6.8583360">
<ele>92.2020000</ele>
<time>2012-04-13T11:01:57Z</time>
<extensions>
<tp1:TrackPointExtension>
<tp1:hr>126</tp1:hr>
</tp1:TrackPointExtension>
</extensions>
</trkpt>
<trkpt lat="50.8329420" lon="6.8575530">
<ele>91.7030000</ele>
<time>2012-04-13T11:02:06Z</time>
<extensions>
<tp1:TrackPointExtension>
<tp1:hr>129</tp1:hr>
</tp1:TrackPointExtension>
</extensions>
</trkpt>
<trkpt lat="50.8326500" lon="6.8567580">
<ele>90.8740000</ele>
<time>2012-04-13T11:02:15Z</time>
<extensions>
<tp1:TrackPointExtension>
<tp1:hr>129</tp1:hr>
</tp1:TrackPointExtension>
</extensions>
</trkpt>
<trkpt lat="50.8323510" lon="6.8559380">
<ele>90.1910000</ele>
<time>2012-04-13T11:02:24Z</time>
<extensions>
<tp1:TrackPointExtension>
<tp1:hr>130</tp1:hr>
</tp1:TrackPointExtension>
</extensions>
</trkpt>
<trkpt lat="50.8319550" lon="6.8548460">
<ele>89.6040000</ele>
<time>2012-04-13T11:02:36Z</time>
<extensions>
<tp1:TrackPointExtension>
<tp1:hr>131</tp1:hr>
</tp1:TrackPointExtension>
</extensions>
</trkpt>
<trkpt lat="50.8315350" lon="6.8536800">
<ele>88.7620000</ele>
<time>2012-04-13T11:02:49Z</time>
<extensions>
<tp1:TrackPointExtension>
<tp1:hr>132</tp1:hr>
</tp1:TrackPointExtension>
</extensions>
</trkpt>
<trkpt lat="50.8312390" lon="6.8528730">
<ele>88.1670000</ele>
<time>2012-04-13T11:02:58Z</time>
<extensions>
<tp1:TrackPointExtension>
<tp1:hr>132</tp1:hr>
</tp1:TrackPointExtension>
</extensions>
</trkpt>
<trkpt lat="50.8309570" lon="6.8520720">
<ele>87.6380000</ele>
<time>2012-04-13T11:03:07Z</time>
<extensions>
<tp1:TrackPointExtension>
<tp1:hr>132</tp1:hr>
</tp1:TrackPointExtension>
</extensions>
</trkpt>
<trkpt lat="50.8306940" lon="6.8513290">
<ele>87.1300000</ele>
<time>2012-04-13T11:03:15Z</time>
<extensions>
<tp1:TrackPointExtension>
<tp1:hr>133</tp1:hr>
</tp1:TrackPointExtension>
</extensions>
</trkpt>
<trkpt lat="50.8303630" lon="6.8503940">
<ele>86.5330000</ele>
<time>2012-04-13T11:03:25Z</time>
<extensions>
<tp1:TrackPointExtension>
<tp1:hr>131</tp1:hr>
</tp1:TrackPointExtension>
</extensions>
</trkpt>
<trkpt lat="50.8300240" lon="6.8494360">
<ele>85.6550000</ele>
<time>2012-04-13T11:03:35Z</time>
<extensions>
<tp1:TrackPointExtension>
<tp1:hr>129</tp1:hr>
</tp1:TrackPointExtension>
</extensions>
</trkpt>
<trkpt lat="50.8296760" lon="6.8484570">
<ele>85.2190000</ele>
<time>2012-04-13T11:03:45Z</time>
<extensions>
<tp1:TrackPointExtension>
<tp1:hr>128</tp1:hr>
</tp1:TrackPointExtension>
</extensions>
</trkpt>
<trkpt lat="50.8292580" lon="6.8472920">
<ele>84.1180000</ele>
<time>2012-04-13T11:03:57Z</time>
<extensions>
<tp1:TrackPointExtension>
<tp1:hr>124</tp1:hr>
</tp1:TrackPointExtension>
</extensions>
</trkpt>
<trkpt lat="50.8289860" lon="6.8465210">
<ele>83.5720000</ele>
<time>2012-04-13T11:04:05Z</time>
<extensions>
<tp1:TrackPointExtension>
<tp1:hr>125</tp1:hr>
</tp1:TrackPointExtension>
</extensions>
</trkpt>
<trkpt lat="50.8286400" lon="6.8455470">
<ele>82.5590000</ele>
<time>2012-04-13T11:04:15Z</time>
<extensions>
<tp1:TrackPointExtension>
<tp1:hr>126</tp1:hr>
</tp1:TrackPointExtension>
</extensions>
</trkpt>
<trkpt lat="50.8283460" lon="6.8447470">
<ele>81.6910000</ele>
<time>2012-04-13T11:04:23Z</time>
<extensions>
<tp1:TrackPointExtension>
<tp1:hr>126</tp1:hr>
</tp1:TrackPointExtension>
</extensions>
</trkpt>
<trkpt lat="50.8280670" lon="6.8439760">
<ele>81.2160000</ele>
<time>2012-04-13T11:04:31Z</time>
<extensions>
<tp1:TrackPointExtension>
<tp1:hr>127</tp1:hr>
</tp1:TrackPointExtension>
</extensions>
</trkpt>
<trkpt lat="50.8276970" lon="6.8429090">
<ele>80.3670000</ele>
<time>2012-04-13T11:04:42Z</time>
<extensions>
<tp1:TrackPointExtension>
<tp1:hr>128</tp1:hr>
</tp1:TrackPointExtension>
</extensions>
</trkpt>
<trkpt lat="50.8274620" lon="6.8422450">
<ele>79.6490000</ele>
<time>2012-04-13T11:04:49Z</time>
<extensions>
<tp1:TrackPointExtension>
<tp1:hr>127</tp1:hr>
</tp1:TrackPointExtension>
</extensions>
</trkpt>
<trkpt lat="50.8271970" lon="6.8414670">
<ele>79.2760000</ele>
<time>2012-04-13T11:04:57Z</time>
<extensions>
<tp1:TrackPointExtension>
<tp1:hr>126</tp1:hr>
</tp1:TrackPointExtension>
</extensions>
</trkpt>
<trkpt lat="50.8268860" lon="6.8405860">
<ele>78.3690000</ele>
<time>2012-04-13T11:05:06Z</time>
<extensions>
<tp1:TrackPointExtension>
<tp1:hr>125</tp1:hr>
</tp1:TrackPointExtension>
</extensions>
</trkpt>
<trkpt lat="50.8265540" lon="6.8396360">
<ele>77.7130000</ele>
<time>2012-04-13T11:05:16Z</time>
<extensions>
<tp1:TrackPointExtension>
<tp1:hr>123</tp1:hr>
</tp1:TrackPointExtension>
</extensions>
</trkpt>
<trkpt lat="50.8262960" lon="6.8388920">
<ele>77.2210000</ele>
<time>2012-04-13T11:05:24Z</time>
<extensions>
<tp1:TrackPointExtension>
<tp1:hr>124</tp1:hr>
</tp1:TrackPointExtension>
</extensions>
</trkpt>
<trkpt lat="50.8260180" lon="6.8380640">
<ele>76.1640000</ele>
<time>2012-04-13T11:05:33Z</time>
<extensions>
<tp1:TrackPointExtension>
<tp1:hr>123</tp1:hr>
</tp1:TrackPointExtension>
</extensions>
</trkpt>
<trkpt lat="50.8259650" lon="6.8378220">
<ele>75.7010000</ele>
<time>2012-04-13T11:05:36Z</time>
<extensions>
<tp1:TrackPointExtension>
<tp1:hr>120</tp1:hr>
</tp1:TrackPointExtension>
</extensions>
</trkpt>
<trkpt lat="50.8257960" lon="6.8373140">
<ele>75.2160000</ele>
<time>2012-04-13T11:05:43Z</time>
<extensions>
<tp1:TrackPointExtension>
<tp1:hr>120</tp1:hr>
</tp1:TrackPointExtension>
</extensions>
</trkpt>
<trkpt lat="50.8256540" lon="6.8369050">
<ele>75.1550000</ele>
<time>2012-04-13T11:05:48Z</time>
<extensions>
<tp1:TrackPointExtension>
<tp1:hr>126</tp1:hr>
</tp1:TrackPointExtension>
</extensions>
</trkpt>
<trkpt lat="50.8254250" lon="6.8362290">
<ele>75.2330000</ele>
<time>2012-04-13T11:05:56Z</time>
<extensions>
<tp1:TrackPointExtension>
<tp1:hr>131</tp1:hr>
</tp1:TrackPointExtension>
</extensions>
</trkpt>
<trkpt lat="50.8251320" lon="6.8354100">
<ele>75.4090000</ele>
<time>2012-04-13T11:06:06Z</time>
<extensions>
<tp1:TrackPointExtension>
<tp1:hr>134</tp1:hr>
</tp1:TrackPointExtension>
</extensions>
</trkpt>
<trkpt lat="50.8250200" lon="6.8350850">
<ele>75.3490000</ele>
<time>2012-04-13T11:06:10Z</time>
<extensions>
<tp1:TrackPointExtension>
<tp1:hr>135</tp1:hr>
</tp1:TrackPointExtension>
</extensions>
</trkpt>
<trkpt lat="50.8248190" lon="6.8345020">
<ele>75.3110000</ele>
<time>2012-04-13T11:06:17Z</time>
<extensions>
<tp1:TrackPointExtension>
<tp1:hr>137</tp1:hr>
</tp1:TrackPointExtension>
</extensions>
</trkpt>
<trkpt lat="50.8246180" lon="6.8339040">
<ele>75.6280000</ele>
<time>2012-04-13T11:06:24Z</time>
<extensions>
<tp1:TrackPointExtension>
<tp1:hr>137</tp1:hr>
</tp1:TrackPointExtension>
</extensions>
</trkpt>
<trkpt lat="50.8243520" lon="6.8331390">
<ele>75.6780000</ele>
<time>2012-04-13T11:06:33Z</time>
<extensions>
<tp1:TrackPointExtension>
<tp1:hr>138</tp1:hr>
</tp1:TrackPointExtension>
</extensions>
</trkpt>
<trkpt lat="50.8240140" lon="6.8321900">
<ele>75.1000000</ele>
<time>2012-04-13T11:06:44Z</time>
<extensions>
<tp1:TrackPointExtension>
<tp1:hr>138</tp1:hr>
</tp1:TrackPointExtension>
</extensions>
</trkpt>
<trkpt lat="50.8237990" lon="6.8315910">
<ele>75.0780000</ele>
<time>2012-04-13T11:06:51Z</time>
<extensions>
<tp1:TrackPointExtension>
<tp1:hr>138</tp1:hr>
</tp1:TrackPointExtension>
</extensions>
</trkpt>
<trkpt lat="50.8235670" lon="6.8309260">
<ele>75.2950000</ele>
<time>2012-04-13T11:06:59Z</time>
<extensions>
<tp1:TrackPointExtension>
<tp1:hr>138</tp1:hr>
</tp1:TrackPointExtension>
</extensions>
</trkpt>
<trkpt lat="50.8234160" lon="6.8304510">
<ele>75.4440000</ele>
<time>2012-04-13T11:07:05Z</time>
<extensions>
<tp1:TrackPointExtension>
<tp1:hr>138</tp1:hr>
</tp1:TrackPointExtension>
</extensions>
</trkpt>
<trkpt lat="50.8231390" lon="6.8296460">
<ele>76.0220000</ele>
<time>2012-04-13T11:07:15Z</time>
<extensions>
<tp1:TrackPointExtension>
<tp1:hr>140</tp1:hr>
</tp1:TrackPointExtension>
</extensions>
</trkpt>
<trkpt lat="50.8228880" lon="6.8289120">
<ele>76.7190000</ele>
<time>2012-04-13T11:07:24Z</time>
<extensions>
<tp1:TrackPointExtension>
<tp1:hr>143</tp1:hr>
</tp1:TrackPointExtension>
</extensions>
</trkpt>
<trkpt lat="50.8226970" lon="6.8283650">
<ele>77.3720000</ele>
<time>2012-04-13T11:07:31Z</time>
<extensions>
<tp1:TrackPointExtension>
<tp1:hr>143</tp1:hr>
</tp1:TrackPointExtension>
</extensions>
</trkpt>
<trkpt lat="50.8224960" lon="6.8277630">
<ele>77.6940000</ele>
<time>2012-04-13T11:07:39Z</time>
<extensions>
<tp1:TrackPointExtension>
<tp1:hr>143</tp1:hr>
</tp1:TrackPointExtension>
</extensions>
</trkpt>
<trkpt lat="50.8222360" lon="6.8270430">
<ele>78.7170000</ele>
<time>2012-04-13T11:07:49Z</time>
<extensions>
<tp1:TrackPointExtension>
<tp1:hr>144</tp1:hr>
</tp1:TrackPointExtension>
</extensions>
</trkpt>
<trkpt lat="50.8220580" lon="6.8265470">
<ele>79.6990000</ele>
<time>2012-04-13T11:07:56Z</time>
<extensions>
<tp1:TrackPointExtension>
<tp1:hr>144</tp1:hr>
</tp1:TrackPointExtension>
</extensions>
</trkpt>
<trkpt lat="50.8217040" lon="6.8257260">
<ele>80.8100000</ele>
<time>2012-04-13T11:08:08Z</time>
<extensions>
<tp1:TrackPointExtension>
<tp1:hr>147</tp1:hr>
</tp1:TrackPointExtension>
</extensions>
</trkpt>
<trkpt lat="50.8214750" lon="6.8251580">
<ele>81.9230000</ele>
<time>2012-04-13T11:08:16Z</time>
<extensions>
<tp1:TrackPointExtension>
<tp1:hr>148</tp1:hr>
</tp1:TrackPointExtension>
</extensions>
</trkpt>
<trkpt lat="50.8212180" lon="6.8245450">
<ele>83.1690000</ele>
<time>2012-04-13T11:08:25Z</time>
<extensions>
<tp1:TrackPointExtension>
<tp1:hr>151</tp1:hr>
</tp1:TrackPointExtension>
</extensions>
</trkpt>
<trkpt lat="50.8209470" lon="6.8239080">
<ele>84.0900000</ele>
<time>2012-04-13T11:08:34Z</time>
<extensions>
<tp1:TrackPointExtension>
<tp1:hr>154</tp1:hr>
</tp1:TrackPointExtension>
</extensions>
</trkpt>
<trkpt lat="50.8207540" lon="6.8234820">
<ele>85.4770000</ele>
<time>2012-04-13T11:08:40Z</time>
<extensions>
<tp1:TrackPointExtension>
<tp1:hr>154</tp1:hr>
</tp1:TrackPointExtension>
</extensions>
</trkpt>
<trkpt lat="50.8205870" lon="6.8230070">
<ele>86.6670000</ele>
<time>2012-04-13T11:08:46Z</time>
<extensions>
<tp1:TrackPointExtension>
<tp1:hr>156</tp1:hr>
</tp1:TrackPointExtension>
</extensions>
</trkpt>
<trkpt lat="50.8202750" lon="6.8223630">
<ele>88.1470000</ele>
<time>2012-04-13T11:08:55Z</time>
<extensions>
<tp1:TrackPointExtension>
<tp1:hr>159</tp1:hr>
</tp1:TrackPointExtension>
</extensions>
</trkpt>
<trkpt lat="50.8199660" lon="6.8218360">
<ele>89.7860000</ele>
<time>2012-04-13T11:09:03Z</time>
<extensions>
<tp1:TrackPointExtension>
<tp1:hr>160</tp1:hr>
</tp1:TrackPointExtension>
</extensions>
</trkpt>
<trkpt lat="50.8195330" lon="6.8212520">
<ele>89.4750000</ele>
<time>2012-04-13T11:09:13Z</time>
<extensions>
<tp1:TrackPointExtension>
<tp1:hr>157</tp1:hr>
</tp1:TrackPointExtension>
</extensions>
</trkpt>
<trkpt lat="50.8190970" lon="6.8207030">
<ele>88.6100000</ele>
<time>2012-04-13T11:09:22Z</time>
<extensions>
<tp1:TrackPointExtension>
<tp1:hr>153</tp1:hr>
</tp1:TrackPointExtension>
</extensions>
</trkpt>
<trkpt lat="50.8187410" lon="6.8202530">
<ele>87.5690000</ele>
<time>2012-04-13T11:09:29Z</time>
<extensions>
<tp1:TrackPointExtension>
<tp1:hr>148</tp1:hr>
</tp1:TrackPointExtension>
</extensions>
</trkpt>
<trkpt lat="50.8185410" lon="6.8200030">
<ele>87.1150000</ele>
<time>2012-04-13T11:09:33Z</time>
<extensions>
<tp1:TrackPointExtension>
<tp1:hr>143</tp1:hr>
</tp1:TrackPointExtension>
</extensions>
</trkpt>
<trkpt lat="50.8184930" lon="6.8199420">
<ele>86.9130000</ele>
<time>2012-04-13T11:09:34Z</time>
<extensions>
<tp1:TrackPointExtension>
<tp1:hr>142</tp1:hr>
</tp1:TrackPointExtension>
</extensions>
</trkpt>
<trkpt lat="50.8182990" lon="6.8195790">
<ele>86.1630000</ele>
<time>2012-04-13T11:09:39Z</time>
<extensions>
<tp1:TrackPointExtension>
<tp1:hr>139</tp1:hr>
</tp1:TrackPointExtension>
</extensions>
</trkpt>
<trkpt lat="50.8181190" lon="6.8194990">
<ele>85.7100000</ele>
<time>2012-04-13T11:09:42Z</time>
<extensions>
<tp1:TrackPointExtension>
<tp1:hr>138</tp1:hr>
</tp1:TrackPointExtension>
</extensions>
</trkpt>
<trkpt lat="50.8180660" lon="6.8194430">
<ele>85.7100000</ele>
<time>2012-04-13T11:09:43Z</time>
<extensions>
<tp1:TrackPointExtension>
<tp1:hr>138</tp1:hr>
</tp1:TrackPointExtension>
</extensions>
</trkpt>
<trkpt lat="50.8177560" lon="6.8190880">
<ele>84.7530000</ele>
<time>2012-04-13T11:09:49Z</time>
<extensions>
<tp1:TrackPointExtension>
<tp1:hr>134</tp1:hr>
</tp1:TrackPointExtension>
</extensions>
</trkpt>
<trkpt lat="50.8176490" lon="6.8187610">
<ele>84.0610000</ele>
<time>2012-04-13T11:09:53Z</time>
<extensions>
<tp1:TrackPointExtension>
<tp1:hr>131</tp1:hr>
</tp1:TrackPointExtension>
</extensions>
</trkpt>
<trkpt lat="50.8177400" lon="6.8185280">
<ele>83.6870000</ele>
<time>2012-04-13T11:09:56Z</time>
<extensions>
<tp1:TrackPointExtension>
<tp1:hr>129</tp1:hr>
</tp1:TrackPointExtension>
</extensions>
</trkpt>
<trkpt lat="50.8178160" lon="6.8183950">
<ele>83.7420000</ele>
<time>2012-04-13T11:09:58Z</time>
<extensions>
<tp1:TrackPointExtension>
<tp1:hr>130</tp1:hr>
</tp1:TrackPointExtension>
</extensions>
</trkpt>
<trkpt lat="50.8182020" lon="6.8176940">
<ele>84.3050000</ele>
<time>2012-04-13T11:10:08Z</time>
<extensions>
<tp1:TrackPointExtension>
<tp1:hr>137</tp1:hr>
</tp1:TrackPointExtension>
</extensions>
</trkpt>
<trkpt lat="50.8183250" lon="6.8174690">
<ele>83.9240000</ele>
<time>2012-04-13T11:10:11Z</time>
<extensions>
<tp1:TrackPointExtension>
<tp1:hr>138</tp1:hr>
</tp1:TrackPointExtension>
</extensions>
</trkpt>
<trkpt lat="50.8187190" lon="6.8168750">
<ele>83.5650000</ele>
<time>2012-04-13T11:10:19Z</time>
<extensions>
<tp1:TrackPointExtension>
<tp1:hr>138</tp1:hr>
</tp1:TrackPointExtension>
</extensions>
</trkpt>
<trkpt lat="50.8190980" lon="6.8162080">
<ele>82.8170000</ele>
<time>2012-04-13T11:10:28Z</time>
<extensions>
<tp1:TrackPointExtension>
<tp1:hr>136</tp1:hr>
</tp1:TrackPointExtension>
</extensions>
</trkpt>
<trkpt lat="50.8196540" lon="6.8152420">
<ele>81.0110000</ele>
<time>2012-04-13T11:10:41Z</time>
<extensions>
<tp1:TrackPointExtension>
<tp1:hr>131</tp1:hr>
</tp1:TrackPointExtension>
</extensions>
</trkpt>
<trkpt lat="50.8201420" lon="6.8143820">
<ele>79.8640000</ele>
<time>2012-04-13T11:10:52Z</time>
<extensions>
<tp1:TrackPointExtension>
<tp1:hr>127</tp1:hr>
</tp1:TrackPointExtension>
</extensions>
</trkpt>
<trkpt lat="50.8205440" lon="6.8137000">
<ele>79.1450000</ele>
<time>2012-04-13T11:11:01Z</time>
<extensions>
<tp1:TrackPointExtension>
<tp1:hr>126</tp1:hr>
</tp1:TrackPointExtension>
</extensions>
</trkpt>
<trkpt lat="50.8210550" lon="6.8127370">
<ele>77.8370000</ele>
<time>2012-04-13T11:11:13Z</time>
<extensions>
<tp1:TrackPointExtension>
<tp1:hr>127</tp1:hr>
</tp1:TrackPointExtension>
</extensions>
</trkpt>
<trkpt lat="50.8211710" lon="6.8122100">
<ele>76.8660000</ele>
<time>2012-04-13T11:11:18Z</time>
<extensions>
<tp1:TrackPointExtension>
<tp1:hr>126</tp1:hr>
</tp1:TrackPointExtension>
</extensions>
</trkpt>
<trkpt lat="50.8212120" lon="6.8117630">
<ele>76.1220000</ele>
<time>2012-04-13T11:11:22Z</time>
<extensions>
<tp1:TrackPointExtension>
<tp1:hr>125</tp1:hr>
</tp1:TrackPointExtension>
</extensions>
</trkpt>
<trkpt lat="50.8213080" lon="6.8114960">
<ele>75.1900000</ele>
<time>2012-04-13T11:11:26Z</time>
<extensions>
<tp1:TrackPointExtension>
<tp1:hr>120</tp1:hr>
</tp1:TrackPointExtension>
</extensions>
</trkpt>
<trkpt lat="50.8213490" lon="6.8113360">
<ele>74.2710000</ele>
<time>2012-04-13T11:11:31Z</time>
<extensions>
<tp1:TrackPointExtension>
<tp1:hr>118</tp1:hr>
</tp1:TrackPointExtension>
</extensions>
</trkpt>
<trkpt lat="50.8212550" lon="6.8110860">
<ele>74.1060000</ele>
<time>2012-04-13T11:11:35Z</time>
<extensions>
<tp1:TrackPointExtension>
<tp1:hr>119</tp1:hr>
</tp1:TrackPointExtension>
</extensions>
</trkpt>
<trkpt lat="50.8211680" lon="6.8109590">
<ele>74.0300000</ele>
<time>2012-04-13T11:11:37Z</time>
<extensions>
<tp1:TrackPointExtension>
<tp1:hr>121</tp1:hr>
</tp1:TrackPointExtension>
</extensions>
</trkpt>
<trkpt lat="50.8210600" lon="6.8107310">
<ele>73.6630000</ele>
<time>2012-04-13T11:11:40Z</time>
<extensions>
<tp1:TrackPointExtension>
<tp1:hr>124</tp1:hr>
</tp1:TrackPointExtension>
</extensions>
</trkpt>
<trkpt lat="50.8208440" lon="6.8100070">
<ele>71.9600000</ele>
<time>2012-04-13T11:11:48Z</time>
<extensions>
<tp1:TrackPointExtension>
<tp1:hr>126</tp1:hr>
</tp1:TrackPointExtension>
</extensions>
</trkpt>
<trkpt lat="50.8206570" lon="6.8093740">
<ele>70.3700000</ele>
<time>2012-04-13T11:11:54Z</time>
<extensions>
<tp1:TrackPointExtension>
<tp1:hr>123</tp1:hr>
</tp1:TrackPointExtension>
</extensions>
</trkpt>
<trkpt lat="50.8205810" lon="6.8088270">
<ele>68.8690000</ele>
<time>2012-04-13T11:11:59Z</time>
<extensions>
<tp1:TrackPointExtension>
<tp1:hr>120</tp1:hr>
</tp1:TrackPointExtension>
</extensions>
</trkpt>
<trkpt lat="50.8205730" lon="6.8086510">
<ele>68.0690000</ele>
<time>2012-04-13T11:12:02Z</time>
<extensions>
<tp1:TrackPointExtension>
<tp1:hr>116</tp1:hr>
</tp1:TrackPointExtension>
</extensions>
</trkpt>
<trkpt lat="50.8205990" lon="6.8085430">
<ele>67.2610000</ele>
<time>2012-04-13T11:12:06Z</time>
<extensions>
<tp1:TrackPointExtension>
<tp1:hr>114</tp1:hr>
</tp1:TrackPointExtension>
</extensions>
</trkpt>
<trkpt lat="50.8205510" lon="6.8082140">
<ele>66.6770000</ele>
<time>2012-04-13T11:12:11Z</time>
<extensions>
<tp1:TrackPointExtension>
<tp1:hr>118</tp1:hr>
</tp1:TrackPointExtension>
</extensions>
</trkpt>
<trkpt lat="50.8204870" lon="6.8077600">
<ele>66.4770000</ele>
<time>2012-04-13T11:12:16Z</time>
<extensions>
<tp1:TrackPointExtension>
<tp1:hr>126</tp1:hr>
</tp1:TrackPointExtension>
</extensions>
</trkpt>
<trkpt lat="50.8203920" lon="6.8072950">
<ele>66.1440000</ele>
<time>2012-04-13T11:12:21Z</time>
<extensions>
<tp1:TrackPointExtension>
<tp1:hr>129</tp1:hr>
</tp1:TrackPointExtension>
</extensions>
</trkpt>
<trkpt lat="50.8201790" lon="6.8067460">
<ele>65.5810000</ele>
<time>2012-04-13T11:12:28Z</time>
<extensions>
<tp1:TrackPointExtension>
<tp1:hr>125</tp1:hr>
</tp1:TrackPointExtension>
</extensions>
</trkpt>
<trkpt lat="50.8201270" lon="6.8065040">
<ele>65.4500000</ele>
<time>2012-04-13T11:12:33Z</time>
<extensions>
<tp1:TrackPointExtension>
<tp1:hr>122</tp1:hr>
</tp1:TrackPointExtension>
</extensions>
</trkpt>
<trkpt lat="50.8201100" lon="6.8064720">
<ele>65.2850000</ele>
<time>2012-04-13T11:12:38Z</time>
<extensions>
<tp1:TrackPointExtension>
<tp1:hr>118</tp1:hr>
</tp1:TrackPointExtension>
</extensions>
</trkpt>
<trkpt lat="50.8201010" lon="6.8064450">
<ele>64.9960000</ele>
<time>2012-04-13T11:12:46Z</time>
<extensions>
<tp1:TrackPointExtension>
<tp1:hr>116</tp1:hr>
</tp1:TrackPointExtension>
</extensions>
</trkpt>
<trkpt lat="50.8200820" lon="6.8064440">
<ele>64.9530000</ele>
<time>2012-04-13T11:12:51Z</time>
<extensions>
<tp1:TrackPointExtension>
<tp1:hr>116</tp1:hr>
</tp1:TrackPointExtension>
</extensions>
</trkpt>
<trkpt lat="50.8200130" lon="6.8063210">
<ele>64.7920000</ele>
<time>2012-04-13T11:12:55Z</time>
<extensions>
<tp1:TrackPointExtension>
<tp1:hr>116</tp1:hr>
</tp1:TrackPointExtension>
</extensions>
</trkpt>
<trkpt lat="50.8198180" lon="6.8058070">
<ele>64.9410000</ele>
<time>2012-04-13T11:13:02Z</time>
<extensions>
<tp1:TrackPointExtension>
<tp1:hr>122</tp1:hr>
</tp1:TrackPointExtension>
</extensions>
</trkpt>
<trkpt lat="50.8196630" lon="6.8053970">
<ele>65.1620000</ele>
<time>2012-04-13T11:13:07Z</time>
<extensions>
<tp1:TrackPointExtension>
<tp1:hr>128</tp1:hr>
</tp1:TrackPointExtension>
</extensions>
</trkpt>
<trkpt lat="50.8193620" lon="6.8045990">
<ele>65.5170000</ele>
<time>2012-04-13T11:13:17Z</time>
<extensions>
<tp1:TrackPointExtension>
<tp1:hr>132</tp1:hr>
</tp1:TrackPointExtension>
</extensions>
</trkpt>
<trkpt lat="50.8191890" lon="6.8041210">
<ele>65.0230000</ele>
<time>2012-04-13T11:13:23Z</time>
<extensions>
<tp1:TrackPointExtension>
<tp1:hr>134</tp1:hr>
</tp1:TrackPointExtension>
</extensions>
</trkpt>
<trkpt lat="50.8190060" lon="6.8036430">
<ele>64.8410000</ele>
<time>2012-04-13T11:13:29Z</time>
<extensions>
<tp1:TrackPointExtension>
<tp1:hr>139</tp1:hr>
</tp1:TrackPointExtension>
</extensions>
</trkpt>
<trkpt lat="50.8188850" lon="6.8033260">
<ele>64.8260000</ele>
<time>2012-04-13T11:13:33Z</time>
<extensions>
<tp1:TrackPointExtension>
<tp1:hr>140</tp1:hr>
</tp1:TrackPointExtension>
</extensions>
</trkpt>
<trkpt lat="50.8187100" lon="6.8031510">
<ele>64.8240000</ele>
<time>2012-04-13T11:13:37Z</time>
<extensions>
<tp1:TrackPointExtension>
<tp1:hr>142</tp1:hr>
</tp1:TrackPointExtension>
</extensions>
</trkpt>
<trkpt lat="50.8186510" lon="6.8031670">
<ele>64.8100000</ele>
<time>2012-04-13T11:13:38Z</time>
<extensions>
<tp1:TrackPointExtension>
<tp1:hr>142</tp1:hr>
</tp1:TrackPointExtension>
</extensions>
</trkpt>
<trkpt lat="50.8179750" lon="6.8034340">
<ele>64.2200000</ele>
<time>2012-04-13T11:13:49Z</time>
<extensions>
<tp1:TrackPointExtension>
<tp1:hr>141</tp1:hr>
</tp1:TrackPointExtension>
</extensions>
</trkpt>
<trkpt lat="50.8173780" lon="6.8036610">
<ele>64.4130000</ele>
<time>2012-04-13T11:13:59Z</time>
<extensions>
<tp1:TrackPointExtension>
<tp1:hr>140</tp1:hr>
</tp1:TrackPointExtension>
</extensions>
</trkpt>
<trkpt lat="50.8168390" lon="6.8038910">
<ele>64.6280000</ele>
<time>2012-04-13T11:14:08Z</time>
<extensions>
<tp1:TrackPointExtension>
<tp1:hr>138</tp1:hr>
</tp1:TrackPointExtension>
</extensions>
</trkpt>
<trkpt lat="50.8162640" lon="6.8041740">
<ele>64.6510000</ele>
<time>2012-04-13T11:14:18Z</time>
<extensions>
<tp1:TrackPointExtension>
<tp1:hr>138</tp1:hr>
</tp1:TrackPointExtension>
</extensions>
</trkpt>
<trkpt lat="50.8159400" lon="6.8043210">
<ele>64.7910000</ele>
<time>2012-04-13T11:14:24Z</time>
<extensions>
<tp1:TrackPointExtension>
<tp1:hr>136</tp1:hr>
</tp1:TrackPointExtension>
</extensions>
</trkpt>
<trkpt lat="50.8158020" lon="6.8042540">
<ele>64.8850000</ele>
<time>2012-04-13T11:14:27Z</time>
<extensions>
<tp1:TrackPointExtension>
<tp1:hr>133</tp1:hr>
</tp1:TrackPointExtension>
</extensions>
</trkpt>
<trkpt lat="50.8157630" lon="6.8040930">
<ele>65.0840000</ele>
<time>2012-04-13T11:14:29Z</time>
<extensions>
<tp1:TrackPointExtension>
<tp1:hr>134</tp1:hr>
</tp1:TrackPointExtension>
</extensions>
</trkpt>
<trkpt lat="50.8156400" lon="6.8030530">
<ele>65.2300000</ele>
<time>2012-04-13T11:14:40Z</time>
<extensions>
<tp1:TrackPointExtension>
<tp1:hr>137</tp1:hr>
</tp1:TrackPointExtension>
</extensions>
</trkpt>
<trkpt lat="50.8154880" lon="6.8024230">
<ele>65.3280000</ele>
<time>2012-04-13T11:14:47Z</time>
<extensions>
<tp1:TrackPointExtension>
<tp1:hr>138</tp1:hr>
</tp1:TrackPointExtension>
</extensions>
</trkpt>
<trkpt lat="50.8152370" lon="6.8014620">
<ele>65.2260000</ele>
<time>2012-04-13T11:14:58Z</time>
<extensions>
<tp1:TrackPointExtension>
<tp1:hr>134</tp1:hr>
</tp1:TrackPointExtension>
</extensions>
</trkpt>
<trkpt lat="50.8152200" lon="6.8013750">
<ele>65.1920000</ele>
<time>2012-04-13T11:14:59Z</time>
<extensions>
<tp1:TrackPointExtension>
<tp1:hr>134</tp1:hr>
</tp1:TrackPointExtension>
</extensions>
</trkpt>
<trkpt lat="50.8151950" lon="6.8007010">
<ele>65.4820000</ele>
<time>2012-04-13T11:15:06Z</time>
<extensions>
<tp1:TrackPointExtension>
<tp1:hr>134</tp1:hr>
</tp1:TrackPointExtension>
</extensions>
</trkpt>
<trkpt lat="50.8151660" lon="6.7996500">
<ele>65.1090000</ele>
<time>2012-04-13T11:15:17Z</time>
<extensions>
<tp1:TrackPointExtension>
<tp1:hr>132</tp1:hr>
</tp1:TrackPointExtension>
</extensions>
</trkpt>
<trkpt lat="50.8150480" lon="6.7992090">
<ele>65.1730000</ele>
<time>2012-04-13T11:15:22Z</time>
<extensions>
<tp1:TrackPointExtension>
<tp1:hr>132</tp1:hr>
</tp1:TrackPointExtension>
</extensions>
</trkpt>
<trkpt lat="50.8147460" lon="6.7983870">
<ele>64.6150000</ele>
<time>2012-04-13T11:15:32Z</time>
<extensions>
<tp1:TrackPointExtension>
<tp1:hr>134</tp1:hr>
</tp1:TrackPointExtension>
</extensions>
</trkpt>
<trkpt lat="50.8144630" lon="6.7977660">
<ele>64.3400000</ele>
<time>2012-04-13T11:15:40Z</time>
<extensions>
<tp1:TrackPointExtension>
<tp1:hr>134</tp1:hr>
</tp1:TrackPointExtension>
</extensions>
</trkpt>
<trkpt lat="50.8140880" lon="6.7971140">
<ele>64.1440000</ele>
<time>2012-04-13T11:15:49Z</time>
<extensions>
<tp1:TrackPointExtension>
<tp1:hr>135</tp1:hr>
</tp1:TrackPointExtension>
</extensions>
</trkpt>
<trkpt lat="50.8139010" lon="6.7965860">
<ele>64.5970000</ele>
<time>2012-04-13T11:15:55Z</time>
<extensions>
<tp1:TrackPointExtension>
<tp1:hr>135</tp1:hr>
</tp1:TrackPointExtension>
</extensions>
</trkpt>
<trkpt lat="50.8138280" lon="6.7960070">
<ele>64.6680000</ele>
<time>2012-04-13T11:16:01Z</time>
<extensions>
<tp1:TrackPointExtension>
<tp1:hr>136</tp1:hr>
</tp1:TrackPointExtension>
</extensions>
</trkpt>
<trkpt lat="50.8137040" lon="6.7953260">
<ele>64.2270000</ele>
<time>2012-04-13T11:16:08Z</time>
<extensions>
<tp1:TrackPointExtension>
<tp1:hr>134</tp1:hr>
</tp1:TrackPointExtension>
</extensions>
</trkpt>
<trkpt lat="50.8136520" lon="6.7950420">
<ele>63.9300000</ele>
<time>2012-04-13T11:16:11Z</time>
<extensions>
<tp1:TrackPointExtension>
<tp1:hr>132</tp1:hr>
</tp1:TrackPointExtension>
</extensions>
</trkpt>
<trkpt lat="50.8135010" lon="6.7949080">
<ele>63.6500000</ele>
<time>2012-04-13T11:16:14Z</time>
<extensions>
<tp1:TrackPointExtension>
<tp1:hr>129</tp1:hr>
</tp1:TrackPointExtension>
</extensions>
</trkpt>
<trkpt lat="50.8133740" lon="6.7949520">
<ele>63.4250000</ele>
<time>2012-04-13T11:16:16Z</time>
<extensions>
<tp1:TrackPointExtension>
<tp1:hr>129</tp1:hr>
</tp1:TrackPointExtension>
</extensions>
</trkpt>
<trkpt lat="50.8128820" lon="6.7951220">
<ele>63.0720000</ele>
<time>2012-04-13T11:16:24Z</time>
<extensions>
<tp1:TrackPointExtension>
<tp1:hr>130</tp1:hr>
</tp1:TrackPointExtension>
</extensions>
</trkpt>
<trkpt lat="50.8127620" lon="6.7951420">
<ele>63.0700000</ele>
<time>2012-04-13T11:16:26Z</time>
<extensions>
<tp1:TrackPointExtension>
<tp1:hr>130</tp1:hr>
</tp1:TrackPointExtension>
</extensions>
</trkpt>
<trkpt lat="50.8126080" lon="6.7950800">
<ele>63.1260000</ele>
<time>2012-04-13T11:16:29Z</time>
<extensions>
<tp1:TrackPointExtension>
<tp1:hr>129</tp1:hr>
</tp1:TrackPointExtension>
</extensions>
</trkpt>
<trkpt lat="50.8125710" lon="6.7949860">
<ele>63.1970000</ele>
<time>2012-04-13T11:16:30Z</time>
<extensions>
<tp1:TrackPointExtension>
<tp1:hr>128</tp1:hr>
</tp1:TrackPointExtension>
</extensions>
</trkpt>
<trkpt lat="50.8122780" lon="6.7942290">
<ele>63.0100000</ele>
<time>2012-04-13T11:16:39Z</time>
<extensions>
<tp1:TrackPointExtension>
<tp1:hr>131</tp1:hr>
</tp1:TrackPointExtension>
</extensions>
</trkpt>
<trkpt lat="50.8120270" lon="6.7936790">
<ele>63.1520000</ele>
<time>2012-04-13T11:16:46Z</time>
<extensions>
<tp1:TrackPointExtension>
<tp1:hr>132</tp1:hr>
</tp1:TrackPointExtension>
</extensions>
</trkpt>
<trkpt lat="50.8117530" lon="6.7930760">
<ele>63.5460000</ele>
<time>2012-04-13T11:16:54Z</time>
<extensions>
<tp1:TrackPointExtension>
<tp1:hr>132</tp1:hr>
</tp1:TrackPointExtension>
</extensions>
</trkpt>
<trkpt lat="50.8114470" lon="6.7924320">
<ele>64.0640000</ele>
<time>2012-04-13T11:17:03Z</time>
<extensions>
<tp1:TrackPointExtension>
<tp1:hr>135</tp1:hr>
</tp1:TrackPointExtension>
</extensions>
</trkpt>
<trkpt lat="50.8111750" lon="6.7918420">
<ele>64.4930000</ele>
<time>2012-04-13T11:17:11Z</time>
<extensions>
<tp1:TrackPointExtension>
<tp1:hr>136</tp1:hr>
</tp1:TrackPointExtension>
</extensions>
</trkpt>
<trkpt lat="50.8109680" lon="6.7914130">
<ele>65.2140000</ele>
<time>2012-04-13T11:17:18Z</time>
<extensions>
<tp1:TrackPointExtension>
<tp1:hr>137</tp1:hr>
</tp1:TrackPointExtension>
</extensions>
</trkpt>
<trkpt lat="50.8107190" lon="6.7909180">
<ele>67.7640000</ele>
<time>2012-04-13T11:17:27Z</time>
<extensions>
<tp1:TrackPointExtension>
<tp1:hr>142</tp1:hr>
</tp1:TrackPointExtension>
</extensions>
</trkpt>
<trkpt lat="50.8106280" lon="6.7907610">
<ele>68.5950000</ele>
<time>2012-04-13T11:17:30Z</time>
<extensions>
<tp1:TrackPointExtension>
<tp1:hr>147</tp1:hr>
</tp1:TrackPointExtension>
</extensions>
</trkpt>
<trkpt lat="50.8103650" lon="6.7903070">
<ele>70.0530000</ele>
<time>2012-04-13T11:17:38Z</time>
<extensions>
<tp1:TrackPointExtension>
<tp1:hr>152</tp1:hr>
</tp1:TrackPointExtension>
</extensions>
</trkpt>
<trkpt lat="50.8100050" lon="6.7896460">
<ele>70.5510000</ele>
<time>2012-04-13T11:17:48Z</time>
<extensions>
<tp1:TrackPointExtension>
<tp1:hr>156</tp1:hr>
</tp1:TrackPointExtension>
</extensions>
</trkpt>
<trkpt lat="50.8097220" lon="6.7889920">
<ele>69.6450000</ele>
<time>2012-04-13T11:17:56Z</time>
<extensions>
<tp1:TrackPointExtension>
<tp1:hr>154</tp1:hr>
</tp1:TrackPointExtension>
</extensions>
</trkpt>
<trkpt lat="50.8094930" lon="6.7883650">
<ele>67.9420000</ele>
<time>2012-04-13T11:18:02Z</time>
<extensions>
<tp1:TrackPointExtension>
<tp1:hr>150</tp1:hr>
</tp1:TrackPointExtension>
</extensions>
</trkpt>
<trkpt lat="50.8092270" lon="6.7876430">
<ele>65.6880000</ele>
<time>2012-04-13T11:18:08Z</time>
<extensions>
<tp1:TrackPointExtension>
<tp1:hr>145</tp1:hr>
</tp1:TrackPointExtension>
</extensions>
</trkpt>
<trkpt lat="50.8090550" lon="6.7871620">
<ele>64.1910000</ele>
<time>2012-04-13T11:18:12Z</time>
<extensions>
<tp1:TrackPointExtension>
<tp1:hr>139</tp1:hr>
</tp1:TrackPointExtension>
</extensions>
</trkpt>
<trkpt lat="50.8090140" lon="6.7870490">
<ele>63.9790000</ele>
<time>2012-04-13T11:18:13Z</time>
<extensions>
<tp1:TrackPointExtension>
<tp1:hr>139</tp1:hr>
</tp1:TrackPointExtension>
</extensions>
</trkpt>
<trkpt lat="50.8089140" lon="6.7867500">
<ele>63.5170000</ele>
<time>2012-04-13T11:18:16Z</time>
<extensions>
<tp1:TrackPointExtension>
<tp1:hr>133</tp1:hr>
</tp1:TrackPointExtension>
</extensions>
</trkpt>
<trkpt lat="50.8088580" lon="6.7865690">
<ele>63.3940000</ele>
<time>2012-04-13T11:18:19Z</time>
<extensions>
<tp1:TrackPointExtension>
<tp1:hr>127</tp1:hr>
</tp1:TrackPointExtension>
</extensions>
</trkpt>
<trkpt lat="50.8088390" lon="6.7864420">
<ele>63.1270000</ele>
<time>2012-04-13T11:18:23Z</time>
<extensions>
<tp1:TrackPointExtension>
<tp1:hr>120</tp1:hr>
</tp1:TrackPointExtension>
</extensions>
</trkpt>
<trkpt lat="50.8088320" lon="6.7863900">
<ele>63.1290000</ele>
<time>2012-04-13T11:18:24Z</time>
<extensions>
<tp1:TrackPointExtension>
<tp1:hr>120</tp1:hr>
</tp1:TrackPointExtension>
</extensions>
</trkpt>
<trkpt lat="50.8088220" lon="6.7863310">
<ele>63.1140000</ele>
<time>2012-04-13T11:18:25Z</time>
<extensions>
<tp1:TrackPointExtension>
<tp1:hr>122</tp1:hr>
</tp1:TrackPointExtension>
</extensions>
</trkpt>
<trkpt lat="50.8086950" lon="6.7860970">
<ele>63.2050000</ele>
<time>2012-04-13T11:18:29Z</time>
<extensions>
<tp1:TrackPointExtension>
<tp1:hr>125</tp1:hr>
</tp1:TrackPointExtension>
</extensions>
</trkpt>
<trkpt lat="50.8086590" lon="6.7860290">
<ele>63.2700000</ele>
<time>2012-04-13T11:18:30Z</time>
<extensions>
<tp1:TrackPointExtension>
<tp1:hr>126</tp1:hr>
</tp1:TrackPointExtension>
</extensions>
</trkpt>
<trkpt lat="50.8085160" lon="6.7856340">
<ele>63.5770000</ele>
<time>2012-04-13T11:18:35Z</time>
<extensions>
<tp1:TrackPointExtension>
<tp1:hr>135</tp1:hr>
</tp1:TrackPointExtension>
</extensions>
</trkpt>
<trkpt lat="50.8082600" lon="6.7849350">
<ele>64.3110000</ele>
<time>2012-04-13T11:18:44Z</time>
<extensions>
<tp1:TrackPointExtension>
<tp1:hr>139</tp1:hr>
</tp1:TrackPointExtension>
</extensions>
</trkpt>
<trkpt lat="50.8080080" lon="6.7842420">
<ele>64.5730000</ele>
<time>2012-04-13T11:18:53Z</time>
<extensions>
<tp1:TrackPointExtension>
<tp1:hr>139</tp1:hr>
</tp1:TrackPointExtension>
</extensions>
</trkpt>
<trkpt lat="50.8077000" lon="6.7834090">
<ele>65.1660000</ele>
<time>2012-04-13T11:19:04Z</time>
<extensions>
<tp1:TrackPointExtension>
<tp1:hr>141</tp1:hr>
</tp1:TrackPointExtension>
</extensions>
</trkpt>
<trkpt lat="50.8073460" lon="6.7824860">
<ele>65.1950000</ele>
<time>2012-04-13T11:19:16Z</time>
<extensions>
<tp1:TrackPointExtension>
<tp1:hr>142</tp1:hr>
</tp1:TrackPointExtension>
</extensions>
</trkpt>
<trkpt lat="50.8070030" lon="6.7816720">
<ele>65.0680000</ele>
<time>2012-04-13T11:19:27Z</time>
<extensions>
<tp1:TrackPointExtension>
<tp1:hr>140</tp1:hr>
</tp1:TrackPointExtension>
</extensions>
</trkpt>
<trkpt lat="50.8066290" lon="6.7808770">
<ele>64.7880000</ele>
<time>2012-04-13T11:19:38Z</time>
<extensions>
<tp1:TrackPointExtension>
<tp1:hr>138</tp1:hr>
</tp1:TrackPointExtension>
</extensions>
</trkpt>
<trkpt lat="50.8062840" lon="6.7801240">
<ele>64.9230000</ele>
<time>2012-04-13T11:19:48Z</time>
<extensions>
<tp1:TrackPointExtension>
<tp1:hr>135</tp1:hr>
</tp1:TrackPointExtension>
</extensions>
</trkpt>
<trkpt lat="50.8062030" lon="6.7799940">
<ele>64.9420000</ele>
<time>2012-04-13T11:19:50Z</time>
<extensions>
<tp1:TrackPointExtension>
<tp1:hr>135</tp1:hr>
</tp1:TrackPointExtension>
</extensions>
</trkpt>
<trkpt lat="50.8058420" lon="6.7792740">
<ele>64.6470000</ele>
<time>2012-04-13T11:20:00Z</time>
<extensions>
<tp1:TrackPointExtension>
<tp1:hr>136</tp1:hr>
</tp1:TrackPointExtension>
</extensions>
</trkpt>
<trkpt lat="50.8055860" lon="6.7788790">
<ele>64.4980000</ele>
<time>2012-04-13T11:20:06Z</time>
<extensions>
<tp1:TrackPointExtension>
<tp1:hr>137</tp1:hr>
</tp1:TrackPointExtension>
</extensions>
</trkpt>
<trkpt lat="50.8051710" lon="6.7782310">
<ele>64.3700000</ele>
<time>2012-04-13T11:20:16Z</time>
<extensions>
<tp1:TrackPointExtension>
<tp1:hr>137</tp1:hr>
</tp1:TrackPointExtension>
</extensions>
</trkpt>
<trkpt lat="50.8047580" lon="6.7775890">
<ele>64.3910000</ele>
<time>2012-04-13T11:20:26Z</time>
<extensions>
<tp1:TrackPointExtension>
<tp1:hr>136</tp1:hr>
</tp1:TrackPointExtension>
</extensions>
</trkpt>
<trkpt lat="50.8046450" lon="6.7774050">
<ele>64.3750000</ele>
<time>2012-04-13T11:20:29Z</time>
<extensions>
<tp1:TrackPointExtension>
<tp1:hr>135</tp1:hr>
</tp1:TrackPointExtension>
</extensions>
</trkpt>
<trkpt lat="50.8046190" lon="6.7771820">
<ele>64.4980000</ele>
<time>2012-04-13T11:20:32Z</time>
<extensions>
<tp1:TrackPointExtension>
<tp1:hr>132</tp1:hr>
</tp1:TrackPointExtension>
</extensions>
</trkpt>
<trkpt lat="50.8046960" lon="6.7770630">
<ele>64.5350000</ele>
<time>2012-04-13T11:20:34Z</time>
<extensions>
<tp1:TrackPointExtension>
<tp1:hr>129</tp1:hr>
</tp1:TrackPointExtension>
</extensions>
</trkpt>
<trkpt lat="50.8052480" lon="6.7765390">
<ele>64.3130000</ele>
<time>2012-04-13T11:20:45Z</time>
<extensions>
<tp1:TrackPointExtension>
<tp1:hr>133</tp1:hr>
</tp1:TrackPointExtension>
</extensions>
</trkpt>
<trkpt lat="50.8058090" lon="6.7760090">
<ele>64.2090000</ele>
<time>2012-04-13T11:20:56Z</time>
<extensions>
<tp1:TrackPointExtension>
<tp1:hr>132</tp1:hr>
</tp1:TrackPointExtension>
</extensions>
</trkpt>
<trkpt lat="50.8063270" lon="6.7755100">
<ele>63.8550000</ele>
<time>2012-04-13T11:21:06Z</time>
<extensions>
<tp1:TrackPointExtension>
<tp1:hr>132</tp1:hr>
</tp1:TrackPointExtension>
</extensions>
</trkpt>
<trkpt lat="50.8065210" lon="6.7752880">
<ele>63.7150000</ele>
<time>2012-04-13T11:21:10Z</time>
<extensions>
<tp1:TrackPointExtension>
<tp1:hr>132</tp1:hr>
</tp1:TrackPointExtension>
</extensions>
</trkpt>
<trkpt lat="50.8067770" lon="6.7750590">
<ele>63.4980000</ele>
<time>2012-04-13T11:21:15Z</time>
<extensions>
<tp1:TrackPointExtension>
<tp1:hr>131</tp1:hr>
</tp1:TrackPointExtension>
</extensions>
</trkpt>
<trkpt lat="50.8069200" lon="6.7748990">
<ele>63.5630000</ele>
<time>2012-04-13T11:21:18Z</time>
<extensions>
<tp1:TrackPointExtension>
<tp1:hr>131</tp1:hr>
</tp1:TrackPointExtension>
</extensions>
</trkpt>
<trkpt lat="50.8070250" lon="6.7748180">
<ele>63.5150000</ele>
<time>2012-04-13T11:21:20Z</time>
<extensions>
<tp1:TrackPointExtension>
<tp1:hr>131</tp1:hr>
</tp1:TrackPointExtension>
</extensions>
</trkpt>
<trkpt lat="50.8075120" lon="6.7743090">
<ele>63.3140000</ele>
<time>2012-04-13T11:21:30Z</time>
<extensions>
<tp1:TrackPointExtension>
<tp1:hr>131</tp1:hr>
</tp1:TrackPointExtension>
</extensions>
</trkpt>
<trkpt lat="50.8075550" lon="6.7742470">
<ele>63.2590000</ele>
<time>2012-04-13T11:21:31Z</time>
<extensions>
<tp1:TrackPointExtension>
<tp1:hr>131</tp1:hr>
</tp1:TrackPointExtension>
</extensions>
</trkpt>
<trkpt lat="50.8078140" lon="6.7737300">
<ele>62.8730000</ele>
<time>2012-04-13T11:21:38Z</time>
<extensions>
<tp1:TrackPointExtension>
<tp1:hr>132</tp1:hr>
</tp1:TrackPointExtension>
</extensions>
</trkpt>
<trkpt lat="50.8079510" lon="6.7731130">
<ele>62.5280000</ele>
<time>2012-04-13T11:21:45Z</time>
<extensions>
<tp1:TrackPointExtension>
<tp1:hr>132</tp1:hr>
</tp1:TrackPointExtension>
</extensions>
</trkpt>
<trkpt lat="50.8079680" lon="6.7725430">
<ele>62.6920000</ele>
<time>2012-04-13T11:21:51Z</time>
<extensions>
<tp1:TrackPointExtension>
<tp1:hr>133</tp1:hr>
</tp1:TrackPointExtension>
</extensions>
</trkpt>
<trkpt lat="50.8078950" lon="6.7719680">
<ele>62.7480000</ele>
<time>2012-04-13T11:21:57Z</time>
<extensions>
<tp1:TrackPointExtension>
<tp1:hr>135</tp1:hr>
</tp1:TrackPointExtension>
</extensions>
</trkpt>
<trkpt lat="50.8077640" lon="6.7712270">
<ele>62.8340000</ele>
<time>2012-04-13T11:22:05Z</time>
<extensions>
<tp1:TrackPointExtension>
<tp1:hr>136</tp1:hr>
</tp1:TrackPointExtension>
</extensions>
</trkpt>
<trkpt lat="50.8076710" lon="6.7704920">
<ele>63.0920000</ele>
<time>2012-04-13T11:22:13Z</time>
<extensions>
<tp1:TrackPointExtension>
<tp1:hr>136</tp1:hr>
</tp1:TrackPointExtension>
</extensions>
</trkpt>
<trkpt lat="50.8076920" lon="6.7699240">
<ele>62.8720000</ele>
<time>2012-04-13T11:22:19Z</time>
<extensions>
<tp1:TrackPointExtension>
<tp1:hr>135</tp1:hr>
</tp1:TrackPointExtension>
</extensions>
</trkpt>
<trkpt lat="50.8077460" lon="6.7689810">
<ele>62.7840000</ele>
<time>2012-04-13T11:22:29Z</time>
<extensions>
<tp1:TrackPointExtension>
<tp1:hr>134</tp1:hr>
</tp1:TrackPointExtension>
</extensions>
</trkpt>
<trkpt lat="50.8077870" lon="6.7683250">
<ele>62.4730000</ele>
<time>2012-04-13T11:22:36Z</time>
<extensions>
<tp1:TrackPointExtension>
<tp1:hr>132</tp1:hr>
</tp1:TrackPointExtension>
</extensions>
</trkpt>
<trkpt lat="50.8078410" lon="6.7673820">
<ele>62.4000000</ele>
<time>2012-04-13T11:22:46Z</time>
<extensions>
<tp1:TrackPointExtension>
<tp1:hr>131</tp1:hr>
</tp1:TrackPointExtension>
</extensions>
</trkpt>
<trkpt lat="50.8078780" lon="6.7666270">
<ele>62.1020000</ele>
<time>2012-04-13T11:22:54Z</time>
<extensions>
<tp1:TrackPointExtension>
<tp1:hr>132</tp1:hr>
</tp1:TrackPointExtension>
</extensions>
</trkpt>
<trkpt lat="50.8079370" lon="6.7658100">
<ele>62.1450000</ele>
<time>2012-04-13T11:23:03Z</time>
<extensions>
<tp1:TrackPointExtension>
<tp1:hr>130</tp1:hr>
</tp1:TrackPointExtension>
</extensions>
</trkpt>
<trkpt lat="50.8079470" lon="6.7656090">
<ele>62.0380000</ele>
<time>2012-04-13T11:23:07Z</time>
<extensions>
<tp1:TrackPointExtension>
<tp1:hr>127</tp1:hr>
</tp1:TrackPointExtension>
</extensions>
</trkpt>
<trkpt lat="50.8079450" lon="6.7655830">
<ele>61.9850000</ele>
<time>2012-04-13T11:23:09Z</time>
<extensions>
<tp1:TrackPointExtension>
<tp1:hr>126</tp1:hr>
</tp1:TrackPointExtension>
</extensions>
</trkpt>
<trkpt lat="50.8078500" lon="6.7655100">
<ele>61.7360000</ele>
<time>2012-04-13T11:23:14Z</time>
<extensions>
<tp1:TrackPointExtension>
<tp1:hr>125</tp1:hr>
</tp1:TrackPointExtension>
</extensions>
</trkpt>
<trkpt lat="50.8075660" lon="6.7654690">
<ele>61.9580000</ele>
<time>2012-04-13T11:23:20Z</time>
<extensions>
<tp1:TrackPointExtension>
<tp1:hr>128</tp1:hr>
</tp1:TrackPointExtension>
</extensions>
</trkpt>
<trkpt lat="50.8074060" lon="6.7652930">
<ele>62.1920000</ele>
<time>2012-04-13T11:23:24Z</time>
<extensions>
<tp1:TrackPointExtension>
<tp1:hr>132</tp1:hr>
</tp1:TrackPointExtension>
</extensions>
</trkpt>
<trkpt lat="50.8073870" lon="6.7652120">
<ele>62.2110000</ele>
<time>2012-04-13T11:23:25Z</time>
<extensions>
<tp1:TrackPointExtension>
<tp1:hr>133</tp1:hr>
</tp1:TrackPointExtension>
</extensions>
</trkpt>
<trkpt lat="50.8073170" lon="6.7648930">
<ele>62.2790000</ele>
<time>2012-04-13T11:23:29Z</time>
<extensions>
<tp1:TrackPointExtension>
<tp1:hr>137</tp1:hr>
</tp1:TrackPointExtension>
</extensions>
</trkpt>
<trkpt lat="50.8072980" lon="6.7644510">
<ele>62.1320000</ele>
<time>2012-04-13T11:23:34Z</time>
<extensions>
<tp1:TrackPointExtension>
<tp1:hr>137</tp1:hr>
</tp1:TrackPointExtension>
</extensions>
</trkpt>
<trkpt lat="50.8073390" lon="6.7637070">
<ele>62.0110000</ele>
<time>2012-04-13T11:23:42Z</time>
<extensions>
<tp1:TrackPointExtension>
<tp1:hr>138</tp1:hr>
</tp1:TrackPointExtension>
</extensions>
</trkpt>
<trkpt lat="50.8073550" lon="6.7628320">
<ele>62.4100000</ele>
<time>2012-04-13T11:23:52Z</time>
<extensions>
<tp1:TrackPointExtension>
<tp1:hr>138</tp1:hr>
</tp1:TrackPointExtension>
</extensions>
</trkpt>
<trkpt lat="50.8073280" lon="6.7618050">
<ele>63.8540000</ele>
<time>2012-04-13T11:24:04Z</time>
<extensions>
<tp1:TrackPointExtension>
<tp1:hr>143</tp1:hr>
</tp1:TrackPointExtension>
</extensions>
</trkpt>
<trkpt lat="50.8073010" lon="6.7611010">
<ele>64.8660000</ele>
<time>2012-04-13T11:24:12Z</time>
<extensions>
<tp1:TrackPointExtension>
<tp1:hr>148</tp1:hr>
</tp1:TrackPointExtension>
</extensions>
</trkpt>
<trkpt lat="50.8072580" lon="6.7600500">
<ele>65.0760000</ele>
<time>2012-04-13T11:24:24Z</time>
<extensions>
<tp1:TrackPointExtension>
<tp1:hr>149</tp1:hr>
</tp1:TrackPointExtension>
</extensions>
</trkpt>
<trkpt lat="50.8072240" lon="6.7589890">
<ele>65.6020000</ele>
<time>2012-04-13T11:24:36Z</time>
<extensions>
<tp1:TrackPointExtension>
<tp1:hr>150</tp1:hr>
</tp1:TrackPointExtension>
</extensions>
</trkpt>
<trkpt lat="50.8071890" lon="6.7578550">
<ele>66.0060000</ele>
<time>2012-04-13T11:24:49Z</time>
<extensions>
<tp1:TrackPointExtension>
<tp1:hr>146</tp1:hr>
</tp1:TrackPointExtension>
</extensions>
</trkpt>
<trkpt lat="50.8071830" lon="6.7576010">
<ele>65.9830000</ele>
<time>2012-04-13T11:24:52Z</time>
<extensions>
<tp1:TrackPointExtension>
<tp1:hr>145</tp1:hr>
</tp1:TrackPointExtension>
</extensions>
</trkpt>
<trkpt lat="50.8070950" lon="6.7574350">
<ele>65.8890000</ele>
<time>2012-04-13T11:24:55Z</time>
<extensions>
<tp1:TrackPointExtension>
<tp1:hr>144</tp1:hr>
</tp1:TrackPointExtension>
</extensions>
</trkpt>
<trkpt lat="50.8070440" lon="6.7574270">
<ele>65.8460000</ele>
<time>2012-04-13T11:24:56Z</time>
<extensions>
<tp1:TrackPointExtension>
<tp1:hr>143</tp1:hr>
</tp1:TrackPointExtension>
</extensions>
</trkpt>
<trkpt lat="50.8064820" lon="6.7574850">
<ele>65.7680000</ele>
<time>2012-04-13T11:25:06Z</time>
<extensions>
<tp1:TrackPointExtension>
<tp1:hr>143</tp1:hr>
</tp1:TrackPointExtension>
</extensions>
</trkpt>
<trkpt lat="50.8058970" lon="6.7575500">
<ele>66.1890000</ele>
<time>2012-04-13T11:25:16Z</time>
<extensions>
<tp1:TrackPointExtension>
<tp1:hr>141</tp1:hr>
</tp1:TrackPointExtension>
</extensions>
</trkpt>
<trkpt lat="50.8052960" lon="6.7575780">
<ele>65.8730000</ele>
<time>2012-04-13T11:25:26Z</time>
<extensions>
<tp1:TrackPointExtension>
<tp1:hr>138</tp1:hr>
</tp1:TrackPointExtension>
</extensions>
</trkpt>
<trkpt lat="50.8046400" lon="6.7575030">
<ele>65.7290000</ele>
<time>2012-04-13T11:25:37Z</time>
<extensions>
<tp1:TrackPointExtension>
<tp1:hr>136</tp1:hr>
</tp1:TrackPointExtension>
</extensions>
</trkpt>
<trkpt lat="50.8045240" lon="6.7574990">
<ele>66.0080000</ele>
<time>2012-04-13T11:25:39Z</time>
<extensions>
<tp1:TrackPointExtension>
<tp1:hr>136</tp1:hr>
</tp1:TrackPointExtension>
</extensions>
</trkpt>
<trkpt lat="50.8042420" lon="6.7574590">
<ele>66.3150000</ele>
<time>2012-04-13T11:25:44Z</time>
<extensions>
<tp1:TrackPointExtension>
<tp1:hr>133</tp1:hr>
</tp1:TrackPointExtension>
</extensions>
</trkpt>
<trkpt lat="50.8041280" lon="6.7574900">
<ele>66.4800000</ele>
<time>2012-04-13T11:25:46Z</time>
<extensions>
<tp1:TrackPointExtension>
<tp1:hr>132</tp1:hr>
</tp1:TrackPointExtension>
</extensions>
</trkpt>
<trkpt lat="50.8037340" lon="6.7574010">
<ele>66.5310000</ele>
<time>2012-04-13T11:25:53Z</time>
<extensions>
<tp1:TrackPointExtension>
<tp1:hr>131</tp1:hr>
</tp1:TrackPointExtension>
</extensions>
</trkpt>
<trkpt lat="50.8036150" lon="6.7573800">
<ele>66.5340000</ele>
<time>2012-04-13T11:25:55Z</time>
<extensions>
<tp1:TrackPointExtension>
<tp1:hr>131</tp1:hr>
</tp1:TrackPointExtension>
</extensions>
</trkpt>
<trkpt lat="50.8032500" lon="6.7573220">
<ele>66.8940000</ele>
<time>2012-04-13T11:26:01Z</time>
<extensions>
<tp1:TrackPointExtension>
<tp1:hr>133</tp1:hr>
</tp1:TrackPointExtension>
</extensions>
</trkpt>
<trkpt lat="50.8027000" lon="6.7572520">
<ele>66.9620000</ele>
<time>2012-04-13T11:26:10Z</time>
<extensions>
<tp1:TrackPointExtension>
<tp1:hr>133</tp1:hr>
</tp1:TrackPointExtension>
</extensions>
</trkpt>
<trkpt lat="50.8020890" lon="6.7571870">
<ele>67.0490000</ele>
<time>2012-04-13T11:26:20Z</time>
<extensions>
<tp1:TrackPointExtension>
<tp1:hr>132</tp1:hr>
</tp1:TrackPointExtension>
</extensions>
</trkpt>
<trkpt lat="50.8017300" lon="6.7571410">
<ele>67.2230000</ele>
<time>2012-04-13T11:26:26Z</time>
<extensions>
<tp1:TrackPointExtension>
<tp1:hr>131</tp1:hr>
</tp1:TrackPointExtension>
</extensions>
</trkpt>
<trkpt lat="50.8014950" lon="6.7570840">
<ele>67.2180000</ele>
<time>2012-04-13T11:26:30Z</time>
<extensions>
<tp1:TrackPointExtension>
<tp1:hr>130</tp1:hr>
</tp1:TrackPointExtension>
</extensions>
</trkpt>
<trkpt lat="50.8013800" lon="6.7570420">
<ele>67.1990000</ele>
<time>2012-04-13T11:26:32Z</time>
<extensions>
<tp1:TrackPointExtension>
<tp1:hr>130</tp1:hr>
</tp1:TrackPointExtension>
</extensions>
</trkpt>
<trkpt lat="50.8010880" lon="6.7570280">
<ele>67.2030000</ele>
<time>2012-04-13T11:26:37Z</time>
<extensions>
<tp1:TrackPointExtension>
<tp1:hr>130</tp1:hr>
</tp1:TrackPointExtension>
</extensions>
</trkpt>
<trkpt lat="50.8009200" lon="6.7569720">
<ele>67.0630000</ele>
<time>2012-04-13T11:26:40Z</time>
<extensions>
<tp1:TrackPointExtension>
<tp1:hr>128</tp1:hr>
</tp1:TrackPointExtension>
</extensions>
</trkpt>
<trkpt lat="50.8007230" lon="6.7569260">
<ele>66.8080000</ele>
<time>2012-04-13T11:26:44Z</time>
<extensions>
<tp1:TrackPointExtension>
<tp1:hr>127</tp1:hr>
</tp1:TrackPointExtension>
</extensions>
</trkpt>
<trkpt lat="50.8006710" lon="6.7566720">
<ele>66.6040000</ele>
<time>2012-04-13T11:26:48Z</time>
<extensions>
<tp1:TrackPointExtension>
<tp1:hr>124</tp1:hr>
</tp1:TrackPointExtension>
</extensions>
</trkpt>
<trkpt lat="50.8006730" lon="6.7565070">
<ele>66.6680000</ele>
<time>2012-04-13T11:26:50Z</time>
<extensions>
<tp1:TrackPointExtension>
<tp1:hr>126</tp1:hr>
</tp1:TrackPointExtension>
</extensions>
</trkpt>
<trkpt lat="50.8007090" lon="6.7561570">
<ele>66.8110000</ele>
<time>2012-04-13T11:26:54Z</time>
<extensions>
<tp1:TrackPointExtension>
<tp1:hr>129</tp1:hr>
</tp1:TrackPointExtension>
</extensions>
</trkpt>
<trkpt lat="50.8007320" lon="6.7552480">
<ele>67.2140000</ele>
<time>2012-04-13T11:27:04Z</time>
<extensions>
<tp1:TrackPointExtension>
<tp1:hr>134</tp1:hr>
</tp1:TrackPointExtension>
</extensions>
</trkpt>
<trkpt lat="50.8007460" lon="6.7548760">
<ele>67.4340000</ele>
<time>2012-04-13T11:27:08Z</time>
<extensions>
<tp1:TrackPointExtension>
<tp1:hr>135</tp1:hr>
</tp1:TrackPointExtension>
</extensions>
</trkpt>
<trkpt lat="50.8007390" lon="6.7546900">
<ele>67.5620000</ele>
<time>2012-04-13T11:27:10Z</time>
<extensions>
<tp1:TrackPointExtension>
<tp1:hr>135</tp1:hr>
</tp1:TrackPointExtension>
</extensions>
</trkpt>
<trkpt lat="50.8007510" lon="6.7542190">
<ele>68.0610000</ele>
<time>2012-04-13T11:27:15Z</time>
<extensions>
<tp1:TrackPointExtension>
<tp1:hr>137</tp1:hr>
</tp1:TrackPointExtension>
</extensions>
</trkpt>
<trkpt lat="50.8007500" lon="6.7541200">
<ele>68.1080000</ele>
<time>2012-04-13T11:27:16Z</time>
<extensions>
<tp1:TrackPointExtension>
<tp1:hr>139</tp1:hr>
</tp1:TrackPointExtension>
</extensions>
</trkpt>
<trkpt lat="50.8007610" lon="6.7534250">
<ele>68.0550000</ele>
<time>2012-04-13T11:27:23Z</time>
<extensions>
<tp1:TrackPointExtension>
<tp1:hr>141</tp1:hr>
</tp1:TrackPointExtension>
</extensions>
</trkpt>
<trkpt lat="50.8007770" lon="6.7524660">
<ele>68.5110000</ele>
<time>2012-04-13T11:27:33Z</time>
<extensions>
<tp1:TrackPointExtension>
<tp1:hr>145</tp1:hr>
</tp1:TrackPointExtension>
</extensions>
</trkpt>
<trkpt lat="50.8008000" lon="6.7513410">
<ele>68.6430000</ele>
<time>2012-04-13T11:27:45Z</time>
<extensions>
<tp1:TrackPointExtension>
<tp1:hr>144</tp1:hr>
</tp1:TrackPointExtension>
</extensions>
</trkpt>
<trkpt lat="50.8008210" lon="6.7511610">
<ele>68.7300000</ele>
<time>2012-04-13T11:27:47Z</time>
<extensions>
<tp1:TrackPointExtension>
<tp1:hr>144</tp1:hr>
</tp1:TrackPointExtension>
</extensions>
</trkpt>
<trkpt lat="50.8008060" lon="6.7507930">
<ele>68.9090000</ele>
<time>2012-04-13T11:27:51Z</time>
<extensions>
<tp1:TrackPointExtension>
<tp1:hr>144</tp1:hr>
</tp1:TrackPointExtension>
</extensions>
</trkpt>
<trkpt lat="50.8008240" lon="6.7495800">
<ele>68.6840000</ele>
<time>2012-04-13T11:28:04Z</time>
<extensions>
<tp1:TrackPointExtension>
<tp1:hr>143</tp1:hr>
</tp1:TrackPointExtension>
</extensions>
</trkpt>
<trkpt lat="50.8008370" lon="6.7487570">
<ele>68.8150000</ele>
<time>2012-04-13T11:28:13Z</time>
<extensions>
<tp1:TrackPointExtension>
<tp1:hr>143</tp1:hr>
</tp1:TrackPointExtension>
</extensions>
</trkpt>
<trkpt lat="50.8008520" lon="6.7476590">
<ele>68.6890000</ele>
<time>2012-04-13T11:28:25Z</time>
<extensions>
<tp1:TrackPointExtension>
<tp1:hr>142</tp1:hr>
</tp1:TrackPointExtension>
</extensions>
</trkpt>
<trkpt lat="50.8008670" lon="6.7466480">
<ele>68.4320000</ele>
<time>2012-04-13T11:28:36Z</time>
<extensions>
<tp1:TrackPointExtension>
<tp1:hr>140</tp1:hr>
</tp1:TrackPointExtension>
</extensions>
</trkpt>
<trkpt lat="50.8008840" lon="6.7454330">
<ele>68.6020000</ele>
<time>2012-04-13T11:28:49Z</time>
<extensions>
<tp1:TrackPointExtension>
<tp1:hr>140</tp1:hr>
</tp1:TrackPointExtension>
</extensions>
</trkpt>
<trkpt lat="50.8008960" lon="6.7444800">
<ele>68.6700000</ele>
<time>2012-04-13T11:28:59Z</time>
<extensions>
<tp1:TrackPointExtension>
<tp1:hr>141</tp1:hr>
</tp1:TrackPointExtension>
</extensions>
</trkpt>
<trkpt lat="50.8009120" lon="6.7435290">
<ele>68.9390000</ele>
<time>2012-04-13T11:29:09Z</time>
<extensions>
<tp1:TrackPointExtension>
<tp1:hr>141</tp1:hr>
</tp1:TrackPointExtension>
</extensions>
</trkpt>
<trkpt lat="50.8009300" lon="6.7423040">
<ele>69.2250000</ele>
<time>2012-04-13T11:29:22Z</time>
<extensions>
<tp1:TrackPointExtension>
<tp1:hr>141</tp1:hr>
</tp1:TrackPointExtension>
</extensions>
</trkpt>
<trkpt lat="50.8009470" lon="6.7410670">
<ele>69.2750000</ele>
<time>2012-04-13T11:29:35Z</time>
<extensions>
<tp1:TrackPointExtension>
<tp1:hr>143</tp1:hr>
</tp1:TrackPointExtension>
</extensions>
</trkpt>
<trkpt lat="50.8009660" lon="6.7396980">
<ele>69.2650000</ele>
<time>2012-04-13T11:29:49Z</time>
<extensions>
<tp1:TrackPointExtension>
<tp1:hr>145</tp1:hr>
</tp1:TrackPointExtension>
</extensions>
</trkpt>
<trkpt lat="50.8009820" lon="6.7384100">
<ele>68.9160000</ele>
<time>2012-04-13T11:30:02Z</time>
<extensions>
<tp1:TrackPointExtension>
<tp1:hr>144</tp1:hr>
</tp1:TrackPointExtension>
</extensions>
</trkpt>
<trkpt lat="50.8010010" lon="6.7370140">
<ele>68.7800000</ele>
<time>2012-04-13T11:30:16Z</time>
<extensions>
<tp1:TrackPointExtension>
<tp1:hr>142</tp1:hr>
</tp1:TrackPointExtension>
</extensions>
</trkpt>
<trkpt lat="50.8010180" lon="6.7356280">
<ele>68.8850000</ele>
<time>2012-04-13T11:30:30Z</time>
<extensions>
<tp1:TrackPointExtension>
<tp1:hr>141</tp1:hr>
</tp1:TrackPointExtension>
</extensions>
</trkpt>
<trkpt lat="50.8010220" lon="6.7352260">
<ele>68.9230000</ele>
<time>2012-04-13T11:30:34Z</time>
<extensions>
<tp1:TrackPointExtension>
<tp1:hr>141</tp1:hr>
</tp1:TrackPointExtension>
</extensions>
</trkpt>
<trkpt lat="50.8010070" lon="6.7350280">
<ele>69.0660000</ele>
<time>2012-04-13T11:30:36Z</time>
<extensions>
<tp1:TrackPointExtension>
<tp1:hr>141</tp1:hr>
</tp1:TrackPointExtension>
</extensions>
</trkpt>
<trkpt lat="50.8010140" lon="6.7339290">
<ele>69.2150000</ele>
<time>2012-04-13T11:30:47Z</time>
<extensions>
<tp1:TrackPointExtension>
<tp1:hr>143</tp1:hr>
</tp1:TrackPointExtension>
</extensions>
</trkpt>
<trkpt lat="50.8010240" lon="6.7330180">
<ele>69.2980000</ele>
<time>2012-04-13T11:30:56Z</time>
<extensions>
<tp1:TrackPointExtension>
<tp1:hr>144</tp1:hr>
</tp1:TrackPointExtension>
</extensions>
</trkpt>
<trkpt lat="50.8010370" lon="6.7316290">
<ele>69.5500000</ele>
<time>2012-04-13T11:31:10Z</time>
<extensions>
<tp1:TrackPointExtension>
<tp1:hr>145</tp1:hr>
</tp1:TrackPointExtension>
</extensions>
</trkpt>
<trkpt lat="50.8010510" lon="6.7307360">
<ele>69.0110000</ele>
<time>2012-04-13T11:31:19Z</time>
<extensions>
<tp1:TrackPointExtension>
<tp1:hr>145</tp1:hr>
</tp1:TrackPointExtension>
</extensions>
</trkpt>
<trkpt lat="50.8010740" lon="6.7297410">
<ele>69.0370000</ele>
<time>2012-04-13T11:31:29Z</time>
<extensions>
<tp1:TrackPointExtension>
<tp1:hr>145</tp1:hr>
</tp1:TrackPointExtension>
</extensions>
</trkpt>
<trkpt lat="50.8011350" lon="6.7287280">
<ele>69.3990000</ele>
<time>2012-04-13T11:31:39Z</time>
<extensions>
<tp1:TrackPointExtension>
<tp1:hr>143</tp1:hr>
</tp1:TrackPointExtension>
</extensions>
</trkpt>
<trkpt lat="50.8012480" lon="6.7278630">
<ele>69.1550000</ele>
<time>2012-04-13T11:31:48Z</time>
<extensions>
<tp1:TrackPointExtension>
<tp1:hr>144</tp1:hr>
</tp1:TrackPointExtension>
</extensions>
</trkpt>
<trkpt lat="50.8013890" lon="6.7270950">
<ele>69.2890000</ele>
<time>2012-04-13T11:31:56Z</time>
<extensions>
<tp1:TrackPointExtension>
<tp1:hr>146</tp1:hr>
</tp1:TrackPointExtension>
</extensions>
</trkpt>
<trkpt lat="50.8015180" lon="6.7262250">
<ele>69.1190000</ele>
<time>2012-04-13T11:32:05Z</time>
<extensions>
<tp1:TrackPointExtension>
<tp1:hr>144</tp1:hr>
</tp1:TrackPointExtension>
</extensions>
</trkpt>
<trkpt lat="50.8016180" lon="6.7255780">
<ele>68.8000000</ele>
<time>2012-04-13T11:32:12Z</time>
<extensions>
<tp1:TrackPointExtension>
<tp1:hr>139</tp1:hr>
</tp1:TrackPointExtension>
</extensions>
</trkpt>
<trkpt lat="50.8016290" lon="6.7254840">
<ele>68.7750000</ele>
<time>2012-04-13T11:32:13Z</time>
<extensions>
<tp1:TrackPointExtension>
<tp1:hr>139</tp1:hr>
</tp1:TrackPointExtension>
</extensions>
</trkpt>
<trkpt lat="50.8017340" lon="6.7251610">
<ele>68.5670000</ele>
<time>2012-04-13T11:32:17Z</time>
<extensions>
<tp1:TrackPointExtension>
<tp1:hr>138</tp1:hr>
</tp1:TrackPointExtension>
</extensions>
</trkpt>
<trkpt lat="50.8018020" lon="6.7250080">
<ele>68.4510000</ele>
<time>2012-04-13T11:32:19Z</time>
<extensions>
<tp1:TrackPointExtension>
<tp1:hr>138</tp1:hr>
</tp1:TrackPointExtension>
</extensions>
</trkpt>
<trkpt lat="50.8018810" lon="6.7246540">
<ele>68.6340000</ele>
<time>2012-04-13T11:32:23Z</time>
<extensions>
<tp1:TrackPointExtension>
<tp1:hr>137</tp1:hr>
</tp1:TrackPointExtension>
</extensions>
</trkpt>
<trkpt lat="50.8018890" lon="6.7235050">
<ele>69.1430000</ele>
<time>2012-04-13T11:32:35Z</time>
<extensions>
<tp1:TrackPointExtension>
<tp1:hr>137</tp1:hr>
</tp1:TrackPointExtension>
</extensions>
</trkpt>
<trkpt lat="50.8018970" lon="6.7227280">
<ele>69.8490000</ele>
<time>2012-04-13T11:32:43Z</time>
<extensions>
<tp1:TrackPointExtension>
<tp1:hr>140</tp1:hr>
</tp1:TrackPointExtension>
</extensions>
</trkpt>
<trkpt lat="50.8018950" lon="6.7216900">
<ele>70.3390000</ele>
<time>2012-04-13T11:32:54Z</time>
<extensions>
<tp1:TrackPointExtension>
<tp1:hr>143</tp1:hr>
</tp1:TrackPointExtension>
</extensions>
</trkpt>
<trkpt lat="50.8018960" lon="6.7208700">
<ele>70.5870000</ele>
<time>2012-04-13T11:33:03Z</time>
<extensions>
<tp1:TrackPointExtension>
<tp1:hr>145</tp1:hr>
</tp1:TrackPointExtension>
</extensions>
</trkpt>
<trkpt lat="50.8018980" lon="6.7201390">
<ele>70.9380000</ele>
<time>2012-04-13T11:33:11Z</time>
<extensions>
<tp1:TrackPointExtension>
<tp1:hr>146</tp1:hr>
</tp1:TrackPointExtension>
</extensions>
</trkpt>
<trkpt lat="50.8018960" lon="6.7189340">
<ele>71.3340000</ele>
<time>2012-04-13T11:33:24Z</time>
<extensions>
<tp1:TrackPointExtension>
<tp1:hr>149</tp1:hr>
</tp1:TrackPointExtension>
</extensions>
</trkpt>
<trkpt lat="50.8018990" lon="6.7179430">
<ele>71.6190000</ele>
<time>2012-04-13T11:33:35Z</time>
<extensions>
<tp1:TrackPointExtension>
<tp1:hr>147</tp1:hr>
</tp1:TrackPointExtension>
</extensions>
</trkpt>
<trkpt lat="50.8019030" lon="6.7169570">
<ele>71.7140000</ele>
<time>2012-04-13T11:33:46Z</time>
<extensions>
<tp1:TrackPointExtension>
<tp1:hr>147</tp1:hr>
</tp1:TrackPointExtension>
</extensions>
</trkpt>
<trkpt lat="50.8019050" lon="6.7160380">
<ele>71.7350000</ele>
<time>2012-04-13T11:33:56Z</time>
<extensions>
<tp1:TrackPointExtension>
<tp1:hr>147</tp1:hr>
</tp1:TrackPointExtension>
</extensions>
</trkpt>
<trkpt lat="50.8019080" lon="6.7149100">
<ele>72.0030000</ele>
<time>2012-04-13T11:34:08Z</time>
<extensions>
<tp1:TrackPointExtension>
<tp1:hr>147</tp1:hr>
</tp1:TrackPointExtension>
</extensions>
</trkpt>
<trkpt lat="50.8019010" lon="6.7137700">
<ele>72.4540000</ele>
<time>2012-04-13T11:34:20Z</time>
<extensions>
<tp1:TrackPointExtension>
<tp1:hr>148</tp1:hr>
</tp1:TrackPointExtension>
</extensions>
</trkpt>
<trkpt lat="50.8018530" lon="6.7125510">
<ele>73.1280000</ele>
<time>2012-04-13T11:34:33Z</time>
<extensions>
<tp1:TrackPointExtension>
<tp1:hr>147</tp1:hr>
</tp1:TrackPointExtension>
</extensions>
</trkpt>
<trkpt lat="50.8017900" lon="6.7112250">
<ele>73.2570000</ele>
<time>2012-04-13T11:34:47Z</time>
<extensions>
<tp1:TrackPointExtension>
<tp1:hr>146</tp1:hr>
</tp1:TrackPointExtension>
</extensions>
</trkpt>
<trkpt lat="50.8017190" lon="6.7097940">
<ele>74.2310000</ele>
<time>2012-04-13T11:35:02Z</time>
<extensions>
<tp1:TrackPointExtension>
<tp1:hr>148</tp1:hr>
</tp1:TrackPointExtension>
</extensions>
</trkpt>
<trkpt lat="50.8016730" lon="6.7088740">
<ele>74.6080000</ele>
<time>2012-04-13T11:35:12Z</time>
<extensions>
<tp1:TrackPointExtension>
<tp1:hr>148</tp1:hr>
</tp1:TrackPointExtension>
</extensions>
</trkpt>
<trkpt lat="50.8016470" lon="6.7082410">
<ele>74.8610000</ele>
<time>2012-04-13T11:35:19Z</time>
<extensions>
<tp1:TrackPointExtension>
<tp1:hr>148</tp1:hr>
</tp1:TrackPointExtension>
</extensions>
</trkpt>
<trkpt lat="50.8015950" lon="6.7071860">
<ele>75.7330000</ele>
<time>2012-04-13T11:35:31Z</time>
<extensions>
<tp1:TrackPointExtension>
<tp1:hr>150</tp1:hr>
</tp1:TrackPointExtension>
</extensions>
</trkpt>
<trkpt lat="50.8015420" lon="6.7061220">
<ele>76.4880000</ele>
<time>2012-04-13T11:35:43Z</time>
<extensions>
<tp1:TrackPointExtension>
<tp1:hr>150</tp1:hr>
</tp1:TrackPointExtension>
</extensions>
</trkpt>
<trkpt lat="50.8014840" lon="6.7049330">
<ele>76.9910000</ele>
<time>2012-04-13T11:35:56Z</time>
<extensions>
<tp1:TrackPointExtension>
<tp1:hr>150</tp1:hr>
</tp1:TrackPointExtension>
</extensions>
</trkpt>
<trkpt lat="50.8014380" lon="6.7039620">
<ele>77.5680000</ele>
<time>2012-04-13T11:36:07Z</time>
<extensions>
<tp1:TrackPointExtension>
<tp1:hr>151</tp1:hr>
</tp1:TrackPointExtension>
</extensions>
</trkpt>
<trkpt lat="50.8013900" lon="6.7029940">
<ele>77.6960000</ele>
<time>2012-04-13T11:36:18Z</time>
<extensions>
<tp1:TrackPointExtension>
<tp1:hr>151</tp1:hr>
</tp1:TrackPointExtension>
</extensions>
</trkpt>
<trkpt lat="50.8013480" lon="6.7021820">
<ele>77.7610000</ele>
<time>2012-04-13T11:36:27Z</time>
<extensions>
<tp1:TrackPointExtension>
<tp1:hr>147</tp1:hr>
</tp1:TrackPointExtension>
</extensions>
</trkpt>
<trkpt lat="50.8013060" lon="6.7011900">
<ele>77.8780000</ele>
<time>2012-04-13T11:36:38Z</time>
<extensions>
<tp1:TrackPointExtension>
<tp1:hr>148</tp1:hr>
</tp1:TrackPointExtension>
</extensions>
</trkpt>
<trkpt lat="50.8012740" lon="6.7002180">
<ele>77.8690000</ele>
<time>2012-04-13T11:36:49Z</time>
<extensions>
<tp1:TrackPointExtension>
<tp1:hr>148</tp1:hr>
</tp1:TrackPointExtension>
</extensions>
</trkpt>
<trkpt lat="50.8013100" lon="6.6992140">
<ele>77.8580000</ele>
<time>2012-04-13T11:37:00Z</time>
<extensions>
<tp1:TrackPointExtension>
<tp1:hr>147</tp1:hr>
</tp1:TrackPointExtension>
</extensions>
</trkpt>
<trkpt lat="50.8014430" lon="6.6981230">
<ele>78.1370000</ele>
<time>2012-04-13T11:37:12Z</time>
<extensions>
<tp1:TrackPointExtension>
<tp1:hr>144</tp1:hr>
</tp1:TrackPointExtension>
</extensions>
</trkpt>
<trkpt lat="50.8016160" lon="6.6972580">
<ele>78.2050000</ele>
<time>2012-04-13T11:37:22Z</time>
<extensions>
<tp1:TrackPointExtension>
<tp1:hr>142</tp1:hr>
</tp1:TrackPointExtension>
</extensions>
</trkpt>
<trkpt lat="50.8018820" lon="6.6962310">
<ele>78.8570000</ele>
<time>2012-04-13T11:37:34Z</time>
<extensions>
<tp1:TrackPointExtension>
<tp1:hr>144</tp1:hr>
</tp1:TrackPointExtension>
</extensions>
</trkpt>
<trkpt lat="50.8021880" lon="6.6951730">
<ele>79.0030000</ele>
<time>2012-04-13T11:37:47Z</time>
<extensions>
<tp1:TrackPointExtension>
<tp1:hr>143</tp1:hr>
</tp1:TrackPointExtension>
</extensions>
</trkpt>
<trkpt lat="50.8024070" lon="6.6942590">
<ele>79.1250000</ele>
<time>2012-04-13T11:37:58Z</time>
<extensions>
<tp1:TrackPointExtension>
<tp1:hr>144</tp1:hr>
</tp1:TrackPointExtension>
</extensions>
</trkpt>
<trkpt lat="50.8025610" lon="6.6933820">
<ele>79.4520000</ele>
<time>2012-04-13T11:38:08Z</time>
<extensions>
<tp1:TrackPointExtension>
<tp1:hr>144</tp1:hr>
</tp1:TrackPointExtension>
</extensions>
</trkpt>
<trkpt lat="50.8026380" lon="6.6924580">
<ele>79.7820000</ele>
<time>2012-04-13T11:38:18Z</time>
<extensions>
<tp1:TrackPointExtension>
<tp1:hr>142</tp1:hr>
</tp1:TrackPointExtension>
</extensions>
</trkpt>
<trkpt lat="50.8026670" lon="6.6918120">
<ele>80.0660000</ele>
<time>2012-04-13T11:38:25Z</time>
<extensions>
<tp1:TrackPointExtension>
<tp1:hr>141</tp1:hr>
</tp1:TrackPointExtension>
</extensions>
</trkpt>
<trkpt lat="50.8026880" lon="6.6909780">
<ele>80.1690000</ele>
<time>2012-04-13T11:38:34Z</time>
<extensions>
<tp1:TrackPointExtension>
<tp1:hr>142</tp1:hr>
</tp1:TrackPointExtension>
</extensions>
</trkpt>
<trkpt lat="50.8027360" lon="6.6895320">
<ele>80.5180000</ele>
<time>2012-04-13T11:38:50Z</time>
<extensions>
<tp1:TrackPointExtension>
<tp1:hr>145</tp1:hr>
</tp1:TrackPointExtension>
</extensions>
</trkpt>
<trkpt lat="50.8027700" lon="6.6885280">
<ele>81.2000000</ele>
<time>2012-04-13T11:39:01Z</time>
<extensions>
<tp1:TrackPointExtension>
<tp1:hr>147</tp1:hr>
</tp1:TrackPointExtension>
</extensions>
</trkpt>
<trkpt lat="50.8027990" lon="6.6882620">
<ele>81.2420000</ele>
<time>2012-04-13T11:39:04Z</time>
<extensions>
<tp1:TrackPointExtension>
<tp1:hr>147</tp1:hr>
</tp1:TrackPointExtension>
</extensions>
</trkpt>
<trkpt lat="50.8028100" lon="6.6875410">
<ele>81.4210000</ele>
<time>2012-04-13T11:39:12Z</time>
<extensions>
<tp1:TrackPointExtension>
<tp1:hr>148</tp1:hr>
</tp1:TrackPointExtension>
</extensions>
</trkpt>
<trkpt lat="50.8028400" lon="6.6864440">
<ele>81.6510000</ele>
<time>2012-04-13T11:39:24Z</time>
<extensions>
<tp1:TrackPointExtension>
<tp1:hr>149</tp1:hr>
</tp1:TrackPointExtension>
</extensions>
</trkpt>
<trkpt lat="50.8028460" lon="6.6853420">
<ele>81.9010000</ele>
<time>2012-04-13T11:39:36Z</time>
<extensions>
<tp1:TrackPointExtension>
<tp1:hr>149</tp1:hr>
</tp1:TrackPointExtension>
</extensions>
</trkpt>
<trkpt lat="50.8028920" lon="6.6839930">
<ele>82.1090000</ele>
<time>2012-04-13T11:39:51Z</time>
<extensions>
<tp1:TrackPointExtension>
<tp1:hr>150</tp1:hr>
</tp1:TrackPointExtension>
</extensions>
</trkpt>
<trkpt lat="50.8030110" lon="6.6829210">
<ele>82.2370000</ele>
<time>2012-04-13T11:40:03Z</time>
<extensions>
<tp1:TrackPointExtension>
<tp1:hr>150</tp1:hr>
</tp1:TrackPointExtension>
</extensions>
</trkpt>
<trkpt lat="50.8032380" lon="6.6818530">
<ele>82.5690000</ele>
<time>2012-04-13T11:40:15Z</time>
<extensions>
<tp1:TrackPointExtension>
<tp1:hr>149</tp1:hr>
</tp1:TrackPointExtension>
</extensions>
</trkpt>
<trkpt lat="50.8034900" lon="6.6808060">
<ele>82.8580000</ele>
<time>2012-04-13T11:40:27Z</time>
<extensions>
<tp1:TrackPointExtension>
<tp1:hr>149</tp1:hr>
</tp1:TrackPointExtension>
</extensions>
</trkpt>
<trkpt lat="50.8037320" lon="6.6798330">
<ele>82.9070000</ele>
<time>2012-04-13T11:40:38Z</time>
<extensions>
<tp1:TrackPointExtension>
<tp1:hr>149</tp1:hr>
</tp1:TrackPointExtension>
</extensions>
</trkpt>
<trkpt lat="50.8039980" lon="6.6787330">
<ele>83.1060000</ele>
<time>2012-04-13T11:40:51Z</time>
<extensions>
<tp1:TrackPointExtension>
<tp1:hr>149</tp1:hr>
</tp1:TrackPointExtension>
</extensions>
</trkpt>
<trkpt lat="50.8041840" lon="6.6779500">
<ele>83.2930000</ele>
<time>2012-04-13T11:41:00Z</time>
<extensions>
<tp1:TrackPointExtension>
<tp1:hr>148</tp1:hr>
</tp1:TrackPointExtension>
</extensions>
</trkpt>
<trkpt lat="50.8044450" lon="6.6768390">
<ele>83.5690000</ele>
<time>2012-04-13T11:41:13Z</time>
<extensions>
<tp1:TrackPointExtension>
<tp1:hr>148</tp1:hr>
</tp1:TrackPointExtension>
</extensions>
</trkpt>
<trkpt lat="50.8046290" lon="6.6759750">
<ele>83.5050000</ele>
<time>2012-04-13T11:41:23Z</time>
<extensions>
<tp1:TrackPointExtension>
<tp1:hr>147</tp1:hr>
</tp1:TrackPointExtension>
</extensions>
</trkpt>
<trkpt lat="50.8048330" lon="6.6749780">
<ele>83.5730000</ele>
<time>2012-04-13T11:41:34Z</time>
<extensions>
<tp1:TrackPointExtension>
<tp1:hr>148</tp1:hr>
</tp1:TrackPointExtension>
</extensions>
</trkpt>
<trkpt lat="50.8050540" lon="6.6737630">
<ele>83.6430000</ele>
<time>2012-04-13T11:41:47Z</time>
<extensions>
<tp1:TrackPointExtension>
<tp1:hr>147</tp1:hr>
</tp1:TrackPointExtension>
</extensions>
</trkpt>
<trkpt lat="50.8052510" lon="6.6725550">
<ele>83.3480000</ele>
<time>2012-04-13T11:42:00Z</time>
<extensions>
<tp1:TrackPointExtension>
<tp1:hr>146</tp1:hr>
</tp1:TrackPointExtension>
</extensions>
</trkpt>
<trkpt lat="50.8054380" lon="6.6712450">
<ele>82.5230000</ele>
<time>2012-04-13T11:42:14Z</time>
<extensions>
<tp1:TrackPointExtension>
<tp1:hr>144</tp1:hr>
</tp1:TrackPointExtension>
</extensions>
</trkpt>
<trkpt lat="50.8055690" lon="6.6702180">
<ele>82.4890000</ele>
<time>2012-04-13T11:42:25Z</time>
<extensions>
<tp1:TrackPointExtension>
<tp1:hr>144</tp1:hr>
</tp1:TrackPointExtension>
</extensions>
</trkpt>
<trkpt lat="50.8056840" lon="6.6692670">
<ele>82.7310000</ele>
<time>2012-04-13T11:42:35Z</time>
<extensions>
<tp1:TrackPointExtension>
<tp1:hr>144</tp1:hr>
</tp1:TrackPointExtension>
</extensions>
</trkpt>
<trkpt lat="50.8058050" lon="6.6682170">
<ele>82.7760000</ele>
<time>2012-04-13T11:42:46Z</time>
<extensions>
<tp1:TrackPointExtension>
<tp1:hr>144</tp1:hr>
</tp1:TrackPointExtension>
</extensions>
</trkpt>
<trkpt lat="50.8059410" lon="6.6669890">
<ele>83.4640000</ele>
<time>2012-04-13T11:42:59Z</time>
<extensions>
<tp1:TrackPointExtension>
<tp1:hr>144</tp1:hr>
</tp1:TrackPointExtension>
</extensions>
</trkpt>
<trkpt lat="50.8060540" lon="6.6660460">
<ele>83.7420000</ele>
<time>2012-04-13T11:43:09Z</time>
<extensions>
<tp1:TrackPointExtension>
<tp1:hr>144</tp1:hr>
</tp1:TrackPointExtension>
</extensions>
</trkpt>
<trkpt lat="50.8061780" lon="6.6650080">
<ele>84.0690000</ele>
<time>2012-04-13T11:43:20Z</time>
<extensions>
<tp1:TrackPointExtension>
<tp1:hr>146</tp1:hr>
</tp1:TrackPointExtension>
</extensions>
</trkpt>
<trkpt lat="50.8063130" lon="6.6639260">
<ele>84.1080000</ele>
<time>2012-04-13T11:43:32Z</time>
<extensions>
<tp1:TrackPointExtension>
<tp1:hr>149</tp1:hr>
</tp1:TrackPointExtension>
</extensions>
</trkpt>
<trkpt lat="50.8064480" lon="6.6629300">
<ele>84.3900000</ele>
<time>2012-04-13T11:43:43Z</time>
<extensions>
<tp1:TrackPointExtension>
<tp1:hr>150</tp1:hr>
</tp1:TrackPointExtension>
</extensions>
</trkpt>
<trkpt lat="50.8065940" lon="6.6619300">
<ele>84.4630000</ele>
<time>2012-04-13T11:43:54Z</time>
<extensions>
<tp1:TrackPointExtension>
<tp1:hr>149</tp1:hr>
</tp1:TrackPointExtension>
</extensions>
</trkpt>
<trkpt lat="50.8067550" lon="6.6609200">
<ele>84.2940000</ele>
<time>2012-04-13T11:44:05Z</time>
<extensions>
<tp1:TrackPointExtension>
<tp1:hr>148</tp1:hr>
</tp1:TrackPointExtension>
</extensions>
</trkpt>
<trkpt lat="50.8069620" lon="6.6597240">
<ele>84.0700000</ele>
<time>2012-04-13T11:44:18Z</time>
<extensions>
<tp1:TrackPointExtension>
<tp1:hr>147</tp1:hr>
</tp1:TrackPointExtension>
</extensions>
</trkpt>
<trkpt lat="50.8072050" lon="6.6584520">
<ele>83.5360000</ele>
<time>2012-04-13T11:44:32Z</time>
<extensions>
<tp1:TrackPointExtension>
<tp1:hr>146</tp1:hr>
</tp1:TrackPointExtension>
</extensions>
</trkpt>
<trkpt lat="50.8074260" lon="6.6573540">
<ele>83.1470000</ele>
<time>2012-04-13T11:44:44Z</time>
<extensions>
<tp1:TrackPointExtension>
<tp1:hr>144</tp1:hr>
</tp1:TrackPointExtension>
</extensions>
</trkpt>
<trkpt lat="50.8076470" lon="6.6563400">
<ele>83.1880000</ele>
<time>2012-04-13T11:44:55Z</time>
<extensions>
<tp1:TrackPointExtension>
<tp1:hr>143</tp1:hr>
</tp1:TrackPointExtension>
</extensions>
</trkpt>
<trkpt lat="50.8078600" lon="6.6554230">
<ele>83.2070000</ele>
<time>2012-04-13T11:45:05Z</time>
<extensions>
<tp1:TrackPointExtension>
<tp1:hr>143</tp1:hr>
</tp1:TrackPointExtension>
</extensions>
</trkpt>
<trkpt lat="50.8081050" lon="6.6543920">
<ele>83.7460000</ele>
<time>2012-04-13T11:45:16Z</time>
<extensions>
<tp1:TrackPointExtension>
<tp1:hr>144</tp1:hr>
</tp1:TrackPointExtension>
</extensions>
</trkpt>
<trkpt lat="50.8081950" lon="6.6540200">
<ele>83.7140000</ele>
<time>2012-04-13T11:45:20Z</time>
<extensions>
<tp1:TrackPointExtension>
<tp1:hr>144</tp1:hr>
</tp1:TrackPointExtension>
</extensions>
</trkpt>
<trkpt lat="50.8083390" lon="6.6537170">
<ele>83.7390000</ele>
<time>2012-04-13T11:45:24Z</time>
<extensions>
<tp1:TrackPointExtension>
<tp1:hr>142</tp1:hr>
</tp1:TrackPointExtension>
</extensions>
</trkpt>
<trkpt lat="50.8083380" lon="6.6535330">
<ele>83.8030000</ele>
<time>2012-04-13T11:45:26Z</time>
<extensions>
<tp1:TrackPointExtension>
<tp1:hr>141</tp1:hr>
</tp1:TrackPointExtension>
</extensions>
</trkpt>
<trkpt lat="50.8082470" lon="6.6534870">
<ele>83.8690000</ele>
<time>2012-04-13T11:45:28Z</time>
<extensions>
<tp1:TrackPointExtension>
<tp1:hr>139</tp1:hr>
</tp1:TrackPointExtension>
</extensions>
</trkpt>
<trkpt lat="50.8080100" lon="6.6534960">
<ele>84.2110000</ele>
<time>2012-04-13T11:45:32Z</time>
<extensions>
<tp1:TrackPointExtension>
<tp1:hr>139</tp1:hr>
</tp1:TrackPointExtension>
</extensions>
</trkpt>
<trkpt lat="50.8072230" lon="6.6531960">
<ele>83.6910000</ele>
<time>2012-04-13T11:45:45Z</time>
<extensions>
<tp1:TrackPointExtension>
<tp1:hr>142</tp1:hr>
</tp1:TrackPointExtension>
</extensions>
</trkpt>
<trkpt lat="50.8065690" lon="6.6529400">
<ele>82.4900000</ele>
<time>2012-04-13T11:45:55Z</time>
<extensions>
<tp1:TrackPointExtension>
<tp1:hr>137</tp1:hr>
</tp1:TrackPointExtension>
</extensions>
</trkpt>
<trkpt lat="50.8059030" lon="6.6526900">
<ele>81.4210000</ele>
<time>2012-04-13T11:46:06Z</time>
<extensions>
<tp1:TrackPointExtension>
<tp1:hr>134</tp1:hr>
</tp1:TrackPointExtension>
</extensions>
</trkpt>
<trkpt lat="50.8052820" lon="6.6524760">
<ele>81.5370000</ele>
<time>2012-04-13T11:46:17Z</time>
<extensions>
<tp1:TrackPointExtension>
<tp1:hr>137</tp1:hr>
</tp1:TrackPointExtension>
</extensions>
</trkpt>
<trkpt lat="50.8048370" lon="6.6523900">
<ele>82.3200000</ele>
<time>2012-04-13T11:46:25Z</time>
<extensions>
<tp1:TrackPointExtension>
<tp1:hr>140</tp1:hr>
</tp1:TrackPointExtension>
</extensions>
</trkpt>
<trkpt lat="50.8043810" lon="6.6523970">
<ele>83.5010000</ele>
<time>2012-04-13T11:46:33Z</time>
<extensions>
<tp1:TrackPointExtension>
<tp1:hr>144</tp1:hr>
</tp1:TrackPointExtension>
</extensions>
</trkpt>
<trkpt lat="50.8038790" lon="6.6525070">
<ele>84.0830000</ele>
<time>2012-04-13T11:46:42Z</time>
<extensions>
<tp1:TrackPointExtension>
<tp1:hr>148</tp1:hr>
</tp1:TrackPointExtension>
</extensions>
</trkpt>
<trkpt lat="50.8033800" lon="6.6527190">
<ele>84.4030000</ele>
<time>2012-04-13T11:46:51Z</time>
<extensions>
<tp1:TrackPointExtension>
<tp1:hr>149</tp1:hr>
</tp1:TrackPointExtension>
</extensions>
</trkpt>
<trkpt lat="50.8028890" lon="6.6530150">
<ele>84.7720000</ele>
<time>2012-04-13T11:47:00Z</time>
<extensions>
<tp1:TrackPointExtension>
<tp1:hr>150</tp1:hr>
</tp1:TrackPointExtension>
</extensions>
</trkpt>
<trkpt lat="50.8021190" lon="6.6535250">
<ele>85.3750000</ele>
<time>2012-04-13T11:47:14Z</time>
<extensions>
<tp1:TrackPointExtension>
<tp1:hr>149</tp1:hr>
</tp1:TrackPointExtension>
</extensions>
</trkpt>
<trkpt lat="50.8013570" lon="6.6540300">
<ele>86.1230000</ele>
<time>2012-04-13T11:47:28Z</time>
<extensions>
<tp1:TrackPointExtension>
<tp1:hr>147</tp1:hr>
</tp1:TrackPointExtension>
</extensions>
</trkpt>
<trkpt lat="50.8008160" lon="6.6543780">
<ele>86.2580000</ele>
<time>2012-04-13T11:47:38Z</time>
<extensions>
<tp1:TrackPointExtension>
<tp1:hr>145</tp1:hr>
</tp1:TrackPointExtension>
</extensions>
</trkpt>
<trkpt lat="50.8001090" lon="6.6548410">
<ele>86.9430000</ele>
<time>2012-04-13T11:47:51Z</time>
<extensions>
<tp1:TrackPointExtension>
<tp1:hr>146</tp1:hr>
</tp1:TrackPointExtension>
</extensions>
</trkpt>
<trkpt lat="50.7994970" lon="6.6551660">
<ele>87.5840000</ele>
<time>2012-04-13T11:48:02Z</time>
<extensions>
<tp1:TrackPointExtension>
<tp1:hr>146</tp1:hr>
</tp1:TrackPointExtension>
</extensions>
</trkpt>
<trkpt lat="50.7988580" lon="6.6553630">
<ele>87.8230000</ele>
<time>2012-04-13T11:48:13Z</time>
<extensions>
<tp1:TrackPointExtension>
<tp1:hr>145</tp1:hr>
</tp1:TrackPointExtension>
</extensions>
</trkpt>
<trkpt lat="50.7983090" lon="6.6554170">
<ele>87.1930000</ele>
<time>2012-04-13T11:48:22Z</time>
<extensions>
<tp1:TrackPointExtension>
<tp1:hr>144</tp1:hr>
</tp1:TrackPointExtension>
</extensions>
</trkpt>
<trkpt lat="50.7975200" lon="6.6554140">
<ele>85.3030000</ele>
<time>2012-04-13T11:48:34Z</time>
<extensions>
<tp1:TrackPointExtension>
<tp1:hr>139</tp1:hr>
</tp1:TrackPointExtension>
</extensions>
</trkpt>
<trkpt lat="50.7968360" lon="6.6554850">
<ele>83.1560000</ele>
<time>2012-04-13T11:48:44Z</time>
<extensions>
<tp1:TrackPointExtension>
<tp1:hr>135</tp1:hr>
</tp1:TrackPointExtension>
</extensions>
</trkpt>
<trkpt lat="50.7963410" lon="6.6556450">
<ele>82.4100000</ele>
<time>2012-04-13T11:48:52Z</time>
<extensions>
<tp1:TrackPointExtension>
<tp1:hr>136</tp1:hr>
</tp1:TrackPointExtension>
</extensions>
</trkpt>
<trkpt lat="50.7955800" lon="6.6560490">
<ele>82.9240000</ele>
<time>2012-04-13T11:49:05Z</time>
<extensions>
<tp1:TrackPointExtension>
<tp1:hr>140</tp1:hr>
</tp1:TrackPointExtension>
</extensions>
</trkpt>
<trkpt lat="50.7949090" lon="6.6564380">
<ele>82.8840000</ele>
<time>2012-04-13T11:49:17Z</time>
<extensions>
<tp1:TrackPointExtension>
<tp1:hr>141</tp1:hr>
</tp1:TrackPointExtension>
</extensions>
</trkpt>
<trkpt lat="50.7941480" lon="6.6568730">
<ele>82.9410000</ele>
<time>2012-04-13T11:49:31Z</time>
<extensions>
<tp1:TrackPointExtension>
<tp1:hr>143</tp1:hr>
</tp1:TrackPointExtension>
</extensions>
</trkpt>
<trkpt lat="50.7935100" lon="6.6572380">
<ele>83.3220000</ele>
<time>2012-04-13T11:49:43Z</time>
<extensions>
<tp1:TrackPointExtension>
<tp1:hr>143</tp1:hr>
</tp1:TrackPointExtension>
</extensions>
</trkpt>
<trkpt lat="50.7928500" lon="6.6576110">
<ele>83.5890000</ele>
<time>2012-04-13T11:49:55Z</time>
<extensions>
<tp1:TrackPointExtension>
<tp1:hr>145</tp1:hr>
</tp1:TrackPointExtension>
</extensions>
</trkpt>
<trkpt lat="50.7920730" lon="6.6580580">
<ele>84.0140000</ele>
<time>2012-04-13T11:50:09Z</time>
<extensions>
<tp1:TrackPointExtension>
<tp1:hr>148</tp1:hr>
</tp1:TrackPointExtension>
</extensions>
</trkpt>
<trkpt lat="50.7914110" lon="6.6584390">
<ele>84.3680000</ele>
<time>2012-04-13T11:50:21Z</time>
<extensions>
<tp1:TrackPointExtension>
<tp1:hr>148</tp1:hr>
</tp1:TrackPointExtension>
</extensions>
</trkpt>
<trkpt lat="50.7908040" lon="6.6587960">
<ele>85.6890000</ele>
<time>2012-04-13T11:50:32Z</time>
<extensions>
<tp1:TrackPointExtension>
<tp1:hr>148</tp1:hr>
</tp1:TrackPointExtension>
</extensions>
</trkpt>
<trkpt lat="50.7901590" lon="6.6592090">
<ele>86.1020000</ele>
<time>2012-04-13T11:50:44Z</time>
<extensions>
<tp1:TrackPointExtension>
<tp1:hr>150</tp1:hr>
</tp1:TrackPointExtension>
</extensions>
</trkpt>
<trkpt lat="50.7897450" lon="6.6595230">
<ele>86.3030000</ele>
<time>2012-04-13T11:50:52Z</time>
<extensions>
<tp1:TrackPointExtension>
<tp1:hr>150</tp1:hr>
</tp1:TrackPointExtension>
</extensions>
</trkpt>
<trkpt lat="50.7891880" lon="6.6600080">
<ele>86.5420000</ele>
<time>2012-04-13T11:51:03Z</time>
<extensions>
<tp1:TrackPointExtension>
<tp1:hr>151</tp1:hr>
</tp1:TrackPointExtension>
</extensions>
</trkpt>
<trkpt lat="50.7886460" lon="6.6605540">
<ele>87.0730000</ele>
<time>2012-04-13T11:51:14Z</time>
<extensions>
<tp1:TrackPointExtension>
<tp1:hr>151</tp1:hr>
</tp1:TrackPointExtension>
</extensions>
</trkpt>
<trkpt lat="50.7880820" lon="6.6611810">
<ele>87.4990000</ele>
<time>2012-04-13T11:51:26Z</time>
<extensions>
<tp1:TrackPointExtension>
<tp1:hr>152</tp1:hr>
</tp1:TrackPointExtension>
</extensions>
</trkpt>
<trkpt lat="50.7874750" lon="6.6618770">
<ele>87.8690000</ele>
<time>2012-04-13T11:51:39Z</time>
<extensions>
<tp1:TrackPointExtension>
<tp1:hr>151</tp1:hr>
</tp1:TrackPointExtension>
</extensions>
</trkpt>
<trkpt lat="50.7868410" lon="6.6625680">
<ele>88.3060000</ele>
<time>2012-04-13T11:51:52Z</time>
<extensions>
<tp1:TrackPointExtension>
<tp1:hr>151</tp1:hr>
</tp1:TrackPointExtension>
</extensions>
</trkpt>
<trkpt lat="50.7862170" lon="6.6630900">
<ele>88.4350000</ele>
<time>2012-04-13T11:52:04Z</time>
<extensions>
<tp1:TrackPointExtension>
<tp1:hr>150</tp1:hr>
</tp1:TrackPointExtension>
</extensions>
</trkpt>
<trkpt lat="50.7856510" lon="6.6634060">
<ele>88.7390000</ele>
<time>2012-04-13T11:52:14Z</time>
<extensions>
<tp1:TrackPointExtension>
<tp1:hr>150</tp1:hr>
</tp1:TrackPointExtension>
</extensions>
</trkpt>
<trkpt lat="50.7850670" lon="6.6636180">
<ele>88.7510000</ele>
<time>2012-04-13T11:52:24Z</time>
<extensions>
<tp1:TrackPointExtension>
<tp1:hr>149</tp1:hr>
</tp1:TrackPointExtension>
</extensions>
</trkpt>
<trkpt lat="50.7842920" lon="6.6638180">
<ele>89.0500000</ele>
<time>2012-04-13T11:52:37Z</time>
<extensions>
<tp1:TrackPointExtension>
<tp1:hr>148</tp1:hr>
</tp1:TrackPointExtension>
</extensions>
</trkpt>
<trkpt lat="50.7838730" lon="6.6639270">
<ele>89.0380000</ele>
<time>2012-04-13T11:52:44Z</time>
<extensions>
<tp1:TrackPointExtension>
<tp1:hr>147</tp1:hr>
</tp1:TrackPointExtension>
</extensions>
</trkpt>
<trkpt lat="50.7832140" lon="6.6641560">
<ele>89.0140000</ele>
<time>2012-04-13T11:52:55Z</time>
<extensions>
<tp1:TrackPointExtension>
<tp1:hr>146</tp1:hr>
</tp1:TrackPointExtension>
</extensions>
</trkpt>
<trkpt lat="50.7831540" lon="6.6641700">
<ele>89.0170000</ele>
<time>2012-04-13T11:52:56Z</time>
<extensions>
<tp1:TrackPointExtension>
<tp1:hr>146</tp1:hr>
</tp1:TrackPointExtension>
</extensions>
</trkpt>
<trkpt lat="50.7830100" lon="6.6643130">
<ele>88.9990000</ele>
<time>2012-04-13T11:52:59Z</time>
<extensions>
<tp1:TrackPointExtension>
<tp1:hr>146</tp1:hr>
</tp1:TrackPointExtension>
</extensions>
</trkpt>
<trkpt lat="50.7830240" lon="6.6645990">
<ele>89.0670000</ele>
<time>2012-04-13T11:53:02Z</time>
<extensions>
<tp1:TrackPointExtension>
<tp1:hr>145</tp1:hr>
</tp1:TrackPointExtension>
</extensions>
</trkpt>
<trkpt lat="50.7832930" lon="6.6656620">
<ele>88.9490000</ele>
<time>2012-04-13T11:53:13Z</time>
<extensions>
<tp1:TrackPointExtension>
<tp1:hr>143</tp1:hr>
</tp1:TrackPointExtension>
</extensions>
</trkpt>
<trkpt lat="50.7835250" lon="6.6667120">
<ele>89.2540000</ele>
<time>2012-04-13T11:53:24Z</time>
<extensions>
<tp1:TrackPointExtension>
<tp1:hr>143</tp1:hr>
</tp1:TrackPointExtension>
</extensions>
</trkpt>
<trkpt lat="50.7836730" lon="6.6673800">
<ele>89.6870000</ele>
<time>2012-04-13T11:53:31Z</time>
<extensions>
<tp1:TrackPointExtension>
<tp1:hr>144</tp1:hr>
</tp1:TrackPointExtension>
</extensions>
</trkpt>
<trkpt lat="50.7837070" lon="6.6674620">
<ele>89.7520000</ele>
<time>2012-04-13T11:53:32Z</time>
<extensions>
<tp1:TrackPointExtension>
<tp1:hr>145</tp1:hr>
</tp1:TrackPointExtension>
</extensions>
</trkpt>
<trkpt lat="50.7838840" lon="6.6677440">
<ele>90.2980000</ele>
<time>2012-04-13T11:53:36Z</time>
<extensions>
<tp1:TrackPointExtension>
<tp1:hr>145</tp1:hr>
</tp1:TrackPointExtension>
</extensions>
</trkpt>
<trkpt lat="50.7843610" lon="6.6682450">
<ele>90.7590000</ele>
<time>2012-04-13T11:53:45Z</time>
<extensions>
<tp1:TrackPointExtension>
<tp1:hr>147</tp1:hr>
</tp1:TrackPointExtension>
</extensions>
</trkpt>
<trkpt lat="50.7847780" lon="6.6686740">
<ele>91.2810000</ele>
<time>2012-04-13T11:53:53Z</time>
<extensions>
<tp1:TrackPointExtension>
<tp1:hr>147</tp1:hr>
</tp1:TrackPointExtension>
</extensions>
</trkpt>
<trkpt lat="50.7854070" lon="6.6693440">
<ele>91.6220000</ele>
<time>2012-04-13T11:54:05Z</time>
<extensions>
<tp1:TrackPointExtension>
<tp1:hr>146</tp1:hr>
</tp1:TrackPointExtension>
</extensions>
</trkpt>
<trkpt lat="50.7859240" lon="6.6697790">
<ele>91.7730000</ele>
<time>2012-04-13T11:54:14Z</time>
<extensions>
<tp1:TrackPointExtension>
<tp1:hr>145</tp1:hr>
</tp1:TrackPointExtension>
</extensions>
</trkpt>
<trkpt lat="50.7865500" lon="6.6702850">
<ele>91.7050000</ele>
<time>2012-04-13T11:54:25Z</time>
<extensions>
<tp1:TrackPointExtension>
<tp1:hr>144</tp1:hr>
</tp1:TrackPointExtension>
</extensions>
</trkpt>
<trkpt lat="50.7871380" lon="6.6707640">
<ele>91.6910000</ele>
<time>2012-04-13T11:54:35Z</time>
<extensions>
<tp1:TrackPointExtension>
<tp1:hr>142</tp1:hr>
</tp1:TrackPointExtension>
</extensions>
</trkpt>
<trkpt lat="50.7877850" lon="6.6712860">
<ele>91.7290000</ele>
<time>2012-04-13T11:54:46Z</time>
<extensions>
<tp1:TrackPointExtension>
<tp1:hr>138</tp1:hr>
</tp1:TrackPointExtension>
</extensions>
</trkpt>
<trkpt lat="50.7881710" lon="6.6717050">
<ele>91.5340000</ele>
<time>2012-04-13T11:54:53Z</time>
<extensions>
<tp1:TrackPointExtension>
<tp1:hr>136</tp1:hr>
</tp1:TrackPointExtension>
</extensions>
</trkpt>
<trkpt lat="50.7888150" lon="6.6724590">
<ele>91.2110000</ele>
<time>2012-04-13T11:55:05Z</time>
<extensions>
<tp1:TrackPointExtension>
<tp1:hr>132</tp1:hr>
</tp1:TrackPointExtension>
</extensions>
</trkpt>
<trkpt lat="50.7893690" lon="6.6731010">
<ele>91.0630000</ele>
<time>2012-04-13T11:55:15Z</time>
<extensions>
<tp1:TrackPointExtension>
<tp1:hr>132</tp1:hr>
</tp1:TrackPointExtension>
</extensions>
</trkpt>
<trkpt lat="50.7900050" lon="6.6739130">
<ele>90.5830000</ele>
<time>2012-04-13T11:55:27Z</time>
<extensions>
<tp1:TrackPointExtension>
<tp1:hr>132</tp1:hr>
</tp1:TrackPointExtension>
</extensions>
</trkpt>
<trkpt lat="50.7904840" lon="6.6746100">
<ele>90.0940000</ele>
<time>2012-04-13T11:55:37Z</time>
<extensions>
<tp1:TrackPointExtension>
<tp1:hr>131</tp1:hr>
</tp1:TrackPointExtension>
</extensions>
</trkpt>
<trkpt lat="50.7910290" lon="6.6753920">
<ele>89.2940000</ele>
<time>2012-04-13T11:55:48Z</time>
<extensions>
<tp1:TrackPointExtension>
<tp1:hr>129</tp1:hr>
</tp1:TrackPointExtension>
</extensions>
</trkpt>
<trkpt lat="50.7915920" lon="6.6761910">
<ele>88.7520000</ele>
<time>2012-04-13T11:55:59Z</time>
<extensions>
<tp1:TrackPointExtension>
<tp1:hr>125</tp1:hr>
</tp1:TrackPointExtension>
</extensions>
</trkpt>
<trkpt lat="50.7919890" lon="6.6767840">
<ele>88.2290000</ele>
<time>2012-04-13T11:56:07Z</time>
<extensions>
<tp1:TrackPointExtension>
<tp1:hr>125</tp1:hr>
</tp1:TrackPointExtension>
</extensions>
</trkpt>
<trkpt lat="50.7921380" lon="6.6771550">
<ele>88.0280000</ele>
<time>2012-04-13T11:56:11Z</time>
<extensions>
<tp1:TrackPointExtension>
<tp1:hr>123</tp1:hr>
</tp1:TrackPointExtension>
</extensions>
</trkpt>
<trkpt lat="50.7923380" lon="6.6774520">
<ele>87.4920000</ele>
<time>2012-04-13T11:56:15Z</time>
<extensions>
<tp1:TrackPointExtension>
<tp1:hr>123</tp1:hr>
</tp1:TrackPointExtension>
</extensions>
</trkpt>
<trkpt lat="50.7924700" lon="6.6775180">
<ele>87.2790000</ele>
<time>2012-04-13T11:56:17Z</time>
<extensions>
<tp1:TrackPointExtension>
<tp1:hr>122</tp1:hr>
</tp1:TrackPointExtension>
</extensions>
</trkpt>
<trkpt lat="50.7927720" lon="6.6777590">
<ele>86.8580000</ele>
<time>2012-04-13T11:56:22Z</time>
<extensions>
<tp1:TrackPointExtension>
<tp1:hr>120</tp1:hr>
</tp1:TrackPointExtension>
</extensions>
</trkpt>
<trkpt lat="50.7931250" lon="6.6783040">
<ele>87.0750000</ele>
<time>2012-04-13T11:56:29Z</time>
<extensions>
<tp1:TrackPointExtension>
<tp1:hr>126</tp1:hr>
</tp1:TrackPointExtension>
</extensions>
</trkpt>
<trkpt lat="50.7935460" lon="6.6790020">
<ele>87.3580000</ele>
<time>2012-04-13T11:56:38Z</time>
<extensions>
<tp1:TrackPointExtension>
<tp1:hr>127</tp1:hr>
</tp1:TrackPointExtension>
</extensions>
</trkpt>
<trkpt lat="50.7940160" lon="6.6797730">
<ele>87.3710000</ele>
<time>2012-04-13T11:56:48Z</time>
<extensions>
<tp1:TrackPointExtension>
<tp1:hr>129</tp1:hr>
</tp1:TrackPointExtension>
</extensions>
</trkpt>
<trkpt lat="50.7943530" lon="6.6804520">
<ele>87.2820000</ele>
<time>2012-04-13T11:56:56Z</time>
<extensions>
<tp1:TrackPointExtension>
<tp1:hr>132</tp1:hr>
</tp1:TrackPointExtension>
</extensions>
</trkpt>
<trkpt lat="50.7948080" lon="6.6815170">
<ele>87.1680000</ele>
<time>2012-04-13T11:57:08Z</time>
<extensions>
<tp1:TrackPointExtension>
<tp1:hr>133</tp1:hr>
</tp1:TrackPointExtension>
</extensions>
</trkpt>
<trkpt lat="50.7953020" lon="6.6826950">
<ele>86.7320000</ele>
<time>2012-04-13T11:57:21Z</time>
<extensions>
<tp1:TrackPointExtension>
<tp1:hr>134</tp1:hr>
</tp1:TrackPointExtension>
</extensions>
</trkpt>
<trkpt lat="50.7957630" lon="6.6837810">
<ele>86.0560000</ele>
<time>2012-04-13T11:57:33Z</time>
<extensions>
<tp1:TrackPointExtension>
<tp1:hr>132</tp1:hr>
</tp1:TrackPointExtension>
</extensions>
</trkpt>
<trkpt lat="50.7961120" lon="6.6845980">
<ele>85.5940000</ele>
<time>2012-04-13T11:57:42Z</time>
<extensions>
<tp1:TrackPointExtension>
<tp1:hr>128</tp1:hr>
</tp1:TrackPointExtension>
</extensions>
</trkpt>
<trkpt lat="50.7965510" lon="6.6855890">
<ele>85.2440000</ele>
<time>2012-04-13T11:57:53Z</time>
<extensions>
<tp1:TrackPointExtension>
<tp1:hr>129</tp1:hr>
</tp1:TrackPointExtension>
</extensions>
</trkpt>
<trkpt lat="50.7969050" lon="6.6864000">
<ele>84.8680000</ele>
<time>2012-04-13T11:58:02Z</time>
<extensions>
<tp1:TrackPointExtension>
<tp1:hr>129</tp1:hr>
</tp1:TrackPointExtension>
</extensions>
</trkpt>
<trkpt lat="50.7973460" lon="6.6873960">
<ele>84.1510000</ele>
<time>2012-04-13T11:58:13Z</time>
<extensions>
<tp1:TrackPointExtension>
<tp1:hr>129</tp1:hr>
</tp1:TrackPointExtension>
</extensions>
</trkpt>
<trkpt lat="50.7977950" lon="6.6883970">
<ele>83.6110000</ele>
<time>2012-04-13T11:58:24Z</time>
<extensions>
<tp1:TrackPointExtension>
<tp1:hr>128</tp1:hr>
</tp1:TrackPointExtension>
</extensions>
</trkpt>
<trkpt lat="50.7980740" lon="6.6890150">
<ele>83.2620000</ele>
<time>2012-04-13T11:58:31Z</time>
<extensions>
<tp1:TrackPointExtension>
<tp1:hr>125</tp1:hr>
</tp1:TrackPointExtension>
</extensions>
</trkpt>
<trkpt lat="50.7982960" lon="6.6894890">
<ele>83.1960000</ele>
<time>2012-04-13T11:58:37Z</time>
<extensions>
<tp1:TrackPointExtension>
<tp1:hr>124</tp1:hr>
</tp1:TrackPointExtension>
</extensions>
</trkpt>
<trkpt lat="50.7985250" lon="6.6897700">
<ele>83.0480000</ele>
<time>2012-04-13T11:58:42Z</time>
<extensions>
<tp1:TrackPointExtension>
<tp1:hr>118</tp1:hr>
</tp1:TrackPointExtension>
</extensions>
</trkpt>
<trkpt lat="50.7986170" lon="6.6899800">
<ele>83.1190000</ele>
<time>2012-04-13T11:58:45Z</time>
<extensions>
<tp1:TrackPointExtension>
<tp1:hr>114</tp1:hr>
</tp1:TrackPointExtension>
</extensions>
</trkpt>
<trkpt lat="50.7985470" lon="6.6902000">
<ele>83.3560000</ele>
<time>2012-04-13T11:58:48Z</time>
<extensions>
<tp1:TrackPointExtension>
<tp1:hr>114</tp1:hr>
</tp1:TrackPointExtension>
</extensions>
</trkpt>
<trkpt lat="50.7984400" lon="6.6902750">
<ele>83.5770000</ele>
<time>2012-04-13T11:58:50Z</time>
<extensions>
<tp1:TrackPointExtension>
<tp1:hr>115</tp1:hr>
</tp1:TrackPointExtension>
</extensions>
</trkpt>
<trkpt lat="50.7981500" lon="6.6904210">
<ele>84.1490000</ele>
<time>2012-04-13T11:58:55Z</time>
<extensions>
<tp1:TrackPointExtension>
<tp1:hr>124</tp1:hr>
</tp1:TrackPointExtension>
</extensions>
</trkpt>
<trkpt lat="50.7977450" lon="6.6906340">
<ele>84.7790000</ele>
<time>2012-04-13T11:59:02Z</time>
<extensions>
<tp1:TrackPointExtension>
<tp1:hr>129</tp1:hr>
</tp1:TrackPointExtension>
</extensions>
</trkpt>
<trkpt lat="50.7970020" lon="6.6910330">
<ele>84.8130000</ele>
<time>2012-04-13T11:59:15Z</time>
<extensions>
<tp1:TrackPointExtension>
<tp1:hr>134</tp1:hr>
</tp1:TrackPointExtension>
</extensions>
</trkpt>
<trkpt lat="50.7963260" lon="6.6913980">
<ele>85.3000000</ele>
<time>2012-04-13T11:59:27Z</time>
<extensions>
<tp1:TrackPointExtension>
<tp1:hr>138</tp1:hr>
</tp1:TrackPointExtension>
</extensions>
</trkpt>
<trkpt lat="50.7957190" lon="6.6917230">
<ele>85.8930000</ele>
<time>2012-04-13T11:59:38Z</time>
<extensions>
<tp1:TrackPointExtension>
<tp1:hr>141</tp1:hr>
</tp1:TrackPointExtension>
</extensions>
</trkpt>
<trkpt lat="50.7949950" lon="6.6921080">
<ele>85.8000000</ele>
<time>2012-04-13T11:59:51Z</time>
<extensions>
<tp1:TrackPointExtension>
<tp1:hr>144</tp1:hr>
</tp1:TrackPointExtension>
</extensions>
</trkpt>
<trkpt lat="50.7942640" lon="6.6925040">
<ele>86.6360000</ele>
<time>2012-04-13T12:00:04Z</time>
<extensions>
<tp1:TrackPointExtension>
<tp1:hr>144</tp1:hr>
</tp1:TrackPointExtension>
</extensions>
</trkpt>
<trkpt lat="50.7936020" lon="6.6928550">
<ele>87.3830000</ele>
<time>2012-04-13T12:00:16Z</time>
<extensions>
<tp1:TrackPointExtension>
<tp1:hr>145</tp1:hr>
</tp1:TrackPointExtension>
</extensions>
</trkpt>
<trkpt lat="50.7928200" lon="6.6932750">
<ele>87.7000000</ele>
<time>2012-04-13T12:00:30Z</time>
<extensions>
<tp1:TrackPointExtension>
<tp1:hr>145</tp1:hr>
</tp1:TrackPointExtension>
</extensions>
</trkpt>
<trkpt lat="50.7921330" lon="6.6936370">
<ele>87.9080000</ele>
<time>2012-04-13T12:00:42Z</time>
<extensions>
<tp1:TrackPointExtension>
<tp1:hr>145</tp1:hr>
</tp1:TrackPointExtension>
</extensions>
</trkpt>
<trkpt lat="50.7915590" lon="6.6939170">
<ele>88.6970000</ele>
<time>2012-04-13T12:00:52Z</time>
<extensions>
<tp1:TrackPointExtension>
<tp1:hr>144</tp1:hr>
</tp1:TrackPointExtension>
</extensions>
</trkpt>
<trkpt lat="50.7908040" lon="6.6942600">
<ele>88.7970000</ele>
<time>2012-04-13T12:01:05Z</time>
<extensions>
<tp1:TrackPointExtension>
<tp1:hr>145</tp1:hr>
</tp1:TrackPointExtension>
</extensions>
</trkpt>
<trkpt lat="50.7901590" lon="6.6945170">
<ele>89.1950000</ele>
<time>2012-04-13T12:01:16Z</time>
<extensions>
<tp1:TrackPointExtension>
<tp1:hr>144</tp1:hr>
</tp1:TrackPointExtension>
</extensions>
</trkpt>
<trkpt lat="50.7895080" lon="6.6947780">
<ele>89.3080000</ele>
<time>2012-04-13T12:01:27Z</time>
<extensions>
<tp1:TrackPointExtension>
<tp1:hr>144</tp1:hr>
</tp1:TrackPointExtension>
</extensions>
</trkpt>
<trkpt lat="50.7888010" lon="6.6950530">
<ele>89.5360000</ele>
<time>2012-04-13T12:01:39Z</time>
<extensions>
<tp1:TrackPointExtension>
<tp1:hr>144</tp1:hr>
</tp1:TrackPointExtension>
</extensions>
</trkpt>
<trkpt lat="50.7881490" lon="6.6953140">
<ele>89.5420000</ele>
<time>2012-04-13T12:01:50Z</time>
<extensions>
<tp1:TrackPointExtension>
<tp1:hr>144</tp1:hr>
</tp1:TrackPointExtension>
</extensions>
</trkpt>
<trkpt lat="50.7874860" lon="6.6955830">
<ele>89.6740000</ele>
<time>2012-04-13T12:02:01Z</time>
<extensions>
<tp1:TrackPointExtension>
<tp1:hr>145</tp1:hr>
</tp1:TrackPointExtension>
</extensions>
</trkpt>
<trkpt lat="50.7867810" lon="6.6958760">
<ele>90.2590000</ele>
<time>2012-04-13T12:02:13Z</time>
<extensions>
<tp1:TrackPointExtension>
<tp1:hr>145</tp1:hr>
</tp1:TrackPointExtension>
</extensions>
</trkpt>
<trkpt lat="50.7860850" lon="6.6961750">
<ele>90.3330000</ele>
<time>2012-04-13T12:02:25Z</time>
<extensions>
<tp1:TrackPointExtension>
<tp1:hr>147</tp1:hr>
</tp1:TrackPointExtension>
</extensions>
</trkpt>
<trkpt lat="50.7853940" lon="6.6964890">
<ele>90.8700000</ele>
<time>2012-04-13T12:02:37Z</time>
<extensions>
<tp1:TrackPointExtension>
<tp1:hr>147</tp1:hr>
</tp1:TrackPointExtension>
</extensions>
</trkpt>
<trkpt lat="50.7847530" lon="6.6967830">
<ele>91.0420000</ele>
<time>2012-04-13T12:02:48Z</time>
<extensions>
<tp1:TrackPointExtension>
<tp1:hr>147</tp1:hr>
</tp1:TrackPointExtension>
</extensions>
</trkpt>
<trkpt lat="50.7840550" lon="6.6971050">
<ele>91.2230000</ele>
<time>2012-04-13T12:03:00Z</time>
<extensions>
<tp1:TrackPointExtension>
<tp1:hr>148</tp1:hr>
</tp1:TrackPointExtension>
</extensions>
</trkpt>
<trkpt lat="50.7834060" lon="6.6974000">
<ele>91.2900000</ele>
<time>2012-04-13T12:03:11Z</time>
<extensions>
<tp1:TrackPointExtension>
<tp1:hr>147</tp1:hr>
</tp1:TrackPointExtension>
</extensions>
</trkpt>
<trkpt lat="50.7824750" lon="6.6978270">
<ele>91.3200000</ele>
<time>2012-04-13T12:03:27Z</time>
<extensions>
<tp1:TrackPointExtension>
<tp1:hr>144</tp1:hr>
</tp1:TrackPointExtension>
</extensions>
</trkpt>
<trkpt lat="50.7817030" lon="6.6981790">
<ele>91.7190000</ele>
<time>2012-04-13T12:03:40Z</time>
<extensions>
<tp1:TrackPointExtension>
<tp1:hr>143</tp1:hr>
</tp1:TrackPointExtension>
</extensions>
</trkpt>
<trkpt lat="50.7810540" lon="6.6984790">
<ele>92.0560000</ele>
<time>2012-04-13T12:03:51Z</time>
<extensions>
<tp1:TrackPointExtension>
<tp1:hr>143</tp1:hr>
</tp1:TrackPointExtension>
</extensions>
</trkpt>
<trkpt lat="50.7803590" lon="6.6987880">
<ele>92.2290000</ele>
<time>2012-04-13T12:04:03Z</time>
<extensions>
<tp1:TrackPointExtension>
<tp1:hr>142</tp1:hr>
</tp1:TrackPointExtension>
</extensions>
</trkpt>
<trkpt lat="50.7795950" lon="6.6991360">
<ele>92.6590000</ele>
<time>2012-04-13T12:04:16Z</time>
<extensions>
<tp1:TrackPointExtension>
<tp1:hr>142</tp1:hr>
</tp1:TrackPointExtension>
</extensions>
</trkpt>
<trkpt lat="50.7788870" lon="6.6994570">
<ele>92.7050000</ele>
<time>2012-04-13T12:04:28Z</time>
<extensions>
<tp1:TrackPointExtension>
<tp1:hr>143</tp1:hr>
</tp1:TrackPointExtension>
</extensions>
</trkpt>
<trkpt lat="50.7782190" lon="6.6997660">
<ele>92.8650000</ele>
<time>2012-04-13T12:04:39Z</time>
<extensions>
<tp1:TrackPointExtension>
<tp1:hr>143</tp1:hr>
</tp1:TrackPointExtension>
</extensions>
</trkpt>
<trkpt lat="50.7775500" lon="6.7000710">
<ele>93.1200000</ele>
<time>2012-04-13T12:04:50Z</time>
<extensions>
<tp1:TrackPointExtension>
<tp1:hr>142</tp1:hr>
</tp1:TrackPointExtension>
</extensions>
</trkpt>
<trkpt lat="50.7768870" lon="6.7003740">
<ele>93.0440000</ele>
<time>2012-04-13T12:05:01Z</time>
<extensions>
<tp1:TrackPointExtension>
<tp1:hr>141</tp1:hr>
</tp1:TrackPointExtension>
</extensions>
</trkpt>
<trkpt lat="50.7761000" lon="6.7007380">
<ele>92.9110000</ele>
<time>2012-04-13T12:05:14Z</time>
<extensions>
<tp1:TrackPointExtension>
<tp1:hr>139</tp1:hr>
</tp1:TrackPointExtension>
</extensions>
</trkpt>
<trkpt lat="50.7753110" lon="6.7010930">
<ele>92.4380000</ele>
<time>2012-04-13T12:05:27Z</time>
<extensions>
<tp1:TrackPointExtension>
<tp1:hr>139</tp1:hr>
</tp1:TrackPointExtension>
</extensions>
</trkpt>
<trkpt lat="50.7745700" lon="6.7014310">
<ele>92.8290000</ele>
<time>2012-04-13T12:05:39Z</time>
<extensions>
<tp1:TrackPointExtension>
<tp1:hr>139</tp1:hr>
</tp1:TrackPointExtension>
</extensions>
</trkpt>
<trkpt lat="50.7738970" lon="6.7017330">
<ele>92.9710000</ele>
<time>2012-04-13T12:05:50Z</time>
<extensions>
<tp1:TrackPointExtension>
<tp1:hr>141</tp1:hr>
</tp1:TrackPointExtension>
</extensions>
</trkpt>
<trkpt lat="50.7731690" lon="6.7020650">
<ele>93.3210000</ele>
<time>2012-04-13T12:06:02Z</time>
<extensions>
<tp1:TrackPointExtension>
<tp1:hr>142</tp1:hr>
</tp1:TrackPointExtension>
</extensions>
</trkpt>
<trkpt lat="50.7726590" lon="6.7022920">
<ele>93.7460000</ele>
<time>2012-04-13T12:06:11Z</time>
<extensions>
<tp1:TrackPointExtension>
<tp1:hr>140</tp1:hr>
</tp1:TrackPointExtension>
</extensions>
</trkpt>
<trkpt lat="50.7724810" lon="6.7023720">
<ele>93.7440000</ele>
<time>2012-04-13T12:06:15Z</time>
<extensions>
<tp1:TrackPointExtension>
<tp1:hr>134</tp1:hr>
</tp1:TrackPointExtension>
</extensions>
</trkpt>
<trkpt lat="50.7724290" lon="6.7023900">
<ele>93.7260000</ele>
<time>2012-04-13T12:06:18Z</time>
<extensions>
<tp1:TrackPointExtension>
<tp1:hr>133</tp1:hr>
</tp1:TrackPointExtension>
</extensions>
</trkpt>
<trkpt lat="50.7724550" lon="6.7023730">
<ele>93.5020000</ele>
<time>2012-04-13T12:07:03Z</time>
<extensions>
<tp1:TrackPointExtension>
<tp1:hr>127</tp1:hr>
</tp1:TrackPointExtension>
</extensions>
</trkpt>
<trkpt lat="50.7724560" lon="6.7023760">
<ele>93.5190000</ele>
<time>2012-04-13T12:07:04Z</time>
<extensions>
<tp1:TrackPointExtension>
<tp1:hr>127</tp1:hr>
</tp1:TrackPointExtension>
</extensions>
</trkpt>
<trkpt lat="50.7724280" lon="6.7024100">
<ele>93.5660000</ele>
<time>2012-04-13T12:07:11Z</time>
<extensions>
<tp1:TrackPointExtension>
<tp1:hr>125</tp1:hr>
</tp1:TrackPointExtension>
</extensions>
</trkpt>
<trkpt lat="50.7723070" lon="6.7024620">
<ele>93.7890000</ele>
<time>2012-04-13T12:07:16Z</time>
<extensions>
<tp1:TrackPointExtension>
<tp1:hr>122</tp1:hr>
</tp1:TrackPointExtension>
</extensions>
</trkpt>
<trkpt lat="50.7720780" lon="6.7025610">
<ele>93.9240000</ele>
<time>2012-04-13T12:07:21Z</time>
<extensions>
<tp1:TrackPointExtension>
<tp1:hr>123</tp1:hr>
</tp1:TrackPointExtension>
</extensions>
</trkpt>
<trkpt lat="50.7716400" lon="6.7027610">
<ele>94.4540000</ele>
<time>2012-04-13T12:07:29Z</time>
<extensions>
<tp1:TrackPointExtension>
<tp1:hr>129</tp1:hr>
</tp1:TrackPointExtension>
</extensions>
</trkpt>
<trkpt lat="50.7713100" lon="6.7029140">
<ele>94.6150000</ele>
<time>2012-04-13T12:07:35Z</time>
<extensions>
<tp1:TrackPointExtension>
<tp1:hr>134</tp1:hr>
</tp1:TrackPointExtension>
</extensions>
</trkpt>
<trkpt lat="50.7706330" lon="6.7032260">
<ele>95.1620000</ele>
<time>2012-04-13T12:07:47Z</time>
<extensions>
<tp1:TrackPointExtension>
<tp1:hr>136</tp1:hr>
</tp1:TrackPointExtension>
</extensions>
</trkpt>
<trkpt lat="50.7699460" lon="6.7035430">
<ele>95.6740000</ele>
<time>2012-04-13T12:07:59Z</time>
<extensions>
<tp1:TrackPointExtension>
<tp1:hr>140</tp1:hr>
</tp1:TrackPointExtension>
</extensions>
</trkpt>
<trkpt lat="50.7689710" lon="6.7039870">
<ele>96.5690000</ele>
<time>2012-04-13T12:08:16Z</time>
<extensions>
<tp1:TrackPointExtension>
<tp1:hr>139</tp1:hr>
</tp1:TrackPointExtension>
</extensions>
</trkpt>
<trkpt lat="50.7682150" lon="6.7043360">
<ele>97.1060000</ele>
<time>2012-04-13T12:08:29Z</time>
<extensions>
<tp1:TrackPointExtension>
<tp1:hr>139</tp1:hr>
</tp1:TrackPointExtension>
</extensions>
</trkpt>
<trkpt lat="50.7675910" lon="6.7046140">
<ele>98.0000000</ele>
<time>2012-04-13T12:08:40Z</time>
<extensions>
<tp1:TrackPointExtension>
<tp1:hr>138</tp1:hr>
</tp1:TrackPointExtension>
</extensions>
</trkpt>
<trkpt lat="50.7669480" lon="6.7048330">
<ele>97.9630000</ele>
<time>2012-04-13T12:08:51Z</time>
<extensions>
<tp1:TrackPointExtension>
<tp1:hr>139</tp1:hr>
</tp1:TrackPointExtension>
</extensions>
</trkpt>
<trkpt lat="50.7663480" lon="6.7049060">
<ele>98.4110000</ele>
<time>2012-04-13T12:09:01Z</time>
<extensions>
<tp1:TrackPointExtension>
<tp1:hr>140</tp1:hr>
</tp1:TrackPointExtension>
</extensions>
</trkpt>
<trkpt lat="50.7657400" lon="6.7048280">
<ele>98.3610000</ele>
<time>2012-04-13T12:09:11Z</time>
<extensions>
<tp1:TrackPointExtension>
<tp1:hr>140</tp1:hr>
</tp1:TrackPointExtension>
</extensions>
</trkpt>
<trkpt lat="50.7650130" lon="6.7046070">
<ele>99.0840000</ele>
<time>2012-04-13T12:09:23Z</time>
<extensions>
<tp1:TrackPointExtension>
<tp1:hr>140</tp1:hr>
</tp1:TrackPointExtension>
</extensions>
</trkpt>
<trkpt lat="50.7647950" lon="6.7045320">
<ele>99.1190000</ele>
<time>2012-04-13T12:09:27Z</time>
<extensions>
<tp1:TrackPointExtension>
<tp1:hr>138</tp1:hr>
</tp1:TrackPointExtension>
</extensions>
</trkpt>
<trkpt lat="50.7646890" lon="6.7043750">
<ele>99.2650000</ele>
<time>2012-04-13T12:09:30Z</time>
<extensions>
<tp1:TrackPointExtension>
<tp1:hr>137</tp1:hr>
</tp1:TrackPointExtension>
</extensions>
</trkpt>
<trkpt lat="50.7647310" lon="6.7041240">
<ele>99.3120000</ele>
<time>2012-04-13T12:09:33Z</time>
<extensions>
<tp1:TrackPointExtension>
<tp1:hr>137</tp1:hr>
</tp1:TrackPointExtension>
</extensions>
</trkpt>
<trkpt lat="50.7649060" lon="6.7034440">
<ele>99.3600000</ele>
<time>2012-04-13T12:09:41Z</time>
<extensions>
<tp1:TrackPointExtension>
<tp1:hr>139</tp1:hr>
</tp1:TrackPointExtension>
</extensions>
</trkpt>
<trkpt lat="50.7649790" lon="6.7031170">
<ele>99.5000000</ele>
<time>2012-04-13T12:09:45Z</time>
<extensions>
<tp1:TrackPointExtension>
<tp1:hr>138</tp1:hr>
</tp1:TrackPointExtension>
</extensions>
</trkpt>
<trkpt lat="50.7649490" lon="6.7030300">
<ele>99.4850000</ele>
<time>2012-04-13T12:09:48Z</time>
<extensions>
<tp1:TrackPointExtension>
<tp1:hr>137</tp1:hr>
</tp1:TrackPointExtension>
</extensions>
</trkpt>
<trkpt lat="50.7649190" lon="6.7031220">
<ele>99.4490000</ele>
<time>2012-04-13T12:09:50Z</time>
<extensions>
<tp1:TrackPointExtension>
<tp1:hr>135</tp1:hr>
</tp1:TrackPointExtension>
</extensions>
</trkpt>
<trkpt lat="50.7648180" lon="6.7036120">
<ele>99.3330000</ele>
<time>2012-04-13T12:09:56Z</time>
<extensions>
<tp1:TrackPointExtension>
<tp1:hr>135</tp1:hr>
</tp1:TrackPointExtension>
</extensions>
</trkpt>
<trkpt lat="50.7645250" lon="6.7048220">
<ele>98.9590000</ele>
<time>2012-04-13T12:10:09Z</time>
<extensions>
<tp1:TrackPointExtension>
<tp1:hr>138</tp1:hr>
</tp1:TrackPointExtension>
</extensions>
</trkpt>
<trkpt lat="50.7642520" lon="6.7058570">
<ele>98.3970000</ele>
<time>2012-04-13T12:10:20Z</time>
<extensions>
<tp1:TrackPointExtension>
<tp1:hr>134</tp1:hr>
</tp1:TrackPointExtension>
</extensions>
</trkpt>
<trkpt lat="50.7640230" lon="6.7065980">
<ele>98.4650000</ele>
<time>2012-04-13T12:10:28Z</time>
<extensions>
<tp1:TrackPointExtension>
<tp1:hr>132</tp1:hr>
</tp1:TrackPointExtension>
</extensions>
</trkpt>
<trkpt lat="50.7635840" lon="6.7078690">
<ele>97.3490000</ele>
<time>2012-04-13T12:10:42Z</time>
<extensions>
<tp1:TrackPointExtension>
<tp1:hr>130</tp1:hr>
</tp1:TrackPointExtension>
</extensions>
</trkpt>
<trkpt lat="50.7631650" lon="6.7089370">
<ele>96.9350000</ele>
<time>2012-04-13T12:10:54Z</time>
<extensions>
<tp1:TrackPointExtension>
<tp1:hr>130</tp1:hr>
</tp1:TrackPointExtension>
</extensions>
</trkpt>
<trkpt lat="50.7627590" lon="6.7098850">
<ele>96.8650000</ele>
<time>2012-04-13T12:11:05Z</time>
<extensions>
<tp1:TrackPointExtension>
<tp1:hr>132</tp1:hr>
</tp1:TrackPointExtension>
</extensions>
</trkpt>
<trkpt lat="50.7623430" lon="6.7107940">
<ele>97.3110000</ele>
<time>2012-04-13T12:11:16Z</time>
<extensions>
<tp1:TrackPointExtension>
<tp1:hr>134</tp1:hr>
</tp1:TrackPointExtension>
</extensions>
</trkpt>
<trkpt lat="50.7618480" lon="6.7118280">
<ele>97.8780000</ele>
<time>2012-04-13T12:11:29Z</time>
<extensions>
<tp1:TrackPointExtension>
<tp1:hr>137</tp1:hr>
</tp1:TrackPointExtension>
</extensions>
</trkpt>
<trkpt lat="50.7613630" lon="6.7128300">
<ele>98.5180000</ele>
<time>2012-04-13T12:11:42Z</time>
<extensions>
<tp1:TrackPointExtension>
<tp1:hr>139</tp1:hr>
</tp1:TrackPointExtension>
</extensions>
</trkpt>
<trkpt lat="50.7608030" lon="6.7139740">
<ele>99.3980000</ele>
<time>2012-04-13T12:11:57Z</time>
<extensions>
<tp1:TrackPointExtension>
<tp1:hr>143</tp1:hr>
</tp1:TrackPointExtension>
</extensions>
</trkpt>
<trkpt lat="50.7603120" lon="6.7149880">
<ele>99.3810000</ele>
<time>2012-04-13T12:12:10Z</time>
<extensions>
<tp1:TrackPointExtension>
<tp1:hr>143</tp1:hr>
</tp1:TrackPointExtension>
</extensions>
</trkpt>
<trkpt lat="50.7597120" lon="6.7162200">
<ele>99.8450000</ele>
<time>2012-04-13T12:12:26Z</time>
<extensions>
<tp1:TrackPointExtension>
<tp1:hr>143</tp1:hr>
</tp1:TrackPointExtension>
</extensions>
</trkpt>
<trkpt lat="50.7592560" lon="6.7171460">
<ele>100.1400000</ele>
<time>2012-04-13T12:12:38Z</time>
<extensions>
<tp1:TrackPointExtension>
<tp1:hr>141</tp1:hr>
</tp1:TrackPointExtension>
</extensions>
</trkpt>
<trkpt lat="50.7587890" lon="6.7180870">
<ele>100.2710000</ele>
<time>2012-04-13T12:12:50Z</time>
<extensions>
<tp1:TrackPointExtension>
<tp1:hr>138</tp1:hr>
</tp1:TrackPointExtension>
</extensions>
</trkpt>
<trkpt lat="50.7583550" lon="6.7189440">
<ele>100.4460000</ele>
<time>2012-04-13T12:13:01Z</time>
<extensions>
<tp1:TrackPointExtension>
<tp1:hr>137</tp1:hr>
</tp1:TrackPointExtension>
</extensions>
</trkpt>
<trkpt lat="50.7582770" lon="6.7190860">
<ele>100.4870000</ele>
<time>2012-04-13T12:13:03Z</time>
<extensions>
<tp1:TrackPointExtension>
<tp1:hr>137</tp1:hr>
</tp1:TrackPointExtension>
</extensions>
</trkpt>
<trkpt lat="50.7580770" lon="6.7192160">
<ele>100.8260000</ele>
<time>2012-04-13T12:13:07Z</time>
<extensions>
<tp1:TrackPointExtension>
<tp1:hr>136</tp1:hr>
</tp1:TrackPointExtension>
</extensions>
</trkpt>
<trkpt lat="50.7579720" lon="6.7191340">
<ele>101.1490000</ele>
<time>2012-04-13T12:13:09Z</time>
<extensions>
<tp1:TrackPointExtension>
<tp1:hr>136</tp1:hr>
</tp1:TrackPointExtension>
</extensions>
</trkpt>
<trkpt lat="50.7574580" lon="6.7186020">
<ele>102.1590000</ele>
<time>2012-04-13T12:13:19Z</time>
<extensions>
<tp1:TrackPointExtension>
<tp1:hr>139</tp1:hr>
</tp1:TrackPointExtension>
</extensions>
</trkpt>
<trkpt lat="50.7568020" lon="6.7180470">
<ele>103.4280000</ele>
<time>2012-04-13T12:13:31Z</time>
<extensions>
<tp1:TrackPointExtension>
<tp1:hr>143</tp1:hr>
</tp1:TrackPointExtension>
</extensions>
</trkpt>
<trkpt lat="50.7561230" lon="6.7175690">
<ele>104.1910000</ele>
<time>2012-04-13T12:13:43Z</time>
<extensions>
<tp1:TrackPointExtension>
<tp1:hr>145</tp1:hr>
</tp1:TrackPointExtension>
</extensions>
</trkpt>
<trkpt lat="50.7554220" lon="6.7171480">
<ele>104.7790000</ele>
<time>2012-04-13T12:13:55Z</time>
<extensions>
<tp1:TrackPointExtension>
<tp1:hr>144</tp1:hr>
</tp1:TrackPointExtension>
</extensions>
</trkpt>
<trkpt lat="50.7547130" lon="6.7167520">
<ele>105.3650000</ele>
<time>2012-04-13T12:14:07Z</time>
<extensions>
<tp1:TrackPointExtension>
<tp1:hr>145</tp1:hr>
</tp1:TrackPointExtension>
</extensions>
</trkpt>
<trkpt lat="50.7538180" lon="6.7162100">
<ele>105.9380000</ele>
<time>2012-04-13T12:14:22Z</time>
<extensions>
<tp1:TrackPointExtension>
<tp1:hr>144</tp1:hr>
</tp1:TrackPointExtension>
</extensions>
</trkpt>
<trkpt lat="50.7530700" lon="6.7156270">
<ele>106.2560000</ele>
<time>2012-04-13T12:14:35Z</time>
<extensions>
<tp1:TrackPointExtension>
<tp1:hr>142</tp1:hr>
</tp1:TrackPointExtension>
</extensions>
</trkpt>
<trkpt lat="50.7523540" lon="6.7149080">
<ele>106.3300000</ele>
<time>2012-04-13T12:14:48Z</time>
<extensions>
<tp1:TrackPointExtension>
<tp1:hr>142</tp1:hr>
</tp1:TrackPointExtension>
</extensions>
</trkpt>
<trkpt lat="50.7516530" lon="6.7141390">
<ele>106.3510000</ele>
<time>2012-04-13T12:15:01Z</time>
<extensions>
<tp1:TrackPointExtension>
<tp1:hr>138</tp1:hr>
</tp1:TrackPointExtension>
</extensions>
</trkpt>
<trkpt lat="50.7509040" lon="6.7133140">
<ele>106.5400000</ele>
<time>2012-04-13T12:15:15Z</time>
<extensions>
<tp1:TrackPointExtension>
<tp1:hr>136</tp1:hr>
</tp1:TrackPointExtension>
</extensions>
</trkpt>
<trkpt lat="50.7502750" lon="6.7126140">
<ele>106.4880000</ele>
<time>2012-04-13T12:15:27Z</time>
<extensions>
<tp1:TrackPointExtension>
<tp1:hr>133</tp1:hr>
</tp1:TrackPointExtension>
</extensions>
</trkpt>
<trkpt lat="50.7495240" lon="6.7117870">
<ele>105.6670000</ele>
<time>2012-04-13T12:15:41Z</time>
<extensions>
<tp1:TrackPointExtension>
<tp1:hr>133</tp1:hr>
</tp1:TrackPointExtension>
</extensions>
</trkpt>
<trkpt lat="50.7488270" lon="6.7110200">
<ele>105.6830000</ele>
<time>2012-04-13T12:15:54Z</time>
<extensions>
<tp1:TrackPointExtension>
<tp1:hr>130</tp1:hr>
</tp1:TrackPointExtension>
</extensions>
</trkpt>
<trkpt lat="50.7481360" lon="6.7102510">
<ele>105.5970000</ele>
<time>2012-04-13T12:16:07Z</time>
<extensions>
<tp1:TrackPointExtension>
<tp1:hr>128</tp1:hr>
</tp1:TrackPointExtension>
</extensions>
</trkpt>
<trkpt lat="50.7475410" lon="6.7095940">
<ele>105.8690000</ele>
<time>2012-04-13T12:16:18Z</time>
<extensions>
<tp1:TrackPointExtension>
<tp1:hr>129</tp1:hr>
</tp1:TrackPointExtension>
</extensions>
</trkpt>
<trkpt lat="50.7470050" lon="6.7090030">
<ele>105.7380000</ele>
<time>2012-04-13T12:16:28Z</time>
<extensions>
<tp1:TrackPointExtension>
<tp1:hr>131</tp1:hr>
</tp1:TrackPointExtension>
</extensions>
</trkpt>
<trkpt lat="50.7464690" lon="6.7084150">
<ele>105.8610000</ele>
<time>2012-04-13T12:16:38Z</time>
<extensions>
<tp1:TrackPointExtension>
<tp1:hr>131</tp1:hr>
</tp1:TrackPointExtension>
</extensions>
</trkpt>
<trkpt lat="50.7457160" lon="6.7075800">
<ele>105.1530000</ele>
<time>2012-04-13T12:16:52Z</time>
<extensions>
<tp1:TrackPointExtension>
<tp1:hr>131</tp1:hr>
</tp1:TrackPointExtension>
</extensions>
</trkpt>
<trkpt lat="50.7452990" lon="6.7070350">
<ele>104.7210000</ele>
<time>2012-04-13T12:17:00Z</time>
<extensions>
<tp1:TrackPointExtension>
<tp1:hr>131</tp1:hr>
</tp1:TrackPointExtension>
</extensions>
</trkpt>
<trkpt lat="50.7450770" lon="6.7064890">
<ele>104.0790000</ele>
<time>2012-04-13T12:17:06Z</time>
<extensions>
<tp1:TrackPointExtension>
<tp1:hr>131</tp1:hr>
</tp1:TrackPointExtension>
</extensions>
</trkpt>
<trkpt lat="50.7447960" lon="6.7057340">
<ele>103.8550000</ele>
<time>2012-04-13T12:17:14Z</time>
<extensions>
<tp1:TrackPointExtension>
<tp1:hr>132</tp1:hr>
</tp1:TrackPointExtension>
</extensions>
</trkpt>
<trkpt lat="50.7445740" lon="6.7055170">
<ele>104.0450000</ele>
<time>2012-04-13T12:17:18Z</time>
<extensions>
<tp1:TrackPointExtension>
<tp1:hr>132</tp1:hr>
</tp1:TrackPointExtension>
</extensions>
</trkpt>
<trkpt lat="50.7443810" lon="6.7056010">
<ele>104.0120000</ele>
<time>2012-04-13T12:17:21Z</time>
<extensions>
<tp1:TrackPointExtension>
<tp1:hr>133</tp1:hr>
</tp1:TrackPointExtension>
</extensions>
</trkpt>
<trkpt lat="50.7438580" lon="6.7060930">
<ele>103.6260000</ele>
<time>2012-04-13T12:17:30Z</time>
<extensions>
<tp1:TrackPointExtension>
<tp1:hr>133</tp1:hr>
</tp1:TrackPointExtension>
</extensions>
</trkpt>
<trkpt lat="50.7432400" lon="6.7066890">
<ele>103.8370000</ele>
<time>2012-04-13T12:17:41Z</time>
<extensions>
<tp1:TrackPointExtension>
<tp1:hr>134</tp1:hr>
</tp1:TrackPointExtension>
</extensions>
</trkpt>
<trkpt lat="50.7430180" lon="6.7068970">
<ele>103.9740000</ele>
<time>2012-04-13T12:17:45Z</time>
<extensions>
<tp1:TrackPointExtension>
<tp1:hr>133</tp1:hr>
</tp1:TrackPointExtension>
</extensions>
</trkpt>
<trkpt lat="50.7428040" lon="6.7071280">
<ele>104.1120000</ele>
<time>2012-04-13T12:17:49Z</time>
<extensions>
<tp1:TrackPointExtension>
<tp1:hr>134</tp1:hr>
</tp1:TrackPointExtension>
</extensions>
</trkpt>
<trkpt lat="50.7423540" lon="6.7075380">
<ele>104.1720000</ele>
<time>2012-04-13T12:17:57Z</time>
<extensions>
<tp1:TrackPointExtension>
<tp1:hr>135</tp1:hr>
</tp1:TrackPointExtension>
</extensions>
</trkpt>
<trkpt lat="50.7422330" lon="6.7076160">
<ele>104.2290000</ele>
<time>2012-04-13T12:17:59Z</time>
<extensions>
<tp1:TrackPointExtension>
<tp1:hr>136</tp1:hr>
</tp1:TrackPointExtension>
</extensions>
</trkpt>
<trkpt lat="50.7420340" lon="6.7078600">
<ele>104.8090000</ele>
<time>2012-04-13T12:18:03Z</time>
<extensions>
<tp1:TrackPointExtension>
<tp1:hr>137</tp1:hr>
</tp1:TrackPointExtension>
</extensions>
</trkpt>
<trkpt lat="50.7415800" lon="6.7088020">
<ele>105.4170000</ele>
<time>2012-04-13T12:18:15Z</time>
<extensions>
<tp1:TrackPointExtension>
<tp1:hr>140</tp1:hr>
</tp1:TrackPointExtension>
</extensions>
</trkpt>
<trkpt lat="50.7410630" lon="6.7097720">
<ele>105.7830000</ele>
<time>2012-04-13T12:18:28Z</time>
<extensions>
<tp1:TrackPointExtension>
<tp1:hr>141</tp1:hr>
</tp1:TrackPointExtension>
</extensions>
</trkpt>
<trkpt lat="50.7405660" lon="6.7106590">
<ele>106.2510000</ele>
<time>2012-04-13T12:18:40Z</time>
<extensions>
<tp1:TrackPointExtension>
<tp1:hr>139</tp1:hr>
</tp1:TrackPointExtension>
</extensions>
</trkpt>
<trkpt lat="50.7401320" lon="6.7113590">
<ele>106.3820000</ele>
<time>2012-04-13T12:18:50Z</time>
<extensions>
<tp1:TrackPointExtension>
<tp1:hr>138</tp1:hr>
</tp1:TrackPointExtension>
</extensions>
</trkpt>
<trkpt lat="50.7396610" lon="6.7121740">
<ele>106.7370000</ele>
<time>2012-04-13T12:19:01Z</time>
<extensions>
<tp1:TrackPointExtension>
<tp1:hr>138</tp1:hr>
</tp1:TrackPointExtension>
</extensions>
</trkpt>
<trkpt lat="50.7394410" lon="6.7126700">
<ele>106.8880000</ele>
<time>2012-04-13T12:19:07Z</time>
<extensions>
<tp1:TrackPointExtension>
<tp1:hr>138</tp1:hr>
</tp1:TrackPointExtension>
</extensions>
</trkpt>
<trkpt lat="50.7393060" lon="6.7132440">
<ele>107.1370000</ele>
<time>2012-04-13T12:19:13Z</time>
<extensions>
<tp1:TrackPointExtension>
<tp1:hr>139</tp1:hr>
</tp1:TrackPointExtension>
</extensions>
</trkpt>
<trkpt lat="50.7392610" lon="6.7138540">
<ele>106.9730000</ele>
<time>2012-04-13T12:19:19Z</time>
<extensions>
<tp1:TrackPointExtension>
<tp1:hr>139</tp1:hr>
</tp1:TrackPointExtension>
</extensions>
</trkpt>
<trkpt lat="50.7392670" lon="6.7149960">
<ele>107.1070000</ele>
<time>2012-04-13T12:19:30Z</time>
<extensions>
<tp1:TrackPointExtension>
<tp1:hr>138</tp1:hr>
</tp1:TrackPointExtension>
</extensions>
</trkpt>
<trkpt lat="50.7391790" lon="6.7158160">
<ele>107.0510000</ele>
<time>2012-04-13T12:19:38Z</time>
<extensions>
<tp1:TrackPointExtension>
<tp1:hr>137</tp1:hr>
</tp1:TrackPointExtension>
</extensions>
</trkpt>
<trkpt lat="50.7390330" lon="6.7164900">
<ele>107.1960000</ele>
<time>2012-04-13T12:19:45Z</time>
<extensions>
<tp1:TrackPointExtension>
<tp1:hr>138</tp1:hr>
</tp1:TrackPointExtension>
</extensions>
</trkpt>
<trkpt lat="50.7388550" lon="6.7173600">
<ele>107.4740000</ele>
<time>2012-04-13T12:19:54Z</time>
<extensions>
<tp1:TrackPointExtension>
<tp1:hr>138</tp1:hr>
</tp1:TrackPointExtension>
</extensions>
</trkpt>
<trkpt lat="50.7386970" lon="6.7184180">
<ele>108.2170000</ele>
<time>2012-04-13T12:20:05Z</time>
<extensions>
<tp1:TrackPointExtension>
<tp1:hr>138</tp1:hr>
</tp1:TrackPointExtension>
</extensions>
</trkpt>
<trkpt lat="50.7385940" lon="6.7192030">
<ele>108.6290000</ele>
<time>2012-04-13T12:20:13Z</time>
<extensions>
<tp1:TrackPointExtension>
<tp1:hr>139</tp1:hr>
</tp1:TrackPointExtension>
</extensions>
</trkpt>
<trkpt lat="50.7384910" lon="6.7204240">
<ele>108.5980000</ele>
<time>2012-04-13T12:20:25Z</time>
<extensions>
<tp1:TrackPointExtension>
<tp1:hr>137</tp1:hr>
</tp1:TrackPointExtension>
</extensions>
</trkpt>
<trkpt lat="50.7384010" lon="6.7215960">
<ele>107.5530000</ele>
<time>2012-04-13T12:20:36Z</time>
<extensions>
<tp1:TrackPointExtension>
<tp1:hr>133</tp1:hr>
</tp1:TrackPointExtension>
</extensions>
</trkpt>
<trkpt lat="50.7382850" lon="6.7228170">
<ele>107.2850000</ele>
<time>2012-04-13T12:20:48Z</time>
<extensions>
<tp1:TrackPointExtension>
<tp1:hr>131</tp1:hr>
</tp1:TrackPointExtension>
</extensions>
</trkpt>
<trkpt lat="50.7381450" lon="6.7240040">
<ele>107.6670000</ele>
<time>2012-04-13T12:21:00Z</time>
<extensions>
<tp1:TrackPointExtension>
<tp1:hr>133</tp1:hr>
</tp1:TrackPointExtension>
</extensions>
</trkpt>
<trkpt lat="50.7380090" lon="6.7249920">
<ele>107.6810000</ele>
<time>2012-04-13T12:21:10Z</time>
<extensions>
<tp1:TrackPointExtension>
<tp1:hr>134</tp1:hr>
</tp1:TrackPointExtension>
</extensions>
</trkpt>
<trkpt lat="50.7378550" lon="6.7261020">
<ele>107.3030000</ele>
<time>2012-04-13T12:21:21Z</time>
<extensions>
<tp1:TrackPointExtension>
<tp1:hr>133</tp1:hr>
</tp1:TrackPointExtension>
</extensions>
</trkpt>
<trkpt lat="50.7377910" lon="6.7264060">
<ele>107.0530000</ele>
<time>2012-04-13T12:21:24Z</time>
<extensions>
<tp1:TrackPointExtension>
<tp1:hr>133</tp1:hr>
</tp1:TrackPointExtension>
</extensions>
</trkpt>
<trkpt lat="50.7375780" lon="6.7268100">
<ele>106.8380000</ele>
<time>2012-04-13T12:21:29Z</time>
<extensions>
<tp1:TrackPointExtension>
<tp1:hr>133</tp1:hr>
</tp1:TrackPointExtension>
</extensions>
</trkpt>
<trkpt lat="50.7371020" lon="6.7272350">
<ele>106.6440000</ele>
<time>2012-04-13T12:21:37Z</time>
<extensions>
<tp1:TrackPointExtension>
<tp1:hr>133</tp1:hr>
</tp1:TrackPointExtension>
</extensions>
</trkpt>
<trkpt lat="50.7367040" lon="6.7276040">
<ele>106.7290000</ele>
<time>2012-04-13T12:21:44Z</time>
<extensions>
<tp1:TrackPointExtension>
<tp1:hr>133</tp1:hr>
</tp1:TrackPointExtension>
</extensions>
</trkpt>
<trkpt lat="50.7364710" lon="6.7281000">
<ele>106.7480000</ele>
<time>2012-04-13T12:21:50Z</time>
<extensions>
<tp1:TrackPointExtension>
<tp1:hr>133</tp1:hr>
</tp1:TrackPointExtension>
</extensions>
</trkpt>
<trkpt lat="50.7361940" lon="6.7289080">
<ele>106.8490000</ele>
<time>2012-04-13T12:21:59Z</time>
<extensions>
<tp1:TrackPointExtension>
<tp1:hr>133</tp1:hr>
</tp1:TrackPointExtension>
</extensions>
</trkpt>
<trkpt lat="50.7360330" lon="6.7294430">
<ele>106.7390000</ele>
<time>2012-04-13T12:22:05Z</time>
<extensions>
<tp1:TrackPointExtension>
<tp1:hr>131</tp1:hr>
</tp1:TrackPointExtension>
</extensions>
</trkpt>
<trkpt lat="50.7358990" lon="6.7302340">
<ele>107.0060000</ele>
<time>2012-04-13T12:22:13Z</time>
<extensions>
<tp1:TrackPointExtension>
<tp1:hr>132</tp1:hr>
</tp1:TrackPointExtension>
</extensions>
</trkpt>
<trkpt lat="50.7359060" lon="6.7309400">
<ele>107.1500000</ele>
<time>2012-04-13T12:22:20Z</time>
<extensions>
<tp1:TrackPointExtension>
<tp1:hr>135</tp1:hr>
</tp1:TrackPointExtension>
</extensions>
</trkpt>
<trkpt lat="50.7359450" lon="6.7320490">
<ele>107.1070000</ele>
<time>2012-04-13T12:22:31Z</time>
<extensions>
<tp1:TrackPointExtension>
<tp1:hr>134</tp1:hr>
</tp1:TrackPointExtension>
</extensions>
</trkpt>
<trkpt lat="50.7358910" lon="6.7328710">
<ele>107.0510000</ele>
<time>2012-04-13T12:22:39Z</time>
<extensions>
<tp1:TrackPointExtension>
<tp1:hr>134</tp1:hr>
</tp1:TrackPointExtension>
</extensions>
</trkpt>
<trkpt lat="50.7357640" lon="6.7336570">
<ele>107.0020000</ele>
<time>2012-04-13T12:22:47Z</time>
<extensions>
<tp1:TrackPointExtension>
<tp1:hr>133</tp1:hr>
</tp1:TrackPointExtension>
</extensions>
</trkpt>
<trkpt lat="50.7355820" lon="6.7344420">
<ele>107.0280000</ele>
<time>2012-04-13T12:22:55Z</time>
<extensions>
<tp1:TrackPointExtension>
<tp1:hr>133</tp1:hr>
</tp1:TrackPointExtension>
</extensions>
</trkpt>
<trkpt lat="50.7354830" lon="6.7347230">
<ele>106.9680000</ele>
<time>2012-04-13T12:22:58Z</time>
<extensions>
<tp1:TrackPointExtension>
<tp1:hr>133</tp1:hr>
</tp1:TrackPointExtension>
</extensions>
</trkpt>
<trkpt lat="50.7352160" lon="6.7350790">
<ele>106.9690000</ele>
<time>2012-04-13T12:23:03Z</time>
<extensions>
<tp1:TrackPointExtension>
<tp1:hr>132</tp1:hr>
</tp1:TrackPointExtension>
</extensions>
</trkpt>
<trkpt lat="50.7350840" lon="6.7351860">
<ele>106.8060000</ele>
<time>2012-04-13T12:23:05Z</time>
<extensions>
<tp1:TrackPointExtension>
<tp1:hr>131</tp1:hr>
</tp1:TrackPointExtension>
</extensions>
</trkpt>
<trkpt lat="50.7349090" lon="6.7355070">
<ele>106.4210000</ele>
<time>2012-04-13T12:23:09Z</time>
<extensions>
<tp1:TrackPointExtension>
<tp1:hr>129</tp1:hr>
</tp1:TrackPointExtension>
</extensions>
</trkpt>
<trkpt lat="50.7349000" lon="6.7359430">
<ele>106.1880000</ele>
<time>2012-04-13T12:23:13Z</time>
<extensions>
<tp1:TrackPointExtension>
<tp1:hr>130</tp1:hr>
</tp1:TrackPointExtension>
</extensions>
</trkpt>
<trkpt lat="50.7349910" lon="6.7362530">
<ele>106.2620000</ele>
<time>2012-04-13T12:23:16Z</time>
<extensions>
<tp1:TrackPointExtension>
<tp1:hr>131</tp1:hr>
</tp1:TrackPointExtension>
</extensions>
</trkpt>
<trkpt lat="50.7350440" lon="6.7363260">
<ele>106.2950000</ele>
<time>2012-04-13T12:23:17Z</time>
<extensions>
<tp1:TrackPointExtension>
<tp1:hr>131</tp1:hr>
</tp1:TrackPointExtension>
</extensions>
</trkpt>
<trkpt lat="50.7352430" lon="6.7366480">
<ele>106.3040000</ele>
<time>2012-04-13T12:23:21Z</time>
<extensions>
<tp1:TrackPointExtension>
<tp1:hr>131</tp1:hr>
</tp1:TrackPointExtension>
</extensions>
</trkpt>
<trkpt lat="50.7354630" lon="6.7373350">
<ele>106.0160000</ele>
<time>2012-04-13T12:23:28Z</time>
<extensions>
<tp1:TrackPointExtension>
<tp1:hr>133</tp1:hr>
</tp1:TrackPointExtension>
</extensions>
</trkpt>
<trkpt lat="50.7356120" lon="6.7381680">
<ele>106.0700000</ele>
<time>2012-04-13T12:23:36Z</time>
<extensions>
<tp1:TrackPointExtension>
<tp1:hr>136</tp1:hr>
</tp1:TrackPointExtension>
</extensions>
</trkpt>
<trkpt lat="50.7358670" lon="6.7392260">
<ele>106.6560000</ele>
<time>2012-04-13T12:23:47Z</time>
<extensions>
<tp1:TrackPointExtension>
<tp1:hr>139</tp1:hr>
</tp1:TrackPointExtension>
</extensions>
</trkpt>
<trkpt lat="50.7361290" lon="6.7401490">
<ele>106.4100000</ele>
<time>2012-04-13T12:23:57Z</time>
<extensions>
<tp1:TrackPointExtension>
<tp1:hr>142</tp1:hr>
</tp1:TrackPointExtension>
</extensions>
</trkpt>
<trkpt lat="50.7364430" lon="6.7412620">
<ele>106.6900000</ele>
<time>2012-04-13T12:24:09Z</time>
<extensions>
<tp1:TrackPointExtension>
<tp1:hr>143</tp1:hr>
</tp1:TrackPointExtension>
</extensions>
</trkpt>
<trkpt lat="50.7367230" lon="6.7422930">
<ele>106.6560000</ele>
<time>2012-04-13T12:24:20Z</time>
<extensions>
<tp1:TrackPointExtension>
<tp1:hr>144</tp1:hr>
</tp1:TrackPointExtension>
</extensions>
</trkpt>
<trkpt lat="50.7370690" lon="6.7435040">
<ele>106.2990000</ele>
<time>2012-04-13T12:24:33Z</time>
<extensions>
<tp1:TrackPointExtension>
<tp1:hr>144</tp1:hr>
</tp1:TrackPointExtension>
</extensions>
</trkpt>
<trkpt lat="50.7373030" lon="6.7442810">
<ele>105.8230000</ele>
<time>2012-04-13T12:24:41Z</time>
<extensions>
<tp1:TrackPointExtension>
<tp1:hr>139</tp1:hr>
</tp1:TrackPointExtension>
</extensions>
</trkpt>
<trkpt lat="50.7373960" lon="6.7445660">
<ele>105.4900000</ele>
<time>2012-04-13T12:24:44Z</time>
<extensions>
<tp1:TrackPointExtension>
<tp1:hr>134</tp1:hr>
</tp1:TrackPointExtension>
</extensions>
</trkpt>
<trkpt lat="50.7377200" lon="6.7454880">
<ele>104.6990000</ele>
<time>2012-04-13T12:24:54Z</time>
<extensions>
<tp1:TrackPointExtension>
<tp1:hr>130</tp1:hr>
</tp1:TrackPointExtension>
</extensions>
</trkpt>
<trkpt lat="50.7379050" lon="6.7461970">
<ele>104.1800000</ele>
<time>2012-04-13T12:25:01Z</time>
<extensions>
<tp1:TrackPointExtension>
<tp1:hr>128</tp1:hr>
</tp1:TrackPointExtension>
</extensions>
</trkpt>
<trkpt lat="50.7379340" lon="6.7465950">
<ele>104.0060000</ele>
<time>2012-04-13T12:25:05Z</time>
<extensions>
<tp1:TrackPointExtension>
<tp1:hr>129</tp1:hr>
</tp1:TrackPointExtension>
</extensions>
</trkpt>
<trkpt lat="50.7378330" lon="6.7474460">
<ele>103.6810000</ele>
<time>2012-04-13T12:25:13Z</time>
<extensions>
<tp1:TrackPointExtension>
<tp1:hr>130</tp1:hr>
</tp1:TrackPointExtension>
</extensions>
</trkpt>
<trkpt lat="50.7377880" lon="6.7483110">
<ele>103.6760000</ele>
<time>2012-04-13T12:25:21Z</time>
<extensions>
<tp1:TrackPointExtension>
<tp1:hr>130</tp1:hr>
</tp1:TrackPointExtension>
</extensions>
</trkpt>
<trkpt lat="50.7377080" lon="6.7493110">
<ele>102.5460000</ele>
<time>2012-04-13T12:25:30Z</time>
<extensions>
<tp1:TrackPointExtension>
<tp1:hr>129</tp1:hr>
</tp1:TrackPointExtension>
</extensions>
</trkpt>
<trkpt lat="50.7376810" lon="6.7497840">
<ele>101.5420000</ele>
<time>2012-04-13T12:25:34Z</time>
<extensions>
<tp1:TrackPointExtension>
<tp1:hr>127</tp1:hr>
</tp1:TrackPointExtension>
</extensions>
</trkpt>
<trkpt lat="50.7377610" lon="6.7502550">
<ele>100.6130000</ele>
<time>2012-04-13T12:25:38Z</time>
<extensions>
<tp1:TrackPointExtension>
<tp1:hr>125</tp1:hr>
</tp1:TrackPointExtension>
</extensions>
</trkpt>
<trkpt lat="50.7380550" lon="6.7514550">
<ele>98.4030000</ele>
<time>2012-04-13T12:25:48Z</time>
<extensions>
<tp1:TrackPointExtension>
<tp1:hr>125</tp1:hr>
</tp1:TrackPointExtension>
</extensions>
</trkpt>
<trkpt lat="50.7382420" lon="6.7525370">
<ele>97.2230000</ele>
<time>2012-04-13T12:25:57Z</time>
<extensions>
<tp1:TrackPointExtension>
<tp1:hr>125</tp1:hr>
</tp1:TrackPointExtension>
</extensions>
</trkpt>
<trkpt lat="50.7383130" lon="6.7533880">
<ele>96.3750000</ele>
<time>2012-04-13T12:26:04Z</time>
<extensions>
<tp1:TrackPointExtension>
<tp1:hr>128</tp1:hr>
</tp1:TrackPointExtension>
</extensions>
</trkpt>
<trkpt lat="50.7383530" lon="6.7544540">
<ele>95.4920000</ele>
<time>2012-04-13T12:26:13Z</time>
<extensions>
<tp1:TrackPointExtension>
<tp1:hr>128</tp1:hr>
</tp1:TrackPointExtension>
</extensions>
</trkpt>
<trkpt lat="50.7383980" lon="6.7557380">
<ele>94.5670000</ele>
<time>2012-04-13T12:26:24Z</time>
<extensions>
<tp1:TrackPointExtension>
<tp1:hr>128</tp1:hr>
</tp1:TrackPointExtension>
</extensions>
</trkpt>
<trkpt lat="50.7383700" lon="6.7566690">
<ele>93.8880000</ele>
<time>2012-04-13T12:26:32Z</time>
<extensions>
<tp1:TrackPointExtension>
<tp1:hr>128</tp1:hr>
</tp1:TrackPointExtension>
</extensions>
</trkpt>
<trkpt lat="50.7382460" lon="6.7574490">
<ele>93.3320000</ele>
<time>2012-04-13T12:26:39Z</time>
<extensions>
<tp1:TrackPointExtension>
<tp1:hr>128</tp1:hr>
</tp1:TrackPointExtension>
</extensions>
</trkpt>
<trkpt lat="50.7379660" lon="6.7584370">
<ele>92.0940000</ele>
<time>2012-04-13T12:26:48Z</time>
<extensions>
<tp1:TrackPointExtension>
<tp1:hr>126</tp1:hr>
</tp1:TrackPointExtension>
</extensions>
</trkpt>
<trkpt lat="50.7378320" lon="6.7588840">
<ele>90.9890000</ele>
<time>2012-04-13T12:26:52Z</time>
<extensions>
<tp1:TrackPointExtension>
<tp1:hr>121</tp1:hr>
</tp1:TrackPointExtension>
</extensions>
</trkpt>
<trkpt lat="50.7375540" lon="6.7598170">
<ele>89.1860000</ele>
<time>2012-04-13T12:27:00Z</time>
<extensions>
<tp1:TrackPointExtension>
<tp1:hr>115</tp1:hr>
</tp1:TrackPointExtension>
</extensions>
</trkpt>
<trkpt lat="50.7373250" lon="6.7606930">
<ele>87.4240000</ele>
<time>2012-04-13T12:27:07Z</time>
<extensions>
<tp1:TrackPointExtension>
<tp1:hr>110</tp1:hr>
</tp1:TrackPointExtension>
</extensions>
</trkpt>
<trkpt lat="50.7371670" lon="6.7616160">
<ele>85.5800000</ele>
<time>2012-04-13T12:27:14Z</time>
<extensions>
<tp1:TrackPointExtension>
<tp1:hr>108</tp1:hr>
</tp1:TrackPointExtension>
</extensions>
</trkpt>
<trkpt lat="50.7369630" lon="6.7624980">
<ele>84.2020000</ele>
<time>2012-04-13T12:27:21Z</time>
<extensions>
<tp1:TrackPointExtension>
<tp1:hr>107</tp1:hr>
</tp1:TrackPointExtension>
</extensions>
</trkpt>
<trkpt lat="50.7367190" lon="6.7633850">
<ele>83.6290000</ele>
<time>2012-04-13T12:27:29Z</time>
<extensions>
<tp1:TrackPointExtension>
<tp1:hr>109</tp1:hr>
</tp1:TrackPointExtension>
</extensions>
</trkpt>
<trkpt lat="50.7366060" lon="6.7638060">
<ele>83.6190000</ele>
<time>2012-04-13T12:27:33Z</time>
<extensions>
<tp1:TrackPointExtension>
<tp1:hr>116</tp1:hr>
</tp1:TrackPointExtension>
</extensions>
</trkpt>
<trkpt lat="50.7365760" lon="6.7639100">
<ele>83.6420000</ele>
<time>2012-04-13T12:27:34Z</time>
<extensions>
<tp1:TrackPointExtension>
<tp1:hr>116</tp1:hr>
</tp1:TrackPointExtension>
</extensions>
</trkpt>
<trkpt lat="50.7363520" lon="6.7647570">
<ele>83.6220000</ele>
<time>2012-04-13T12:27:42Z</time>
<extensions>
<tp1:TrackPointExtension>
<tp1:hr>119</tp1:hr>
</tp1:TrackPointExtension>
</extensions>
</trkpt>
<trkpt lat="50.7361720" lon="6.7656280">
<ele>83.5220000</ele>
<time>2012-04-13T12:27:50Z</time>
<extensions>
<tp1:TrackPointExtension>
<tp1:hr>122</tp1:hr>
</tp1:TrackPointExtension>
</extensions>
</trkpt>
<trkpt lat="50.7361910" lon="6.7661800">
<ele>83.4630000</ele>
<time>2012-04-13T12:27:55Z</time>
<extensions>
<tp1:TrackPointExtension>
<tp1:hr>123</tp1:hr>
</tp1:TrackPointExtension>
</extensions>
</trkpt>
<trkpt lat="50.7362410" lon="6.7666200">
<ele>83.3500000</ele>
<time>2012-04-13T12:27:59Z</time>
<extensions>
<tp1:TrackPointExtension>
<tp1:hr>124</tp1:hr>
</tp1:TrackPointExtension>
</extensions>
</trkpt>
<trkpt lat="50.7361810" lon="6.7671650">
<ele>83.3010000</ele>
<time>2012-04-13T12:28:04Z</time>
<extensions>
<tp1:TrackPointExtension>
<tp1:hr>128</tp1:hr>
</tp1:TrackPointExtension>
</extensions>
</trkpt>
<trkpt lat="50.7361510" lon="6.7672650">
<ele>83.3070000</ele>
<time>2012-04-13T12:28:05Z</time>
<extensions>
<tp1:TrackPointExtension>
<tp1:hr>129</tp1:hr>
</tp1:TrackPointExtension>
</extensions>
</trkpt>
<trkpt lat="50.7358610" lon="6.7680230">
<ele>83.9930000</ele>
<time>2012-04-13T12:28:13Z</time>
<extensions>
<tp1:TrackPointExtension>
<tp1:hr>134</tp1:hr>
</tp1:TrackPointExtension>
</extensions>
</trkpt>
<trkpt lat="50.7358440" lon="6.7683100">
<ele>84.1150000</ele>
<time>2012-04-13T12:28:16Z</time>
<extensions>
<tp1:TrackPointExtension>
<tp1:hr>135</tp1:hr>
</tp1:TrackPointExtension>
</extensions>
</trkpt>
<trkpt lat="50.7358780" lon="6.7683800">
<ele>84.1360000</ele>
<time>2012-04-13T12:28:17Z</time>
<extensions>
<tp1:TrackPointExtension>
<tp1:hr>135</tp1:hr>
</tp1:TrackPointExtension>
</extensions>
</trkpt>
<trkpt lat="50.7359870" lon="6.7685320">
<ele>84.1260000</ele>
<time>2012-04-13T12:28:20Z</time>
<extensions>
<tp1:TrackPointExtension>
<tp1:hr>134</tp1:hr>
</tp1:TrackPointExtension>
</extensions>
</trkpt>
<trkpt lat="50.7362600" lon="6.7688130">
<ele>84.9490000</ele>
<time>2012-04-13T12:28:27Z</time>
<extensions>
<tp1:TrackPointExtension>
<tp1:hr>133</tp1:hr>
</tp1:TrackPointExtension>
</extensions>
</trkpt>
<trkpt lat="50.7364850" lon="6.7689910">
<ele>85.8330000</ele>
<time>2012-04-13T12:28:32Z</time>
<extensions>
<tp1:TrackPointExtension>
<tp1:hr>134</tp1:hr>
</tp1:TrackPointExtension>
</extensions>
</trkpt>
<trkpt lat="50.7369360" lon="6.7691710">
<ele>85.7780000</ele>
<time>2012-04-13T12:28:40Z</time>
<extensions>
<tp1:TrackPointExtension>
<tp1:hr>139</tp1:hr>
</tp1:TrackPointExtension>
</extensions>
</trkpt>
<trkpt lat="50.7374400" lon="6.7694480">
<ele>85.9400000</ele>
<time>2012-04-13T12:28:49Z</time>
<extensions>
<tp1:TrackPointExtension>
<tp1:hr>142</tp1:hr>
</tp1:TrackPointExtension>
</extensions>
</trkpt>
<trkpt lat="50.7377150" lon="6.7696290">
<ele>86.1580000</ele>
<time>2012-04-13T12:28:54Z</time>
<extensions>
<tp1:TrackPointExtension>
<tp1:hr>141</tp1:hr>
</tp1:TrackPointExtension>
</extensions>
</trkpt>
<trkpt lat="50.7381030" lon="6.7698000">
<ele>86.7130000</ele>
<time>2012-04-13T12:29:01Z</time>
<extensions>
<tp1:TrackPointExtension>
<tp1:hr>141</tp1:hr>
</tp1:TrackPointExtension>
</extensions>
</trkpt>
<trkpt lat="50.7384230" lon="6.7699430">
<ele>87.3610000</ele>
<time>2012-04-13T12:29:07Z</time>
<extensions>
<tp1:TrackPointExtension>
<tp1:hr>141</tp1:hr>
</tp1:TrackPointExtension>
</extensions>
</trkpt>
<trkpt lat="50.7386900" lon="6.7701130">
<ele>87.5790000</ele>
<time>2012-04-13T12:29:12Z</time>
<extensions>
<tp1:TrackPointExtension>
<tp1:hr>141</tp1:hr>
</tp1:TrackPointExtension>
</extensions>
</trkpt>
<trkpt lat="50.7390880" lon="6.7704360">
<ele>88.2300000</ele>
<time>2012-04-13T12:29:20Z</time>
<extensions>
<tp1:TrackPointExtension>
<tp1:hr>143</tp1:hr>
</tp1:TrackPointExtension>
</extensions>
</trkpt>
<trkpt lat="50.7395160" lon="6.7707440">
<ele>89.1700000</ele>
<time>2012-04-13T12:29:29Z</time>
<extensions>
<tp1:TrackPointExtension>
<tp1:hr>141</tp1:hr>
</tp1:TrackPointExtension>
</extensions>
</trkpt>
<trkpt lat="50.7396610" lon="6.7708450">
<ele>89.4650000</ele>
<time>2012-04-13T12:29:32Z</time>
<extensions>
<tp1:TrackPointExtension>
<tp1:hr>141</tp1:hr>
</tp1:TrackPointExtension>
</extensions>
</trkpt>
<trkpt lat="50.7399280" lon="6.7708600">
<ele>89.6230000</ele>
<time>2012-04-13T12:29:37Z</time>
<extensions>
<tp1:TrackPointExtension>
<tp1:hr>141</tp1:hr>
</tp1:TrackPointExtension>
</extensions>
</trkpt>
<trkpt lat="50.7404140" lon="6.7708550">
<ele>88.8560000</ele>
<time>2012-04-13T12:29:45Z</time>
<extensions>
<tp1:TrackPointExtension>
<tp1:hr>139</tp1:hr>
</tp1:TrackPointExtension>
</extensions>
</trkpt>
<trkpt lat="50.7408840" lon="6.7709130">
<ele>87.7010000</ele>
<time>2012-04-13T12:29:52Z</time>
<extensions>
<tp1:TrackPointExtension>
<tp1:hr>134</tp1:hr>
</tp1:TrackPointExtension>
</extensions>
</trkpt>
<trkpt lat="50.7411630" lon="6.7709650">
<ele>86.9900000</ele>
<time>2012-04-13T12:29:56Z</time>
<extensions>
<tp1:TrackPointExtension>
<tp1:hr>129</tp1:hr>
</tp1:TrackPointExtension>
</extensions>
</trkpt>
<trkpt lat="50.7413750" lon="6.7710110">
<ele>86.5970000</ele>
<time>2012-04-13T12:29:59Z</time>
<extensions>
<tp1:TrackPointExtension>
<tp1:hr>124</tp1:hr>
</tp1:TrackPointExtension>
</extensions>
</trkpt>
<trkpt lat="50.7417430" lon="6.7710730">
<ele>85.2440000</ele>
<time>2012-04-13T12:30:04Z</time>
<extensions>
<tp1:TrackPointExtension>
<tp1:hr>119</tp1:hr>
</tp1:TrackPointExtension>
</extensions>
</trkpt>
<trkpt lat="50.7424200" lon="6.7711550">
<ele>82.9550000</ele>
<time>2012-04-13T12:30:13Z</time>
<extensions>
<tp1:TrackPointExtension>
<tp1:hr>117</tp1:hr>
</tp1:TrackPointExtension>
</extensions>
</trkpt>
<trkpt lat="50.7430680" lon="6.7711930">
<ele>81.7580000</ele>
<time>2012-04-13T12:30:22Z</time>
<extensions>
<tp1:TrackPointExtension>
<tp1:hr>116</tp1:hr>
</tp1:TrackPointExtension>
</extensions>
</trkpt>
<trkpt lat="50.7434050" lon="6.7712200">
<ele>81.6090000</ele>
<time>2012-04-13T12:30:27Z</time>
<extensions>
<tp1:TrackPointExtension>
<tp1:hr>121</tp1:hr>
</tp1:TrackPointExtension>
</extensions>
</trkpt>
<trkpt lat="50.7438970" lon="6.7713000">
<ele>81.9970000</ele>
<time>2012-04-13T12:30:35Z</time>
<extensions>
<tp1:TrackPointExtension>
<tp1:hr>126</tp1:hr>
</tp1:TrackPointExtension>
</extensions>
</trkpt>
<trkpt lat="50.7442390" lon="6.7713730">
<ele>82.5640000</ele>
<time>2012-04-13T12:30:41Z</time>
<extensions>
<tp1:TrackPointExtension>
<tp1:hr>131</tp1:hr>
</tp1:TrackPointExtension>
</extensions>
</trkpt>
<trkpt lat="50.7446370" lon="6.7714630">
<ele>83.7300000</ele>
<time>2012-04-13T12:30:48Z</time>
<extensions>
<tp1:TrackPointExtension>
<tp1:hr>135</tp1:hr>
</tp1:TrackPointExtension>
</extensions>
</trkpt>
<trkpt lat="50.7450210" lon="6.7715460">
<ele>84.8890000</ele>
<time>2012-04-13T12:30:55Z</time>
<extensions>
<tp1:TrackPointExtension>
<tp1:hr>140</tp1:hr>
</tp1:TrackPointExtension>
</extensions>
</trkpt>
<trkpt lat="50.7453990" lon="6.7716410">
<ele>86.0950000</ele>
<time>2012-04-13T12:31:02Z</time>
<extensions>
<tp1:TrackPointExtension>
<tp1:hr>145</tp1:hr>
</tp1:TrackPointExtension>
</extensions>
</trkpt>
<trkpt lat="50.7458740" lon="6.7717750">
<ele>87.0160000</ele>
<time>2012-04-13T12:31:11Z</time>
<extensions>
<tp1:TrackPointExtension>
<tp1:hr>149</tp1:hr>
</tp1:TrackPointExtension>
</extensions>
</trkpt>
<trkpt lat="50.7464320" lon="6.7719630">
<ele>87.6470000</ele>
<time>2012-04-13T12:31:21Z</time>
<extensions>
<tp1:TrackPointExtension>
<tp1:hr>150</tp1:hr>
</tp1:TrackPointExtension>
</extensions>
</trkpt>
<trkpt lat="50.7470760" lon="6.7722220">
<ele>87.4840000</ele>
<time>2012-04-13T12:31:32Z</time>
<extensions>
<tp1:TrackPointExtension>
<tp1:hr>147</tp1:hr>
</tp1:TrackPointExtension>
</extensions>
</trkpt>
<trkpt lat="50.7476480" lon="6.7724670">
<ele>87.3770000</ele>
<time>2012-04-13T12:31:42Z</time>
<extensions>
<tp1:TrackPointExtension>
<tp1:hr>144</tp1:hr>
</tp1:TrackPointExtension>
</extensions>
</trkpt>
<trkpt lat="50.7482130" lon="6.7726940">
<ele>87.7140000</ele>
<time>2012-04-13T12:31:52Z</time>
<extensions>
<tp1:TrackPointExtension>
<tp1:hr>140</tp1:hr>
</tp1:TrackPointExtension>
</extensions>
</trkpt>
<trkpt lat="50.7487060" lon="6.7728780">
<ele>87.9010000</ele>
<time>2012-04-13T12:32:01Z</time>
<extensions>
<tp1:TrackPointExtension>
<tp1:hr>139</tp1:hr>
</tp1:TrackPointExtension>
</extensions>
</trkpt>
<trkpt lat="50.7492210" lon="6.7730750">
<ele>87.8570000</ele>
<time>2012-04-13T12:32:10Z</time>
<extensions>
<tp1:TrackPointExtension>
<tp1:hr>139</tp1:hr>
</tp1:TrackPointExtension>
</extensions>
</trkpt>
<trkpt lat="50.7497380" lon="6.7733290">
<ele>87.4040000</ele>
<time>2012-04-13T12:32:19Z</time>
<extensions>
<tp1:TrackPointExtension>
<tp1:hr>138</tp1:hr>
</tp1:TrackPointExtension>
</extensions>
</trkpt>
<trkpt lat="50.7501930" lon="6.7736400">
<ele>86.9840000</ele>
<time>2012-04-13T12:32:27Z</time>
<extensions>
<tp1:TrackPointExtension>
<tp1:hr>133</tp1:hr>
</tp1:TrackPointExtension>
</extensions>
</trkpt>
<trkpt lat="50.7509530" lon="6.7741620">
<ele>86.3460000</ele>
<time>2012-04-13T12:32:40Z</time>
<extensions>
<tp1:TrackPointExtension>
<tp1:hr>129</tp1:hr>
</tp1:TrackPointExtension>
</extensions>
</trkpt>
<trkpt lat="50.7516350" lon="6.7746450">
<ele>86.1250000</ele>
<time>2012-04-13T12:32:52Z</time>
<extensions>
<tp1:TrackPointExtension>
<tp1:hr>128</tp1:hr>
</tp1:TrackPointExtension>
</extensions>
</trkpt>
<trkpt lat="50.7519520" lon="6.7749620">
<ele>85.9090000</ele>
<time>2012-04-13T12:32:58Z</time>
<extensions>
<tp1:TrackPointExtension>
<tp1:hr>127</tp1:hr>
</tp1:TrackPointExtension>
</extensions>
</trkpt>
<trkpt lat="50.7524620" lon="6.7754010">
<ele>85.4920000</ele>
<time>2012-04-13T12:33:07Z</time>
<extensions>
<tp1:TrackPointExtension>
<tp1:hr>129</tp1:hr>
</tp1:TrackPointExtension>
</extensions>
</trkpt>
<trkpt lat="50.7528920" lon="6.7758720">
<ele>85.1580000</ele>
<time>2012-04-13T12:33:15Z</time>
<extensions>
<tp1:TrackPointExtension>
<tp1:hr>129</tp1:hr>
</tp1:TrackPointExtension>
</extensions>
</trkpt>
<trkpt lat="50.7532110" lon="6.7763720">
<ele>84.9730000</ele>
<time>2012-04-13T12:33:22Z</time>
<extensions>
<tp1:TrackPointExtension>
<tp1:hr>130</tp1:hr>
</tp1:TrackPointExtension>
</extensions>
</trkpt>
<trkpt lat="50.7533040" lon="6.7765100">
<ele>84.9890000</ele>
<time>2012-04-13T12:33:24Z</time>
<extensions>
<tp1:TrackPointExtension>
<tp1:hr>130</tp1:hr>
</tp1:TrackPointExtension>
</extensions>
</trkpt>
<trkpt lat="50.7535920" lon="6.7767490">
<ele>84.4670000</ele>
<time>2012-04-13T12:33:29Z</time>
<extensions>
<tp1:TrackPointExtension>
<tp1:hr>130</tp1:hr>
</tp1:TrackPointExtension>
</extensions>
</trkpt>
<trkpt lat="50.7537530" lon="6.7770530">
<ele>83.9450000</ele>
<time>2012-04-13T12:33:33Z</time>
<extensions>
<tp1:TrackPointExtension>
<tp1:hr>129</tp1:hr>
</tp1:TrackPointExtension>
</extensions>
</trkpt>
<trkpt lat="50.7539240" lon="6.7775720">
<ele>84.2280000</ele>
<time>2012-04-13T12:33:39Z</time>
<extensions>
<tp1:TrackPointExtension>
<tp1:hr>130</tp1:hr>
</tp1:TrackPointExtension>
</extensions>
</trkpt>
<trkpt lat="50.7542850" lon="6.7782490">
<ele>84.8590000</ele>
<time>2012-04-13T12:33:48Z</time>
<extensions>
<tp1:TrackPointExtension>
<tp1:hr>131</tp1:hr>
</tp1:TrackPointExtension>
</extensions>
</trkpt>
<trkpt lat="50.7543640" lon="6.7783940">
<ele>84.8870000</ele>
<time>2012-04-13T12:33:50Z</time>
<extensions>
<tp1:TrackPointExtension>
<tp1:hr>131</tp1:hr>
</tp1:TrackPointExtension>
</extensions>
</trkpt>
<trkpt lat="50.7543760" lon="6.7787400">
<ele>84.8340000</ele>
<time>2012-04-13T12:33:54Z</time>
<extensions>
<tp1:TrackPointExtension>
<tp1:hr>131</tp1:hr>
</tp1:TrackPointExtension>
</extensions>
</trkpt>
<trkpt lat="50.7542990" lon="6.7794020">
<ele>84.6260000</ele>
<time>2012-04-13T12:34:01Z</time>
<extensions>
<tp1:TrackPointExtension>
<tp1:hr>132</tp1:hr>
</tp1:TrackPointExtension>
</extensions>
</trkpt>
<trkpt lat="50.7541910" lon="6.7802940">
<ele>84.9560000</ele>
<time>2012-04-13T12:34:10Z</time>
<extensions>
<tp1:TrackPointExtension>
<tp1:hr>132</tp1:hr>
</tp1:TrackPointExtension>
</extensions>
</trkpt>
<trkpt lat="50.7540390" lon="6.7814910">
<ele>84.9150000</ele>
<time>2012-04-13T12:34:22Z</time>
<extensions>
<tp1:TrackPointExtension>
<tp1:hr>133</tp1:hr>
</tp1:TrackPointExtension>
</extensions>
</trkpt>
<trkpt lat="50.7538720" lon="6.7827980">
<ele>84.7730000</ele>
<time>2012-04-13T12:34:35Z</time>
<extensions>
<tp1:TrackPointExtension>
<tp1:hr>129</tp1:hr>
</tp1:TrackPointExtension>
</extensions>
</trkpt>
<trkpt lat="50.7537620" lon="6.7836980">
<ele>84.8620000</ele>
<time>2012-04-13T12:34:44Z</time>
<extensions>
<tp1:TrackPointExtension>
<tp1:hr>129</tp1:hr>
</tp1:TrackPointExtension>
</extensions>
</trkpt>
<trkpt lat="50.7536190" lon="6.7848200">
<ele>85.1300000</ele>
<time>2012-04-13T12:34:55Z</time>
<extensions>
<tp1:TrackPointExtension>
<tp1:hr>130</tp1:hr>
</tp1:TrackPointExtension>
</extensions>
</trkpt>
<trkpt lat="50.7534890" lon="6.7858510">
<ele>85.1780000</ele>
<time>2012-04-13T12:35:05Z</time>
<extensions>
<tp1:TrackPointExtension>
<tp1:hr>130</tp1:hr>
</tp1:TrackPointExtension>
</extensions>
</trkpt>
<trkpt lat="50.7533260" lon="6.7870850">
<ele>85.4250000</ele>
<time>2012-04-13T12:35:17Z</time>
<extensions>
<tp1:TrackPointExtension>
<tp1:hr>129</tp1:hr>
</tp1:TrackPointExtension>
</extensions>
</trkpt>
<trkpt lat="50.7532040" lon="6.7878990">
<ele>85.4350000</ele>
<time>2012-04-13T12:35:25Z</time>
<extensions>
<tp1:TrackPointExtension>
<tp1:hr>129</tp1:hr>
</tp1:TrackPointExtension>
</extensions>
</trkpt>
<trkpt lat="50.7529930" lon="6.7885400">
<ele>85.6430000</ele>
<time>2012-04-13T12:35:32Z</time>
<extensions>
<tp1:TrackPointExtension>
<tp1:hr>130</tp1:hr>
</tp1:TrackPointExtension>
</extensions>
</trkpt>
<trkpt lat="50.7526840" lon="6.7893370">
<ele>85.8740000</ele>
<time>2012-04-13T12:35:41Z</time>
<extensions>
<tp1:TrackPointExtension>
<tp1:hr>131</tp1:hr>
</tp1:TrackPointExtension>
</extensions>
</trkpt>
<trkpt lat="50.7523130" lon="6.7903060">
<ele>86.1820000</ele>
<time>2012-04-13T12:35:52Z</time>
<extensions>
<tp1:TrackPointExtension>
<tp1:hr>132</tp1:hr>
</tp1:TrackPointExtension>
</extensions>
</trkpt>
<trkpt lat="50.7520140" lon="6.7910870">
<ele>86.0130000</ele>
<time>2012-04-13T12:36:01Z</time>
<extensions>
<tp1:TrackPointExtension>
<tp1:hr>131</tp1:hr>
</tp1:TrackPointExtension>
</extensions>
</trkpt>
<trkpt lat="50.7516660" lon="6.7919940">
<ele>86.0480000</ele>
<time>2012-04-13T12:36:11Z</time>
<extensions>
<tp1:TrackPointExtension>
<tp1:hr>128</tp1:hr>
</tp1:TrackPointExtension>
</extensions>
</trkpt>
<trkpt lat="50.7513500" lon="6.7928170">
<ele>86.0600000</ele>
<time>2012-04-13T12:36:20Z</time>
<extensions>
<tp1:TrackPointExtension>
<tp1:hr>126</tp1:hr>
</tp1:TrackPointExtension>
</extensions>
</trkpt>
<trkpt lat="50.7510330" lon="6.7936340">
<ele>86.3380000</ele>
<time>2012-04-13T12:36:29Z</time>
<extensions>
<tp1:TrackPointExtension>
<tp1:hr>125</tp1:hr>
</tp1:TrackPointExtension>
</extensions>
</trkpt>
<trkpt lat="50.7506510" lon="6.7946200">
<ele>86.3650000</ele>
<time>2012-04-13T12:36:40Z</time>
<extensions>
<tp1:TrackPointExtension>
<tp1:hr>127</tp1:hr>
</tp1:TrackPointExtension>
</extensions>
</trkpt>
<trkpt lat="50.7502640" lon="6.7956140">
<ele>86.3720000</ele>
<time>2012-04-13T12:36:51Z</time>
<extensions>
<tp1:TrackPointExtension>
<tp1:hr>126</tp1:hr>
</tp1:TrackPointExtension>
</extensions>
</trkpt>
<trkpt lat="50.7499360" lon="6.7964930">
<ele>86.6680000</ele>
<time>2012-04-13T12:37:01Z</time>
<extensions>
<tp1:TrackPointExtension>
<tp1:hr>128</tp1:hr>
</tp1:TrackPointExtension>
</extensions>
</trkpt>
<trkpt lat="50.7495690" lon="6.7974570">
<ele>86.7820000</ele>
<time>2012-04-13T12:37:12Z</time>
<extensions>
<tp1:TrackPointExtension>
<tp1:hr>131</tp1:hr>
</tp1:TrackPointExtension>
</extensions>
</trkpt>
<trkpt lat="50.7492460" lon="6.7983090">
<ele>86.7420000</ele>
<time>2012-04-13T12:37:22Z</time>
<extensions>
<tp1:TrackPointExtension>
<tp1:hr>132</tp1:hr>
</tp1:TrackPointExtension>
</extensions>
</trkpt>
<trkpt lat="50.7489410" lon="6.7990920">
<ele>86.9910000</ele>
<time>2012-04-13T12:37:31Z</time>
<extensions>
<tp1:TrackPointExtension>
<tp1:hr>132</tp1:hr>
</tp1:TrackPointExtension>
</extensions>
</trkpt>
<trkpt lat="50.7485750" lon="6.8000630">
<ele>87.1040000</ele>
<time>2012-04-13T12:37:42Z</time>
<extensions>
<tp1:TrackPointExtension>
<tp1:hr>134</tp1:hr>
</tp1:TrackPointExtension>
</extensions>
</trkpt>
<trkpt lat="50.7482390" lon="6.8009440">
<ele>87.3460000</ele>
<time>2012-04-13T12:37:52Z</time>
<extensions>
<tp1:TrackPointExtension>
<tp1:hr>133</tp1:hr>
</tp1:TrackPointExtension>
</extensions>
</trkpt>
<trkpt lat="50.7478650" lon="6.8019270">
<ele>87.3420000</ele>
<time>2012-04-13T12:38:03Z</time>
<extensions>
<tp1:TrackPointExtension>
<tp1:hr>129</tp1:hr>
</tp1:TrackPointExtension>
</extensions>
</trkpt>
<trkpt lat="50.7475650" lon="6.8027220">
<ele>87.4540000</ele>
<time>2012-04-13T12:38:12Z</time>
<extensions>
<tp1:TrackPointExtension>
<tp1:hr>130</tp1:hr>
</tp1:TrackPointExtension>
</extensions>
</trkpt>
<trkpt lat="50.7473730" lon="6.8032630">
<ele>87.4690000</ele>
<time>2012-04-13T12:38:18Z</time>
<extensions>
<tp1:TrackPointExtension>
<tp1:hr>132</tp1:hr>
</tp1:TrackPointExtension>
</extensions>
</trkpt>
<trkpt lat="50.7472270" lon="6.8037480">
<ele>88.2900000</ele>
<time>2012-04-13T12:38:24Z</time>
<extensions>
<tp1:TrackPointExtension>
<tp1:hr>133</tp1:hr>
</tp1:TrackPointExtension>
</extensions>
</trkpt>
<trkpt lat="50.7470740" lon="6.8042360">
<ele>89.8640000</ele>
<time>2012-04-13T12:38:31Z</time>
<extensions>
<tp1:TrackPointExtension>
<tp1:hr>136</tp1:hr>
</tp1:TrackPointExtension>
</extensions>
</trkpt>
<trkpt lat="50.7469300" lon="6.8047200">
<ele>91.4580000</ele>
<time>2012-04-13T12:38:38Z</time>
<extensions>
<tp1:TrackPointExtension>
<tp1:hr>138</tp1:hr>
</tp1:TrackPointExtension>
</extensions>
</trkpt>
<trkpt lat="50.7468000" lon="6.8051210">
<ele>92.9400000</ele>
<time>2012-04-13T12:38:44Z</time>
<extensions>
<tp1:TrackPointExtension>
<tp1:hr>143</tp1:hr>
</tp1:TrackPointExtension>
</extensions>
</trkpt>
<trkpt lat="50.7466290" lon="6.8056960">
<ele>94.5300000</ele>
<time>2012-04-13T12:38:52Z</time>
<extensions>
<tp1:TrackPointExtension>
<tp1:hr>147</tp1:hr>
</tp1:TrackPointExtension>
</extensions>
</trkpt>
<trkpt lat="50.7464060" lon="6.8064310">
<ele>95.3740000</ele>
<time>2012-04-13T12:39:01Z</time>
<extensions>
<tp1:TrackPointExtension>
<tp1:hr>151</tp1:hr>
</tp1:TrackPointExtension>
</extensions>
</trkpt>
<trkpt lat="50.7461710" lon="6.8072180">
<ele>93.8470000</ele>
<time>2012-04-13T12:39:09Z</time>
<extensions>
<tp1:TrackPointExtension>
<tp1:hr>148</tp1:hr>
</tp1:TrackPointExtension>
</extensions>
</trkpt>
<trkpt lat="50.7459660" lon="6.8078910">
<ele>92.2650000</ele>
<time>2012-04-13T12:39:15Z</time>
<extensions>
<tp1:TrackPointExtension>
<tp1:hr>143</tp1:hr>
</tp1:TrackPointExtension>
</extensions>
</trkpt>
<trkpt lat="50.7457000" lon="6.8087380">
<ele>89.1500000</ele>
<time>2012-04-13T12:39:22Z</time>
<extensions>
<tp1:TrackPointExtension>
<tp1:hr>140</tp1:hr>
</tp1:TrackPointExtension>
</extensions>
</trkpt>
<trkpt lat="50.7455070" lon="6.8093900">
<ele>87.4400000</ele>
<time>2012-04-13T12:39:27Z</time>
<extensions>
<tp1:TrackPointExtension>
<tp1:hr>135</tp1:hr>
</tp1:TrackPointExtension>
</extensions>
</trkpt>
<trkpt lat="50.7454340" lon="6.8096500">
<ele>86.9840000</ele>
<time>2012-04-13T12:39:29Z</time>
<extensions>
<tp1:TrackPointExtension>
<tp1:hr>130</tp1:hr>
</tp1:TrackPointExtension>
</extensions>
</trkpt>
<trkpt lat="50.7452480" lon="6.8102750">
<ele>85.9710000</ele>
<time>2012-04-13T12:39:34Z</time>
<extensions>
<tp1:TrackPointExtension>
<tp1:hr>123</tp1:hr>
</tp1:TrackPointExtension>
</extensions>
</trkpt>
<trkpt lat="50.7450740" lon="6.8108640">
<ele>85.7570000</ele>
<time>2012-04-13T12:39:39Z</time>
<extensions>
<tp1:TrackPointExtension>
<tp1:hr>118</tp1:hr>
</tp1:TrackPointExtension>
</extensions>
</trkpt>
<trkpt lat="50.7447620" lon="6.8118540">
<ele>85.5280000</ele>
<time>2012-04-13T12:39:48Z</time>
<extensions>
<tp1:TrackPointExtension>
<tp1:hr>116</tp1:hr>
</tp1:TrackPointExtension>
</extensions>
</trkpt>
<trkpt lat="50.7443920" lon="6.8130650">
<ele>85.0450000</ele>
<time>2012-04-13T12:39:59Z</time>
<extensions>
<tp1:TrackPointExtension>
<tp1:hr>118</tp1:hr>
</tp1:TrackPointExtension>
</extensions>
</trkpt>
<trkpt lat="50.7442540" lon="6.8135140">
<ele>84.9430000</ele>
<time>2012-04-13T12:40:03Z</time>
<extensions>
<tp1:TrackPointExtension>
<tp1:hr>123</tp1:hr>
</tp1:TrackPointExtension>
</extensions>
</trkpt>
<trkpt lat="50.7439290" lon="6.8145400">
<ele>84.5410000</ele>
<time>2012-04-13T12:40:12Z</time>
<extensions>
<tp1:TrackPointExtension>
<tp1:hr>127</tp1:hr>
</tp1:TrackPointExtension>
</extensions>
</trkpt>
<trkpt lat="50.7435930" lon="6.8156370">
<ele>84.6270000</ele>
<time>2012-04-13T12:40:22Z</time>
<extensions>
<tp1:TrackPointExtension>
<tp1:hr>132</tp1:hr>
</tp1:TrackPointExtension>
</extensions>
</trkpt>
<trkpt lat="50.7432130" lon="6.8168590">
<ele>85.1410000</ele>
<time>2012-04-13T12:40:33Z</time>
<extensions>
<tp1:TrackPointExtension>
<tp1:hr>134</tp1:hr>
</tp1:TrackPointExtension>
</extensions>
</trkpt>
<trkpt lat="50.7429040" lon="6.8178400">
<ele>84.6670000</ele>
<time>2012-04-13T12:40:42Z</time>
<extensions>
<tp1:TrackPointExtension>
<tp1:hr>134</tp1:hr>
</tp1:TrackPointExtension>
</extensions>
</trkpt>
<trkpt lat="50.7425090" lon="6.8191290">
<ele>83.8790000</ele>
<time>2012-04-13T12:40:54Z</time>
<extensions>
<tp1:TrackPointExtension>
<tp1:hr>130</tp1:hr>
</tp1:TrackPointExtension>
</extensions>
</trkpt>
<trkpt lat="50.7422830" lon="6.8198510">
<ele>83.5970000</ele>
<time>2012-04-13T12:41:01Z</time>
<extensions>
<tp1:TrackPointExtension>
<tp1:hr>125</tp1:hr>
</tp1:TrackPointExtension>
</extensions>
</trkpt>
<trkpt lat="50.7421290" lon="6.8203370">
<ele>83.4050000</ele>
<time>2012-04-13T12:41:06Z</time>
<extensions>
<tp1:TrackPointExtension>
<tp1:hr>120</tp1:hr>
</tp1:TrackPointExtension>
</extensions>
</trkpt>
<trkpt lat="50.7420070" lon="6.8207330">
<ele>82.9560000</ele>
<time>2012-04-13T12:41:10Z</time>
<extensions>
<tp1:TrackPointExtension>
<tp1:hr>115</tp1:hr>
</tp1:TrackPointExtension>
</extensions>
</trkpt>
<trkpt lat="50.7418160" lon="6.8213340">
<ele>82.2380000</ele>
<time>2012-04-13T12:41:16Z</time>
<extensions>
<tp1:TrackPointExtension>
<tp1:hr>115</tp1:hr>
</tp1:TrackPointExtension>
</extensions>
</trkpt>
<trkpt lat="50.7416650" lon="6.8217510">
<ele>82.0470000</ele>
<time>2012-04-13T12:41:21Z</time>
<extensions>
<tp1:TrackPointExtension>
<tp1:hr>108</tp1:hr>
</tp1:TrackPointExtension>
</extensions>
</trkpt>
<trkpt lat="50.7414640" lon="6.8222140">
<ele>82.0160000</ele>
<time>2012-04-13T12:41:27Z</time>
<extensions>
<tp1:TrackPointExtension>
<tp1:hr>112</tp1:hr>
</tp1:TrackPointExtension>
</extensions>
</trkpt>
<trkpt lat="50.7413670" lon="6.8224980">
<ele>81.8470000</ele>
<time>2012-04-13T12:41:30Z</time>
<extensions>
<tp1:TrackPointExtension>
<tp1:hr>118</tp1:hr>
</tp1:TrackPointExtension>
</extensions>
</trkpt>
<trkpt lat="50.7410280" lon="6.8234930">
<ele>80.7840000</ele>
<time>2012-04-13T12:41:40Z</time>
<extensions>
<tp1:TrackPointExtension>
<tp1:hr>123</tp1:hr>
</tp1:TrackPointExtension>
</extensions>
</trkpt>
<trkpt lat="50.7406970" lon="6.8244250">
<ele>79.7580000</ele>
<time>2012-04-13T12:41:49Z</time>
<extensions>
<tp1:TrackPointExtension>
<tp1:hr>123</tp1:hr>
</tp1:TrackPointExtension>
</extensions>
</trkpt>
<trkpt lat="50.7403560" lon="6.8253930">
<ele>78.5360000</ele>
<time>2012-04-13T12:41:58Z</time>
<extensions>
<tp1:TrackPointExtension>
<tp1:hr>122</tp1:hr>
</tp1:TrackPointExtension>
</extensions>
</trkpt>
<trkpt lat="50.7401840" lon="6.8261010">
<ele>77.8960000</ele>
<time>2012-04-13T12:42:04Z</time>
<extensions>
<tp1:TrackPointExtension>
<tp1:hr>122</tp1:hr>
</tp1:TrackPointExtension>
</extensions>
</trkpt>
<trkpt lat="50.7399500" lon="6.8270220">
<ele>77.5400000</ele>
<time>2012-04-13T12:42:12Z</time>
<extensions>
<tp1:TrackPointExtension>
<tp1:hr>123</tp1:hr>
</tp1:TrackPointExtension>
</extensions>
</trkpt>
<trkpt lat="50.7396780" lon="6.8275900">
<ele>77.1860000</ele>
<time>2012-04-13T12:42:18Z</time>
<extensions>
<tp1:TrackPointExtension>
<tp1:hr>124</tp1:hr>
</tp1:TrackPointExtension>
</extensions>
</trkpt>
<trkpt lat="50.7393090" lon="6.8280390">
<ele>77.0940000</ele>
<time>2012-04-13T12:42:24Z</time>
<extensions>
<tp1:TrackPointExtension>
<tp1:hr>125</tp1:hr>
</tp1:TrackPointExtension>
</extensions>
</trkpt>
<trkpt lat="50.7388520" lon="6.8284270">
<ele>77.3220000</ele>
<time>2012-04-13T12:42:31Z</time>
<extensions>
<tp1:TrackPointExtension>
<tp1:hr>127</tp1:hr>
</tp1:TrackPointExtension>
</extensions>
</trkpt>
<trkpt lat="50.7383640" lon="6.8288940">
<ele>78.0350000</ele>
<time>2012-04-13T12:42:39Z</time>
<extensions>
<tp1:TrackPointExtension>
<tp1:hr>130</tp1:hr>
</tp1:TrackPointExtension>
</extensions>
</trkpt>
<trkpt lat="50.7380050" lon="6.8294320">
<ele>78.2820000</ele>
<time>2012-04-13T12:42:46Z</time>
<extensions>
<tp1:TrackPointExtension>
<tp1:hr>133</tp1:hr>
</tp1:TrackPointExtension>
</extensions>
</trkpt>
<trkpt lat="50.7376070" lon="6.8300970">
<ele>78.2080000</ele>
<time>2012-04-13T12:42:54Z</time>
<extensions>
<tp1:TrackPointExtension>
<tp1:hr>136</tp1:hr>
</tp1:TrackPointExtension>
</extensions>
</trkpt>
<trkpt lat="50.7371090" lon="6.8309420">
<ele>77.2580000</ele>
<time>2012-04-13T12:43:04Z</time>
<extensions>
<tp1:TrackPointExtension>
<tp1:hr>136</tp1:hr>
</tp1:TrackPointExtension>
</extensions>
</trkpt>
<trkpt lat="50.7367770" lon="6.8314720">
<ele>77.7520000</ele>
<time>2012-04-13T12:43:11Z</time>
<extensions>
<tp1:TrackPointExtension>
<tp1:hr>135</tp1:hr>
</tp1:TrackPointExtension>
</extensions>
</trkpt>
<trkpt lat="50.7364550" lon="6.8320760">
<ele>78.4610000</ele>
<time>2012-04-13T12:43:19Z</time>
<extensions>
<tp1:TrackPointExtension>
<tp1:hr>135</tp1:hr>
</tp1:TrackPointExtension>
</extensions>
</trkpt>
<trkpt lat="50.7363780" lon="6.8324890">
<ele>78.9860000</ele>
<time>2012-04-13T12:43:24Z</time>
<extensions>
<tp1:TrackPointExtension>
<tp1:hr>134</tp1:hr>
</tp1:TrackPointExtension>
</extensions>
</trkpt>
<trkpt lat="50.7364750" lon="6.8327810">
<ele>79.3700000</ele>
<time>2012-04-13T12:43:28Z</time>
<extensions>
<tp1:TrackPointExtension>
<tp1:hr>133</tp1:hr>
</tp1:TrackPointExtension>
</extensions>
</trkpt>
<trkpt lat="50.7367600" lon="6.8332490">
<ele>80.4750000</ele>
<time>2012-04-13T12:43:36Z</time>
<extensions>
<tp1:TrackPointExtension>
<tp1:hr>133</tp1:hr>
</tp1:TrackPointExtension>
</extensions>
</trkpt>
<trkpt lat="50.7368360" lon="6.8333520">
<ele>80.8540000</ele>
<time>2012-04-13T12:43:38Z</time>
<extensions>
<tp1:TrackPointExtension>
<tp1:hr>134</tp1:hr>
</tp1:TrackPointExtension>
</extensions>
</trkpt>
<trkpt lat="50.7369100" lon="6.8336420">
<ele>81.7840000</ele>
<time>2012-04-13T12:43:43Z</time>
<extensions>
<tp1:TrackPointExtension>
<tp1:hr>138</tp1:hr>
</tp1:TrackPointExtension>
</extensions>
</trkpt>
<trkpt lat="50.7368880" lon="6.8336830">
<ele>82.2300000</ele>
<time>2012-04-13T12:43:45Z</time>
<extensions>
<tp1:TrackPointExtension>
<tp1:hr>138</tp1:hr>
</tp1:TrackPointExtension>
</extensions>
</trkpt>
<trkpt lat="50.7368790" lon="6.8338980">
<ele>82.7980000</ele>
<time>2012-04-13T12:43:50Z</time>
<extensions>
<tp1:TrackPointExtension>
<tp1:hr>138</tp1:hr>
</tp1:TrackPointExtension>
</extensions>
</trkpt>
<trkpt lat="50.7369010" lon="6.8339650">
<ele>82.7990000</ele>
<time>2012-04-13T12:43:51Z</time>
<extensions>
<tp1:TrackPointExtension>
<tp1:hr>138</tp1:hr>
</tp1:TrackPointExtension>
</extensions>
</trkpt>
<trkpt lat="50.7371610" lon="6.8344940">
<ele>82.3440000</ele>
<time>2012-04-13T12:43:59Z</time>
<extensions>
<tp1:TrackPointExtension>
<tp1:hr>138</tp1:hr>
</tp1:TrackPointExtension>
</extensions>
</trkpt>
<trkpt lat="50.7370620" lon="6.8347300">
<ele>82.2920000</ele>
<time>2012-04-13T12:44:03Z</time>
<extensions>
<tp1:TrackPointExtension>
<tp1:hr>138</tp1:hr>
</tp1:TrackPointExtension>
</extensions>
</trkpt>
<trkpt lat="50.7368250" lon="6.8352540">
<ele>83.5940000</ele>
<time>2012-04-13T12:44:11Z</time>
<extensions>
<tp1:TrackPointExtension>
<tp1:hr>139</tp1:hr>
</tp1:TrackPointExtension>
</extensions>
</trkpt>
<trkpt lat="50.7365580" lon="6.8358610">
<ele>86.2490000</ele>
<time>2012-04-13T12:44:21Z</time>
<extensions>
<tp1:TrackPointExtension>
<tp1:hr>143</tp1:hr>
</tp1:TrackPointExtension>
</extensions>
</trkpt>
<trkpt lat="50.7363450" lon="6.8363250">
<ele>87.8310000</ele>
<time>2012-04-13T12:44:28Z</time>
<extensions>
<tp1:TrackPointExtension>
<tp1:hr>149</tp1:hr>
</tp1:TrackPointExtension>
</extensions>
</trkpt>
<trkpt lat="50.7360310" lon="6.8370070">
<ele>87.8090000</ele>
<time>2012-04-13T12:44:37Z</time>
<extensions>
<tp1:TrackPointExtension>
<tp1:hr>151</tp1:hr>
</tp1:TrackPointExtension>
</extensions>
</trkpt>
<trkpt lat="50.7356360" lon="6.8378880">
<ele>88.0960000</ele>
<time>2012-04-13T12:44:48Z</time>
<extensions>
<tp1:TrackPointExtension>
<tp1:hr>153</tp1:hr>
</tp1:TrackPointExtension>
</extensions>
</trkpt>
<trkpt lat="50.7353400" lon="6.8383790">
<ele>88.4770000</ele>
<time>2012-04-13T12:44:55Z</time>
<extensions>
<tp1:TrackPointExtension>
<tp1:hr>152</tp1:hr>
</tp1:TrackPointExtension>
</extensions>
</trkpt>
<trkpt lat="50.7349940" lon="6.8386530">
<ele>89.0900000</ele>
<time>2012-04-13T12:45:01Z</time>
<extensions>
<tp1:TrackPointExtension>
<tp1:hr>152</tp1:hr>
</tp1:TrackPointExtension>
</extensions>
</trkpt>
<trkpt lat="50.7344590" lon="6.8389660">
<ele>89.5080000</ele>
<time>2012-04-13T12:45:10Z</time>
<extensions>
<tp1:TrackPointExtension>
<tp1:hr>149</tp1:hr>
</tp1:TrackPointExtension>
</extensions>
</trkpt>
<trkpt lat="50.7342000" lon="6.8392800">
<ele>89.6260000</ele>
<time>2012-04-13T12:45:15Z</time>
<extensions>
<tp1:TrackPointExtension>
<tp1:hr>148</tp1:hr>
</tp1:TrackPointExtension>
</extensions>
</trkpt>
<trkpt lat="50.7339010" lon="6.8398450">
<ele>89.6670000</ele>
<time>2012-04-13T12:45:22Z</time>
<extensions>
<tp1:TrackPointExtension>
<tp1:hr>146</tp1:hr>
</tp1:TrackPointExtension>
</extensions>
</trkpt>
<trkpt lat="50.7333930" lon="6.8408480">
<ele>89.8580000</ele>
<time>2012-04-13T12:45:34Z</time>
<extensions>
<tp1:TrackPointExtension>
<tp1:hr>144</tp1:hr>
</tp1:TrackPointExtension>
</extensions>
</trkpt>
<trkpt lat="50.7330170" lon="6.8415790">
<ele>90.4440000</ele>
<time>2012-04-13T12:45:43Z</time>
<extensions>
<tp1:TrackPointExtension>
<tp1:hr>139</tp1:hr>
</tp1:TrackPointExtension>
</extensions>
</trkpt>
<trkpt lat="50.7326300" lon="6.8421420">
<ele>90.7780000</ele>
<time>2012-04-13T12:45:51Z</time>
<extensions>
<tp1:TrackPointExtension>
<tp1:hr>138</tp1:hr>
</tp1:TrackPointExtension>
</extensions>
</trkpt>
<trkpt lat="50.7321820" lon="6.8425950">
<ele>90.6560000</ele>
<time>2012-04-13T12:45:59Z</time>
<extensions>
<tp1:TrackPointExtension>
<tp1:hr>138</tp1:hr>
</tp1:TrackPointExtension>
</extensions>
</trkpt>
<trkpt lat="50.7315750" lon="6.8432000">
<ele>91.3100000</ele>
<time>2012-04-13T12:46:10Z</time>
<extensions>
<tp1:TrackPointExtension>
<tp1:hr>138</tp1:hr>
</tp1:TrackPointExtension>
</extensions>
</trkpt>
<trkpt lat="50.7310650" lon="6.8438870">
<ele>91.0390000</ele>
<time>2012-04-13T12:46:20Z</time>
<extensions>
<tp1:TrackPointExtension>
<tp1:hr>136</tp1:hr>
</tp1:TrackPointExtension>
</extensions>
</trkpt>
<trkpt lat="50.7306470" lon="6.8445930">
<ele>90.8840000</ele>
<time>2012-04-13T12:46:29Z</time>
<extensions>
<tp1:TrackPointExtension>
<tp1:hr>135</tp1:hr>
</tp1:TrackPointExtension>
</extensions>
</trkpt>
<trkpt lat="50.7302850" lon="6.8454060">
<ele>91.2000000</ele>
<time>2012-04-13T12:46:38Z</time>
<extensions>
<tp1:TrackPointExtension>
<tp1:hr>135</tp1:hr>
</tp1:TrackPointExtension>
</extensions>
</trkpt>
<trkpt lat="50.7299610" lon="6.8464030">
<ele>90.9310000</ele>
<time>2012-04-13T12:46:48Z</time>
<extensions>
<tp1:TrackPointExtension>
<tp1:hr>134</tp1:hr>
</tp1:TrackPointExtension>
</extensions>
</trkpt>
<trkpt lat="50.7297010" lon="6.8474710">
<ele>90.6240000</ele>
<time>2012-04-13T12:46:58Z</time>
<extensions>
<tp1:TrackPointExtension>
<tp1:hr>130</tp1:hr>
</tp1:TrackPointExtension>
</extensions>
</trkpt>
<trkpt lat="50.7293830" lon="6.8487700">
<ele>90.5270000</ele>
<time>2012-04-13T12:47:10Z</time>
<extensions>
<tp1:TrackPointExtension>
<tp1:hr>129</tp1:hr>
</tp1:TrackPointExtension>
</extensions>
</trkpt>
<trkpt lat="50.7290230" lon="6.8501600">
<ele>90.1060000</ele>
<time>2012-04-13T12:47:23Z</time>
<extensions>
<tp1:TrackPointExtension>
<tp1:hr>128</tp1:hr>
</tp1:TrackPointExtension>
</extensions>
</trkpt>
<trkpt lat="50.7288130" lon="6.8511380">
<ele>89.8120000</ele>
<time>2012-04-13T12:47:32Z</time>
<extensions>
<tp1:TrackPointExtension>
<tp1:hr>130</tp1:hr>
</tp1:TrackPointExtension>
</extensions>
</trkpt>
<trkpt lat="50.7287560" lon="6.8519270">
<ele>89.8540000</ele>
<time>2012-04-13T12:47:39Z</time>
<extensions>
<tp1:TrackPointExtension>
<tp1:hr>132</tp1:hr>
</tp1:TrackPointExtension>
</extensions>
</trkpt>
<trkpt lat="50.7287160" lon="6.8530610">
<ele>90.1910000</ele>
<time>2012-04-13T12:47:49Z</time>
<extensions>
<tp1:TrackPointExtension>
<tp1:hr>135</tp1:hr>
</tp1:TrackPointExtension>
</extensions>
</trkpt>
<trkpt lat="50.7285780" lon="6.8538280">
<ele>90.6330000</ele>
<time>2012-04-13T12:47:56Z</time>
<extensions>
<tp1:TrackPointExtension>
<tp1:hr>135</tp1:hr>
</tp1:TrackPointExtension>
</extensions>
</trkpt>
<trkpt lat="50.7283300" lon="6.8545190">
<ele>91.0950000</ele>
<time>2012-04-13T12:48:03Z</time>
<extensions>
<tp1:TrackPointExtension>
<tp1:hr>137</tp1:hr>
</tp1:TrackPointExtension>
</extensions>
</trkpt>
<trkpt lat="50.7279980" lon="6.8551070">
<ele>91.6440000</ele>
<time>2012-04-13T12:48:10Z</time>
<extensions>
<tp1:TrackPointExtension>
<tp1:hr>139</tp1:hr>
</tp1:TrackPointExtension>
</extensions>
</trkpt>
<trkpt lat="50.7274920" lon="6.8558880">
<ele>92.2900000</ele>
<time>2012-04-13T12:48:20Z</time>
<extensions>
<tp1:TrackPointExtension>
<tp1:hr>139</tp1:hr>
</tp1:TrackPointExtension>
</extensions>
</trkpt>
<trkpt lat="50.7271570" lon="6.8566210">
<ele>92.6880000</ele>
<time>2012-04-13T12:48:28Z</time>
<extensions>
<tp1:TrackPointExtension>
<tp1:hr>139</tp1:hr>
</tp1:TrackPointExtension>
</extensions>
</trkpt>
<trkpt lat="50.7267880" lon="6.8575950">
<ele>93.3070000</ele>
<time>2012-04-13T12:48:38Z</time>
<extensions>
<tp1:TrackPointExtension>
<tp1:hr>138</tp1:hr>
</tp1:TrackPointExtension>
</extensions>
</trkpt>
<trkpt lat="50.7264550" lon="6.8581880">
<ele>93.8820000</ele>
<time>2012-04-13T12:48:45Z</time>
<extensions>
<tp1:TrackPointExtension>
<tp1:hr>136</tp1:hr>
</tp1:TrackPointExtension>
</extensions>
</trkpt>
<trkpt lat="50.7259920" lon="6.8587430">
<ele>94.3780000</ele>
<time>2012-04-13T12:48:53Z</time>
<extensions>
<tp1:TrackPointExtension>
<tp1:hr>137</tp1:hr>
</tp1:TrackPointExtension>
</extensions>
</trkpt>
<trkpt lat="50.7254590" lon="6.8593230">
<ele>95.2500000</ele>
<time>2012-04-13T12:49:02Z</time>
<extensions>
<tp1:TrackPointExtension>
<tp1:hr>137</tp1:hr>
</tp1:TrackPointExtension>
</extensions>
</trkpt>
<trkpt lat="50.7248700" lon="6.8599700">
<ele>96.0020000</ele>
<time>2012-04-13T12:49:12Z</time>
<extensions>
<tp1:TrackPointExtension>
<tp1:hr>137</tp1:hr>
</tp1:TrackPointExtension>
</extensions>
</trkpt>
<trkpt lat="50.7244130" lon="6.8604750">
<ele>96.2790000</ele>
<time>2012-04-13T12:49:20Z</time>
<extensions>
<tp1:TrackPointExtension>
<tp1:hr>138</tp1:hr>
</tp1:TrackPointExtension>
</extensions>
</trkpt>
<trkpt lat="50.7239460" lon="6.8609930">
<ele>96.5180000</ele>
<time>2012-04-13T12:49:28Z</time>
<extensions>
<tp1:TrackPointExtension>
<tp1:hr>140</tp1:hr>
</tp1:TrackPointExtension>
</extensions>
</trkpt>
<trkpt lat="50.7235500" lon="6.8614390">
<ele>96.8650000</ele>
<time>2012-04-13T12:49:35Z</time>
<extensions>
<tp1:TrackPointExtension>
<tp1:hr>140</tp1:hr>
</tp1:TrackPointExtension>
</extensions>
</trkpt>
<trkpt lat="50.7229990" lon="6.8620840">
<ele>96.9460000</ele>
<time>2012-04-13T12:49:45Z</time>
<extensions>
<tp1:TrackPointExtension>
<tp1:hr>138</tp1:hr>
</tp1:TrackPointExtension>
</extensions>
</trkpt>
<trkpt lat="50.7224560" lon="6.8627880">
<ele>96.8630000</ele>
<time>2012-04-13T12:49:55Z</time>
<extensions>
<tp1:TrackPointExtension>
<tp1:hr>134</tp1:hr>
</tp1:TrackPointExtension>
</extensions>
</trkpt>
<trkpt lat="50.7219230" lon="6.8633940">
<ele>96.7550000</ele>
<time>2012-04-13T12:50:04Z</time>
<extensions>
<tp1:TrackPointExtension>
<tp1:hr>136</tp1:hr>
</tp1:TrackPointExtension>
</extensions>
</trkpt>
<trkpt lat="50.7212610" lon="6.8638870">
<ele>97.1470000</ele>
<time>2012-04-13T12:50:14Z</time>
<extensions>
<tp1:TrackPointExtension>
<tp1:hr>137</tp1:hr>
</tp1:TrackPointExtension>
</extensions>
</trkpt>
<trkpt lat="50.7206870" lon="6.8643740">
<ele>97.1570000</ele>
<time>2012-04-13T12:50:23Z</time>
<extensions>
<tp1:TrackPointExtension>
<tp1:hr>139</tp1:hr>
</tp1:TrackPointExtension>
</extensions>
</trkpt>
<trkpt lat="50.7201120" lon="6.8650270">
<ele>97.9220000</ele>
<time>2012-04-13T12:50:33Z</time>
<extensions>
<tp1:TrackPointExtension>
<tp1:hr>140</tp1:hr>
</tp1:TrackPointExtension>
</extensions>
</trkpt>
<trkpt lat="50.7195490" lon="6.8657260">
<ele>97.9440000</ele>
<time>2012-04-13T12:50:43Z</time>
<extensions>
<tp1:TrackPointExtension>
<tp1:hr>140</tp1:hr>
</tp1:TrackPointExtension>
</extensions>
</trkpt>
<trkpt lat="50.7191950" lon="6.8663010">
<ele>98.2070000</ele>
<time>2012-04-13T12:50:50Z</time>
<extensions>
<tp1:TrackPointExtension>
<tp1:hr>139</tp1:hr>
</tp1:TrackPointExtension>
</extensions>
</trkpt>
<trkpt lat="50.7188200" lon="6.8671340">
<ele>97.6710000</ele>
<time>2012-04-13T12:50:59Z</time>
<extensions>
<tp1:TrackPointExtension>
<tp1:hr>137</tp1:hr>
</tp1:TrackPointExtension>
</extensions>
</trkpt>
<trkpt lat="50.7186020" lon="6.8677320">
<ele>97.5040000</ele>
<time>2012-04-13T12:51:05Z</time>
<extensions>
<tp1:TrackPointExtension>
<tp1:hr>136</tp1:hr>
</tp1:TrackPointExtension>
</extensions>
</trkpt>
<trkpt lat="50.7185570" lon="6.8682930">
<ele>97.3980000</ele>
<time>2012-04-13T12:51:10Z</time>
<extensions>
<tp1:TrackPointExtension>
<tp1:hr>136</tp1:hr>
</tp1:TrackPointExtension>
</extensions>
</trkpt>
<trkpt lat="50.7186120" lon="6.8689490">
<ele>97.3000000</ele>
<time>2012-04-13T12:51:16Z</time>
<extensions>
<tp1:TrackPointExtension>
<tp1:hr>134</tp1:hr>
</tp1:TrackPointExtension>
</extensions>
</trkpt>
<trkpt lat="50.7186570" lon="6.8696310">
<ele>97.7250000</ele>
<time>2012-04-13T12:51:22Z</time>
<extensions>
<tp1:TrackPointExtension>
<tp1:hr>134</tp1:hr>
</tp1:TrackPointExtension>
</extensions>
</trkpt>
<trkpt lat="50.7186880" lon="6.8708280">
<ele>98.4540000</ele>
<time>2012-04-13T12:51:33Z</time>
<extensions>
<tp1:TrackPointExtension>
<tp1:hr>135</tp1:hr>
</tp1:TrackPointExtension>
</extensions>
</trkpt>
<trkpt lat="50.7187000" lon="6.8719170">
<ele>98.5590000</ele>
<time>2012-04-13T12:51:43Z</time>
<extensions>
<tp1:TrackPointExtension>
<tp1:hr>137</tp1:hr>
</tp1:TrackPointExtension>
</extensions>
</trkpt>
<trkpt lat="50.7186450" lon="6.8729120">
<ele>98.0480000</ele>
<time>2012-04-13T12:51:52Z</time>
<extensions>
<tp1:TrackPointExtension>
<tp1:hr>138</tp1:hr>
</tp1:TrackPointExtension>
</extensions>
</trkpt>
<trkpt lat="50.7184840" lon="6.8734240">
<ele>97.8480000</ele>
<time>2012-04-13T12:51:57Z</time>
<extensions>
<tp1:TrackPointExtension>
<tp1:hr>138</tp1:hr>
</tp1:TrackPointExtension>
</extensions>
</trkpt>
<trkpt lat="50.7182160" lon="6.8738230">
<ele>97.9300000</ele>
<time>2012-04-13T12:52:02Z</time>
<extensions>
<tp1:TrackPointExtension>
<tp1:hr>136</tp1:hr>
</tp1:TrackPointExtension>
</extensions>
</trkpt>
<trkpt lat="50.7178320" lon="6.8741250">
<ele>98.5090000</ele>
<time>2012-04-13T12:52:08Z</time>
<extensions>
<tp1:TrackPointExtension>
<tp1:hr>135</tp1:hr>
</tp1:TrackPointExtension>
</extensions>
</trkpt>
<trkpt lat="50.7171070" lon="6.8745720">
<ele>98.4360000</ele>
<time>2012-04-13T12:52:19Z</time>
<extensions>
<tp1:TrackPointExtension>
<tp1:hr>135</tp1:hr>
</tp1:TrackPointExtension>
</extensions>
</trkpt>
<trkpt lat="50.7162360" lon="6.8751400">
<ele>98.7540000</ele>
<time>2012-04-13T12:52:32Z</time>
<extensions>
<tp1:TrackPointExtension>
<tp1:hr>138</tp1:hr>
</tp1:TrackPointExtension>
</extensions>
</trkpt>
<trkpt lat="50.7155210" lon="6.8755290">
<ele>98.7180000</ele>
<time>2012-04-13T12:52:42Z</time>
<extensions>
<tp1:TrackPointExtension>
<tp1:hr>139</tp1:hr>
</tp1:TrackPointExtension>
</extensions>
</trkpt>
<trkpt lat="50.7151060" lon="6.8756820">
<ele>98.8240000</ele>
<time>2012-04-13T12:52:48Z</time>
<extensions>
<tp1:TrackPointExtension>
<tp1:hr>139</tp1:hr>
</tp1:TrackPointExtension>
</extensions>
</trkpt>
<trkpt lat="50.7145610" lon="6.8758910">
<ele>98.5590000</ele>
<time>2012-04-13T12:52:56Z</time>
<extensions>
<tp1:TrackPointExtension>
<tp1:hr>140</tp1:hr>
</tp1:TrackPointExtension>
</extensions>
</trkpt>
<trkpt lat="50.7139790" lon="6.8761620">
<ele>98.5890000</ele>
<time>2012-04-13T12:53:05Z</time>
<extensions>
<tp1:TrackPointExtension>
<tp1:hr>141</tp1:hr>
</tp1:TrackPointExtension>
</extensions>
</trkpt>
<trkpt lat="50.7134320" lon="6.8765210">
<ele>99.0930000</ele>
<time>2012-04-13T12:53:14Z</time>
<extensions>
<tp1:TrackPointExtension>
<tp1:hr>142</tp1:hr>
</tp1:TrackPointExtension>
</extensions>
</trkpt>
<trkpt lat="50.7128710" lon="6.8770080">
<ele>99.8510000</ele>
<time>2012-04-13T12:53:24Z</time>
<extensions>
<tp1:TrackPointExtension>
<tp1:hr>142</tp1:hr>
</tp1:TrackPointExtension>
</extensions>
</trkpt>
<trkpt lat="50.7123670" lon="6.8774590">
<ele>100.5870000</ele>
<time>2012-04-13T12:53:33Z</time>
<extensions>
<tp1:TrackPointExtension>
<tp1:hr>143</tp1:hr>
</tp1:TrackPointExtension>
</extensions>
</trkpt>
<trkpt lat="50.7119660" lon="6.8778150">
<ele>100.9460000</ele>
<time>2012-04-13T12:53:40Z</time>
<extensions>
<tp1:TrackPointExtension>
<tp1:hr>145</tp1:hr>
</tp1:TrackPointExtension>
</extensions>
</trkpt>
<trkpt lat="50.7116160" lon="6.8781030">
<ele>101.2730000</ele>
<time>2012-04-13T12:53:46Z</time>
<extensions>
<tp1:TrackPointExtension>
<tp1:hr>147</tp1:hr>
</tp1:TrackPointExtension>
</extensions>
</trkpt>
<trkpt lat="50.7112940" lon="6.8781570">
<ele>101.5690000</ele>
<time>2012-04-13T12:53:51Z</time>
<extensions>
<tp1:TrackPointExtension>
<tp1:hr>147</tp1:hr>
</tp1:TrackPointExtension>
</extensions>
</trkpt>
<trkpt lat="50.7109050" lon="6.8780360">
<ele>101.8330000</ele>
<time>2012-04-13T12:53:57Z</time>
<extensions>
<tp1:TrackPointExtension>
<tp1:hr>147</tp1:hr>
</tp1:TrackPointExtension>
</extensions>
</trkpt>
<trkpt lat="50.7101910" lon="6.8778050">
<ele>102.7690000</ele>
<time>2012-04-13T12:54:08Z</time>
<extensions>
<tp1:TrackPointExtension>
<tp1:hr>146</tp1:hr>
</tp1:TrackPointExtension>
</extensions>
</trkpt>
<trkpt lat="50.7098160" lon="6.8778050">
<ele>103.0570000</ele>
<time>2012-04-13T12:54:14Z</time>
<extensions>
<tp1:TrackPointExtension>
<tp1:hr>144</tp1:hr>
</tp1:TrackPointExtension>
</extensions>
</trkpt>
<trkpt lat="50.7094070" lon="6.8778470">
<ele>102.9880000</ele>
<time>2012-04-13T12:54:21Z</time>
<extensions>
<tp1:TrackPointExtension>
<tp1:hr>141</tp1:hr>
</tp1:TrackPointExtension>
</extensions>
</trkpt>
<trkpt lat="50.7092250" lon="6.8778610">
<ele>103.1160000</ele>
<time>2012-04-13T12:54:25Z</time>
<extensions>
<tp1:TrackPointExtension>
<tp1:hr>140</tp1:hr>
</tp1:TrackPointExtension>
</extensions>
</trkpt>
<trkpt lat="50.7092290" lon="6.8779320">
<ele>103.0830000</ele>
<time>2012-04-13T12:54:29Z</time>
<extensions>
<tp1:TrackPointExtension>
<tp1:hr>138</tp1:hr>
</tp1:TrackPointExtension>
</extensions>
</trkpt>
<trkpt lat="50.7092370" lon="6.8779360">
<ele>102.9370000</ele>
<time>2012-04-13T12:54:34Z</time>
<extensions>
<tp1:TrackPointExtension>
<tp1:hr>136</tp1:hr>
</tp1:TrackPointExtension>
</extensions>
</trkpt>
<trkpt lat="50.7092400" lon="6.8779370">
<ele>102.9090000</ele>
<time>2012-04-13T12:54:42Z</time>
<extensions>
<tp1:TrackPointExtension>
<tp1:hr>130</tp1:hr>
</tp1:TrackPointExtension>
</extensions>
</trkpt>
<trkpt lat="50.7092490" lon="6.8779440">
<ele>103.4830000</ele>
<time>2012-04-13T12:54:57Z</time>
<extensions>
<tp1:TrackPointExtension>
<tp1:hr>125</tp1:hr>
</tp1:TrackPointExtension>
</extensions>
</trkpt>
<trkpt lat="50.7092580" lon="6.8779670">
<ele>103.2430000</ele>
<time>2012-04-13T12:55:14Z</time>
<extensions>
<tp1:TrackPointExtension>
<tp1:hr>123</tp1:hr>
</tp1:TrackPointExtension>
</extensions>
</trkpt>
<trkpt lat="50.7092050" lon="6.8779770">
<ele>103.0830000</ele>
<time>2012-04-13T12:55:19Z</time>
<extensions>
<tp1:TrackPointExtension>
<tp1:hr>122</tp1:hr>
</tp1:TrackPointExtension>
</extensions>
</trkpt>
<trkpt lat="50.7091200" lon="6.8779670">
<ele>103.1990000</ele>
<time>2012-04-13T12:55:24Z</time>
<extensions>
<tp1:TrackPointExtension>
<tp1:hr>124</tp1:hr>
</tp1:TrackPointExtension>
</extensions>
</trkpt>
<trkpt lat="50.7091050" lon="6.8779660">
<ele>103.2420000</ele>
<time>2012-04-13T12:55:25Z</time>
<extensions>
<tp1:TrackPointExtension>
<tp1:hr>124</tp1:hr>
</tp1:TrackPointExtension>
</extensions>
</trkpt>
<trkpt lat="50.7090400" lon="6.8779740">
<ele>103.0930000</ele>
<time>2012-04-13T12:55:28Z</time>
<extensions>
<tp1:TrackPointExtension>
<tp1:hr>125</tp1:hr>
</tp1:TrackPointExtension>
</extensions>
</trkpt>
<trkpt lat="50.7088940" lon="6.8779620">
<ele>103.0800000</ele>
<time>2012-04-13T12:55:31Z</time>
<extensions>
<tp1:TrackPointExtension>
<tp1:hr>125</tp1:hr>
</tp1:TrackPointExtension>
</extensions>
</trkpt>
<trkpt lat="50.7085020" lon="6.8780180">
<ele>103.2280000</ele>
<time>2012-04-13T12:55:37Z</time>
<extensions>
<tp1:TrackPointExtension>
<tp1:hr>127</tp1:hr>
</tp1:TrackPointExtension>
</extensions>
</trkpt>
<trkpt lat="50.7081620" lon="6.8780910">
<ele>103.3910000</ele>
<time>2012-04-13T12:55:42Z</time>
<extensions>
<tp1:TrackPointExtension>
<tp1:hr>132</tp1:hr>
</tp1:TrackPointExtension>
</extensions>
</trkpt>
<trkpt lat="50.7075430" lon="6.8781980">
<ele>103.6780000</ele>
<time>2012-04-13T12:55:51Z</time>
<extensions>
<tp1:TrackPointExtension>
<tp1:hr>135</tp1:hr>
</tp1:TrackPointExtension>
</extensions>
</trkpt>
<trkpt lat="50.7068670" lon="6.8783180">
<ele>103.8390000</ele>
<time>2012-04-13T12:56:01Z</time>
<extensions>
<tp1:TrackPointExtension>
<tp1:hr>139</tp1:hr>
</tp1:TrackPointExtension>
</extensions>
</trkpt>
<trkpt lat="50.7061210" lon="6.8784570">
<ele>104.1620000</ele>
<time>2012-04-13T12:56:12Z</time>
<extensions>
<tp1:TrackPointExtension>
<tp1:hr>141</tp1:hr>
</tp1:TrackPointExtension>
</extensions>
</trkpt>
<trkpt lat="50.7054370" lon="6.8785990">
<ele>104.1030000</ele>
<time>2012-04-13T12:56:22Z</time>
<extensions>
<tp1:TrackPointExtension>
<tp1:hr>140</tp1:hr>
</tp1:TrackPointExtension>
</extensions>
</trkpt>
<trkpt lat="50.7046960" lon="6.8788550">
<ele>103.9900000</ele>
<time>2012-04-13T12:56:33Z</time>
<extensions>
<tp1:TrackPointExtension>
<tp1:hr>139</tp1:hr>
</tp1:TrackPointExtension>
</extensions>
</trkpt>
<trkpt lat="50.7040200" lon="6.8791680">
<ele>103.7720000</ele>
<time>2012-04-13T12:56:43Z</time>
<extensions>
<tp1:TrackPointExtension>
<tp1:hr>139</tp1:hr>
</tp1:TrackPointExtension>
</extensions>
</trkpt>
<trkpt lat="50.7031460" lon="6.8796130">
<ele>104.1760000</ele>
<time>2012-04-13T12:56:56Z</time>
<extensions>
<tp1:TrackPointExtension>
<tp1:hr>137</tp1:hr>
</tp1:TrackPointExtension>
</extensions>
</trkpt>
<trkpt lat="50.7022050" lon="6.8800880">
<ele>104.7610000</ele>
<time>2012-04-13T12:57:10Z</time>
<extensions>
<tp1:TrackPointExtension>
<tp1:hr>135</tp1:hr>
</tp1:TrackPointExtension>
</extensions>
</trkpt>
<trkpt lat="50.7013890" lon="6.8805000">
<ele>105.4860000</ele>
<time>2012-04-13T12:57:22Z</time>
<extensions>
<tp1:TrackPointExtension>
<tp1:hr>135</tp1:hr>
</tp1:TrackPointExtension>
</extensions>
</trkpt>
<trkpt lat="50.7007850" lon="6.8808040">
<ele>105.8820000</ele>
<time>2012-04-13T12:57:31Z</time>
<extensions>
<tp1:TrackPointExtension>
<tp1:hr>136</tp1:hr>
</tp1:TrackPointExtension>
</extensions>
</trkpt>
<trkpt lat="50.7000590" lon="6.8811650">
<ele>105.8940000</ele>
<time>2012-04-13T12:57:42Z</time>
<extensions>
<tp1:TrackPointExtension>
<tp1:hr>138</tp1:hr>
</tp1:TrackPointExtension>
</extensions>
</trkpt>
<trkpt lat="50.6991860" lon="6.8816060">
<ele>105.5790000</ele>
<time>2012-04-13T12:57:55Z</time>
<extensions>
<tp1:TrackPointExtension>
<tp1:hr>137</tp1:hr>
</tp1:TrackPointExtension>
</extensions>
</trkpt>
<trkpt lat="50.6982410" lon="6.8820860">
<ele>105.7650000</ele>
<time>2012-04-13T12:58:09Z</time>
<extensions>
<tp1:TrackPointExtension>
<tp1:hr>133</tp1:hr>
</tp1:TrackPointExtension>
</extensions>
</trkpt>
<trkpt lat="50.6974820" lon="6.8824580">
<ele>105.8730000</ele>
<time>2012-04-13T12:58:20Z</time>
<extensions>
<tp1:TrackPointExtension>
<tp1:hr>132</tp1:hr>
</tp1:TrackPointExtension>
</extensions>
</trkpt>
<trkpt lat="50.6967300" lon="6.8829200">
<ele>105.4860000</ele>
<time>2012-04-13T12:58:31Z</time>
<extensions>
<tp1:TrackPointExtension>
<tp1:hr>133</tp1:hr>
</tp1:TrackPointExtension>
</extensions>
</trkpt>
<trkpt lat="50.6962410" lon="6.8834250">
<ele>105.5640000</ele>
<time>2012-04-13T12:58:39Z</time>
<extensions>
<tp1:TrackPointExtension>
<tp1:hr>133</tp1:hr>
</tp1:TrackPointExtension>
</extensions>
</trkpt>
<trkpt lat="50.6958770" lon="6.8839750">
<ele>105.6570000</ele>
<time>2012-04-13T12:58:46Z</time>
<extensions>
<tp1:TrackPointExtension>
<tp1:hr>135</tp1:hr>
</tp1:TrackPointExtension>
</extensions>
</trkpt>
<trkpt lat="50.6955730" lon="6.8845990">
<ele>105.5550000</ele>
<time>2012-04-13T12:58:53Z</time>
<extensions>
<tp1:TrackPointExtension>
<tp1:hr>135</tp1:hr>
</tp1:TrackPointExtension>
</extensions>
</trkpt>
<trkpt lat="50.6952760" lon="6.8853650">
<ele>105.3580000</ele>
<time>2012-04-13T12:59:01Z</time>
<extensions>
<tp1:TrackPointExtension>
<tp1:hr>134</tp1:hr>
</tp1:TrackPointExtension>
</extensions>
</trkpt>
<trkpt lat="50.6949840" lon="6.8861480">
<ele>105.7420000</ele>
<time>2012-04-13T12:59:09Z</time>
<extensions>
<tp1:TrackPointExtension>
<tp1:hr>133</tp1:hr>
</tp1:TrackPointExtension>
</extensions>
</trkpt>
<trkpt lat="50.6946900" lon="6.8869200">
<ele>105.7690000</ele>
<time>2012-04-13T12:59:17Z</time>
<extensions>
<tp1:TrackPointExtension>
<tp1:hr>134</tp1:hr>
</tp1:TrackPointExtension>
</extensions>
</trkpt>
<trkpt lat="50.6944930" lon="6.8873660">
<ele>106.1440000</ele>
<time>2012-04-13T12:59:22Z</time>
<extensions>
<tp1:TrackPointExtension>
<tp1:hr>135</tp1:hr>
</tp1:TrackPointExtension>
</extensions>
</trkpt>
<trkpt lat="50.6941260" lon="6.8880850">
<ele>106.3670000</ele>
<time>2012-04-13T12:59:30Z</time>
<extensions>
<tp1:TrackPointExtension>
<tp1:hr>135</tp1:hr>
</tp1:TrackPointExtension>
</extensions>
</trkpt>
<trkpt lat="50.6936680" lon="6.8889810">
<ele>106.7060000</ele>
<time>2012-04-13T12:59:40Z</time>
<extensions>
<tp1:TrackPointExtension>
<tp1:hr>139</tp1:hr>
</tp1:TrackPointExtension>
</extensions>
</trkpt>
<trkpt lat="50.6931700" lon="6.8899650">
<ele>106.8530000</ele>
<time>2012-04-13T12:59:51Z</time>
<extensions>
<tp1:TrackPointExtension>
<tp1:hr>141</tp1:hr>
</tp1:TrackPointExtension>
</extensions>
</trkpt>
<trkpt lat="50.6926960" lon="6.8908970">
<ele>107.5050000</ele>
<time>2012-04-13T13:00:02Z</time>
<extensions>
<tp1:TrackPointExtension>
<tp1:hr>142</tp1:hr>
</tp1:TrackPointExtension>
</extensions>
</trkpt>
<trkpt lat="50.6921750" lon="6.8919220">
<ele>107.2080000</ele>
<time>2012-04-13T13:00:14Z</time>
<extensions>
<tp1:TrackPointExtension>
<tp1:hr>141</tp1:hr>
</tp1:TrackPointExtension>
</extensions>
</trkpt>
<trkpt lat="50.6917870" lon="6.8925830">
<ele>107.3660000</ele>
<time>2012-04-13T13:00:22Z</time>
<extensions>
<tp1:TrackPointExtension>
<tp1:hr>141</tp1:hr>
</tp1:TrackPointExtension>
</extensions>
</trkpt>
<trkpt lat="50.6912870" lon="6.8932550">
<ele>107.1630000</ele>
<time>2012-04-13T13:00:31Z</time>
<extensions>
<tp1:TrackPointExtension>
<tp1:hr>140</tp1:hr>
</tp1:TrackPointExtension>
</extensions>
</trkpt>
<trkpt lat="50.6908070" lon="6.8937890">
<ele>106.3220000</ele>
<time>2012-04-13T13:00:39Z</time>
<extensions>
<tp1:TrackPointExtension>
<tp1:hr>135</tp1:hr>
</tp1:TrackPointExtension>
</extensions>
</trkpt>
<trkpt lat="50.6906250" lon="6.8939840">
<ele>106.0030000</ele>
<time>2012-04-13T13:00:42Z</time>
<extensions>
<tp1:TrackPointExtension>
<tp1:hr>130</tp1:hr>
</tp1:TrackPointExtension>
</extensions>
</trkpt>
<trkpt lat="50.6903170" lon="6.8943090">
<ele>105.0990000</ele>
<time>2012-04-13T13:00:47Z</time>
<extensions>
<tp1:TrackPointExtension>
<tp1:hr>125</tp1:hr>
</tp1:TrackPointExtension>
</extensions>
</trkpt>
<trkpt lat="50.6900690" lon="6.8945620">
<ele>104.2340000</ele>
<time>2012-04-13T13:00:51Z</time>
<extensions>
<tp1:TrackPointExtension>
<tp1:hr>122</tp1:hr>
</tp1:TrackPointExtension>
</extensions>
</trkpt>
<trkpt lat="50.6896730" lon="6.8950280">
<ele>103.4420000</ele>
<time>2012-04-13T13:00:58Z</time>
<extensions>
<tp1:TrackPointExtension>
<tp1:hr>120</tp1:hr>
</tp1:TrackPointExtension>
</extensions>
</trkpt>
<trkpt lat="50.6891330" lon="6.8956280">
<ele>103.8170000</ele>
<time>2012-04-13T13:01:08Z</time>
<extensions>
<tp1:TrackPointExtension>
<tp1:hr>122</tp1:hr>
</tp1:TrackPointExtension>
</extensions>
</trkpt>
<trkpt lat="50.6887580" lon="6.8961200">
<ele>104.4130000</ele>
<time>2012-04-13T13:01:16Z</time>
<extensions>
<tp1:TrackPointExtension>
<tp1:hr>125</tp1:hr>
</tp1:TrackPointExtension>
</extensions>
</trkpt>
<trkpt lat="50.6885440" lon="6.8963850">
<ele>104.8420000</ele>
<time>2012-04-13T13:01:21Z</time>
<extensions>
<tp1:TrackPointExtension>
<tp1:hr>127</tp1:hr>
</tp1:TrackPointExtension>
</extensions>
</trkpt>
<trkpt lat="50.6884010" lon="6.8966540">
<ele>105.5250000</ele>
<time>2012-04-13T13:01:25Z</time>
<extensions>
<tp1:TrackPointExtension>
<tp1:hr>130</tp1:hr>
</tp1:TrackPointExtension>
</extensions>
</trkpt>
<trkpt lat="50.6883540" lon="6.8967080">
<ele>105.6820000</ele>
<time>2012-04-13T13:01:26Z</time>
<extensions>
<tp1:TrackPointExtension>
<tp1:hr>131</tp1:hr>
</tp1:TrackPointExtension>
</extensions>
</trkpt>
<trkpt lat="50.6880340" lon="6.8969740">
<ele>106.2310000</ele>
<time>2012-04-13T13:01:32Z</time>
<extensions>
<tp1:TrackPointExtension>
<tp1:hr>136</tp1:hr>
</tp1:TrackPointExtension>
</extensions>
</trkpt>
<trkpt lat="50.6876230" lon="6.8970930">
<ele>106.5550000</ele>
<time>2012-04-13T13:01:39Z</time>
<extensions>
<tp1:TrackPointExtension>
<tp1:hr>138</tp1:hr>
</tp1:TrackPointExtension>
</extensions>
</trkpt>
<trkpt lat="50.6870570" lon="6.8971200">
<ele>106.6070000</ele>
<time>2012-04-13T13:01:48Z</time>
<extensions>
<tp1:TrackPointExtension>
<tp1:hr>140</tp1:hr>
</tp1:TrackPointExtension>
</extensions>
</trkpt>
<trkpt lat="50.6863520" lon="6.8971390">
<ele>106.3520000</ele>
<time>2012-04-13T13:01:59Z</time>
<extensions>
<tp1:TrackPointExtension>
<tp1:hr>138</tp1:hr>
</tp1:TrackPointExtension>
</extensions>
</trkpt>
<trkpt lat="50.6861580" lon="6.8971520">
<ele>106.3180000</ele>
<time>2012-04-13T13:02:02Z</time>
<extensions>
<tp1:TrackPointExtension>
<tp1:hr>138</tp1:hr>
</tp1:TrackPointExtension>
</extensions>
</trkpt>
<trkpt lat="50.6859330" lon="6.8973420">
<ele>106.2360000</ele>
<time>2012-04-13T13:02:06Z</time>
<extensions>
<tp1:TrackPointExtension>
<tp1:hr>137</tp1:hr>
</tp1:TrackPointExtension>
</extensions>
</trkpt>
<trkpt lat="50.6854890" lon="6.8979620">
<ele>106.1840000</ele>
<time>2012-04-13T13:02:15Z</time>
<extensions>
<tp1:TrackPointExtension>
<tp1:hr>136</tp1:hr>
</tp1:TrackPointExtension>
</extensions>
</trkpt>
<trkpt lat="50.6848340" lon="6.8988670">
<ele>106.4520000</ele>
<time>2012-04-13T13:02:28Z</time>
<extensions>
<tp1:TrackPointExtension>
<tp1:hr>136</tp1:hr>
</tp1:TrackPointExtension>
</extensions>
</trkpt>
<trkpt lat="50.6841160" lon="6.8998280">
<ele>106.6720000</ele>
<time>2012-04-13T13:02:42Z</time>
<extensions>
<tp1:TrackPointExtension>
<tp1:hr>134</tp1:hr>
</tp1:TrackPointExtension>
</extensions>
</trkpt>
<trkpt lat="50.6835130" lon="6.9005070">
<ele>107.0390000</ele>
<time>2012-04-13T13:02:53Z</time>
<extensions>
<tp1:TrackPointExtension>
<tp1:hr>135</tp1:hr>
</tp1:TrackPointExtension>
</extensions>
</trkpt>
<trkpt lat="50.6826630" lon="6.9013930">
<ele>107.1480000</ele>
<time>2012-04-13T13:03:08Z</time>
<extensions>
<tp1:TrackPointExtension>
<tp1:hr>137</tp1:hr>
</tp1:TrackPointExtension>
</extensions>
</trkpt>
<trkpt lat="50.6820410" lon="6.9020330">
<ele>107.3130000</ele>
<time>2012-04-13T13:03:19Z</time>
<extensions>
<tp1:TrackPointExtension>
<tp1:hr>135</tp1:hr>
</tp1:TrackPointExtension>
</extensions>
</trkpt>
<trkpt lat="50.6813130" lon="6.9027840">
<ele>107.6130000</ele>
<time>2012-04-13T13:03:32Z</time>
<extensions>
<tp1:TrackPointExtension>
<tp1:hr>134</tp1:hr>
</tp1:TrackPointExtension>
</extensions>
</trkpt>
<trkpt lat="50.6806400" lon="6.9034810">
<ele>107.8350000</ele>
<time>2012-04-13T13:03:44Z</time>
<extensions>
<tp1:TrackPointExtension>
<tp1:hr>135</tp1:hr>
</tp1:TrackPointExtension>
</extensions>
</trkpt>
<trkpt lat="50.6800210" lon="6.9041170">
<ele>108.2520000</ele>
<time>2012-04-13T13:03:55Z</time>
<extensions>
<tp1:TrackPointExtension>
<tp1:hr>137</tp1:hr>
</tp1:TrackPointExtension>
</extensions>
</trkpt>
<trkpt lat="50.6792920" lon="6.9048710">
<ele>108.2070000</ele>
<time>2012-04-13T13:04:08Z</time>
<extensions>
<tp1:TrackPointExtension>
<tp1:hr>140</tp1:hr>
</tp1:TrackPointExtension>
</extensions>
</trkpt>
<trkpt lat="50.6787150" lon="6.9054080">
<ele>108.5050000</ele>
<time>2012-04-13T13:04:18Z</time>
<extensions>
<tp1:TrackPointExtension>
<tp1:hr>140</tp1:hr>
</tp1:TrackPointExtension>
</extensions>
</trkpt>
<trkpt lat="50.6782140" lon="6.9057140">
<ele>108.6350000</ele>
<time>2012-04-13T13:04:26Z</time>
<extensions>
<tp1:TrackPointExtension>
<tp1:hr>140</tp1:hr>
</tp1:TrackPointExtension>
</extensions>
</trkpt>
<trkpt lat="50.6774500" lon="6.9060970">
<ele>108.4710000</ele>
<time>2012-04-13T13:04:38Z</time>
<extensions>
<tp1:TrackPointExtension>
<tp1:hr>141</tp1:hr>
</tp1:TrackPointExtension>
</extensions>
</trkpt>
<trkpt lat="50.6768850" lon="6.9064590">
<ele>108.1100000</ele>
<time>2012-04-13T13:04:47Z</time>
<extensions>
<tp1:TrackPointExtension>
<tp1:hr>139</tp1:hr>
</tp1:TrackPointExtension>
</extensions>
</trkpt>
<trkpt lat="50.6764250" lon="6.9069230">
<ele>108.2580000</ele>
<time>2012-04-13T13:04:55Z</time>
<extensions>
<tp1:TrackPointExtension>
<tp1:hr>139</tp1:hr>
</tp1:TrackPointExtension>
</extensions>
</trkpt>
<trkpt lat="50.6759670" lon="6.9075890">
<ele>107.5800000</ele>
<time>2012-04-13T13:05:04Z</time>
<extensions>
<tp1:TrackPointExtension>
<tp1:hr>138</tp1:hr>
</tp1:TrackPointExtension>
</extensions>
</trkpt>
<trkpt lat="50.6756100" lon="6.9082680">
<ele>107.1960000</ele>
<time>2012-04-13T13:05:12Z</time>
<extensions>
<tp1:TrackPointExtension>
<tp1:hr>138</tp1:hr>
</tp1:TrackPointExtension>
</extensions>
</trkpt>
<trkpt lat="50.6751560" lon="6.9091040">
<ele>107.0910000</ele>
<time>2012-04-13T13:05:22Z</time>
<extensions>
<tp1:TrackPointExtension>
<tp1:hr>134</tp1:hr>
</tp1:TrackPointExtension>
</extensions>
</trkpt>
<trkpt lat="50.6747100" lon="6.9097550">
<ele>107.2590000</ele>
<time>2012-04-13T13:05:31Z</time>
<extensions>
<tp1:TrackPointExtension>
<tp1:hr>134</tp1:hr>
</tp1:TrackPointExtension>
</extensions>
</trkpt>
<trkpt lat="50.6742150" lon="6.9102960">
<ele>107.6810000</ele>
<time>2012-04-13T13:05:40Z</time>
<extensions>
<tp1:TrackPointExtension>
<tp1:hr>136</tp1:hr>
</tp1:TrackPointExtension>
</extensions>
</trkpt>
<trkpt lat="50.6736220" lon="6.9107680">
<ele>107.8600000</ele>
<time>2012-04-13T13:05:50Z</time>
<extensions>
<tp1:TrackPointExtension>
<tp1:hr>139</tp1:hr>
</tp1:TrackPointExtension>
</extensions>
</trkpt>
<trkpt lat="50.6726720" lon="6.9113670">
<ele>108.8070000</ele>
<time>2012-04-13T13:06:06Z</time>
<extensions>
<tp1:TrackPointExtension>
<tp1:hr>138</tp1:hr>
</tp1:TrackPointExtension>
</extensions>
</trkpt>
<trkpt lat="50.6720360" lon="6.9117350">
<ele>109.3580000</ele>
<time>2012-04-13T13:06:17Z</time>
<extensions>
<tp1:TrackPointExtension>
<tp1:hr>138</tp1:hr>
</tp1:TrackPointExtension>
</extensions>
</trkpt>
<trkpt lat="50.6717880" lon="6.9117870">
<ele>109.6510000</ele>
<time>2012-04-13T13:06:21Z</time>
<extensions>
<tp1:TrackPointExtension>
<tp1:hr>138</tp1:hr>
</tp1:TrackPointExtension>
</extensions>
</trkpt>
<trkpt lat="50.6714010" lon="6.9116640">
<ele>109.0300000</ele>
<time>2012-04-13T13:06:28Z</time>
<extensions>
<tp1:TrackPointExtension>
<tp1:hr>135</tp1:hr>
</tp1:TrackPointExtension>
</extensions>
</trkpt>
<trkpt lat="50.6713080" lon="6.9115850">
<ele>108.8090000</ele>
<time>2012-04-13T13:06:32Z</time>
<extensions>
<tp1:TrackPointExtension>
<tp1:hr>132</tp1:hr>
</tp1:TrackPointExtension>
</extensions>
</trkpt>
<trkpt lat="50.6712340" lon="6.9115790">
<ele>108.6020000</ele>
<time>2012-04-13T13:06:37Z</time>
<extensions>
<tp1:TrackPointExtension>
<tp1:hr>131</tp1:hr>
</tp1:TrackPointExtension>
</extensions>
</trkpt>
<trkpt lat="50.6711120" lon="6.9118310">
<ele>108.0650000</ele>
<time>2012-04-13T13:06:41Z</time>
<extensions>
<tp1:TrackPointExtension>
<tp1:hr>132</tp1:hr>
</tp1:TrackPointExtension>
</extensions>
</trkpt>
<trkpt lat="50.6708290" lon="6.9124630">
<ele>107.8080000</ele>
<time>2012-04-13T13:06:49Z</time>
<extensions>
<tp1:TrackPointExtension>
<tp1:hr>137</tp1:hr>
</tp1:TrackPointExtension>
</extensions>
</trkpt>
<trkpt lat="50.6704230" lon="6.9133280">
<ele>108.0350000</ele>
<time>2012-04-13T13:07:00Z</time>
<extensions>
<tp1:TrackPointExtension>
<tp1:hr>139</tp1:hr>
</tp1:TrackPointExtension>
</extensions>
</trkpt>
<trkpt lat="50.6703150" lon="6.9135730">
<ele>107.8980000</ele>
<time>2012-04-13T13:07:03Z</time>
<extensions>
<tp1:TrackPointExtension>
<tp1:hr>139</tp1:hr>
</tp1:TrackPointExtension>
</extensions>
</trkpt>
<trkpt lat="50.6702070" lon="6.9139490">
<ele>107.8410000</ele>
<time>2012-04-13T13:07:07Z</time>
<extensions>
<tp1:TrackPointExtension>
<tp1:hr>138</tp1:hr>
</tp1:TrackPointExtension>
</extensions>
</trkpt>
<trkpt lat="50.6700980" lon="6.9145720">
<ele>107.8320000</ele>
<time>2012-04-13T13:07:13Z</time>
<extensions>
<tp1:TrackPointExtension>
<tp1:hr>138</tp1:hr>
</tp1:TrackPointExtension>
</extensions>
</trkpt>
<trkpt lat="50.6699360" lon="6.9148860">
<ele>107.9270000</ele>
<time>2012-04-13T13:07:17Z</time>
<extensions>
<tp1:TrackPointExtension>
<tp1:hr>138</tp1:hr>
</tp1:TrackPointExtension>
</extensions>
</trkpt>
<trkpt lat="50.6698460" lon="6.9150100">
<ele>108.0850000</ele>
<time>2012-04-13T13:07:19Z</time>
<extensions>
<tp1:TrackPointExtension>
<tp1:hr>138</tp1:hr>
</tp1:TrackPointExtension>
</extensions>
</trkpt>
<trkpt lat="50.6697250" lon="6.9153610">
<ele>108.5460000</ele>
<time>2012-04-13T13:07:23Z</time>
<extensions>
<tp1:TrackPointExtension>
<tp1:hr>138</tp1:hr>
</tp1:TrackPointExtension>
</extensions>
</trkpt>
<trkpt lat="50.6696260" lon="6.9156190">
<ele>108.8800000</ele>
<time>2012-04-13T13:07:26Z</time>
<extensions>
<tp1:TrackPointExtension>
<tp1:hr>139</tp1:hr>
</tp1:TrackPointExtension>
</extensions>
</trkpt>
<trkpt lat="50.6693890" lon="6.9161830">
<ele>109.7330000</ele>
<time>2012-04-13T13:07:33Z</time>
<extensions>
<tp1:TrackPointExtension>
<tp1:hr>142</tp1:hr>
</tp1:TrackPointExtension>
</extensions>
</trkpt>
<trkpt lat="50.6690760" lon="6.9167900">
<ele>110.0800000</ele>
<time>2012-04-13T13:07:41Z</time>
<extensions>
<tp1:TrackPointExtension>
<tp1:hr>146</tp1:hr>
</tp1:TrackPointExtension>
</extensions>
</trkpt>
<trkpt lat="50.6688410" lon="6.9173930">
<ele>110.3140000</ele>
<time>2012-04-13T13:07:48Z</time>
<extensions>
<tp1:TrackPointExtension>
<tp1:hr>146</tp1:hr>
</tp1:TrackPointExtension>
</extensions>
</trkpt>
<trkpt lat="50.6685900" lon="6.9180380">
<ele>110.4060000</ele>
<time>2012-04-13T13:07:56Z</time>
<extensions>
<tp1:TrackPointExtension>
<tp1:hr>146</tp1:hr>
</tp1:TrackPointExtension>
</extensions>
</trkpt>
<trkpt lat="50.6683030" lon="6.9187650">
<ele>110.6510000</ele>
<time>2012-04-13T13:08:05Z</time>
<extensions>
<tp1:TrackPointExtension>
<tp1:hr>145</tp1:hr>
</tp1:TrackPointExtension>
</extensions>
</trkpt>
<trkpt lat="50.6681240" lon="6.9192770">
<ele>110.8370000</ele>
<time>2012-04-13T13:08:11Z</time>
<extensions>
<tp1:TrackPointExtension>
<tp1:hr>143</tp1:hr>
</tp1:TrackPointExtension>
</extensions>
</trkpt>
<trkpt lat="50.6681270" lon="6.9196610">
<ele>111.0580000</ele>
<time>2012-04-13T13:08:15Z</time>
<extensions>
<tp1:TrackPointExtension>
<tp1:hr>143</tp1:hr>
</tp1:TrackPointExtension>
</extensions>
</trkpt>
<trkpt lat="50.6681780" lon="6.9199600">
<ele>111.4170000</ele>
<time>2012-04-13T13:08:18Z</time>
<extensions>
<tp1:TrackPointExtension>
<tp1:hr>142</tp1:hr>
</tp1:TrackPointExtension>
</extensions>
</trkpt>
<trkpt lat="50.6682280" lon="6.9210910">
<ele>111.5430000</ele>
<time>2012-04-13T13:08:29Z</time>
<extensions>
<tp1:TrackPointExtension>
<tp1:hr>141</tp1:hr>
</tp1:TrackPointExtension>
</extensions>
</trkpt>
<trkpt lat="50.6682260" lon="6.9217810">
<ele>110.3820000</ele>
<time>2012-04-13T13:08:35Z</time>
<extensions>
<tp1:TrackPointExtension>
<tp1:hr>136</tp1:hr>
</tp1:TrackPointExtension>
</extensions>
</trkpt>
<trkpt lat="50.6682300" lon="6.9228630">
<ele>109.1950000</ele>
<time>2012-04-13T13:08:44Z</time>
<extensions>
<tp1:TrackPointExtension>
<tp1:hr>133</tp1:hr>
</tp1:TrackPointExtension>
</extensions>
</trkpt>
<trkpt lat="50.6681960" lon="6.9236800">
<ele>109.6010000</ele>
<time>2012-04-13T13:08:53Z</time>
<extensions>
<tp1:TrackPointExtension>
<tp1:hr>131</tp1:hr>
</tp1:TrackPointExtension>
</extensions>
</trkpt>
<trkpt lat="50.6681310" lon="6.9247660">
<ele>109.9080000</ele>
<time>2012-04-13T13:09:04Z</time>
<extensions>
<tp1:TrackPointExtension>
<tp1:hr>135</tp1:hr>
</tp1:TrackPointExtension>
</extensions>
</trkpt>
<trkpt lat="50.6680640" lon="6.9257990">
<ele>109.5720000</ele>
<time>2012-04-13T13:09:14Z</time>
<extensions>
<tp1:TrackPointExtension>
<tp1:hr>133</tp1:hr>
</tp1:TrackPointExtension>
</extensions>
</trkpt>
<trkpt lat="50.6679880" lon="6.9266390">
<ele>109.2880000</ele>
<time>2012-04-13T13:09:22Z</time>
<extensions>
<tp1:TrackPointExtension>
<tp1:hr>133</tp1:hr>
</tp1:TrackPointExtension>
</extensions>
</trkpt>
<trkpt lat="50.6678370" lon="6.9273450">
<ele>109.0130000</ele>
<time>2012-04-13T13:09:29Z</time>
<extensions>
<tp1:TrackPointExtension>
<tp1:hr>135</tp1:hr>
</tp1:TrackPointExtension>
</extensions>
</trkpt>
<trkpt lat="50.6675760" lon="6.9280990">
<ele>108.8230000</ele>
<time>2012-04-13T13:09:37Z</time>
<extensions>
<tp1:TrackPointExtension>
<tp1:hr>135</tp1:hr>
</tp1:TrackPointExtension>
</extensions>
</trkpt>
<trkpt lat="50.6671100" lon="6.9293020">
<ele>108.6470000</ele>
<time>2012-04-13T13:09:50Z</time>
<extensions>
<tp1:TrackPointExtension>
<tp1:hr>136</tp1:hr>
</tp1:TrackPointExtension>
</extensions>
</trkpt>
<trkpt lat="50.6666560" lon="6.9304960">
<ele>108.2620000</ele>
<time>2012-04-13T13:10:03Z</time>
<extensions>
<tp1:TrackPointExtension>
<tp1:hr>135</tp1:hr>
</tp1:TrackPointExtension>
</extensions>
</trkpt>
<trkpt lat="50.6664180" lon="6.9314080">
<ele>107.8700000</ele>
<time>2012-04-13T13:10:12Z</time>
<extensions>
<tp1:TrackPointExtension>
<tp1:hr>135</tp1:hr>
</tp1:TrackPointExtension>
</extensions>
</trkpt>
<trkpt lat="50.6660890" lon="6.9327460">
<ele>107.6140000</ele>
<time>2012-04-13T13:10:25Z</time>
<extensions>
<tp1:TrackPointExtension>
<tp1:hr>136</tp1:hr>
</tp1:TrackPointExtension>
</extensions>
</trkpt>
<trkpt lat="50.6656720" lon="6.9341450">
<ele>107.1020000</ele>
<time>2012-04-13T13:10:39Z</time>
<extensions>
<tp1:TrackPointExtension>
<tp1:hr>135</tp1:hr>
</tp1:TrackPointExtension>
</extensions>
</trkpt>
<trkpt lat="50.6654400" lon="6.9349640">
<ele>107.1500000</ele>
<time>2012-04-13T13:10:47Z</time>
<extensions>
<tp1:TrackPointExtension>
<tp1:hr>135</tp1:hr>
</tp1:TrackPointExtension>
</extensions>
</trkpt>
<trkpt lat="50.6653960" lon="6.9356420">
<ele>106.8550000</ele>
<time>2012-04-13T13:10:53Z</time>
<extensions>
<tp1:TrackPointExtension>
<tp1:hr>135</tp1:hr>
</tp1:TrackPointExtension>
</extensions>
</trkpt>
<trkpt lat="50.6654280" lon="6.9365690">
<ele>106.5730000</ele>
<time>2012-04-13T13:11:01Z</time>
<extensions>
<tp1:TrackPointExtension>
<tp1:hr>137</tp1:hr>
</tp1:TrackPointExtension>
</extensions>
</trkpt>
<trkpt lat="50.6654810" lon="6.9380770">
<ele>106.2760000</ele>
<time>2012-04-13T13:11:14Z</time>
<extensions>
<tp1:TrackPointExtension>
<tp1:hr>137</tp1:hr>
</tp1:TrackPointExtension>
</extensions>
</trkpt>
<trkpt lat="50.6654750" lon="6.9390050">
<ele>105.8730000</ele>
<time>2012-04-13T13:11:22Z</time>
<extensions>
<tp1:TrackPointExtension>
<tp1:hr>138</tp1:hr>
</tp1:TrackPointExtension>
</extensions>
</trkpt>
<trkpt lat="50.6653690" lon="6.9398010">
<ele>105.4960000</ele>
<time>2012-04-13T13:11:29Z</time>
<extensions>
<tp1:TrackPointExtension>
<tp1:hr>138</tp1:hr>
</tp1:TrackPointExtension>
</extensions>
</trkpt>
<trkpt lat="50.6651510" lon="6.9406610">
<ele>105.4940000</ele>
<time>2012-04-13T13:11:37Z</time>
<extensions>
<tp1:TrackPointExtension>
<tp1:hr>138</tp1:hr>
</tp1:TrackPointExtension>
</extensions>
</trkpt>
<trkpt lat="50.6647100" lon="6.9421030">
<ele>105.9060000</ele>
<time>2012-04-13T13:11:51Z</time>
<extensions>
<tp1:TrackPointExtension>
<tp1:hr>137</tp1:hr>
</tp1:TrackPointExtension>
</extensions>
</trkpt>
<trkpt lat="50.6643710" lon="6.9432090">
<ele>106.3350000</ele>
<time>2012-04-13T13:12:02Z</time>
<extensions>
<tp1:TrackPointExtension>
<tp1:hr>139</tp1:hr>
</tp1:TrackPointExtension>
</extensions>
</trkpt>
<trkpt lat="50.6640530" lon="6.9442420">
<ele>106.9530000</ele>
<time>2012-04-13T13:12:13Z</time>
<extensions>
<tp1:TrackPointExtension>
<tp1:hr>140</tp1:hr>
</tp1:TrackPointExtension>
</extensions>
</trkpt>
<trkpt lat="50.6637130" lon="6.9453530">
<ele>107.4070000</ele>
<time>2012-04-13T13:12:25Z</time>
<extensions>
<tp1:TrackPointExtension>
<tp1:hr>142</tp1:hr>
</tp1:TrackPointExtension>
</extensions>
</trkpt>
<trkpt lat="50.6635320" lon="6.9461560">
<ele>107.4050000</ele>
<time>2012-04-13T13:12:33Z</time>
<extensions>
<tp1:TrackPointExtension>
<tp1:hr>142</tp1:hr>
</tp1:TrackPointExtension>
</extensions>
</trkpt>
<trkpt lat="50.6632700" lon="6.9474560">
<ele>107.5200000</ele>
<time>2012-04-13T13:12:46Z</time>
<extensions>
<tp1:TrackPointExtension>
<tp1:hr>142</tp1:hr>
</tp1:TrackPointExtension>
</extensions>
</trkpt>
<trkpt lat="50.6630370" lon="6.9485690">
<ele>107.3040000</ele>
<time>2012-04-13T13:12:57Z</time>
<extensions>
<tp1:TrackPointExtension>
<tp1:hr>141</tp1:hr>
</tp1:TrackPointExtension>
</extensions>
</trkpt>
<trkpt lat="50.6627460" lon="6.9499900">
<ele>107.6330000</ele>
<time>2012-04-13T13:13:11Z</time>
<extensions>
<tp1:TrackPointExtension>
<tp1:hr>138</tp1:hr>
</tp1:TrackPointExtension>
</extensions>
</trkpt>
<trkpt lat="50.6624860" lon="6.9512520">
<ele>107.6650000</ele>
<time>2012-04-13T13:13:23Z</time>
<extensions>
<tp1:TrackPointExtension>
<tp1:hr>137</tp1:hr>
</tp1:TrackPointExtension>
</extensions>
</trkpt>
<trkpt lat="50.6621800" lon="6.9527050">
<ele>107.7540000</ele>
<time>2012-04-13T13:13:37Z</time>
<extensions>
<tp1:TrackPointExtension>
<tp1:hr>138</tp1:hr>
</tp1:TrackPointExtension>
</extensions>
</trkpt>
<trkpt lat="50.6620350" lon="6.9534400">
<ele>107.9480000</ele>
<time>2012-04-13T13:13:45Z</time>
<extensions>
<tp1:TrackPointExtension>
<tp1:hr>134</tp1:hr>
</tp1:TrackPointExtension>
</extensions>
</trkpt>
<trkpt lat="50.6620130" lon="6.9535830">
<ele>107.9230000</ele>
<time>2012-04-13T13:13:48Z</time>
<extensions>
<tp1:TrackPointExtension>
<tp1:hr>132</tp1:hr>
</tp1:TrackPointExtension>
</extensions>
</trkpt>
<trkpt lat="50.6620120" lon="6.9536450">
<ele>107.7190000</ele>
<time>2012-04-13T13:13:54Z</time>
<extensions>
<tp1:TrackPointExtension>
<tp1:hr>128</tp1:hr>
</tp1:TrackPointExtension>
</extensions>
</trkpt>
<trkpt lat="50.6620100" lon="6.9536500">
<ele>107.8940000</ele>
<time>2012-04-13T13:13:59Z</time>
<extensions>
<tp1:TrackPointExtension>
<tp1:hr>125</tp1:hr>
</tp1:TrackPointExtension>
</extensions>
</trkpt>
<trkpt lat="50.6620790" lon="6.9537760">
<ele>107.8060000</ele>
<time>2012-04-13T13:14:03Z</time>
<extensions>
<tp1:TrackPointExtension>
<tp1:hr>126</tp1:hr>
</tp1:TrackPointExtension>
</extensions>
</trkpt>
<trkpt lat="50.6623620" lon="6.9540110">
<ele>107.8780000</ele>
<time>2012-04-13T13:14:09Z</time>
<extensions>
<tp1:TrackPointExtension>
<tp1:hr>128</tp1:hr>
</tp1:TrackPointExtension>
</extensions>
</trkpt>
<trkpt lat="50.6626260" lon="6.9542880">
<ele>107.8800000</ele>
<time>2012-04-13T13:14:14Z</time>
<extensions>
<tp1:TrackPointExtension>
<tp1:hr>133</tp1:hr>
</tp1:TrackPointExtension>
</extensions>
</trkpt>
<trkpt lat="50.6630060" lon="6.9548160">
<ele>107.9020000</ele>
<time>2012-04-13T13:14:22Z</time>
<extensions>
<tp1:TrackPointExtension>
<tp1:hr>136</tp1:hr>
</tp1:TrackPointExtension>
</extensions>
</trkpt>
<trkpt lat="50.6634050" lon="6.9553110">
<ele>108.2700000</ele>
<time>2012-04-13T13:14:30Z</time>
<extensions>
<tp1:TrackPointExtension>
<tp1:hr>139</tp1:hr>
</tp1:TrackPointExtension>
</extensions>
</trkpt>
<trkpt lat="50.6639100" lon="6.9557200">
<ele>108.4020000</ele>
<time>2012-04-13T13:14:39Z</time>
<extensions>
<tp1:TrackPointExtension>
<tp1:hr>139</tp1:hr>
</tp1:TrackPointExtension>
</extensions>
</trkpt>
<trkpt lat="50.6642810" lon="6.9560980">
<ele>108.4860000</ele>
<time>2012-04-13T13:14:46Z</time>
<extensions>
<tp1:TrackPointExtension>
<tp1:hr>140</tp1:hr>
</tp1:TrackPointExtension>
</extensions>
</trkpt>
<trkpt lat="50.6644810" lon="6.9563490">
<ele>108.6120000</ele>
<time>2012-04-13T13:14:50Z</time>
<extensions>
<tp1:TrackPointExtension>
<tp1:hr>140</tp1:hr>
</tp1:TrackPointExtension>
</extensions>
</trkpt>
<trkpt lat="50.6647310" lon="6.9568820">
<ele>109.8450000</ele>
<time>2012-04-13T13:14:57Z</time>
<extensions>
<tp1:TrackPointExtension>
<tp1:hr>141</tp1:hr>
</tp1:TrackPointExtension>
</extensions>
</trkpt>
<trkpt lat="50.6649260" lon="6.9570910">
<ele>110.3240000</ele>
<time>2012-04-13T13:15:01Z</time>
<extensions>
<tp1:TrackPointExtension>
<tp1:hr>141</tp1:hr>
</tp1:TrackPointExtension>
</extensions>
</trkpt>
<trkpt lat="50.6652910" lon="6.9573690">
<ele>111.2280000</ele>
<time>2012-04-13T13:15:08Z</time>
<extensions>
<tp1:TrackPointExtension>
<tp1:hr>144</tp1:hr>
</tp1:TrackPointExtension>
</extensions>
</trkpt>
<trkpt lat="50.6653690" lon="6.9575830">
<ele>110.9170000</ele>
<time>2012-04-13T13:15:12Z</time>
<extensions>
<tp1:TrackPointExtension>
<tp1:hr>146</tp1:hr>
</tp1:TrackPointExtension>
</extensions>
</trkpt>
<trkpt lat="50.6653290" lon="6.9578110">
<ele>110.7790000</ele>
<time>2012-04-13T13:15:15Z</time>
<extensions>
<tp1:TrackPointExtension>
<tp1:hr>147</tp1:hr>
</tp1:TrackPointExtension>
</extensions>
</trkpt>
<trkpt lat="50.6651630" lon="6.9583690">
<ele>111.3030000</ele>
<time>2012-04-13T13:15:22Z</time>
<extensions>
<tp1:TrackPointExtension>
<tp1:hr>148</tp1:hr>
</tp1:TrackPointExtension>
</extensions>
</trkpt>
<trkpt lat="50.6651930" lon="6.9586770">
<ele>111.6660000</ele>
<time>2012-04-13T13:15:26Z</time>
<extensions>
<tp1:TrackPointExtension>
<tp1:hr>148</tp1:hr>
</tp1:TrackPointExtension>
</extensions>
</trkpt>
<trkpt lat="50.6652360" lon="6.9587400">
<ele>111.6750000</ele>
<time>2012-04-13T13:15:27Z</time>
<extensions>
<tp1:TrackPointExtension>
<tp1:hr>148</tp1:hr>
</tp1:TrackPointExtension>
</extensions>
</trkpt>
<trkpt lat="50.6656580" lon="6.9593100">
<ele>111.3520000</ele>
<time>2012-04-13T13:15:36Z</time>
<extensions>
<tp1:TrackPointExtension>
<tp1:hr>149</tp1:hr>
</tp1:TrackPointExtension>
</extensions>
</trkpt>
<trkpt lat="50.6663000" lon="6.9601280">
<ele>111.3090000</ele>
<time>2012-04-13T13:15:49Z</time>
<extensions>
<tp1:TrackPointExtension>
<tp1:hr>147</tp1:hr>
</tp1:TrackPointExtension>
</extensions>
</trkpt>
<trkpt lat="50.6667100" lon="6.9606530">
<ele>111.0670000</ele>
<time>2012-04-13T13:15:57Z</time>
<extensions>
<tp1:TrackPointExtension>
<tp1:hr>144</tp1:hr>
</tp1:TrackPointExtension>
</extensions>
</trkpt>
<trkpt lat="50.6672330" lon="6.9613240">
<ele>110.2050000</ele>
<time>2012-04-13T13:16:07Z</time>
<extensions>
<tp1:TrackPointExtension>
<tp1:hr>139</tp1:hr>
</tp1:TrackPointExtension>
</extensions>
</trkpt>
<trkpt lat="50.6677240" lon="6.9619160">
<ele>109.5610000</ele>
<time>2012-04-13T13:16:16Z</time>
<extensions>
<tp1:TrackPointExtension>
<tp1:hr>137</tp1:hr>
</tp1:TrackPointExtension>
</extensions>
</trkpt>
<trkpt lat="50.6680920" lon="6.9621900">
<ele>109.6360000</ele>
<time>2012-04-13T13:16:22Z</time>
<extensions>
<tp1:TrackPointExtension>
<tp1:hr>137</tp1:hr>
</tp1:TrackPointExtension>
</extensions>
</trkpt>
<trkpt lat="50.6684230" lon="6.9623180">
<ele>109.7100000</ele>
<time>2012-04-13T13:16:27Z</time>
<extensions>
<tp1:TrackPointExtension>
<tp1:hr>137</tp1:hr>
</tp1:TrackPointExtension>
</extensions>
</trkpt>
<trkpt lat="50.6691070" lon="6.9623710">
<ele>109.6780000</ele>
<time>2012-04-13T13:16:37Z</time>
<extensions>
<tp1:TrackPointExtension>
<tp1:hr>137</tp1:hr>
</tp1:TrackPointExtension>
</extensions>
</trkpt>
<trkpt lat="50.6699200" lon="6.9624250">
<ele>109.3340000</ele>
<time>2012-04-13T13:16:49Z</time>
<extensions>
<tp1:TrackPointExtension>
<tp1:hr>138</tp1:hr>
</tp1:TrackPointExtension>
</extensions>
</trkpt>
<trkpt lat="50.6706740" lon="6.9624830">
<ele>109.1500000</ele>
<time>2012-04-13T13:17:00Z</time>
<extensions>
<tp1:TrackPointExtension>
<tp1:hr>138</tp1:hr>
</tp1:TrackPointExtension>
</extensions>
</trkpt>
<trkpt lat="50.6712750" lon="6.9625150">
<ele>108.7720000</ele>
<time>2012-04-13T13:17:09Z</time>
<extensions>
<tp1:TrackPointExtension>
<tp1:hr>141</tp1:hr>
</tp1:TrackPointExtension>
</extensions>
</trkpt>
<trkpt lat="50.6719570" lon="6.9625590">
<ele>109.1260000</ele>
<time>2012-04-13T13:17:19Z</time>
<extensions>
<tp1:TrackPointExtension>
<tp1:hr>140</tp1:hr>
</tp1:TrackPointExtension>
</extensions>
</trkpt>
<trkpt lat="50.6724850" lon="6.9626070">
<ele>109.0600000</ele>
<time>2012-04-13T13:17:27Z</time>
<extensions>
<tp1:TrackPointExtension>
<tp1:hr>139</tp1:hr>
</tp1:TrackPointExtension>
</extensions>
</trkpt>
<trkpt lat="50.6728660" lon="6.9626600">
<ele>109.0430000</ele>
<time>2012-04-13T13:17:33Z</time>
<extensions>
<tp1:TrackPointExtension>
<tp1:hr>138</tp1:hr>
</tp1:TrackPointExtension>
</extensions>
</trkpt>
<trkpt lat="50.6733540" lon="6.9628440">
<ele>109.2180000</ele>
<time>2012-04-13T13:17:40Z</time>
<extensions>
<tp1:TrackPointExtension>
<tp1:hr>137</tp1:hr>
</tp1:TrackPointExtension>
</extensions>
</trkpt>
<trkpt lat="50.6737340" lon="6.9630420">
<ele>109.0790000</ele>
<time>2012-04-13T13:17:46Z</time>
<extensions>
<tp1:TrackPointExtension>
<tp1:hr>137</tp1:hr>
</tp1:TrackPointExtension>
</extensions>
</trkpt>
<trkpt lat="50.6740530" lon="6.9632650">
<ele>108.8500000</ele>
<time>2012-04-13T13:17:51Z</time>
<extensions>
<tp1:TrackPointExtension>
<tp1:hr>137</tp1:hr>
</tp1:TrackPointExtension>
</extensions>
</trkpt>
<trkpt lat="50.6744100" lon="6.9635510">
<ele>109.0160000</ele>
<time>2012-04-13T13:17:57Z</time>
<extensions>
<tp1:TrackPointExtension>
<tp1:hr>138</tp1:hr>
</tp1:TrackPointExtension>
</extensions>
</trkpt>
<trkpt lat="50.6748260" lon="6.9638740">
<ele>109.2170000</ele>
<time>2012-04-13T13:18:04Z</time>
<extensions>
<tp1:TrackPointExtension>
<tp1:hr>139</tp1:hr>
</tp1:TrackPointExtension>
</extensions>
</trkpt>
<trkpt lat="50.6751300" lon="6.9641110">
<ele>108.8180000</ele>
<time>2012-04-13T13:18:09Z</time>
<extensions>
<tp1:TrackPointExtension>
<tp1:hr>139</tp1:hr>
</tp1:TrackPointExtension>
</extensions>
</trkpt>
<trkpt lat="50.6754280" lon="6.9643490">
<ele>108.6710000</ele>
<time>2012-04-13T13:18:14Z</time>
<extensions>
<tp1:TrackPointExtension>
<tp1:hr>139</tp1:hr>
</tp1:TrackPointExtension>
</extensions>
</trkpt>
<trkpt lat="50.6757840" lon="6.9646290">
<ele>108.7940000</ele>
<time>2012-04-13T13:18:20Z</time>
<extensions>
<tp1:TrackPointExtension>
<tp1:hr>140</tp1:hr>
</tp1:TrackPointExtension>
</extensions>
</trkpt>
<trkpt lat="50.6761920" lon="6.9649580">
<ele>108.6570000</ele>
<time>2012-04-13T13:18:27Z</time>
<extensions>
<tp1:TrackPointExtension>
<tp1:hr>140</tp1:hr>
</tp1:TrackPointExtension>
</extensions>
</trkpt>
<trkpt lat="50.6765880" lon="6.9652510">
<ele>108.3560000</ele>
<time>2012-04-13T13:18:33Z</time>
<extensions>
<tp1:TrackPointExtension>
<tp1:hr>140</tp1:hr>
</tp1:TrackPointExtension>
</extensions>
</trkpt>
<trkpt lat="50.6769560" lon="6.9655300">
<ele>108.2150000</ele>
<time>2012-04-13T13:18:39Z</time>
<extensions>
<tp1:TrackPointExtension>
<tp1:hr>140</tp1:hr>
</tp1:TrackPointExtension>
</extensions>
</trkpt>
<trkpt lat="50.6774570" lon="6.9659380">
<ele>107.8150000</ele>
<time>2012-04-13T13:18:47Z</time>
<extensions>
<tp1:TrackPointExtension>
<tp1:hr>140</tp1:hr>
</tp1:TrackPointExtension>
</extensions>
</trkpt>
<trkpt lat="50.6775750" lon="6.9660480">
<ele>107.7640000</ele>
<time>2012-04-13T13:18:49Z</time>
<extensions>
<tp1:TrackPointExtension>
<tp1:hr>140</tp1:hr>
</tp1:TrackPointExtension>
</extensions>
</trkpt>
<trkpt lat="50.6778770" lon="6.9665020">
<ele>107.6930000</ele>
<time>2012-04-13T13:18:55Z</time>
<extensions>
<tp1:TrackPointExtension>
<tp1:hr>140</tp1:hr>
</tp1:TrackPointExtension>
</extensions>
</trkpt>
<trkpt lat="50.6780940" lon="6.9670510">
<ele>107.5760000</ele>
<time>2012-04-13T13:19:01Z</time>
<extensions>
<tp1:TrackPointExtension>
<tp1:hr>139</tp1:hr>
</tp1:TrackPointExtension>
</extensions>
</trkpt>
<trkpt lat="50.6783820" lon="6.9678610">
<ele>107.7170000</ele>
<time>2012-04-13T13:19:10Z</time>
<extensions>
<tp1:TrackPointExtension>
<tp1:hr>140</tp1:hr>
</tp1:TrackPointExtension>
</extensions>
</trkpt>
<trkpt lat="50.6787170" lon="6.9684520">
<ele>107.9140000</ele>
<time>2012-04-13T13:19:18Z</time>
<extensions>
<tp1:TrackPointExtension>
<tp1:hr>141</tp1:hr>
</tp1:TrackPointExtension>
</extensions>
</trkpt>
<trkpt lat="50.6790790" lon="6.9689190">
<ele>108.3030000</ele>
<time>2012-04-13T13:19:26Z</time>
<extensions>
<tp1:TrackPointExtension>
<tp1:hr>141</tp1:hr>
</tp1:TrackPointExtension>
</extensions>
</trkpt>
<trkpt lat="50.6792700" lon="6.9690900">
<ele>108.4380000</ele>
<time>2012-04-13T13:19:30Z</time>
<extensions>
<tp1:TrackPointExtension>
<tp1:hr>141</tp1:hr>
</tp1:TrackPointExtension>
</extensions>
</trkpt>
<trkpt lat="50.6796210" lon="6.9695880">
<ele>108.8880000</ele>
<time>2012-04-13T13:19:38Z</time>
<extensions>
<tp1:TrackPointExtension>
<tp1:hr>141</tp1:hr>
</tp1:TrackPointExtension>
</extensions>
</trkpt>
<trkpt lat="50.6800360" lon="6.9699820">
<ele>109.8590000</ele>
<time>2012-04-13T13:19:46Z</time>
<extensions>
<tp1:TrackPointExtension>
<tp1:hr>143</tp1:hr>
</tp1:TrackPointExtension>
</extensions>
</trkpt>
<trkpt lat="50.6804910" lon="6.9703810">
<ele>110.8130000</ele>
<time>2012-04-13T13:19:55Z</time>
<extensions>
<tp1:TrackPointExtension>
<tp1:hr>144</tp1:hr>
</tp1:TrackPointExtension>
</extensions>
</trkpt>
<trkpt lat="50.6807730" lon="6.9706550">
<ele>111.2340000</ele>
<time>2012-04-13T13:20:01Z</time>
<extensions>
<tp1:TrackPointExtension>
<tp1:hr>146</tp1:hr>
</tp1:TrackPointExtension>
</extensions>
</trkpt>
<trkpt lat="50.6808980" lon="6.9708330">
<ele>111.4150000</ele>
<time>2012-04-13T13:20:04Z</time>
<extensions>
<tp1:TrackPointExtension>
<tp1:hr>146</tp1:hr>
</tp1:TrackPointExtension>
</extensions>
</trkpt>
<trkpt lat="50.6812180" lon="6.9711840">
<ele>112.2350000</ele>
<time>2012-04-13T13:20:11Z</time>
<extensions>
<tp1:TrackPointExtension>
<tp1:hr>148</tp1:hr>
</tp1:TrackPointExtension>
</extensions>
</trkpt>
<trkpt lat="50.6815100" lon="6.9715440">
<ele>113.2290000</ele>
<time>2012-04-13T13:20:18Z</time>
<extensions>
<tp1:TrackPointExtension>
<tp1:hr>151</tp1:hr>
</tp1:TrackPointExtension>
</extensions>
</trkpt>
<trkpt lat="50.6818260" lon="6.9719370">
<ele>113.9400000</ele>
<time>2012-04-13T13:20:26Z</time>
<extensions>
<tp1:TrackPointExtension>
<tp1:hr>151</tp1:hr>
</tp1:TrackPointExtension>
</extensions>
</trkpt>
<trkpt lat="50.6819130" lon="6.9720180">
<ele>114.0200000</ele>
<time>2012-04-13T13:20:28Z</time>
<extensions>
<tp1:TrackPointExtension>
<tp1:hr>151</tp1:hr>
</tp1:TrackPointExtension>
</extensions>
</trkpt>
<trkpt lat="50.6820580" lon="6.9721090">
<ele>114.3110000</ele>
<time>2012-04-13T13:20:31Z</time>
<extensions>
<tp1:TrackPointExtension>
<tp1:hr>151</tp1:hr>
</tp1:TrackPointExtension>
</extensions>
</trkpt>
<trkpt lat="50.6823080" lon="6.9721690">
<ele>114.8460000</ele>
<time>2012-04-13T13:20:36Z</time>
<extensions>
<tp1:TrackPointExtension>
<tp1:hr>152</tp1:hr>
</tp1:TrackPointExtension>
</extensions>
</trkpt>
<trkpt lat="50.6824120" lon="6.9721590">
<ele>115.0280000</ele>
<time>2012-04-13T13:20:38Z</time>
<extensions>
<tp1:TrackPointExtension>
<tp1:hr>152</tp1:hr>
</tp1:TrackPointExtension>
</extensions>
</trkpt>
<trkpt lat="50.6825420" lon="6.9722820">
<ele>115.2380000</ele>
<time>2012-04-13T13:20:41Z</time>
<extensions>
<tp1:TrackPointExtension>
<tp1:hr>153</tp1:hr>
</tp1:TrackPointExtension>
</extensions>
</trkpt>
<trkpt lat="50.6825580" lon="6.9724350">
<ele>115.3800000</ele>
<time>2012-04-13T13:20:43Z</time>
<extensions>
<tp1:TrackPointExtension>
<tp1:hr>153</tp1:hr>
</tp1:TrackPointExtension>
</extensions>
</trkpt>
<trkpt lat="50.6826060" lon="6.9731380">
<ele>116.6170000</ele>
<time>2012-04-13T13:20:52Z</time>
<extensions>
<tp1:TrackPointExtension>
<tp1:hr>151</tp1:hr>
</tp1:TrackPointExtension>
</extensions>
</trkpt>
<trkpt lat="50.6826490" lon="6.9737750">
<ele>118.0150000</ele>
<time>2012-04-13T13:21:00Z</time>
<extensions>
<tp1:TrackPointExtension>
<tp1:hr>153</tp1:hr>
</tp1:TrackPointExtension>
</extensions>
</trkpt>
<trkpt lat="50.6826500" lon="6.9746350">
<ele>119.9320000</ele>
<time>2012-04-13T13:21:11Z</time>
<extensions>
<tp1:TrackPointExtension>
<tp1:hr>155</tp1:hr>
</tp1:TrackPointExtension>
</extensions>
</trkpt>
<trkpt lat="50.6826440" lon="6.9747120">
<ele>120.0930000</ele>
<time>2012-04-13T13:21:12Z</time>
<extensions>
<tp1:TrackPointExtension>
<tp1:hr>155</tp1:hr>
</tp1:TrackPointExtension>
</extensions>
</trkpt>
<trkpt lat="50.6825700" lon="6.9752970">
<ele>121.1250000</ele>
<time>2012-04-13T13:21:20Z</time>
<extensions>
<tp1:TrackPointExtension>
<tp1:hr>154</tp1:hr>
</tp1:TrackPointExtension>
</extensions>
</trkpt>
<trkpt lat="50.6825480" lon="6.9754400">
<ele>121.4370000</ele>
<time>2012-04-13T13:21:22Z</time>
<extensions>
<tp1:TrackPointExtension>
<tp1:hr>154</tp1:hr>
</tp1:TrackPointExtension>
</extensions>
</trkpt>
<trkpt lat="50.6825650" lon="6.9757930">
<ele>122.2100000</ele>
<time>2012-04-13T13:21:27Z</time>
<extensions>
<tp1:TrackPointExtension>
<tp1:hr>155</tp1:hr>
</tp1:TrackPointExtension>
</extensions>
</trkpt>
<trkpt lat="50.6826070" lon="6.9759250">
<ele>122.5640000</ele>
<time>2012-04-13T13:21:29Z</time>
<extensions>
<tp1:TrackPointExtension>
<tp1:hr>155</tp1:hr>
</tp1:TrackPointExtension>
</extensions>
</trkpt>
<trkpt lat="50.6827150" lon="6.9764100">
<ele>124.0510000</ele>
<time>2012-04-13T13:21:36Z</time>
<extensions>
<tp1:TrackPointExtension>
<tp1:hr>155</tp1:hr>
</tp1:TrackPointExtension>
</extensions>
</trkpt>
<trkpt lat="50.6827420" lon="6.9768500">
<ele>125.0610000</ele>
<time>2012-04-13T13:21:42Z</time>
<extensions>
<tp1:TrackPointExtension>
<tp1:hr>155</tp1:hr>
</tp1:TrackPointExtension>
</extensions>
</trkpt>
<trkpt lat="50.6826630" lon="6.9772260">
<ele>125.8670000</ele>
<time>2012-04-13T13:21:47Z</time>
<extensions>
<tp1:TrackPointExtension>
<tp1:hr>155</tp1:hr>
</tp1:TrackPointExtension>
</extensions>
</trkpt>
<trkpt lat="50.6827120" lon="6.9773370">
<ele>126.1220000</ele>
<time>2012-04-13T13:21:49Z</time>
<extensions>
<tp1:TrackPointExtension>
<tp1:hr>155</tp1:hr>
</tp1:TrackPointExtension>
</extensions>
</trkpt>
<trkpt lat="50.6831260" lon="6.9778430">
<ele>126.9650000</ele>
<time>2012-04-13T13:21:59Z</time>
<extensions>
<tp1:TrackPointExtension>
<tp1:hr>155</tp1:hr>
</tp1:TrackPointExtension>
</extensions>
</trkpt>
<trkpt lat="50.6833770" lon="6.9781570">
<ele>127.1880000</ele>
<time>2012-04-13T13:22:05Z</time>
<extensions>
<tp1:TrackPointExtension>
<tp1:hr>154</tp1:hr>
</tp1:TrackPointExtension>
</extensions>
</trkpt>
<trkpt lat="50.6835990" lon="6.9784030">
<ele>127.3430000</ele>
<time>2012-04-13T13:22:10Z</time>
<extensions>
<tp1:TrackPointExtension>
<tp1:hr>152</tp1:hr>
</tp1:TrackPointExtension>
</extensions>
</trkpt>
<trkpt lat="50.6836450" lon="6.9784540">
<ele>127.3990000</ele>
<time>2012-04-13T13:22:11Z</time>
<extensions>
<tp1:TrackPointExtension>
<tp1:hr>152</tp1:hr>
</tp1:TrackPointExtension>
</extensions>
</trkpt>
<trkpt lat="50.6839520" lon="6.9789350">
<ele>127.6870000</ele>
<time>2012-04-13T13:22:19Z</time>
<extensions>
<tp1:TrackPointExtension>
<tp1:hr>151</tp1:hr>
</tp1:TrackPointExtension>
</extensions>
</trkpt>
<trkpt lat="50.6842440" lon="6.9795670">
<ele>128.0300000</ele>
<time>2012-04-13T13:22:28Z</time>
<extensions>
<tp1:TrackPointExtension>
<tp1:hr>150</tp1:hr>
</tp1:TrackPointExtension>
</extensions>
</trkpt>
<trkpt lat="50.6845570" lon="6.9801870">
<ele>128.7010000</ele>
<time>2012-04-13T13:22:37Z</time>
<extensions>
<tp1:TrackPointExtension>
<tp1:hr>149</tp1:hr>
</tp1:TrackPointExtension>
</extensions>
</trkpt>
<trkpt lat="50.6847390" lon="6.9805270">
<ele>128.9550000</ele>
<time>2012-04-13T13:22:42Z</time>
<extensions>
<tp1:TrackPointExtension>
<tp1:hr>149</tp1:hr>
</tp1:TrackPointExtension>
</extensions>
</trkpt>
<trkpt lat="50.6850780" lon="6.9812470">
<ele>129.2830000</ele>
<time>2012-04-13T13:22:52Z</time>
<extensions>
<tp1:TrackPointExtension>
<tp1:hr>147</tp1:hr>
</tp1:TrackPointExtension>
</extensions>
</trkpt>
<trkpt lat="50.6853340" lon="6.9818020">
<ele>129.5450000</ele>
<time>2012-04-13T13:23:00Z</time>
<extensions>
<tp1:TrackPointExtension>
<tp1:hr>146</tp1:hr>
</tp1:TrackPointExtension>
</extensions>
</trkpt>
<trkpt lat="50.6855090" lon="6.9821040">
<ele>129.9190000</ele>
<time>2012-04-13T13:23:05Z</time>
<extensions>
<tp1:TrackPointExtension>
<tp1:hr>144</tp1:hr>
</tp1:TrackPointExtension>
</extensions>
</trkpt>
<trkpt lat="50.6856040" lon="6.9825940">
<ele>129.7680000</ele>
<time>2012-04-13T13:23:11Z</time>
<extensions>
<tp1:TrackPointExtension>
<tp1:hr>143</tp1:hr>
</tp1:TrackPointExtension>
</extensions>
</trkpt>
<trkpt lat="50.6856520" lon="6.9830020">
<ele>129.4410000</ele>
<time>2012-04-13T13:23:16Z</time>
<extensions>
<tp1:TrackPointExtension>
<tp1:hr>139</tp1:hr>
</tp1:TrackPointExtension>
</extensions>
</trkpt>
<trkpt lat="50.6857640" lon="6.9836520">
<ele>129.7690000</ele>
<time>2012-04-13T13:23:24Z</time>
<extensions>
<tp1:TrackPointExtension>
<tp1:hr>139</tp1:hr>
</tp1:TrackPointExtension>
</extensions>
</trkpt>
<trkpt lat="50.6859050" lon="6.9843510">
<ele>130.3630000</ele>
<time>2012-04-13T13:23:33Z</time>
<extensions>
<tp1:TrackPointExtension>
<tp1:hr>140</tp1:hr>
</tp1:TrackPointExtension>
</extensions>
</trkpt>
<trkpt lat="50.6861110" lon="6.9851110">
<ele>131.6440000</ele>
<time>2012-04-13T13:23:43Z</time>
<extensions>
<tp1:TrackPointExtension>
<tp1:hr>143</tp1:hr>
</tp1:TrackPointExtension>
</extensions>
</trkpt>
<trkpt lat="50.6863020" lon="6.9857070">
<ele>132.4520000</ele>
<time>2012-04-13T13:23:51Z</time>
<extensions>
<tp1:TrackPointExtension>
<tp1:hr>146</tp1:hr>
</tp1:TrackPointExtension>
</extensions>
</trkpt>
<trkpt lat="50.6865460" lon="6.9864770">
<ele>133.6730000</ele>
<time>2012-04-13T13:24:01Z</time>
<extensions>
<tp1:TrackPointExtension>
<tp1:hr>150</tp1:hr>
</tp1:TrackPointExtension>
</extensions>
</trkpt>
<trkpt lat="50.6867440" lon="6.9871040">
<ele>134.3680000</ele>
<time>2012-04-13T13:24:09Z</time>
<extensions>
<tp1:TrackPointExtension>
<tp1:hr>154</tp1:hr>
</tp1:TrackPointExtension>
</extensions>
</trkpt>
<trkpt lat="50.6869090" lon="6.9875780">
<ele>134.7520000</ele>
<time>2012-04-13T13:24:15Z</time>
<extensions>
<tp1:TrackPointExtension>
<tp1:hr>155</tp1:hr>
</tp1:TrackPointExtension>
</extensions>
</trkpt>
<trkpt lat="50.6871610" lon="6.9883930">
<ele>135.1530000</ele>
<time>2012-04-13T13:24:25Z</time>
<extensions>
<tp1:TrackPointExtension>
<tp1:hr>155</tp1:hr>
</tp1:TrackPointExtension>
</extensions>
</trkpt>
<trkpt lat="50.6873920" lon="6.9891580">
<ele>135.5590000</ele>
<time>2012-04-13T13:24:34Z</time>
<extensions>
<tp1:TrackPointExtension>
<tp1:hr>152</tp1:hr>
</tp1:TrackPointExtension>
</extensions>
</trkpt>
<trkpt lat="50.6876160" lon="6.9899180">
<ele>135.9920000</ele>
<time>2012-04-13T13:24:43Z</time>
<extensions>
<tp1:TrackPointExtension>
<tp1:hr>150</tp1:hr>
</tp1:TrackPointExtension>
</extensions>
</trkpt>
<trkpt lat="50.6878090" lon="6.9905950">
<ele>135.6880000</ele>
<time>2012-04-13T13:24:51Z</time>
<extensions>
<tp1:TrackPointExtension>
<tp1:hr>148</tp1:hr>
</tp1:TrackPointExtension>
</extensions>
</trkpt>
<trkpt lat="50.6880500" lon="6.9914240">
<ele>135.6560000</ele>
<time>2012-04-13T13:25:01Z</time>
<extensions>
<tp1:TrackPointExtension>
<tp1:hr>147</tp1:hr>
</tp1:TrackPointExtension>
</extensions>
</trkpt>
<trkpt lat="50.6882750" lon="6.9921740">
<ele>135.4700000</ele>
<time>2012-04-13T13:25:10Z</time>
<extensions>
<tp1:TrackPointExtension>
<tp1:hr>145</tp1:hr>
</tp1:TrackPointExtension>
</extensions>
</trkpt>
<trkpt lat="50.6885000" lon="6.9929440">
<ele>135.5850000</ele>
<time>2012-04-13T13:25:19Z</time>
<extensions>
<tp1:TrackPointExtension>
<tp1:hr>144</tp1:hr>
</tp1:TrackPointExtension>
</extensions>
</trkpt>
<trkpt lat="50.6886250" lon="6.9936100">
<ele>135.2860000</ele>
<time>2012-04-13T13:25:26Z</time>
<extensions>
<tp1:TrackPointExtension>
<tp1:hr>143</tp1:hr>
</tp1:TrackPointExtension>
</extensions>
</trkpt>
<trkpt lat="50.6887610" lon="6.9939160">
<ele>134.9720000</ele>
<time>2012-04-13T13:25:30Z</time>
<extensions>
<tp1:TrackPointExtension>
<tp1:hr>140</tp1:hr>
</tp1:TrackPointExtension>
</extensions>
</trkpt>
<trkpt lat="50.6888150" lon="6.9940920">
<ele>134.8220000</ele>
<time>2012-04-13T13:25:32Z</time>
<extensions>
<tp1:TrackPointExtension>
<tp1:hr>139</tp1:hr>
</tp1:TrackPointExtension>
</extensions>
</trkpt>
<trkpt lat="50.6889300" lon="6.9946900">
<ele>134.1590000</ele>
<time>2012-04-13T13:25:38Z</time>
<extensions>
<tp1:TrackPointExtension>
<tp1:hr>141</tp1:hr>
</tp1:TrackPointExtension>
</extensions>
</trkpt>
<trkpt lat="50.6890880" lon="6.9952730">
<ele>132.9580000</ele>
<time>2012-04-13T13:25:44Z</time>
<extensions>
<tp1:TrackPointExtension>
<tp1:hr>141</tp1:hr>
</tp1:TrackPointExtension>
</extensions>
</trkpt>
<trkpt lat="50.6894050" lon="6.9962950">
<ele>131.3580000</ele>
<time>2012-04-13T13:25:54Z</time>
<extensions>
<tp1:TrackPointExtension>
<tp1:hr>139</tp1:hr>
</tp1:TrackPointExtension>
</extensions>
</trkpt>
<trkpt lat="50.6896900" lon="6.9968400">
<ele>130.6090000</ele>
<time>2012-04-13T13:26:00Z</time>
<extensions>
<tp1:TrackPointExtension>
<tp1:hr>136</tp1:hr>
</tp1:TrackPointExtension>
</extensions>
</trkpt>
<trkpt lat="50.6898020" lon="6.9970090">
<ele>130.3260000</ele>
<time>2012-04-13T13:26:02Z</time>
<extensions>
<tp1:TrackPointExtension>
<tp1:hr>135</tp1:hr>
</tp1:TrackPointExtension>
</extensions>
</trkpt>
<trkpt lat="50.6902450" lon="6.9975040">
<ele>128.9520000</ele>
<time>2012-04-13T13:26:09Z</time>
<extensions>
<tp1:TrackPointExtension>
<tp1:hr>134</tp1:hr>
</tp1:TrackPointExtension>
</extensions>
</trkpt>
<trkpt lat="50.6907300" lon="6.9980830">
<ele>127.5520000</ele>
<time>2012-04-13T13:26:17Z</time>
<extensions>
<tp1:TrackPointExtension>
<tp1:hr>133</tp1:hr>
</tp1:TrackPointExtension>
</extensions>
</trkpt>
<trkpt lat="50.6907830" lon="6.9981690">
<ele>127.4820000</ele>
<time>2012-04-13T13:26:18Z</time>
<extensions>
<tp1:TrackPointExtension>
<tp1:hr>133</tp1:hr>
</tp1:TrackPointExtension>
</extensions>
</trkpt>
<trkpt lat="50.6910720" lon="6.9988580">
<ele>126.6620000</ele>
<time>2012-04-13T13:26:25Z</time>
<extensions>
<tp1:TrackPointExtension>
<tp1:hr>134</tp1:hr>
</tp1:TrackPointExtension>
</extensions>
</trkpt>
<trkpt lat="50.6913160" lon="6.9996060">
<ele>125.8460000</ele>
<time>2012-04-13T13:26:32Z</time>
<extensions>
<tp1:TrackPointExtension>
<tp1:hr>135</tp1:hr>
</tp1:TrackPointExtension>
</extensions>
</trkpt>
<trkpt lat="50.6914300" lon="6.9999020">
<ele>125.6050000</ele>
<time>2012-04-13T13:26:35Z</time>
<extensions>
<tp1:TrackPointExtension>
<tp1:hr>136</tp1:hr>
</tp1:TrackPointExtension>
</extensions>
</trkpt>
<trkpt lat="50.6916150" lon="7.0004970">
<ele>125.1180000</ele>
<time>2012-04-13T13:26:41Z</time>
<extensions>
<tp1:TrackPointExtension>
<tp1:hr>137</tp1:hr>
</tp1:TrackPointExtension>
</extensions>
</trkpt>
<trkpt lat="50.6918450" lon="7.0011070">
<ele>124.8600000</ele>
<time>2012-04-13T13:26:47Z</time>
<extensions>
<tp1:TrackPointExtension>
<tp1:hr>137</tp1:hr>
</tp1:TrackPointExtension>
</extensions>
</trkpt>
<trkpt lat="50.6919740" lon="7.0013990">
<ele>124.8650000</ele>
<time>2012-04-13T13:26:50Z</time>
<extensions>
<tp1:TrackPointExtension>
<tp1:hr>137</tp1:hr>
</tp1:TrackPointExtension>
</extensions>
</trkpt>
<trkpt lat="50.6923430" lon="7.0022830">
<ele>124.7220000</ele>
<time>2012-04-13T13:26:59Z</time>
<extensions>
<tp1:TrackPointExtension>
<tp1:hr>138</tp1:hr>
</tp1:TrackPointExtension>
</extensions>
</trkpt>
<trkpt lat="50.6926770" lon="7.0031540">
<ele>124.9040000</ele>
<time>2012-04-13T13:27:08Z</time>
<extensions>
<tp1:TrackPointExtension>
<tp1:hr>139</tp1:hr>
</tp1:TrackPointExtension>
</extensions>
</trkpt>
<trkpt lat="50.6930290" lon="7.0039990">
<ele>124.6690000</ele>
<time>2012-04-13T13:27:17Z</time>
<extensions>
<tp1:TrackPointExtension>
<tp1:hr>140</tp1:hr>
</tp1:TrackPointExtension>
</extensions>
</trkpt>
<trkpt lat="50.6933170" lon="7.0046060">
<ele>124.7130000</ele>
<time>2012-04-13T13:27:24Z</time>
<extensions>
<tp1:TrackPointExtension>
<tp1:hr>141</tp1:hr>
</tp1:TrackPointExtension>
</extensions>
</trkpt>
<trkpt lat="50.6933530" lon="7.0046910">
<ele>124.6880000</ele>
<time>2012-04-13T13:27:25Z</time>
<extensions>
<tp1:TrackPointExtension>
<tp1:hr>142</tp1:hr>
</tp1:TrackPointExtension>
</extensions>
</trkpt>
<trkpt lat="50.6937480" lon="7.0053480">
<ele>123.8280000</ele>
<time>2012-04-13T13:27:33Z</time>
<extensions>
<tp1:TrackPointExtension>
<tp1:hr>142</tp1:hr>
</tp1:TrackPointExtension>
</extensions>
</trkpt>
<trkpt lat="50.6941140" lon="7.0058250">
<ele>122.8420000</ele>
<time>2012-04-13T13:27:39Z</time>
<extensions>
<tp1:TrackPointExtension>
<tp1:hr>139</tp1:hr>
</tp1:TrackPointExtension>
</extensions>
</trkpt>
<trkpt lat="50.6946400" lon="7.0065110">
<ele>120.1860000</ele>
<time>2012-04-13T13:27:47Z</time>
<extensions>
<tp1:TrackPointExtension>
<tp1:hr>135</tp1:hr>
</tp1:TrackPointExtension>
</extensions>
</trkpt>
<trkpt lat="50.6948420" lon="7.0067760">
<ele>118.9920000</ele>
<time>2012-04-13T13:27:50Z</time>
<extensions>
<tp1:TrackPointExtension>
<tp1:hr>130</tp1:hr>
</tp1:TrackPointExtension>
</extensions>
</trkpt>
<trkpt lat="50.6952850" lon="7.0073400">
<ele>117.0700000</ele>
<time>2012-04-13T13:27:57Z</time>
<extensions>
<tp1:TrackPointExtension>
<tp1:hr>127</tp1:hr>
</tp1:TrackPointExtension>
</extensions>
</trkpt>
<trkpt lat="50.6958240" lon="7.0079300">
<ele>116.5720000</ele>
<time>2012-04-13T13:28:06Z</time>
<extensions>
<tp1:TrackPointExtension>
<tp1:hr>128</tp1:hr>
</tp1:TrackPointExtension>
</extensions>
</trkpt>
<trkpt lat="50.6962500" lon="7.0083180">
<ele>116.4890000</ele>
<time>2012-04-13T13:28:13Z</time>
<extensions>
<tp1:TrackPointExtension>
<tp1:hr>131</tp1:hr>
</tp1:TrackPointExtension>
</extensions>
</trkpt>
<trkpt lat="50.6965700" lon="7.0085690">
<ele>115.8570000</ele>
<time>2012-04-13T13:28:18Z</time>
<extensions>
<tp1:TrackPointExtension>
<tp1:hr>136</tp1:hr>
</tp1:TrackPointExtension>
</extensions>
</trkpt>
<trkpt lat="50.6970620" lon="7.0089230">
<ele>114.2790000</ele>
<time>2012-04-13T13:28:25Z</time>
<extensions>
<tp1:TrackPointExtension>
<tp1:hr>134</tp1:hr>
</tp1:TrackPointExtension>
</extensions>
</trkpt>
<trkpt lat="50.6975330" lon="7.0093360">
<ele>111.9470000</ele>
<time>2012-04-13T13:28:31Z</time>
<extensions>
<tp1:TrackPointExtension>
<tp1:hr>132</tp1:hr>
</tp1:TrackPointExtension>
</extensions>
</trkpt>
<trkpt lat="50.6979900" lon="7.0099310">
<ele>107.4740000</ele>
<time>2012-04-13T13:28:37Z</time>
<extensions>
<tp1:TrackPointExtension>
<tp1:hr>128</tp1:hr>
</tp1:TrackPointExtension>
</extensions>
</trkpt>
<trkpt lat="50.6985040" lon="7.0106560">
<ele>102.4420000</ele>
<time>2012-04-13T13:28:44Z</time>
<extensions>
<tp1:TrackPointExtension>
<tp1:hr>126</tp1:hr>
</tp1:TrackPointExtension>
</extensions>
</trkpt>
<trkpt lat="50.6991360" lon="7.0115560">
<ele>98.1630000</ele>
<time>2012-04-13T13:28:53Z</time>
<extensions>
<tp1:TrackPointExtension>
<tp1:hr>123</tp1:hr>
</tp1:TrackPointExtension>
</extensions>
</trkpt>
<trkpt lat="50.6994490" lon="7.0121120">
<ele>95.9880000</ele>
<time>2012-04-13T13:28:58Z</time>
<extensions>
<tp1:TrackPointExtension>
<tp1:hr>121</tp1:hr>
</tp1:TrackPointExtension>
</extensions>
</trkpt>
<trkpt lat="50.6995500" lon="7.0123660">
<ele>95.1050000</ele>
<time>2012-04-13T13:29:00Z</time>
<extensions>
<tp1:TrackPointExtension>
<tp1:hr>121</tp1:hr>
</tp1:TrackPointExtension>
</extensions>
</trkpt>
<trkpt lat="50.6997070" lon="7.0129530">
<ele>93.0710000</ele>
<time>2012-04-13T13:29:05Z</time>
<extensions>
<tp1:TrackPointExtension>
<tp1:hr>121</tp1:hr>
</tp1:TrackPointExtension>
</extensions>
</trkpt>
<trkpt lat="50.6997710" lon="7.0131810">
<ele>92.4450000</ele>
<time>2012-04-13T13:29:07Z</time>
<extensions>
<tp1:TrackPointExtension>
<tp1:hr>122</tp1:hr>
</tp1:TrackPointExtension>
</extensions>
</trkpt>
<trkpt lat="50.7000060" lon="7.0144180">
<ele>89.8340000</ele>
<time>2012-04-13T13:29:17Z</time>
<extensions>
<tp1:TrackPointExtension>
<tp1:hr>123</tp1:hr>
</tp1:TrackPointExtension>
</extensions>
</trkpt>
<trkpt lat="50.7001030" lon="7.0148030">
<ele>88.5270000</ele>
<time>2012-04-13T13:29:21Z</time>
<extensions>
<tp1:TrackPointExtension>
<tp1:hr>121</tp1:hr>
</tp1:TrackPointExtension>
</extensions>
</trkpt>
<trkpt lat="50.7001420" lon="7.0149420">
<ele>87.3600000</ele>
<time>2012-04-13T13:29:25Z</time>
<extensions>
<tp1:TrackPointExtension>
<tp1:hr>118</tp1:hr>
</tp1:TrackPointExtension>
</extensions>
</trkpt>
<trkpt lat="50.7001650" lon="7.0150260">
<ele>86.5640000</ele>
<time>2012-04-13T13:29:29Z</time>
<extensions>
<tp1:TrackPointExtension>
<tp1:hr>115</tp1:hr>
</tp1:TrackPointExtension>
</extensions>
</trkpt>
<trkpt lat="50.7002980" lon="7.0150470">
<ele>86.3420000</ele>
<time>2012-04-13T13:29:33Z</time>
<extensions>
<tp1:TrackPointExtension>
<tp1:hr>117</tp1:hr>
</tp1:TrackPointExtension>
</extensions>
</trkpt>
<trkpt lat="50.7003960" lon="7.0150210">
<ele>86.3540000</ele>
<time>2012-04-13T13:29:35Z</time>
<extensions>
<tp1:TrackPointExtension>
<tp1:hr>118</tp1:hr>
</tp1:TrackPointExtension>
</extensions>
</trkpt>
<trkpt lat="50.7006610" lon="7.0148820">
<ele>86.1900000</ele>
<time>2012-04-13T13:29:40Z</time>
<extensions>
<tp1:TrackPointExtension>
<tp1:hr>123</tp1:hr>
</tp1:TrackPointExtension>
</extensions>
</trkpt>
<trkpt lat="50.7008590" lon="7.0146550">
<ele>86.1590000</ele>
<time>2012-04-13T13:29:44Z</time>
<extensions>
<tp1:TrackPointExtension>
<tp1:hr>129</tp1:hr>
</tp1:TrackPointExtension>
</extensions>
</trkpt>
<trkpt lat="50.7012450" lon="7.0142290">
<ele>85.3220000</ele>
<time>2012-04-13T13:29:51Z</time>
<extensions>
<tp1:TrackPointExtension>
<tp1:hr>131</tp1:hr>
</tp1:TrackPointExtension>
</extensions>
</trkpt>
<trkpt lat="50.7019000" lon="7.0137710">
<ele>83.7830000</ele>
<time>2012-04-13T13:30:01Z</time>
<extensions>
<tp1:TrackPointExtension>
<tp1:hr>131</tp1:hr>
</tp1:TrackPointExtension>
</extensions>
</trkpt>
<trkpt lat="50.7025980" lon="7.0132480">
<ele>82.0270000</ele>
<time>2012-04-13T13:30:12Z</time>
<extensions>
<tp1:TrackPointExtension>
<tp1:hr>129</tp1:hr>
</tp1:TrackPointExtension>
</extensions>
</trkpt>
<trkpt lat="50.7033810" lon="7.0126330">
<ele>79.9210000</ele>
<time>2012-04-13T13:30:24Z</time>
<extensions>
<tp1:TrackPointExtension>
<tp1:hr>126</tp1:hr>
</tp1:TrackPointExtension>
</extensions>
</trkpt>
<trkpt lat="50.7036570" lon="7.0124080">
<ele>79.0120000</ele>
<time>2012-04-13T13:30:28Z</time>
<extensions>
<tp1:TrackPointExtension>
<tp1:hr>123</tp1:hr>
</tp1:TrackPointExtension>
</extensions>
</trkpt>
<trkpt lat="50.7039420" lon="7.0124070">
<ele>77.9260000</ele>
<time>2012-04-13T13:30:32Z</time>
<extensions>
<tp1:TrackPointExtension>
<tp1:hr>120</tp1:hr>
</tp1:TrackPointExtension>
</extensions>
</trkpt>
<trkpt lat="50.7041190" lon="7.0125900">
<ele>77.4340000</ele>
<time>2012-04-13T13:30:35Z</time>
<extensions>
<tp1:TrackPointExtension>
<tp1:hr>120</tp1:hr>
</tp1:TrackPointExtension>
</extensions>
</trkpt>
<trkpt lat="50.7041830" lon="7.0126470">
<ele>77.1590000</ele>
<time>2012-04-13T13:30:36Z</time>
<extensions>
<tp1:TrackPointExtension>
<tp1:hr>121</tp1:hr>
</tp1:TrackPointExtension>
</extensions>
</trkpt>
<trkpt lat="50.7043200" lon="7.0127520">
<ele>76.5120000</ele>
<time>2012-04-13T13:30:38Z</time>
<extensions>
<tp1:TrackPointExtension>
<tp1:hr>121</tp1:hr>
</tp1:TrackPointExtension>
</extensions>
</trkpt>
<trkpt lat="50.7046320" lon="7.0128290">
<ele>75.3110000</ele>
<time>2012-04-13T13:30:42Z</time>
<extensions>
<tp1:TrackPointExtension>
<tp1:hr>124</tp1:hr>
</tp1:TrackPointExtension>
</extensions>
</trkpt>
<trkpt lat="50.7047120" lon="7.0128130">
<ele>75.0280000</ele>
<time>2012-04-13T13:30:43Z</time>
<extensions>
<tp1:TrackPointExtension>
<tp1:hr>123</tp1:hr>
</tp1:TrackPointExtension>
</extensions>
</trkpt>
<trkpt lat="50.7054890" lon="7.0126000">
<ele>72.8700000</ele>
<time>2012-04-13T13:30:53Z</time>
<extensions>
<tp1:TrackPointExtension>
<tp1:hr>119</tp1:hr>
</tp1:TrackPointExtension>
</extensions>
</trkpt>
<trkpt lat="50.7058730" lon="7.0126120">
<ele>72.8310000</ele>
<time>2012-04-13T13:30:59Z</time>
<extensions>
<tp1:TrackPointExtension>
<tp1:hr>120</tp1:hr>
</tp1:TrackPointExtension>
</extensions>
</trkpt>
<trkpt lat="50.7060250" lon="7.0126180">
<ele>73.1890000</ele>
<time>2012-04-13T13:31:02Z</time>
<extensions>
<tp1:TrackPointExtension>
<tp1:hr>121</tp1:hr>
</tp1:TrackPointExtension>
</extensions>
</trkpt>
<trkpt lat="50.7063330" lon="7.0125090">
<ele>74.9710000</ele>
<time>2012-04-13T13:31:09Z</time>
<extensions>
<tp1:TrackPointExtension>
<tp1:hr>125</tp1:hr>
</tp1:TrackPointExtension>
</extensions>
</trkpt>
<trkpt lat="50.7065730" lon="7.0122490">
<ele>76.4150000</ele>
<time>2012-04-13T13:31:15Z</time>
<extensions>
<tp1:TrackPointExtension>
<tp1:hr>130</tp1:hr>
</tp1:TrackPointExtension>
</extensions>
</trkpt>
<trkpt lat="50.7068720" lon="7.0120020">
<ele>76.4180000</ele>
<time>2012-04-13T13:31:21Z</time>
<extensions>
<tp1:TrackPointExtension>
<tp1:hr>135</tp1:hr>
</tp1:TrackPointExtension>
</extensions>
</trkpt>
<trkpt lat="50.7073450" lon="7.0116560">
<ele>76.0670000</ele>
<time>2012-04-13T13:31:30Z</time>
<extensions>
<tp1:TrackPointExtension>
<tp1:hr>140</tp1:hr>
</tp1:TrackPointExtension>
</extensions>
</trkpt>
<trkpt lat="50.7076050" lon="7.0115250">
<ele>76.1580000</ele>
<time>2012-04-13T13:31:35Z</time>
<extensions>
<tp1:TrackPointExtension>
<tp1:hr>141</tp1:hr>
</tp1:TrackPointExtension>
</extensions>
</trkpt>
<trkpt lat="50.7079210" lon="7.0115360">
<ele>76.5640000</ele>
<time>2012-04-13T13:31:42Z</time>
<extensions>
<tp1:TrackPointExtension>
<tp1:hr>140</tp1:hr>
</tp1:TrackPointExtension>
</extensions>
</trkpt>
<trkpt lat="50.7081560" lon="7.0116440">
<ele>77.9110000</ele>
<time>2012-04-13T13:31:49Z</time>
<extensions>
<tp1:TrackPointExtension>
<tp1:hr>140</tp1:hr>
</tp1:TrackPointExtension>
</extensions>
</trkpt>
<trkpt lat="50.7084360" lon="7.0117600">
<ele>80.3170000</ele>
<time>2012-04-13T13:31:57Z</time>
<extensions>
<tp1:TrackPointExtension>
<tp1:hr>142</tp1:hr>
</tp1:TrackPointExtension>
</extensions>
</trkpt>
<trkpt lat="50.7087240" lon="7.0118430">
<ele>82.1350000</ele>
<time>2012-04-13T13:32:05Z</time>
<extensions>
<tp1:TrackPointExtension>
<tp1:hr>145</tp1:hr>
</tp1:TrackPointExtension>
</extensions>
</trkpt>
<trkpt lat="50.7090080" lon="7.0118950">
<ele>83.4180000</ele>
<time>2012-04-13T13:32:12Z</time>
<extensions>
<tp1:TrackPointExtension>
<tp1:hr>148</tp1:hr>
</tp1:TrackPointExtension>
</extensions>
</trkpt>
<trkpt lat="50.7095000" lon="7.0120000">
<ele>84.8340000</ele>
<time>2012-04-13T13:32:24Z</time>
<extensions>
<tp1:TrackPointExtension>
<tp1:hr>149</tp1:hr>
</tp1:TrackPointExtension>
</extensions>
</trkpt>
<trkpt lat="50.7098250" lon="7.0121010">
<ele>85.8220000</ele>
<time>2012-04-13T13:32:32Z</time>
<extensions>
<tp1:TrackPointExtension>
<tp1:hr>150</tp1:hr>
</tp1:TrackPointExtension>
</extensions>
</trkpt>
<trkpt lat="50.7102000" lon="7.0122280">
<ele>86.1820000</ele>
<time>2012-04-13T13:32:40Z</time>
<extensions>
<tp1:TrackPointExtension>
<tp1:hr>150</tp1:hr>
</tp1:TrackPointExtension>
</extensions>
</trkpt>
<trkpt lat="50.7105330" lon="7.0123180">
<ele>85.5120000</ele>
<time>2012-04-13T13:32:46Z</time>
<extensions>
<tp1:TrackPointExtension>
<tp1:hr>146</tp1:hr>
</tp1:TrackPointExtension>
</extensions>
</trkpt>
<trkpt lat="50.7108900" lon="7.0123740">
<ele>84.2200000</ele>
<time>2012-04-13T13:32:51Z</time>
<extensions>
<tp1:TrackPointExtension>
<tp1:hr>141</tp1:hr>
</tp1:TrackPointExtension>
</extensions>
</trkpt>
<trkpt lat="50.7112980" lon="7.0124450">
<ele>82.2940000</ele>
<time>2012-04-13T13:32:57Z</time>
<extensions>
<tp1:TrackPointExtension>
<tp1:hr>135</tp1:hr>
</tp1:TrackPointExtension>
</extensions>
</trkpt>
<trkpt lat="50.7116310" lon="7.0125720">
<ele>81.9230000</ele>
<time>2012-04-13T13:33:04Z</time>
<extensions>
<tp1:TrackPointExtension>
<tp1:hr>131</tp1:hr>
</tp1:TrackPointExtension>
</extensions>
</trkpt>
<trkpt lat="50.7118550" lon="7.0126520">
<ele>82.4520000</ele>
<time>2012-04-13T13:33:10Z</time>
<extensions>
<tp1:TrackPointExtension>
<tp1:hr>130</tp1:hr>
</tp1:TrackPointExtension>
</extensions>
</trkpt>
<trkpt lat="50.7120710" lon="7.0126080">
<ele>83.8450000</ele>
<time>2012-04-13T13:33:16Z</time>
<extensions>
<tp1:TrackPointExtension>
<tp1:hr>132</tp1:hr>
</tp1:TrackPointExtension>
</extensions>
</trkpt>
<trkpt lat="50.7122640" lon="7.0124540">
<ele>85.2430000</ele>
<time>2012-04-13T13:33:22Z</time>
<extensions>
<tp1:TrackPointExtension>
<tp1:hr>137</tp1:hr>
</tp1:TrackPointExtension>
</extensions>
</trkpt>
<trkpt lat="50.7124700" lon="7.0122570">
<ele>86.7780000</ele>
<time>2012-04-13T13:33:29Z</time>
<extensions>
<tp1:TrackPointExtension>
<tp1:hr>143</tp1:hr>
</tp1:TrackPointExtension>
</extensions>
</trkpt>
<trkpt lat="50.7126890" lon="7.0120610">
<ele>88.2320000</ele>
<time>2012-04-13T13:33:37Z</time>
<extensions>
<tp1:TrackPointExtension>
<tp1:hr>147</tp1:hr>
</tp1:TrackPointExtension>
</extensions>
</trkpt>
<trkpt lat="50.7128800" lon="7.0118450">
<ele>89.8290000</ele>
<time>2012-04-13T13:33:45Z</time>
<extensions>
<tp1:TrackPointExtension>
<tp1:hr>149</tp1:hr>
</tp1:TrackPointExtension>
</extensions>
</trkpt>
<trkpt lat="50.7131140" lon="7.0117120">
<ele>91.0470000</ele>
<time>2012-04-13T13:33:53Z</time>
<extensions>
<tp1:TrackPointExtension>
<tp1:hr>151</tp1:hr>
</tp1:TrackPointExtension>
</extensions>
</trkpt>
<trkpt lat="50.7132900" lon="7.0116270">
<ele>91.7010000</ele>
<time>2012-04-13T13:33:59Z</time>
<extensions>
<tp1:TrackPointExtension>
<tp1:hr>152</tp1:hr>
</tp1:TrackPointExtension>
</extensions>
</trkpt>
<trkpt lat="50.7135780" lon="7.0115340">
<ele>93.3800000</ele>
<time>2012-04-13T13:34:08Z</time>
<extensions>
<tp1:TrackPointExtension>
<tp1:hr>152</tp1:hr>
</tp1:TrackPointExtension>
</extensions>
</trkpt>
<trkpt lat="50.7137440" lon="7.0114740">
<ele>94.6900000</ele>
<time>2012-04-13T13:34:14Z</time>
<extensions>
<tp1:TrackPointExtension>
<tp1:hr>151</tp1:hr>
</tp1:TrackPointExtension>
</extensions>
</trkpt>
<trkpt lat="50.7139740" lon="7.0113860">
<ele>96.5000000</ele>
<time>2012-04-13T13:34:22Z</time>
<extensions>
<tp1:TrackPointExtension>
<tp1:hr>152</tp1:hr>
</tp1:TrackPointExtension>
</extensions>
</trkpt>
<trkpt lat="50.7141950" lon="7.0113000">
<ele>98.1280000</ele>
<time>2012-04-13T13:34:30Z</time>
<extensions>
<tp1:TrackPointExtension>
<tp1:hr>154</tp1:hr>
</tp1:TrackPointExtension>
</extensions>
</trkpt>
<trkpt lat="50.7143720" lon="7.0112180">
<ele>100.1390000</ele>
<time>2012-04-13T13:34:37Z</time>
<extensions>
<tp1:TrackPointExtension>
<tp1:hr>156</tp1:hr>
</tp1:TrackPointExtension>
</extensions>
</trkpt>
<trkpt lat="50.7145380" lon="7.0111460">
<ele>102.2340000</ele>
<time>2012-04-13T13:34:44Z</time>
<extensions>
<tp1:TrackPointExtension>
<tp1:hr>159</tp1:hr>
</tp1:TrackPointExtension>
</extensions>
</trkpt>
<trkpt lat="50.7146850" lon="7.0111080">
<ele>103.6240000</ele>
<time>2012-04-13T13:34:51Z</time>
<extensions>
<tp1:TrackPointExtension>
<tp1:hr>158</tp1:hr>
</tp1:TrackPointExtension>
</extensions>
</trkpt>
<trkpt lat="50.7148430" lon="7.0110930">
<ele>104.8670000</ele>
<time>2012-04-13T13:34:58Z</time>
<extensions>
<tp1:TrackPointExtension>
<tp1:hr>157</tp1:hr>
</tp1:TrackPointExtension>
</extensions>
</trkpt>
<trkpt lat="50.7150260" lon="7.0111020">
<ele>106.3380000</ele>
<time>2012-04-13T13:35:06Z</time>
<extensions>
<tp1:TrackPointExtension>
<tp1:hr>157</tp1:hr>
</tp1:TrackPointExtension>
</extensions>
</trkpt>
<trkpt lat="50.7151840" lon="7.0111240">
<ele>107.4650000</ele>
<time>2012-04-13T13:35:13Z</time>
<extensions>
<tp1:TrackPointExtension>
<tp1:hr>157</tp1:hr>
</tp1:TrackPointExtension>
</extensions>
</trkpt>
<trkpt lat="50.7153730" lon="7.0112420">
<ele>110.3500000</ele>
<time>2012-04-13T13:35:22Z</time>
<extensions>
<tp1:TrackPointExtension>
<tp1:hr>159</tp1:hr>
</tp1:TrackPointExtension>
</extensions>
</trkpt>
<trkpt lat="50.7155150" lon="7.0113140">
<ele>112.3100000</ele>
<time>2012-04-13T13:35:28Z</time>
<extensions>
<tp1:TrackPointExtension>
<tp1:hr>161</tp1:hr>
</tp1:TrackPointExtension>
</extensions>
</trkpt>
<trkpt lat="50.7157610" lon="7.0114340">
<ele>113.7140000</ele>
<time>2012-04-13T13:35:35Z</time>
<extensions>
<tp1:TrackPointExtension>
<tp1:hr>162</tp1:hr>
</tp1:TrackPointExtension>
</extensions>
</trkpt>
<trkpt lat="50.7160400" lon="7.0115880">
<ele>114.0070000</ele>
<time>2012-04-13T13:35:43Z</time>
<extensions>
<tp1:TrackPointExtension>
<tp1:hr>162</tp1:hr>
</tp1:TrackPointExtension>
</extensions>
</trkpt>
<trkpt lat="50.7162160" lon="7.0116970">
<ele>114.8480000</ele>
<time>2012-04-13T13:35:49Z</time>
<extensions>
<tp1:TrackPointExtension>
<tp1:hr>162</tp1:hr>
</tp1:TrackPointExtension>
</extensions>
</trkpt>
<trkpt lat="50.7164210" lon="7.0117520">
<ele>116.0850000</ele>
<time>2012-04-13T13:35:55Z</time>
<extensions>
<tp1:TrackPointExtension>
<tp1:hr>161</tp1:hr>
</tp1:TrackPointExtension>
</extensions>
</trkpt>
<trkpt lat="50.7166570" lon="7.0117460">
<ele>117.2830000</ele>
<time>2012-04-13T13:36:02Z</time>
<extensions>
<tp1:TrackPointExtension>
<tp1:hr>161</tp1:hr>
</tp1:TrackPointExtension>
</extensions>
</trkpt>
<trkpt lat="50.7167670" lon="7.0118750">
<ele>117.7600000</ele>
<time>2012-04-13T13:36:06Z</time>
<extensions>
<tp1:TrackPointExtension>
<tp1:hr>160</tp1:hr>
</tp1:TrackPointExtension>
</extensions>
</trkpt>
<trkpt lat="50.7169150" lon="7.0122570">
<ele>117.8810000</ele>
<time>2012-04-13T13:36:13Z</time>
<extensions>
<tp1:TrackPointExtension>
<tp1:hr>158</tp1:hr>
</tp1:TrackPointExtension>
</extensions>
</trkpt>
<trkpt lat="50.7171560" lon="7.0126020">
<ele>116.9190000</ele>
<time>2012-04-13T13:36:19Z</time>
<extensions>
<tp1:TrackPointExtension>
<tp1:hr>154</tp1:hr>
</tp1:TrackPointExtension>
</extensions>
</trkpt>
<trkpt lat="50.7174230" lon="7.0129850">
<ele>114.4300000</ele>
<time>2012-04-13T13:36:24Z</time>
<extensions>
<tp1:TrackPointExtension>
<tp1:hr>148</tp1:hr>
</tp1:TrackPointExtension>
</extensions>
</trkpt>
<trkpt lat="50.7175370" lon="7.0130860">
<ele>113.7810000</ele>
<time>2012-04-13T13:36:26Z</time>
<extensions>
<tp1:TrackPointExtension>
<tp1:hr>148</tp1:hr>
</tp1:TrackPointExtension>
</extensions>
</trkpt>
<trkpt lat="50.7177090" lon="7.0132090">
<ele>112.6070000</ele>
<time>2012-04-13T13:36:29Z</time>
<extensions>
<tp1:TrackPointExtension>
<tp1:hr>139</tp1:hr>
</tp1:TrackPointExtension>
</extensions>
</trkpt>
<trkpt lat="50.7177540" lon="7.0132760">
<ele>112.3580000</ele>
<time>2012-04-13T13:36:30Z</time>
<extensions>
<tp1:TrackPointExtension>
<tp1:hr>138</tp1:hr>
</tp1:TrackPointExtension>
</extensions>
</trkpt>
<trkpt lat="50.7179240" lon="7.0133890">
<ele>112.2980000</ele>
<time>2012-04-13T13:36:34Z</time>
<extensions>
<tp1:TrackPointExtension>
<tp1:hr>135</tp1:hr>
</tp1:TrackPointExtension>
</extensions>
</trkpt>
<trkpt lat="50.7179630" lon="7.0133360">
<ele>112.3540000</ele>
<time>2012-04-13T13:36:35Z</time>
<extensions>
<tp1:TrackPointExtension>
<tp1:hr>135</tp1:hr>
</tp1:TrackPointExtension>
</extensions>
</trkpt>
<trkpt lat="50.7182340" lon="7.0129030">
<ele>113.6010000</ele>
<time>2012-04-13T13:36:44Z</time>
<extensions>
<tp1:TrackPointExtension>
<tp1:hr>134</tp1:hr>
</tp1:TrackPointExtension>
</extensions>
</trkpt>
<trkpt lat="50.7183610" lon="7.0127610">
<ele>114.3630000</ele>
<time>2012-04-13T13:36:48Z</time>
<extensions>
<tp1:TrackPointExtension>
<tp1:hr>135</tp1:hr>
</tp1:TrackPointExtension>
</extensions>
</trkpt>
<trkpt lat="50.7186070" lon="7.0124590">
<ele>115.3900000</ele>
<time>2012-04-13T13:36:56Z</time>
<extensions>
<tp1:TrackPointExtension>
<tp1:hr>141</tp1:hr>
</tp1:TrackPointExtension>
</extensions>
</trkpt>
<trkpt lat="50.7188080" lon="7.0123460">
<ele>116.9740000</ele>
<time>2012-04-13T13:37:02Z</time>
<extensions>
<tp1:TrackPointExtension>
<tp1:hr>143</tp1:hr>
</tp1:TrackPointExtension>
</extensions>
</trkpt>
<trkpt lat="50.7189100" lon="7.0123880">
<ele>117.8330000</ele>
<time>2012-04-13T13:37:05Z</time>
<extensions>
<tp1:TrackPointExtension>
<tp1:hr>144</tp1:hr>
</tp1:TrackPointExtension>
</extensions>
</trkpt>
<trkpt lat="50.7191140" lon="7.0126310">
<ele>119.3500000</ele>
<time>2012-04-13T13:37:11Z</time>
<extensions>
<tp1:TrackPointExtension>
<tp1:hr>149</tp1:hr>
</tp1:TrackPointExtension>
</extensions>
</trkpt>
<trkpt lat="50.7194490" lon="7.0129810">
<ele>120.0300000</ele>
<time>2012-04-13T13:37:20Z</time>
<extensions>
<tp1:TrackPointExtension>
<tp1:hr>152</tp1:hr>
</tp1:TrackPointExtension>
</extensions>
</trkpt>
<trkpt lat="50.7197630" lon="7.0132490">
<ele>120.5530000</ele>
<time>2012-04-13T13:37:28Z</time>
<extensions>
<tp1:TrackPointExtension>
<tp1:hr>152</tp1:hr>
</tp1:TrackPointExtension>
</extensions>
</trkpt>
<trkpt lat="50.7199610" lon="7.0134040">
<ele>120.8880000</ele>
<time>2012-04-13T13:37:33Z</time>
<extensions>
<tp1:TrackPointExtension>
<tp1:hr>152</tp1:hr>
</tp1:TrackPointExtension>
</extensions>
</trkpt>
<trkpt lat="50.7201140" lon="7.0135460">
<ele>121.1120000</ele>
<time>2012-04-13T13:37:37Z</time>
<extensions>
<tp1:TrackPointExtension>
<tp1:hr>150</tp1:hr>
</tp1:TrackPointExtension>
</extensions>
</trkpt>
<trkpt lat="50.7204470" lon="7.0137840">
<ele>121.3740000</ele>
<time>2012-04-13T13:37:45Z</time>
<extensions>
<tp1:TrackPointExtension>
<tp1:hr>144</tp1:hr>
</tp1:TrackPointExtension>
</extensions>
</trkpt>
<trkpt lat="50.7207460" lon="7.0140100">
<ele>121.4360000</ele>
<time>2012-04-13T13:37:52Z</time>
<extensions>
<tp1:TrackPointExtension>
<tp1:hr>139</tp1:hr>
</tp1:TrackPointExtension>
</extensions>
</trkpt>
<trkpt lat="50.7210660" lon="7.0141610">
<ele>121.4980000</ele>
<time>2012-04-13T13:37:59Z</time>
<extensions>
<tp1:TrackPointExtension>
<tp1:hr>134</tp1:hr>
</tp1:TrackPointExtension>
</extensions>
</trkpt>
<trkpt lat="50.7214480" lon="7.0142060">
<ele>121.5660000</ele>
<time>2012-04-13T13:38:07Z</time>
<extensions>
<tp1:TrackPointExtension>
<tp1:hr>131</tp1:hr>
</tp1:TrackPointExtension>
</extensions>
</trkpt>
<trkpt lat="50.7219740" lon="7.0142340">
<ele>121.7420000</ele>
<time>2012-04-13T13:38:18Z</time>
<extensions>
<tp1:TrackPointExtension>
<tp1:hr>131</tp1:hr>
</tp1:TrackPointExtension>
</extensions>
</trkpt>
<trkpt lat="50.7223580" lon="7.0143210">
<ele>122.1630000</ele>
<time>2012-04-13T13:38:26Z</time>
<extensions>
<tp1:TrackPointExtension>
<tp1:hr>130</tp1:hr>
</tp1:TrackPointExtension>
</extensions>
</trkpt>
<trkpt lat="50.7227460" lon="7.0145190">
<ele>122.0980000</ele>
<time>2012-04-13T13:38:34Z</time>
<extensions>
<tp1:TrackPointExtension>
<tp1:hr>130</tp1:hr>
</tp1:TrackPointExtension>
</extensions>
</trkpt>
<trkpt lat="50.7231340" lon="7.0146050">
<ele>121.4580000</ele>
<time>2012-04-13T13:38:41Z</time>
<extensions>
<tp1:TrackPointExtension>
<tp1:hr>127</tp1:hr>
</tp1:TrackPointExtension>
</extensions>
</trkpt>
<trkpt lat="50.7233940" lon="7.0146420">
<ele>120.2660000</ele>
<time>2012-04-13T13:38:45Z</time>
<extensions>
<tp1:TrackPointExtension>
<tp1:hr>124</tp1:hr>
</tp1:TrackPointExtension>
</extensions>
</trkpt>
<trkpt lat="50.7235080" lon="7.0145070">
<ele>118.9050000</ele>
<time>2012-04-13T13:38:48Z</time>
<extensions>
<tp1:TrackPointExtension>
<tp1:hr>123</tp1:hr>
</tp1:TrackPointExtension>
</extensions>
</trkpt>
<trkpt lat="50.7234440" lon="7.0143330">
<ele>117.9890000</ele>
<time>2012-04-13T13:38:51Z</time>
<extensions>
<tp1:TrackPointExtension>
<tp1:hr>122</tp1:hr>
</tp1:TrackPointExtension>
</extensions>
</trkpt>
<trkpt lat="50.7234580" lon="7.0142170">
<ele>117.8870000</ele>
<time>2012-04-13T13:38:54Z</time>
<extensions>
<tp1:TrackPointExtension>
<tp1:hr>122</tp1:hr>
</tp1:TrackPointExtension>
</extensions>
</trkpt>
</trkseg>
</trk>
</gpx>
